<?xml version="1.0" encoding="UTF-8" standalone="no" ?>
<gpx xmlns="http://www.topografix.com/GPX/1/1" xmlns:xsi="http://www.w3.org/2001/XMLSchema-instance" xsi:schemaLocation="http://www.topografix.com/GPX/1/1 http://www.topografix.com/GPX/1/1/gpx.xsd" version="1.1" creator="VisuGPX - https://www.visugpx.com">
  <metadata>
    <name>22Fev-ski-la plagne/les arcs</name>
    <desc><![CDATA[Itinéraire sur Paradiski le 22 Février 2012
Départ/Arrivée : Aime La Plagne]]></desc>
  </metadata>
  <trk>
    <name><![CDATA[22Fev-ski-la plagne]]></name>
    <trkseg>
      <trkpt lat="45.51232" lon="6.66689">
        <ele>1962.2</ele>
        <time>2012-02-22T08:45:35Z</time>
      </trkpt>
      <trkpt lat="45.51245" lon="6.66685">
        <ele>1961.8</ele>
        <time>2012-02-22T08:45:38Z</time>
      </trkpt>
      <trkpt lat="45.51292" lon="6.66654">
        <ele>1955.6</ele>
        <time>2012-02-22T08:45:48Z</time>
      </trkpt>
      <trkpt lat="45.51311" lon="6.66649">
        <ele>1954.7</ele>
        <time>2012-02-22T08:45:52Z</time>
      </trkpt>
      <trkpt lat="45.51315" lon="6.66649">
        <ele>1954.5</ele>
        <time>2012-02-22T08:45:53Z</time>
      </trkpt>
      <trkpt lat="45.51317" lon="6.6665">
        <ele>1954</ele>
        <time>2012-02-22T08:45:54Z</time>
      </trkpt>
      <trkpt lat="45.51319" lon="6.66654">
        <ele>1953</ele>
        <time>2012-02-22T08:46:01Z</time>
      </trkpt>
      <trkpt lat="45.51318" lon="6.66657">
        <ele>1953</ele>
        <time>2012-02-22T08:46:02Z</time>
      </trkpt>
      <trkpt lat="45.51317" lon="6.66662">
        <ele>1953</ele>
        <time>2012-02-22T08:46:03Z</time>
      </trkpt>
      <trkpt lat="45.51318" lon="6.66669">
        <ele>1952.2</ele>
        <time>2012-02-22T08:46:04Z</time>
      </trkpt>
      <trkpt lat="45.51321" lon="6.66678">
        <ele>1951.6</ele>
        <time>2012-02-22T08:46:05Z</time>
      </trkpt>
      <trkpt lat="45.51328" lon="6.66684">
        <ele>1951.1</ele>
        <time>2012-02-22T08:46:06Z</time>
      </trkpt>
      <trkpt lat="45.51342" lon="6.66693">
        <ele>1948.1</ele>
        <time>2012-02-22T08:46:08Z</time>
      </trkpt>
      <trkpt lat="45.51347" lon="6.66703">
        <ele>1947.2</ele>
        <time>2012-02-22T08:46:09Z</time>
      </trkpt>
      <trkpt lat="45.51351" lon="6.66714">
        <ele>1945.5</ele>
        <time>2012-02-22T08:46:10Z</time>
      </trkpt>
      <trkpt lat="45.51353" lon="6.66742">
        <ele>1943.4</ele>
        <time>2012-02-22T08:46:12Z</time>
      </trkpt>
      <trkpt lat="45.51357" lon="6.66755">
        <ele>1940.6</ele>
        <time>2012-02-22T08:46:13Z</time>
      </trkpt>
      <trkpt lat="45.51365" lon="6.66764">
        <ele>1938.5</ele>
        <time>2012-02-22T08:46:14Z</time>
      </trkpt>
      <trkpt lat="45.51375" lon="6.66773">
        <ele>1936.9</ele>
        <time>2012-02-22T08:46:15Z</time>
      </trkpt>
      <trkpt lat="45.51382" lon="6.66786">
        <ele>1933.8</ele>
        <time>2012-02-22T08:46:16Z</time>
      </trkpt>
      <trkpt lat="45.51386" lon="6.66802">
        <ele>1931.5</ele>
        <time>2012-02-22T08:46:17Z</time>
      </trkpt>
      <trkpt lat="45.51392" lon="6.66816">
        <ele>1929.8</ele>
        <time>2012-02-22T08:46:18Z</time>
      </trkpt>
      <trkpt lat="45.51401" lon="6.66824">
        <ele>1928.4</ele>
        <time>2012-02-22T08:46:19Z</time>
      </trkpt>
      <trkpt lat="45.51412" lon="6.66827">
        <ele>1925.4</ele>
        <time>2012-02-22T08:46:20Z</time>
      </trkpt>
      <trkpt lat="45.51422" lon="6.66824">
        <ele>1923.1</ele>
        <time>2012-02-22T08:46:21Z</time>
      </trkpt>
      <trkpt lat="45.5144" lon="6.66814">
        <ele>1919.1</ele>
        <time>2012-02-22T08:46:23Z</time>
      </trkpt>
      <trkpt lat="45.5145" lon="6.66816">
        <ele>1917.4</ele>
        <time>2012-02-22T08:46:24Z</time>
      </trkpt>
      <trkpt lat="45.51459" lon="6.66826">
        <ele>1916.1</ele>
        <time>2012-02-22T08:46:25Z</time>
      </trkpt>
      <trkpt lat="45.51462" lon="6.66841">
        <ele>1913.5</ele>
        <time>2012-02-22T08:46:26Z</time>
      </trkpt>
      <trkpt lat="45.51463" lon="6.66855">
        <ele>1911.4</ele>
        <time>2012-02-22T08:46:27Z</time>
      </trkpt>
      <trkpt lat="45.51466" lon="6.66867">
        <ele>1909.9</ele>
        <time>2012-02-22T08:46:28Z</time>
      </trkpt>
      <trkpt lat="45.51473" lon="6.66875">
        <ele>1907.8</ele>
        <time>2012-02-22T08:46:29Z</time>
      </trkpt>
      <trkpt lat="45.51479" lon="6.66879">
        <ele>1906.2</ele>
        <time>2012-02-22T08:46:30Z</time>
      </trkpt>
      <trkpt lat="45.51485" lon="6.66882">
        <ele>1905</ele>
        <time>2012-02-22T08:46:31Z</time>
      </trkpt>
      <trkpt lat="45.5149" lon="6.66882">
        <ele>1903.6</ele>
        <time>2012-02-22T08:46:32Z</time>
      </trkpt>
      <trkpt lat="45.51495" lon="6.66884">
        <ele>1902.6</ele>
        <time>2012-02-22T08:46:33Z</time>
      </trkpt>
      <trkpt lat="45.51498" lon="6.6689">
        <ele>1901.2</ele>
        <time>2012-02-22T08:46:35Z</time>
      </trkpt>
      <trkpt lat="45.51499" lon="6.66892">
        <ele>1900.7</ele>
        <time>2012-02-22T08:46:36Z</time>
      </trkpt>
      <trkpt lat="45.515" lon="6.66892">
        <ele>1900.3</ele>
        <time>2012-02-22T08:46:37Z</time>
      </trkpt>
      <trkpt lat="45.51503" lon="6.66892">
        <ele>1899.8</ele>
        <time>2012-02-22T08:46:39Z</time>
      </trkpt>
      <trkpt lat="45.51506" lon="6.6689">
        <ele>1899.3</ele>
        <time>2012-02-22T08:46:47Z</time>
      </trkpt>
      <trkpt lat="45.51507" lon="6.6689">
        <ele>1899.2</ele>
        <time>2012-02-22T08:46:48Z</time>
      </trkpt>
      <trkpt lat="45.51512" lon="6.66885">
        <ele>1898.7</ele>
        <time>2012-02-22T08:47:01Z</time>
      </trkpt>
      <trkpt lat="45.51512" lon="6.66885">
        <ele>1898.8</ele>
        <time>2012-02-22T08:47:02Z</time>
      </trkpt>
      <trkpt lat="45.51513" lon="6.66884">
        <ele>1898.9</ele>
        <time>2012-02-22T08:47:03Z</time>
      </trkpt>
      <trkpt lat="45.51514" lon="6.66883">
        <ele>1898.8</ele>
        <time>2012-02-22T08:47:04Z</time>
      </trkpt>
      <trkpt lat="45.51514" lon="6.66883">
        <ele>1898.7</ele>
        <time>2012-02-22T08:47:05Z</time>
      </trkpt>
      <trkpt lat="45.51515" lon="6.66882">
        <ele>1898.7</ele>
        <time>2012-02-22T08:47:06Z</time>
      </trkpt>
      <trkpt lat="45.51515" lon="6.6688">
        <ele>1898.9</ele>
        <time>2012-02-22T08:47:07Z</time>
      </trkpt>
      <trkpt lat="45.51516" lon="6.66879">
        <ele>1899</ele>
        <time>2012-02-22T08:47:08Z</time>
      </trkpt>
      <trkpt lat="45.51516" lon="6.66878">
        <ele>1899.1</ele>
        <time>2012-02-22T08:47:09Z</time>
      </trkpt>
      <trkpt lat="45.51514" lon="6.66868">
        <ele>1899</ele>
        <time>2012-02-22T08:47:25Z</time>
      </trkpt>
      <trkpt lat="45.51513" lon="6.66868">
        <ele>1897.8</ele>
        <time>2012-02-22T08:47:29Z</time>
      </trkpt>
      <trkpt lat="45.51512" lon="6.66867">
        <ele>1897.5</ele>
        <time>2012-02-22T08:47:30Z</time>
      </trkpt>
      <trkpt lat="45.51509" lon="6.66864">
        <ele>1897.4</ele>
        <time>2012-02-22T08:47:33Z</time>
      </trkpt>
      <trkpt lat="45.51507" lon="6.66863">
        <ele>1897.6</ele>
        <time>2012-02-22T08:47:34Z</time>
      </trkpt>
      <trkpt lat="45.515" lon="6.66855">
        <ele>1898.9</ele>
        <time>2012-02-22T08:47:39Z</time>
      </trkpt>
      <trkpt lat="45.51499" lon="6.66854">
        <ele>1899.3</ele>
        <time>2012-02-22T08:47:40Z</time>
      </trkpt>
      <trkpt lat="45.51486" lon="6.66839">
        <ele>1904.6</ele>
        <time>2012-02-22T08:47:50Z</time>
      </trkpt>
      <trkpt lat="45.51484" lon="6.66837">
        <ele>1905.3</ele>
        <time>2012-02-22T08:47:51Z</time>
      </trkpt>
      <trkpt lat="45.51482" lon="6.66834">
        <ele>1907.3</ele>
        <time>2012-02-22T08:47:53Z</time>
      </trkpt>
      <trkpt lat="45.51479" lon="6.66831">
        <ele>1908.6</ele>
        <time>2012-02-22T08:47:55Z</time>
      </trkpt>
      <trkpt lat="45.51478" lon="6.6683">
        <ele>1909.1</ele>
        <time>2012-02-22T08:47:56Z</time>
      </trkpt>
      <trkpt lat="45.51478" lon="6.6683">
        <ele>1909.4</ele>
        <time>2012-02-22T08:47:57Z</time>
      </trkpt>
      <trkpt lat="45.51477" lon="6.66829">
        <ele>1910.7</ele>
        <time>2012-02-22T08:47:58Z</time>
      </trkpt>
      <trkpt lat="45.51476" lon="6.66828">
        <ele>1911.6</ele>
        <time>2012-02-22T08:47:59Z</time>
      </trkpt>
      <trkpt lat="45.51447" lon="6.66796">
        <ele>1921.1</ele>
        <time>2012-02-22T08:48:20Z</time>
      </trkpt>
      <trkpt lat="45.51438" lon="6.66787">
        <ele>1923.8</ele>
        <time>2012-02-22T08:48:26Z</time>
      </trkpt>
      <trkpt lat="45.51437" lon="6.66786">
        <ele>1924.8</ele>
        <time>2012-02-22T08:48:27Z</time>
      </trkpt>
      <trkpt lat="45.51436" lon="6.66784">
        <ele>1925.5</ele>
        <time>2012-02-22T08:48:28Z</time>
      </trkpt>
      <trkpt lat="45.51433" lon="6.6678">
        <ele>1927</ele>
        <time>2012-02-22T08:48:31Z</time>
      </trkpt>
      <trkpt lat="45.51393" lon="6.66741">
        <ele>1937.1</ele>
        <time>2012-02-22T08:48:59Z</time>
      </trkpt>
      <trkpt lat="45.51392" lon="6.6674">
        <ele>1937.9</ele>
        <time>2012-02-22T08:49:00Z</time>
      </trkpt>
      <trkpt lat="45.51383" lon="6.66731">
        <ele>1940.4</ele>
        <time>2012-02-22T08:49:06Z</time>
      </trkpt>
      <trkpt lat="45.51373" lon="6.66718">
        <ele>1944.9</ele>
        <time>2012-02-22T08:49:15Z</time>
      </trkpt>
      <trkpt lat="45.51372" lon="6.66718">
        <ele>1945.4</ele>
        <time>2012-02-22T08:49:16Z</time>
      </trkpt>
      <trkpt lat="45.51371" lon="6.66717">
        <ele>1945.8</ele>
        <time>2012-02-22T08:49:17Z</time>
      </trkpt>
      <trkpt lat="45.51361" lon="6.66706">
        <ele>1949.7</ele>
        <time>2012-02-22T08:49:25Z</time>
      </trkpt>
      <trkpt lat="45.5136" lon="6.66704">
        <ele>1950</ele>
        <time>2012-02-22T08:49:26Z</time>
      </trkpt>
      <trkpt lat="45.51359" lon="6.66704">
        <ele>1950.3</ele>
        <time>2012-02-22T08:49:27Z</time>
      </trkpt>
      <trkpt lat="45.51273" lon="6.66616">
        <ele>1976.3</ele>
        <time>2012-02-22T08:50:30Z</time>
      </trkpt>
      <trkpt lat="45.51271" lon="6.66614">
        <ele>1976.9</ele>
        <time>2012-02-22T08:50:31Z</time>
      </trkpt>
      <trkpt lat="45.51238" lon="6.66581">
        <ele>1985.9</ele>
        <time>2012-02-22T08:50:55Z</time>
      </trkpt>
      <trkpt lat="45.51198" lon="6.66541">
        <ele>2001.9</ele>
        <time>2012-02-22T08:51:25Z</time>
      </trkpt>
      <trkpt lat="45.51197" lon="6.6654">
        <ele>2002.8</ele>
        <time>2012-02-22T08:51:26Z</time>
      </trkpt>
      <trkpt lat="45.51189" lon="6.66532">
        <ele>2005.8</ele>
        <time>2012-02-22T08:51:32Z</time>
      </trkpt>
      <trkpt lat="45.51188" lon="6.66531">
        <ele>2006.2</ele>
        <time>2012-02-22T08:51:33Z</time>
      </trkpt>
      <trkpt lat="45.5117" lon="6.66511">
        <ele>2009.7</ele>
        <time>2012-02-22T08:51:46Z</time>
      </trkpt>
      <trkpt lat="45.5115" lon="6.66495">
        <ele>2013.9</ele>
        <time>2012-02-22T08:52:00Z</time>
      </trkpt>
      <trkpt lat="45.51127" lon="6.6647">
        <ele>2022.7</ele>
        <time>2012-02-22T08:52:19Z</time>
      </trkpt>
      <trkpt lat="45.51123" lon="6.66466">
        <ele>2024.4</ele>
        <time>2012-02-22T08:52:22Z</time>
      </trkpt>
      <trkpt lat="45.51122" lon="6.66465">
        <ele>2025</ele>
        <time>2012-02-22T08:52:23Z</time>
      </trkpt>
      <trkpt lat="45.51122" lon="6.66464">
        <ele>2025.5</ele>
        <time>2012-02-22T08:52:24Z</time>
      </trkpt>
      <trkpt lat="45.51115" lon="6.66457">
        <ele>2027.4</ele>
        <time>2012-02-22T08:52:29Z</time>
      </trkpt>
      <trkpt lat="45.51085" lon="6.66422">
        <ele>2031.1</ele>
        <time>2012-02-22T08:52:52Z</time>
      </trkpt>
      <trkpt lat="45.51084" lon="6.66421">
        <ele>2031.2</ele>
        <time>2012-02-22T08:52:53Z</time>
      </trkpt>
      <trkpt lat="45.51063" lon="6.66397">
        <ele>2032.8</ele>
        <time>2012-02-22T08:53:12Z</time>
      </trkpt>
      <trkpt lat="45.51062" lon="6.66396">
        <ele>2032.8</ele>
        <time>2012-02-22T08:53:13Z</time>
      </trkpt>
      <trkpt lat="45.51059" lon="6.66393">
        <ele>2032.7</ele>
        <time>2012-02-22T08:53:16Z</time>
      </trkpt>
      <trkpt lat="45.51057" lon="6.66392">
        <ele>2032.6</ele>
        <time>2012-02-22T08:53:17Z</time>
      </trkpt>
      <trkpt lat="45.51054" lon="6.66392">
        <ele>2032.5</ele>
        <time>2012-02-22T08:53:18Z</time>
      </trkpt>
      <trkpt lat="45.51051" lon="6.66393">
        <ele>2032.5</ele>
        <time>2012-02-22T08:53:19Z</time>
      </trkpt>
      <trkpt lat="45.51092" lon="6.66468">
        <ele>2067</ele>
        <time>2012-02-22T09:05:59Z</time>
      </trkpt>
      <trkpt lat="45.51088" lon="6.66473">
        <ele>2066</ele>
        <time>2012-02-22T09:06:00Z</time>
      </trkpt>
      <trkpt lat="45.51076" lon="6.66484">
        <ele>2063.2</ele>
        <time>2012-02-22T09:06:04Z</time>
      </trkpt>
      <trkpt lat="45.51075" lon="6.66486">
        <ele>2062.8</ele>
        <time>2012-02-22T09:06:05Z</time>
      </trkpt>
      <trkpt lat="45.51075" lon="6.66487">
        <ele>2062.3</ele>
        <time>2012-02-22T09:06:06Z</time>
      </trkpt>
      <trkpt lat="45.51074" lon="6.66487">
        <ele>2062</ele>
        <time>2012-02-22T09:06:07Z</time>
      </trkpt>
      <trkpt lat="45.51074" lon="6.66488">
        <ele>2061.8</ele>
        <time>2012-02-22T09:06:08Z</time>
      </trkpt>
      <trkpt lat="45.51074" lon="6.66489">
        <ele>2061.7</ele>
        <time>2012-02-22T09:06:09Z</time>
      </trkpt>
      <trkpt lat="45.51072" lon="6.66496">
        <ele>2061.1</ele>
        <time>2012-02-22T09:06:13Z</time>
      </trkpt>
      <trkpt lat="45.51071" lon="6.66499">
        <ele>2061.4</ele>
        <time>2012-02-22T09:06:15Z</time>
      </trkpt>
      <trkpt lat="45.51071" lon="6.665">
        <ele>2061.3</ele>
        <time>2012-02-22T09:06:16Z</time>
      </trkpt>
      <trkpt lat="45.51071" lon="6.66502">
        <ele>2061.3</ele>
        <time>2012-02-22T09:06:17Z</time>
      </trkpt>
      <trkpt lat="45.51072" lon="6.66503">
        <ele>2061.3</ele>
        <time>2012-02-22T09:06:18Z</time>
      </trkpt>
      <trkpt lat="45.51072" lon="6.66505">
        <ele>2061.9</ele>
        <time>2012-02-22T09:06:19Z</time>
      </trkpt>
      <trkpt lat="45.51073" lon="6.66507">
        <ele>2062.4</ele>
        <time>2012-02-22T09:06:20Z</time>
      </trkpt>
      <trkpt lat="45.51066" lon="6.66522">
        <ele>2076.8</ele>
        <time>2012-02-22T09:10:28Z</time>
      </trkpt>
      <trkpt lat="45.51063" lon="6.66524">
        <ele>2077.9</ele>
        <time>2012-02-22T09:10:30Z</time>
      </trkpt>
      <trkpt lat="45.5106" lon="6.66526">
        <ele>2076.7</ele>
        <time>2012-02-22T09:10:32Z</time>
      </trkpt>
      <trkpt lat="45.51057" lon="6.66529">
        <ele>2076.2</ele>
        <time>2012-02-22T09:10:34Z</time>
      </trkpt>
      <trkpt lat="45.51054" lon="6.66531">
        <ele>2077.3</ele>
        <time>2012-02-22T09:10:42Z</time>
      </trkpt>
      <trkpt lat="45.51052" lon="6.66532">
        <ele>2077.6</ele>
        <time>2012-02-22T09:10:43Z</time>
      </trkpt>
      <trkpt lat="45.51051" lon="6.66533">
        <ele>2077.3</ele>
        <time>2012-02-22T09:10:44Z</time>
      </trkpt>
      <trkpt lat="45.5105" lon="6.66535">
        <ele>2077.2</ele>
        <time>2012-02-22T09:10:45Z</time>
      </trkpt>
      <trkpt lat="45.51043" lon="6.6654">
        <ele>2077.5</ele>
        <time>2012-02-22T09:10:49Z</time>
      </trkpt>
      <trkpt lat="45.5104" lon="6.66541">
        <ele>2077.4</ele>
        <time>2012-02-22T09:10:50Z</time>
      </trkpt>
      <trkpt lat="45.51032" lon="6.66546">
        <ele>2077.4</ele>
        <time>2012-02-22T09:10:53Z</time>
      </trkpt>
      <trkpt lat="45.51023" lon="6.66553">
        <ele>2078.2</ele>
        <time>2012-02-22T09:10:57Z</time>
      </trkpt>
      <trkpt lat="45.5102" lon="6.66556">
        <ele>2078.9</ele>
        <time>2012-02-22T09:10:59Z</time>
      </trkpt>
      <trkpt lat="45.51014" lon="6.66559">
        <ele>2078</ele>
        <time>2012-02-22T09:11:03Z</time>
      </trkpt>
      <trkpt lat="45.51013" lon="6.6656">
        <ele>2078.1</ele>
        <time>2012-02-22T09:11:04Z</time>
      </trkpt>
      <trkpt lat="45.51002" lon="6.66571">
        <ele>2078.8</ele>
        <time>2012-02-22T09:11:13Z</time>
      </trkpt>
      <trkpt lat="45.51002" lon="6.66571">
        <ele>2078.9</ele>
        <time>2012-02-22T09:11:14Z</time>
      </trkpt>
      <trkpt lat="45.51001" lon="6.66572">
        <ele>2079</ele>
        <time>2012-02-22T09:11:15Z</time>
      </trkpt>
      <trkpt lat="45.51001" lon="6.66572">
        <ele>2079.2</ele>
        <time>2012-02-22T09:11:16Z</time>
      </trkpt>
      <trkpt lat="45.51" lon="6.66573">
        <ele>2079.4</ele>
        <time>2012-02-22T09:11:17Z</time>
      </trkpt>
      <trkpt lat="45.50999" lon="6.66574">
        <ele>2079.5</ele>
        <time>2012-02-22T09:11:18Z</time>
      </trkpt>
      <trkpt lat="45.50997" lon="6.66577">
        <ele>2079.9</ele>
        <time>2012-02-22T09:11:20Z</time>
      </trkpt>
      <trkpt lat="45.50995" lon="6.66578">
        <ele>2079.6</ele>
        <time>2012-02-22T09:11:22Z</time>
      </trkpt>
      <trkpt lat="45.50995" lon="6.66579">
        <ele>2079.2</ele>
        <time>2012-02-22T09:11:23Z</time>
      </trkpt>
      <trkpt lat="45.50994" lon="6.6658">
        <ele>2079</ele>
        <time>2012-02-22T09:11:24Z</time>
      </trkpt>
      <trkpt lat="45.50987" lon="6.6659">
        <ele>2078.9</ele>
        <time>2012-02-22T09:11:28Z</time>
      </trkpt>
      <trkpt lat="45.50979" lon="6.66599">
        <ele>2077.3</ele>
        <time>2012-02-22T09:11:31Z</time>
      </trkpt>
      <trkpt lat="45.50959" lon="6.66626">
        <ele>2076.6</ele>
        <time>2012-02-22T09:11:36Z</time>
      </trkpt>
      <trkpt lat="45.50941" lon="6.66641">
        <ele>2073.3</ele>
        <time>2012-02-22T09:11:39Z</time>
      </trkpt>
      <trkpt lat="45.50936" lon="6.66648">
        <ele>2072.3</ele>
        <time>2012-02-22T09:11:40Z</time>
      </trkpt>
      <trkpt lat="45.50927" lon="6.66668">
        <ele>2069.9</ele>
        <time>2012-02-22T09:11:42Z</time>
      </trkpt>
      <trkpt lat="45.50916" lon="6.66684">
        <ele>2068.5</ele>
        <time>2012-02-22T09:11:44Z</time>
      </trkpt>
      <trkpt lat="45.50907" lon="6.66705">
        <ele>2067</ele>
        <time>2012-02-22T09:11:46Z</time>
      </trkpt>
      <trkpt lat="45.509" lon="6.66714">
        <ele>2066.5</ele>
        <time>2012-02-22T09:11:47Z</time>
      </trkpt>
      <trkpt lat="45.50894" lon="6.66724">
        <ele>2064.4</ele>
        <time>2012-02-22T09:11:48Z</time>
      </trkpt>
      <trkpt lat="45.5089" lon="6.66752">
        <ele>2061.7</ele>
        <time>2012-02-22T09:11:50Z</time>
      </trkpt>
      <trkpt lat="45.50885" lon="6.66764">
        <ele>2060</ele>
        <time>2012-02-22T09:11:51Z</time>
      </trkpt>
      <trkpt lat="45.50881" lon="6.66777">
        <ele>2058.8</ele>
        <time>2012-02-22T09:11:52Z</time>
      </trkpt>
      <trkpt lat="45.5088" lon="6.6679">
        <ele>2057.9</ele>
        <time>2012-02-22T09:11:53Z</time>
      </trkpt>
      <trkpt lat="45.50877" lon="6.66803">
        <ele>2056.7</ele>
        <time>2012-02-22T09:11:54Z</time>
      </trkpt>
      <trkpt lat="45.50872" lon="6.66813">
        <ele>2055.8</ele>
        <time>2012-02-22T09:11:55Z</time>
      </trkpt>
      <trkpt lat="45.50869" lon="6.66824">
        <ele>2055.2</ele>
        <time>2012-02-22T09:11:56Z</time>
      </trkpt>
      <trkpt lat="45.50868" lon="6.66833">
        <ele>2054.5</ele>
        <time>2012-02-22T09:11:57Z</time>
      </trkpt>
      <trkpt lat="45.50871" lon="6.66846">
        <ele>2053.5</ele>
        <time>2012-02-22T09:11:59Z</time>
      </trkpt>
      <trkpt lat="45.50871" lon="6.66851">
        <ele>2053.2</ele>
        <time>2012-02-22T09:12:00Z</time>
      </trkpt>
      <trkpt lat="45.5087" lon="6.66863">
        <ele>2052.7</ele>
        <time>2012-02-22T09:12:03Z</time>
      </trkpt>
      <trkpt lat="45.50869" lon="6.66868">
        <ele>2051.7</ele>
        <time>2012-02-22T09:12:04Z</time>
      </trkpt>
      <trkpt lat="45.50867" lon="6.66872">
        <ele>2051.1</ele>
        <time>2012-02-22T09:12:05Z</time>
      </trkpt>
      <trkpt lat="45.50865" lon="6.66877">
        <ele>2050.6</ele>
        <time>2012-02-22T09:12:06Z</time>
      </trkpt>
      <trkpt lat="45.50863" lon="6.6688">
        <ele>2050.6</ele>
        <time>2012-02-22T09:12:07Z</time>
      </trkpt>
      <trkpt lat="45.50861" lon="6.66885">
        <ele>2050.6</ele>
        <time>2012-02-22T09:12:09Z</time>
      </trkpt>
      <trkpt lat="45.50861" lon="6.66886">
        <ele>2050.3</ele>
        <time>2012-02-22T09:12:10Z</time>
      </trkpt>
      <trkpt lat="45.50861" lon="6.66887">
        <ele>2050.2</ele>
        <time>2012-02-22T09:12:11Z</time>
      </trkpt>
      <trkpt lat="45.50861" lon="6.66888">
        <ele>2050.1</ele>
        <time>2012-02-22T09:12:12Z</time>
      </trkpt>
      <trkpt lat="45.50859" lon="6.66897">
        <ele>2048.9</ele>
        <time>2012-02-22T09:12:15Z</time>
      </trkpt>
      <trkpt lat="45.50857" lon="6.66903">
        <ele>2048.5</ele>
        <time>2012-02-22T09:12:16Z</time>
      </trkpt>
      <trkpt lat="45.50853" lon="6.66906">
        <ele>2048.1</ele>
        <time>2012-02-22T09:12:17Z</time>
      </trkpt>
      <trkpt lat="45.50776" lon="6.66934">
        <ele>2040.8</ele>
        <time>2012-02-22T09:12:30Z</time>
      </trkpt>
      <trkpt lat="45.5074" lon="6.6696">
        <ele>2036.4</ele>
        <time>2012-02-22T09:12:35Z</time>
      </trkpt>
      <trkpt lat="45.50732" lon="6.66965">
        <ele>2035.3</ele>
        <time>2012-02-22T09:12:36Z</time>
      </trkpt>
      <trkpt lat="45.50723" lon="6.66966">
        <ele>2034.5</ele>
        <time>2012-02-22T09:12:37Z</time>
      </trkpt>
      <trkpt lat="45.50678" lon="6.66961">
        <ele>2028.3</ele>
        <time>2012-02-22T09:12:42Z</time>
      </trkpt>
      <trkpt lat="45.50669" lon="6.66962">
        <ele>2027.2</ele>
        <time>2012-02-22T09:12:43Z</time>
      </trkpt>
      <trkpt lat="45.50661" lon="6.66964">
        <ele>2026.4</ele>
        <time>2012-02-22T09:12:44Z</time>
      </trkpt>
      <trkpt lat="45.50653" lon="6.66969">
        <ele>2025.1</ele>
        <time>2012-02-22T09:12:45Z</time>
      </trkpt>
      <trkpt lat="45.5063" lon="6.66987">
        <ele>2021.9</ele>
        <time>2012-02-22T09:12:48Z</time>
      </trkpt>
      <trkpt lat="45.50622" lon="6.6699">
        <ele>2020.7</ele>
        <time>2012-02-22T09:12:49Z</time>
      </trkpt>
      <trkpt lat="45.506" lon="6.6699">
        <ele>2018.1</ele>
        <time>2012-02-22T09:12:52Z</time>
      </trkpt>
      <trkpt lat="45.50596" lon="6.66989">
        <ele>2017.6</ele>
        <time>2012-02-22T09:12:53Z</time>
      </trkpt>
      <trkpt lat="45.50593" lon="6.6701">
        <ele>2020.7</ele>
        <time>2012-02-22T09:13:36Z</time>
      </trkpt>
      <trkpt lat="45.50587" lon="6.67017">
        <ele>2020.3</ele>
        <time>2012-02-22T09:13:37Z</time>
      </trkpt>
      <trkpt lat="45.50573" lon="6.6703">
        <ele>2017.9</ele>
        <time>2012-02-22T09:13:39Z</time>
      </trkpt>
      <trkpt lat="45.50567" lon="6.6704">
        <ele>2016.3</ele>
        <time>2012-02-22T09:13:40Z</time>
      </trkpt>
      <trkpt lat="45.50563" lon="6.67053">
        <ele>2015.1</ele>
        <time>2012-02-22T09:13:41Z</time>
      </trkpt>
      <trkpt lat="45.50563" lon="6.67084">
        <ele>2011.4</ele>
        <time>2012-02-22T09:13:43Z</time>
      </trkpt>
      <trkpt lat="45.5056" lon="6.671">
        <ele>2009.3</ele>
        <time>2012-02-22T09:13:44Z</time>
      </trkpt>
      <trkpt lat="45.50554" lon="6.67115">
        <ele>2007.8</ele>
        <time>2012-02-22T09:13:45Z</time>
      </trkpt>
      <trkpt lat="45.50546" lon="6.67127">
        <ele>2004.3</ele>
        <time>2012-02-22T09:13:46Z</time>
      </trkpt>
      <trkpt lat="45.50531" lon="6.67145">
        <ele>1999.7</ele>
        <time>2012-02-22T09:13:48Z</time>
      </trkpt>
      <trkpt lat="45.50512" lon="6.67182">
        <ele>1996</ele>
        <time>2012-02-22T09:13:52Z</time>
      </trkpt>
      <trkpt lat="45.50509" lon="6.67191">
        <ele>1995.1</ele>
        <time>2012-02-22T09:13:53Z</time>
      </trkpt>
      <trkpt lat="45.50502" lon="6.67337">
        <ele>1977.6</ele>
        <time>2012-02-22T09:14:02Z</time>
      </trkpt>
      <trkpt lat="45.50488" lon="6.67398">
        <ele>1970.1</ele>
        <time>2012-02-22T09:14:06Z</time>
      </trkpt>
      <trkpt lat="45.50487" lon="6.67411">
        <ele>1969.1</ele>
        <time>2012-02-22T09:14:07Z</time>
      </trkpt>
      <trkpt lat="45.50492" lon="6.67525">
        <ele>1967.6</ele>
        <time>2012-02-22T09:14:21Z</time>
      </trkpt>
      <trkpt lat="45.50493" lon="6.67531">
        <ele>1967.5</ele>
        <time>2012-02-22T09:14:22Z</time>
      </trkpt>
      <trkpt lat="45.5051" lon="6.67582">
        <ele>1966.3</ele>
        <time>2012-02-22T09:14:34Z</time>
      </trkpt>
      <trkpt lat="45.50511" lon="6.67584">
        <ele>1966.4</ele>
        <time>2012-02-22T09:14:35Z</time>
      </trkpt>
      <trkpt lat="45.50512" lon="6.67589">
        <ele>1966.7</ele>
        <time>2012-02-22T09:14:37Z</time>
      </trkpt>
      <trkpt lat="45.50513" lon="6.67604">
        <ele>1968</ele>
        <time>2012-02-22T09:14:41Z</time>
      </trkpt>
      <trkpt lat="45.50515" lon="6.67611">
        <ele>1968.5</ele>
        <time>2012-02-22T09:14:43Z</time>
      </trkpt>
      <trkpt lat="45.50516" lon="6.67614">
        <ele>1968.6</ele>
        <time>2012-02-22T09:14:44Z</time>
      </trkpt>
      <trkpt lat="45.50518" lon="6.6762">
        <ele>1968.7</ele>
        <time>2012-02-22T09:14:46Z</time>
      </trkpt>
      <trkpt lat="45.50518" lon="6.67626">
        <ele>1968.8</ele>
        <time>2012-02-22T09:14:48Z</time>
      </trkpt>
      <trkpt lat="45.50522" lon="6.67637">
        <ele>1969.2</ele>
        <time>2012-02-22T09:14:51Z</time>
      </trkpt>
      <trkpt lat="45.50527" lon="6.6766">
        <ele>1969.2</ele>
        <time>2012-02-22T09:14:58Z</time>
      </trkpt>
      <trkpt lat="45.50528" lon="6.67667">
        <ele>1968.3</ele>
        <time>2012-02-22T09:15:01Z</time>
      </trkpt>
      <trkpt lat="45.50527" lon="6.67671">
        <ele>1968.6</ele>
        <time>2012-02-22T09:15:04Z</time>
      </trkpt>
      <trkpt lat="45.50527" lon="6.67672">
        <ele>1968.7</ele>
        <time>2012-02-22T09:15:05Z</time>
      </trkpt>
      <trkpt lat="45.50528" lon="6.67673">
        <ele>1968.5</ele>
        <time>2012-02-22T09:15:06Z</time>
      </trkpt>
      <trkpt lat="45.50528" lon="6.67674">
        <ele>1968.4</ele>
        <time>2012-02-22T09:15:07Z</time>
      </trkpt>
      <trkpt lat="45.50528" lon="6.67675">
        <ele>1968.3</ele>
        <time>2012-02-22T09:15:08Z</time>
      </trkpt>
      <trkpt lat="45.50528" lon="6.67675">
        <ele>1969</ele>
        <time>2012-02-22T09:15:09Z</time>
      </trkpt>
      <trkpt lat="45.50529" lon="6.67677">
        <ele>1969.4</ele>
        <time>2012-02-22T09:15:10Z</time>
      </trkpt>
      <trkpt lat="45.50529" lon="6.67678">
        <ele>1969.8</ele>
        <time>2012-02-22T09:15:11Z</time>
      </trkpt>
      <trkpt lat="45.50529" lon="6.67679">
        <ele>1970.3</ele>
        <time>2012-02-22T09:15:12Z</time>
      </trkpt>
      <trkpt lat="45.5053" lon="6.6768">
        <ele>1970.6</ele>
        <time>2012-02-22T09:15:13Z</time>
      </trkpt>
      <trkpt lat="45.5053" lon="6.67681">
        <ele>1970.9</ele>
        <time>2012-02-22T09:15:14Z</time>
      </trkpt>
      <trkpt lat="45.5053" lon="6.67682">
        <ele>1970.9</ele>
        <time>2012-02-22T09:15:15Z</time>
      </trkpt>
      <trkpt lat="45.50531" lon="6.67683">
        <ele>1970.9</ele>
        <time>2012-02-22T09:15:16Z</time>
      </trkpt>
      <trkpt lat="45.50531" lon="6.67684">
        <ele>1971</ele>
        <time>2012-02-22T09:15:17Z</time>
      </trkpt>
      <trkpt lat="45.50531" lon="6.67684">
        <ele>1970.7</ele>
        <time>2012-02-22T09:15:18Z</time>
      </trkpt>
      <trkpt lat="45.50532" lon="6.67685">
        <ele>1970.5</ele>
        <time>2012-02-22T09:15:19Z</time>
      </trkpt>
      <trkpt lat="45.50532" lon="6.67686">
        <ele>1970.4</ele>
        <time>2012-02-22T09:15:20Z</time>
      </trkpt>
      <trkpt lat="45.50532" lon="6.67687">
        <ele>1970.3</ele>
        <time>2012-02-22T09:15:21Z</time>
      </trkpt>
      <trkpt lat="45.50532" lon="6.67688">
        <ele>1970.7</ele>
        <time>2012-02-22T09:15:22Z</time>
      </trkpt>
      <trkpt lat="45.50533" lon="6.67689">
        <ele>1971</ele>
        <time>2012-02-22T09:15:23Z</time>
      </trkpt>
      <trkpt lat="45.50533" lon="6.67689">
        <ele>1971.3</ele>
        <time>2012-02-22T09:15:24Z</time>
      </trkpt>
      <trkpt lat="45.50534" lon="6.67694">
        <ele>1971.5</ele>
        <time>2012-02-22T09:15:31Z</time>
      </trkpt>
      <trkpt lat="45.50535" lon="6.67695">
        <ele>1971.6</ele>
        <time>2012-02-22T09:15:32Z</time>
      </trkpt>
      <trkpt lat="45.50535" lon="6.67696">
        <ele>1971.7</ele>
        <time>2012-02-22T09:15:33Z</time>
      </trkpt>
      <trkpt lat="45.50536" lon="6.67696">
        <ele>1971.3</ele>
        <time>2012-02-22T09:15:34Z</time>
      </trkpt>
      <trkpt lat="45.50537" lon="6.67698">
        <ele>1970.9</ele>
        <time>2012-02-22T09:15:35Z</time>
      </trkpt>
      <trkpt lat="45.50537" lon="6.677">
        <ele>1970.7</ele>
        <time>2012-02-22T09:15:36Z</time>
      </trkpt>
      <trkpt lat="45.50541" lon="6.67711">
        <ele>1971.3</ele>
        <time>2012-02-22T09:15:40Z</time>
      </trkpt>
      <trkpt lat="45.50544" lon="6.67714">
        <ele>1972</ele>
        <time>2012-02-22T09:15:42Z</time>
      </trkpt>
      <trkpt lat="45.50545" lon="6.67718">
        <ele>1972.1</ele>
        <time>2012-02-22T09:15:44Z</time>
      </trkpt>
      <trkpt lat="45.50545" lon="6.67723">
        <ele>1972</ele>
        <time>2012-02-22T09:15:46Z</time>
      </trkpt>
      <trkpt lat="45.50545" lon="6.67725">
        <ele>1972.2</ele>
        <time>2012-02-22T09:15:47Z</time>
      </trkpt>
      <trkpt lat="45.50543" lon="6.67728">
        <ele>1972.4</ele>
        <time>2012-02-22T09:15:49Z</time>
      </trkpt>
      <trkpt lat="45.50543" lon="6.67728">
        <ele>1972.2</ele>
        <time>2012-02-22T09:15:50Z</time>
      </trkpt>
      <trkpt lat="45.50541" lon="6.67733">
        <ele>1973.3</ele>
        <time>2012-02-22T09:15:58Z</time>
      </trkpt>
      <trkpt lat="45.50541" lon="6.67734">
        <ele>1973.5</ele>
        <time>2012-02-22T09:15:59Z</time>
      </trkpt>
      <trkpt lat="45.50541" lon="6.67735">
        <ele>1973.1</ele>
        <time>2012-02-22T09:16:00Z</time>
      </trkpt>
      <trkpt lat="45.5054" lon="6.67736">
        <ele>1972.8</ele>
        <time>2012-02-22T09:16:01Z</time>
      </trkpt>
      <trkpt lat="45.5054" lon="6.67737">
        <ele>1972.6</ele>
        <time>2012-02-22T09:16:02Z</time>
      </trkpt>
      <trkpt lat="45.5054" lon="6.67738">
        <ele>1972.8</ele>
        <time>2012-02-22T09:16:03Z</time>
      </trkpt>
      <trkpt lat="45.50539" lon="6.67739">
        <ele>1972.9</ele>
        <time>2012-02-22T09:16:04Z</time>
      </trkpt>
      <trkpt lat="45.50539" lon="6.67739">
        <ele>1973</ele>
        <time>2012-02-22T09:16:05Z</time>
      </trkpt>
      <trkpt lat="45.50538" lon="6.67741">
        <ele>1973</ele>
        <time>2012-02-22T09:16:06Z</time>
      </trkpt>
      <trkpt lat="45.50538" lon="6.67742">
        <ele>1972.9</ele>
        <time>2012-02-22T09:16:07Z</time>
      </trkpt>
      <trkpt lat="45.50537" lon="6.67743">
        <ele>1972.9</ele>
        <time>2012-02-22T09:16:08Z</time>
      </trkpt>
      <trkpt lat="45.50537" lon="6.67743">
        <ele>1973.2</ele>
        <time>2012-02-22T09:16:09Z</time>
      </trkpt>
      <trkpt lat="45.50536" lon="6.67744">
        <ele>1973.5</ele>
        <time>2012-02-22T09:16:10Z</time>
      </trkpt>
      <trkpt lat="45.50535" lon="6.67744">
        <ele>1973.7</ele>
        <time>2012-02-22T09:16:11Z</time>
      </trkpt>
      <trkpt lat="45.50535" lon="6.67745">
        <ele>1973.9</ele>
        <time>2012-02-22T09:16:12Z</time>
      </trkpt>
      <trkpt lat="45.50534" lon="6.67746">
        <ele>1974</ele>
        <time>2012-02-22T09:16:13Z</time>
      </trkpt>
      <trkpt lat="45.50534" lon="6.67746">
        <ele>1974.1</ele>
        <time>2012-02-22T09:16:14Z</time>
      </trkpt>
      <trkpt lat="45.50532" lon="6.67749">
        <ele>1974.3</ele>
        <time>2012-02-22T09:16:20Z</time>
      </trkpt>
      <trkpt lat="45.50532" lon="6.6775">
        <ele>1974.2</ele>
        <time>2012-02-22T09:16:21Z</time>
      </trkpt>
      <trkpt lat="45.50531" lon="6.67751">
        <ele>1974.3</ele>
        <time>2012-02-22T09:16:22Z</time>
      </trkpt>
      <trkpt lat="45.50531" lon="6.67751">
        <ele>1974.3</ele>
        <time>2012-02-22T09:16:23Z</time>
      </trkpt>
      <trkpt lat="45.50531" lon="6.67752">
        <ele>1974.4</ele>
        <time>2012-02-22T09:16:24Z</time>
      </trkpt>
      <trkpt lat="45.5053" lon="6.67752">
        <ele>1974.6</ele>
        <time>2012-02-22T09:16:25Z</time>
      </trkpt>
      <trkpt lat="45.5053" lon="6.67753">
        <ele>1974.8</ele>
        <time>2012-02-22T09:16:26Z</time>
      </trkpt>
      <trkpt lat="45.50529" lon="6.67753">
        <ele>1974.9</ele>
        <time>2012-02-22T09:16:27Z</time>
      </trkpt>
      <trkpt lat="45.50529" lon="6.67754">
        <ele>1975.1</ele>
        <time>2012-02-22T09:16:28Z</time>
      </trkpt>
      <trkpt lat="45.50523" lon="6.67753">
        <ele>1976.7</ele>
        <time>2012-02-22T09:16:54Z</time>
      </trkpt>
      <trkpt lat="45.50523" lon="6.67753">
        <ele>1977.1</ele>
        <time>2012-02-22T09:16:55Z</time>
      </trkpt>
      <trkpt lat="45.50522" lon="6.67752">
        <ele>1977.3</ele>
        <time>2012-02-22T09:16:56Z</time>
      </trkpt>
      <trkpt lat="45.50522" lon="6.67751">
        <ele>1977.3</ele>
        <time>2012-02-22T09:16:57Z</time>
      </trkpt>
      <trkpt lat="45.50522" lon="6.67751">
        <ele>1977.2</ele>
        <time>2012-02-22T09:16:58Z</time>
      </trkpt>
      <trkpt lat="45.50522" lon="6.6775">
        <ele>1977.2</ele>
        <time>2012-02-22T09:16:59Z</time>
      </trkpt>
      <trkpt lat="45.50514" lon="6.67719">
        <ele>1990.3</ele>
        <time>2012-02-22T09:22:01Z</time>
      </trkpt>
      <trkpt lat="45.50507" lon="6.67727">
        <ele>1989.9</ele>
        <time>2012-02-22T09:22:03Z</time>
      </trkpt>
      <trkpt lat="45.5049" lon="6.67738">
        <ele>1991.5</ele>
        <time>2012-02-22T09:22:06Z</time>
      </trkpt>
      <trkpt lat="45.50485" lon="6.67741">
        <ele>1993.1</ele>
        <time>2012-02-22T09:22:07Z</time>
      </trkpt>
      <trkpt lat="45.50479" lon="6.67742">
        <ele>1994.3</ele>
        <time>2012-02-22T09:22:08Z</time>
      </trkpt>
      <trkpt lat="45.49186" lon="6.6842">
        <ele>2500.1</ele>
        <time>2012-02-22T09:25:51Z</time>
      </trkpt>
      <trkpt lat="45.49184" lon="6.68421">
        <ele>2501.3</ele>
        <time>2012-02-22T09:25:52Z</time>
      </trkpt>
      <trkpt lat="45.49179" lon="6.68423">
        <ele>2506.5</ele>
        <time>2012-02-22T09:25:56Z</time>
      </trkpt>
      <trkpt lat="45.49178" lon="6.68424">
        <ele>2506.8</ele>
        <time>2012-02-22T09:25:57Z</time>
      </trkpt>
      <trkpt lat="45.49178" lon="6.68424">
        <ele>2507</ele>
        <time>2012-02-22T09:25:58Z</time>
      </trkpt>
      <trkpt lat="45.49177" lon="6.68425">
        <ele>2507.2</ele>
        <time>2012-02-22T09:25:59Z</time>
      </trkpt>
      <trkpt lat="45.49176" lon="6.68425">
        <ele>2507.4</ele>
        <time>2012-02-22T09:26:00Z</time>
      </trkpt>
      <trkpt lat="45.49176" lon="6.68426">
        <ele>2507.5</ele>
        <time>2012-02-22T09:26:01Z</time>
      </trkpt>
      <trkpt lat="45.49174" lon="6.68426">
        <ele>2507.7</ele>
        <time>2012-02-22T09:26:04Z</time>
      </trkpt>
      <trkpt lat="45.49173" lon="6.68426">
        <ele>2507.8</ele>
        <time>2012-02-22T09:26:05Z</time>
      </trkpt>
      <trkpt lat="45.49173" lon="6.68427">
        <ele>2507.9</ele>
        <time>2012-02-22T09:26:06Z</time>
      </trkpt>
      <trkpt lat="45.49172" lon="6.68427">
        <ele>2507.9</ele>
        <time>2012-02-22T09:26:07Z</time>
      </trkpt>
      <trkpt lat="45.49171" lon="6.68427">
        <ele>2508</ele>
        <time>2012-02-22T09:26:08Z</time>
      </trkpt>
      <trkpt lat="45.4917" lon="6.68427">
        <ele>2508</ele>
        <time>2012-02-22T09:26:09Z</time>
      </trkpt>
      <trkpt lat="45.4917" lon="6.68428">
        <ele>2508</ele>
        <time>2012-02-22T09:26:10Z</time>
      </trkpt>
      <trkpt lat="45.49169" lon="6.68428">
        <ele>2508</ele>
        <time>2012-02-22T09:26:11Z</time>
      </trkpt>
      <trkpt lat="45.49168" lon="6.68428">
        <ele>2508</ele>
        <time>2012-02-22T09:26:12Z</time>
      </trkpt>
      <trkpt lat="45.49167" lon="6.68429">
        <ele>2508</ele>
        <time>2012-02-22T09:26:13Z</time>
      </trkpt>
      <trkpt lat="45.49166" lon="6.68429">
        <ele>2508</ele>
        <time>2012-02-22T09:26:14Z</time>
      </trkpt>
      <trkpt lat="45.49165" lon="6.68429">
        <ele>2508</ele>
        <time>2012-02-22T09:26:15Z</time>
      </trkpt>
      <trkpt lat="45.49164" lon="6.6843">
        <ele>2508</ele>
        <time>2012-02-22T09:26:16Z</time>
      </trkpt>
      <trkpt lat="45.49164" lon="6.6843">
        <ele>2508</ele>
        <time>2012-02-22T09:26:17Z</time>
      </trkpt>
      <trkpt lat="45.49163" lon="6.68432">
        <ele>2508</ele>
        <time>2012-02-22T09:26:18Z</time>
      </trkpt>
      <trkpt lat="45.49163" lon="6.68433">
        <ele>2508</ele>
        <time>2012-02-22T09:26:19Z</time>
      </trkpt>
      <trkpt lat="45.49163" lon="6.68434">
        <ele>2508.1</ele>
        <time>2012-02-22T09:26:20Z</time>
      </trkpt>
      <trkpt lat="45.49162" lon="6.68435">
        <ele>2508.1</ele>
        <time>2012-02-22T09:26:21Z</time>
      </trkpt>
      <trkpt lat="45.49162" lon="6.68436">
        <ele>2507.9</ele>
        <time>2012-02-22T09:26:22Z</time>
      </trkpt>
      <trkpt lat="45.49162" lon="6.68438">
        <ele>2507.7</ele>
        <time>2012-02-22T09:26:23Z</time>
      </trkpt>
      <trkpt lat="45.49162" lon="6.68439">
        <ele>2507.6</ele>
        <time>2012-02-22T09:26:24Z</time>
      </trkpt>
      <trkpt lat="45.49162" lon="6.6844">
        <ele>2507.9</ele>
        <time>2012-02-22T09:26:25Z</time>
      </trkpt>
      <trkpt lat="45.49161" lon="6.68442">
        <ele>2508.1</ele>
        <time>2012-02-22T09:26:26Z</time>
      </trkpt>
      <trkpt lat="45.49161" lon="6.68443">
        <ele>2508.2</ele>
        <time>2012-02-22T09:26:27Z</time>
      </trkpt>
      <trkpt lat="45.49161" lon="6.68445">
        <ele>2508.3</ele>
        <time>2012-02-22T09:26:28Z</time>
      </trkpt>
      <trkpt lat="45.4916" lon="6.68447">
        <ele>2508.4</ele>
        <time>2012-02-22T09:26:29Z</time>
      </trkpt>
      <trkpt lat="45.4916" lon="6.68449">
        <ele>2508.5</ele>
        <time>2012-02-22T09:26:30Z</time>
      </trkpt>
      <trkpt lat="45.49163" lon="6.6846">
        <ele>2507.9</ele>
        <time>2012-02-22T09:27:09Z</time>
      </trkpt>
      <trkpt lat="45.49169" lon="6.68467">
        <ele>2506.1</ele>
        <time>2012-02-22T09:28:42Z</time>
      </trkpt>
      <trkpt lat="45.49171" lon="6.68478">
        <ele>2505.8</ele>
        <time>2012-02-22T09:28:46Z</time>
      </trkpt>
      <trkpt lat="45.49172" lon="6.68483">
        <ele>2505.5</ele>
        <time>2012-02-22T09:28:47Z</time>
      </trkpt>
      <trkpt lat="45.49177" lon="6.68495">
        <ele>2504.5</ele>
        <time>2012-02-22T09:28:49Z</time>
      </trkpt>
      <trkpt lat="45.49176" lon="6.68523">
        <ele>2501.6</ele>
        <time>2012-02-22T09:28:52Z</time>
      </trkpt>
      <trkpt lat="45.49169" lon="6.6858">
        <ele>2492.5</ele>
        <time>2012-02-22T09:28:57Z</time>
      </trkpt>
      <trkpt lat="45.49172" lon="6.68593">
        <ele>2491.3</ele>
        <time>2012-02-22T09:28:58Z</time>
      </trkpt>
      <trkpt lat="45.49169" lon="6.68619">
        <ele>2484.6</ele>
        <time>2012-02-22T09:29:00Z</time>
      </trkpt>
      <trkpt lat="45.49166" lon="6.68631">
        <ele>2482.5</ele>
        <time>2012-02-22T09:29:01Z</time>
      </trkpt>
      <trkpt lat="45.49164" lon="6.68643">
        <ele>2479</ele>
        <time>2012-02-22T09:29:02Z</time>
      </trkpt>
      <trkpt lat="45.4916" lon="6.68667">
        <ele>2474.5</ele>
        <time>2012-02-22T09:29:04Z</time>
      </trkpt>
      <trkpt lat="45.49159" lon="6.6868">
        <ele>2470.9</ele>
        <time>2012-02-22T09:29:05Z</time>
      </trkpt>
      <trkpt lat="45.49156" lon="6.68691">
        <ele>2468.2</ele>
        <time>2012-02-22T09:29:06Z</time>
      </trkpt>
      <trkpt lat="45.49153" lon="6.68702">
        <ele>2466.2</ele>
        <time>2012-02-22T09:29:07Z</time>
      </trkpt>
      <trkpt lat="45.49156" lon="6.68725">
        <ele>2461.8</ele>
        <time>2012-02-22T09:29:09Z</time>
      </trkpt>
      <trkpt lat="45.49154" lon="6.68735">
        <ele>2460.4</ele>
        <time>2012-02-22T09:29:10Z</time>
      </trkpt>
      <trkpt lat="45.49147" lon="6.68746">
        <ele>2457.2</ele>
        <time>2012-02-22T09:29:12Z</time>
      </trkpt>
      <trkpt lat="45.49145" lon="6.68753">
        <ele>2456.2</ele>
        <time>2012-02-22T09:29:13Z</time>
      </trkpt>
      <trkpt lat="45.49146" lon="6.68758">
        <ele>2454.6</ele>
        <time>2012-02-22T09:29:14Z</time>
      </trkpt>
      <trkpt lat="45.49149" lon="6.68761">
        <ele>2453.4</ele>
        <time>2012-02-22T09:29:15Z</time>
      </trkpt>
      <trkpt lat="45.4915" lon="6.68763">
        <ele>2452.5</ele>
        <time>2012-02-22T09:29:16Z</time>
      </trkpt>
      <trkpt lat="45.49151" lon="6.68768">
        <ele>2451.8</ele>
        <time>2012-02-22T09:29:17Z</time>
      </trkpt>
      <trkpt lat="45.49151" lon="6.68773">
        <ele>2450.7</ele>
        <time>2012-02-22T09:29:18Z</time>
      </trkpt>
      <trkpt lat="45.49147" lon="6.68789">
        <ele>2449.2</ele>
        <time>2012-02-22T09:29:20Z</time>
      </trkpt>
      <trkpt lat="45.49145" lon="6.68799">
        <ele>2447.6</ele>
        <time>2012-02-22T09:29:21Z</time>
      </trkpt>
      <trkpt lat="45.49148" lon="6.68825">
        <ele>2445.5</ele>
        <time>2012-02-22T09:29:23Z</time>
      </trkpt>
      <trkpt lat="45.49148" lon="6.68839">
        <ele>2441.7</ele>
        <time>2012-02-22T09:29:24Z</time>
      </trkpt>
      <trkpt lat="45.49149" lon="6.68854">
        <ele>2438.8</ele>
        <time>2012-02-22T09:29:25Z</time>
      </trkpt>
      <trkpt lat="45.49148" lon="6.68881">
        <ele>2432.7</ele>
        <time>2012-02-22T09:29:27Z</time>
      </trkpt>
      <trkpt lat="45.49157" lon="6.68905">
        <ele>2427.4</ele>
        <time>2012-02-22T09:29:29Z</time>
      </trkpt>
      <trkpt lat="45.49166" lon="6.68971">
        <ele>2416</ele>
        <time>2012-02-22T09:29:33Z</time>
      </trkpt>
      <trkpt lat="45.49197" lon="6.69092">
        <ele>2397.9</ele>
        <time>2012-02-22T09:29:41Z</time>
      </trkpt>
      <trkpt lat="45.49198" lon="6.69116">
        <ele>2397.1</ele>
        <time>2012-02-22T09:29:43Z</time>
      </trkpt>
      <trkpt lat="45.49198" lon="6.69146">
        <ele>2396.8</ele>
        <time>2012-02-22T09:29:46Z</time>
      </trkpt>
      <trkpt lat="45.49202" lon="6.69175">
        <ele>2396.6</ele>
        <time>2012-02-22T09:29:49Z</time>
      </trkpt>
      <trkpt lat="45.49209" lon="6.692">
        <ele>2396</ele>
        <time>2012-02-22T09:29:52Z</time>
      </trkpt>
      <trkpt lat="45.49215" lon="6.69212">
        <ele>2396.2</ele>
        <time>2012-02-22T09:29:54Z</time>
      </trkpt>
      <trkpt lat="45.49226" lon="6.69229">
        <ele>2396.4</ele>
        <time>2012-02-22T09:29:57Z</time>
      </trkpt>
      <trkpt lat="45.49229" lon="6.69235">
        <ele>2396.4</ele>
        <time>2012-02-22T09:29:58Z</time>
      </trkpt>
      <trkpt lat="45.49231" lon="6.69242">
        <ele>2395.9</ele>
        <time>2012-02-22T09:29:59Z</time>
      </trkpt>
      <trkpt lat="45.49239" lon="6.69293">
        <ele>2392.5</ele>
        <time>2012-02-22T09:30:05Z</time>
      </trkpt>
      <trkpt lat="45.49236" lon="6.69322">
        <ele>2391.8</ele>
        <time>2012-02-22T09:30:08Z</time>
      </trkpt>
      <trkpt lat="45.49237" lon="6.69332">
        <ele>2391</ele>
        <time>2012-02-22T09:30:09Z</time>
      </trkpt>
      <trkpt lat="45.49238" lon="6.69342">
        <ele>2390.3</ele>
        <time>2012-02-22T09:30:10Z</time>
      </trkpt>
      <trkpt lat="45.49264" lon="6.69406">
        <ele>2386.2</ele>
        <time>2012-02-22T09:30:17Z</time>
      </trkpt>
      <trkpt lat="45.49265" lon="6.69417">
        <ele>2384.7</ele>
        <time>2012-02-22T09:30:18Z</time>
      </trkpt>
      <trkpt lat="45.49263" lon="6.69427">
        <ele>2383.7</ele>
        <time>2012-02-22T09:30:19Z</time>
      </trkpt>
      <trkpt lat="45.49262" lon="6.69452">
        <ele>2380.9</ele>
        <time>2012-02-22T09:30:22Z</time>
      </trkpt>
      <trkpt lat="45.49263" lon="6.69458">
        <ele>2380.3</ele>
        <time>2012-02-22T09:30:23Z</time>
      </trkpt>
      <trkpt lat="45.49262" lon="6.69464">
        <ele>2379.8</ele>
        <time>2012-02-22T09:30:24Z</time>
      </trkpt>
      <trkpt lat="45.49263" lon="6.69469">
        <ele>2378.1</ele>
        <time>2012-02-22T09:30:25Z</time>
      </trkpt>
      <trkpt lat="45.49265" lon="6.69474">
        <ele>2376.9</ele>
        <time>2012-02-22T09:30:26Z</time>
      </trkpt>
      <trkpt lat="45.49266" lon="6.69481">
        <ele>2375.9</ele>
        <time>2012-02-22T09:30:27Z</time>
      </trkpt>
      <trkpt lat="45.49264" lon="6.69487">
        <ele>2374.8</ele>
        <time>2012-02-22T09:30:28Z</time>
      </trkpt>
      <trkpt lat="45.49262" lon="6.69489">
        <ele>2373.9</ele>
        <time>2012-02-22T09:30:29Z</time>
      </trkpt>
      <trkpt lat="45.49259" lon="6.69488">
        <ele>2373.2</ele>
        <time>2012-02-22T09:30:30Z</time>
      </trkpt>
      <trkpt lat="45.49256" lon="6.69486">
        <ele>2372</ele>
        <time>2012-02-22T09:30:31Z</time>
      </trkpt>
      <trkpt lat="45.49249" lon="6.69475">
        <ele>2370.3</ele>
        <time>2012-02-22T09:30:33Z</time>
      </trkpt>
      <trkpt lat="45.49245" lon="6.69473">
        <ele>2368.5</ele>
        <time>2012-02-22T09:30:34Z</time>
      </trkpt>
      <trkpt lat="45.49241" lon="6.69474">
        <ele>2367.2</ele>
        <time>2012-02-22T09:30:35Z</time>
      </trkpt>
      <trkpt lat="45.49237" lon="6.69479">
        <ele>2366.1</ele>
        <time>2012-02-22T09:30:36Z</time>
      </trkpt>
      <trkpt lat="45.49236" lon="6.69486">
        <ele>2364.8</ele>
        <time>2012-02-22T09:30:37Z</time>
      </trkpt>
      <trkpt lat="45.49236" lon="6.69492">
        <ele>2363.7</ele>
        <time>2012-02-22T09:30:38Z</time>
      </trkpt>
      <trkpt lat="45.49239" lon="6.69506">
        <ele>2361.6</ele>
        <time>2012-02-22T09:30:41Z</time>
      </trkpt>
      <trkpt lat="45.49241" lon="6.6952">
        <ele>2360.6</ele>
        <time>2012-02-22T09:30:43Z</time>
      </trkpt>
      <trkpt lat="45.49244" lon="6.69527">
        <ele>2359.5</ele>
        <time>2012-02-22T09:30:44Z</time>
      </trkpt>
      <trkpt lat="45.4925" lon="6.69533">
        <ele>2358.6</ele>
        <time>2012-02-22T09:30:45Z</time>
      </trkpt>
      <trkpt lat="45.49256" lon="6.69537">
        <ele>2357.9</ele>
        <time>2012-02-22T09:30:46Z</time>
      </trkpt>
      <trkpt lat="45.49263" lon="6.6954">
        <ele>2356.4</ele>
        <time>2012-02-22T09:30:47Z</time>
      </trkpt>
      <trkpt lat="45.4927" lon="6.69544">
        <ele>2355.3</ele>
        <time>2012-02-22T09:30:48Z</time>
      </trkpt>
      <trkpt lat="45.49277" lon="6.6955">
        <ele>2354.4</ele>
        <time>2012-02-22T09:30:49Z</time>
      </trkpt>
      <trkpt lat="45.49283" lon="6.69558">
        <ele>2353.1</ele>
        <time>2012-02-22T09:30:50Z</time>
      </trkpt>
      <trkpt lat="45.4929" lon="6.69582">
        <ele>2351.4</ele>
        <time>2012-02-22T09:30:52Z</time>
      </trkpt>
      <trkpt lat="45.49329" lon="6.69657">
        <ele>2341.7</ele>
        <time>2012-02-22T09:30:59Z</time>
      </trkpt>
      <trkpt lat="45.49338" lon="6.69664">
        <ele>2339.9</ele>
        <time>2012-02-22T09:31:00Z</time>
      </trkpt>
      <trkpt lat="45.49352" lon="6.69678">
        <ele>2337.4</ele>
        <time>2012-02-22T09:31:02Z</time>
      </trkpt>
      <trkpt lat="45.49357" lon="6.69687">
        <ele>2336</ele>
        <time>2012-02-22T09:31:03Z</time>
      </trkpt>
      <trkpt lat="45.49383" lon="6.69758">
        <ele>2331.1</ele>
        <time>2012-02-22T09:31:10Z</time>
      </trkpt>
      <trkpt lat="45.494" lon="6.69786">
        <ele>2328.6</ele>
        <time>2012-02-22T09:31:13Z</time>
      </trkpt>
      <trkpt lat="45.49409" lon="6.69809">
        <ele>2327.1</ele>
        <time>2012-02-22T09:31:15Z</time>
      </trkpt>
      <trkpt lat="45.49432" lon="6.69835">
        <ele>2323.6</ele>
        <time>2012-02-22T09:31:18Z</time>
      </trkpt>
      <trkpt lat="45.4944" lon="6.69841">
        <ele>2321.8</ele>
        <time>2012-02-22T09:31:19Z</time>
      </trkpt>
      <trkpt lat="45.49447" lon="6.69849">
        <ele>2320.5</ele>
        <time>2012-02-22T09:31:20Z</time>
      </trkpt>
      <trkpt lat="45.49453" lon="6.69859">
        <ele>2319.4</ele>
        <time>2012-02-22T09:31:21Z</time>
      </trkpt>
      <trkpt lat="45.49458" lon="6.6987">
        <ele>2317</ele>
        <time>2012-02-22T09:31:22Z</time>
      </trkpt>
      <trkpt lat="45.49458" lon="6.69883">
        <ele>2315.2</ele>
        <time>2012-02-22T09:31:23Z</time>
      </trkpt>
      <trkpt lat="45.49453" lon="6.69891">
        <ele>2313.9</ele>
        <time>2012-02-22T09:31:24Z</time>
      </trkpt>
      <trkpt lat="45.49447" lon="6.69894">
        <ele>2311.9</ele>
        <time>2012-02-22T09:31:25Z</time>
      </trkpt>
      <trkpt lat="45.49439" lon="6.69891">
        <ele>2310.4</ele>
        <time>2012-02-22T09:31:26Z</time>
      </trkpt>
      <trkpt lat="45.49432" lon="6.69887">
        <ele>2309.2</ele>
        <time>2012-02-22T09:31:27Z</time>
      </trkpt>
      <trkpt lat="45.49422" lon="6.69884">
        <ele>2308.4</ele>
        <time>2012-02-22T09:31:28Z</time>
      </trkpt>
      <trkpt lat="45.49413" lon="6.69885">
        <ele>2306.3</ele>
        <time>2012-02-22T09:31:29Z</time>
      </trkpt>
      <trkpt lat="45.49405" lon="6.69892">
        <ele>2304.8</ele>
        <time>2012-02-22T09:31:30Z</time>
      </trkpt>
      <trkpt lat="45.49401" lon="6.69905">
        <ele>2303.7</ele>
        <time>2012-02-22T09:31:31Z</time>
      </trkpt>
      <trkpt lat="45.49403" lon="6.69918">
        <ele>2300.4</ele>
        <time>2012-02-22T09:31:32Z</time>
      </trkpt>
      <trkpt lat="45.49414" lon="6.69941">
        <ele>2296.2</ele>
        <time>2012-02-22T09:31:34Z</time>
      </trkpt>
      <trkpt lat="45.49421" lon="6.69952">
        <ele>2293</ele>
        <time>2012-02-22T09:31:35Z</time>
      </trkpt>
      <trkpt lat="45.4943" lon="6.69961">
        <ele>2290.7</ele>
        <time>2012-02-22T09:31:36Z</time>
      </trkpt>
      <trkpt lat="45.4945" lon="6.69994">
        <ele>2284</ele>
        <time>2012-02-22T09:31:39Z</time>
      </trkpt>
      <trkpt lat="45.49456" lon="6.70002">
        <ele>2282.5</ele>
        <time>2012-02-22T09:31:40Z</time>
      </trkpt>
      <trkpt lat="45.49461" lon="6.70011">
        <ele>2280.9</ele>
        <time>2012-02-22T09:31:41Z</time>
      </trkpt>
      <trkpt lat="45.49466" lon="6.70017">
        <ele>2279.7</ele>
        <time>2012-02-22T09:31:42Z</time>
      </trkpt>
      <trkpt lat="45.49471" lon="6.70019">
        <ele>2278.9</ele>
        <time>2012-02-22T09:31:43Z</time>
      </trkpt>
      <trkpt lat="45.49474" lon="6.70019">
        <ele>2277.9</ele>
        <time>2012-02-22T09:31:44Z</time>
      </trkpt>
      <trkpt lat="45.49477" lon="6.70018">
        <ele>2277.1</ele>
        <time>2012-02-22T09:31:45Z</time>
      </trkpt>
      <trkpt lat="45.4948" lon="6.70017">
        <ele>2276.6</ele>
        <time>2012-02-22T09:31:46Z</time>
      </trkpt>
      <trkpt lat="45.49495" lon="6.70026">
        <ele>2274.2</ele>
        <time>2012-02-22T09:32:35Z</time>
      </trkpt>
      <trkpt lat="45.49499" lon="6.70035">
        <ele>2273.8</ele>
        <time>2012-02-22T09:32:37Z</time>
      </trkpt>
      <trkpt lat="45.49502" lon="6.70038">
        <ele>2273.6</ele>
        <time>2012-02-22T09:32:38Z</time>
      </trkpt>
      <trkpt lat="45.49506" lon="6.70042">
        <ele>2272.9</ele>
        <time>2012-02-22T09:32:39Z</time>
      </trkpt>
      <trkpt lat="45.4952" lon="6.70059">
        <ele>2270.8</ele>
        <time>2012-02-22T09:32:42Z</time>
      </trkpt>
      <trkpt lat="45.49529" lon="6.70074">
        <ele>2269.3</ele>
        <time>2012-02-22T09:32:44Z</time>
      </trkpt>
      <trkpt lat="45.49535" lon="6.70079">
        <ele>2268.2</ele>
        <time>2012-02-22T09:32:45Z</time>
      </trkpt>
      <trkpt lat="45.49549" lon="6.70087">
        <ele>2266.7</ele>
        <time>2012-02-22T09:32:47Z</time>
      </trkpt>
      <trkpt lat="45.49677" lon="6.7013">
        <ele>2248.8</ele>
        <time>2012-02-22T09:33:01Z</time>
      </trkpt>
      <trkpt lat="45.49687" lon="6.70137">
        <ele>2247.5</ele>
        <time>2012-02-22T09:33:02Z</time>
      </trkpt>
      <trkpt lat="45.49721" lon="6.70146">
        <ele>2242</ele>
        <time>2012-02-22T09:33:05Z</time>
      </trkpt>
      <trkpt lat="45.49748" lon="6.70171">
        <ele>2237.1</ele>
        <time>2012-02-22T09:33:08Z</time>
      </trkpt>
      <trkpt lat="45.49818" lon="6.70201">
        <ele>2226.3</ele>
        <time>2012-02-22T09:33:14Z</time>
      </trkpt>
      <trkpt lat="45.49831" lon="6.70203">
        <ele>2224</ele>
        <time>2012-02-22T09:33:15Z</time>
      </trkpt>
      <trkpt lat="45.49844" lon="6.702">
        <ele>2222.3</ele>
        <time>2012-02-22T09:33:16Z</time>
      </trkpt>
      <trkpt lat="45.4987" lon="6.70188">
        <ele>2216.4</ele>
        <time>2012-02-22T09:33:18Z</time>
      </trkpt>
      <trkpt lat="45.4991" lon="6.70151">
        <ele>2210.2</ele>
        <time>2012-02-22T09:33:22Z</time>
      </trkpt>
      <trkpt lat="45.49916" lon="6.70141">
        <ele>2209</ele>
        <time>2012-02-22T09:33:23Z</time>
      </trkpt>
      <trkpt lat="45.49918" lon="6.70129">
        <ele>2208.1</ele>
        <time>2012-02-22T09:33:24Z</time>
      </trkpt>
      <trkpt lat="45.49918" lon="6.70115">
        <ele>2207.4</ele>
        <time>2012-02-22T09:33:25Z</time>
      </trkpt>
      <trkpt lat="45.49921" lon="6.70101">
        <ele>2206.8</ele>
        <time>2012-02-22T09:33:26Z</time>
      </trkpt>
      <trkpt lat="45.49927" lon="6.70087">
        <ele>2205.1</ele>
        <time>2012-02-22T09:33:27Z</time>
      </trkpt>
      <trkpt lat="45.49934" lon="6.70073">
        <ele>2203.8</ele>
        <time>2012-02-22T09:33:28Z</time>
      </trkpt>
      <trkpt lat="45.49944" lon="6.70063">
        <ele>2202.8</ele>
        <time>2012-02-22T09:33:29Z</time>
      </trkpt>
      <trkpt lat="45.49955" lon="6.70058">
        <ele>2200.4</ele>
        <time>2012-02-22T09:33:30Z</time>
      </trkpt>
      <trkpt lat="45.5009" lon="6.70012">
        <ele>2180</ele>
        <time>2012-02-22T09:33:42Z</time>
      </trkpt>
      <trkpt lat="45.50102" lon="6.70012">
        <ele>2178</ele>
        <time>2012-02-22T09:33:43Z</time>
      </trkpt>
      <trkpt lat="45.50113" lon="6.70013">
        <ele>2176.5</ele>
        <time>2012-02-22T09:33:44Z</time>
      </trkpt>
      <trkpt lat="45.50123" lon="6.70012">
        <ele>2175.3</ele>
        <time>2012-02-22T09:33:45Z</time>
      </trkpt>
      <trkpt lat="45.50143" lon="6.70002">
        <ele>2174</ele>
        <time>2012-02-22T09:33:47Z</time>
      </trkpt>
      <trkpt lat="45.50153" lon="6.7">
        <ele>2173.6</ele>
        <time>2012-02-22T09:33:48Z</time>
      </trkpt>
      <trkpt lat="45.50162" lon="6.70005">
        <ele>2171.6</ele>
        <time>2012-02-22T09:33:49Z</time>
      </trkpt>
      <trkpt lat="45.50169" lon="6.70014">
        <ele>2170.2</ele>
        <time>2012-02-22T09:33:50Z</time>
      </trkpt>
      <trkpt lat="45.50174" lon="6.70032">
        <ele>2168.1</ele>
        <time>2012-02-22T09:33:52Z</time>
      </trkpt>
      <trkpt lat="45.50176" lon="6.70037">
        <ele>2167.4</ele>
        <time>2012-02-22T09:33:53Z</time>
      </trkpt>
      <trkpt lat="45.50179" lon="6.7004">
        <ele>2166.9</ele>
        <time>2012-02-22T09:33:54Z</time>
      </trkpt>
      <trkpt lat="45.50185" lon="6.70043">
        <ele>2168.1</ele>
        <time>2012-02-22T09:33:56Z</time>
      </trkpt>
      <trkpt lat="45.50189" lon="6.70044">
        <ele>2168.4</ele>
        <time>2012-02-22T09:33:57Z</time>
      </trkpt>
      <trkpt lat="45.50194" lon="6.70044">
        <ele>2168</ele>
        <time>2012-02-22T09:33:58Z</time>
      </trkpt>
      <trkpt lat="45.50256" lon="6.70005">
        <ele>2159.1</ele>
        <time>2012-02-22T09:34:05Z</time>
      </trkpt>
      <trkpt lat="45.50267" lon="6.70004">
        <ele>2157.3</ele>
        <time>2012-02-22T09:34:06Z</time>
      </trkpt>
      <trkpt lat="45.50278" lon="6.70007">
        <ele>2155.9</ele>
        <time>2012-02-22T09:34:07Z</time>
      </trkpt>
      <trkpt lat="45.50289" lon="6.70007">
        <ele>2154</ele>
        <time>2012-02-22T09:34:08Z</time>
      </trkpt>
      <trkpt lat="45.50299" lon="6.7001">
        <ele>2152.6</ele>
        <time>2012-02-22T09:34:09Z</time>
      </trkpt>
      <trkpt lat="45.50306" lon="6.7002">
        <ele>2151.6</ele>
        <time>2012-02-22T09:34:10Z</time>
      </trkpt>
      <trkpt lat="45.50315" lon="6.70026">
        <ele>2150.1</ele>
        <time>2012-02-22T09:34:11Z</time>
      </trkpt>
      <trkpt lat="45.50322" lon="6.70035">
        <ele>2149.1</ele>
        <time>2012-02-22T09:34:12Z</time>
      </trkpt>
      <trkpt lat="45.50324" lon="6.70048">
        <ele>2148.3</ele>
        <time>2012-02-22T09:34:13Z</time>
      </trkpt>
      <trkpt lat="45.50327" lon="6.7006">
        <ele>2145.7</ele>
        <time>2012-02-22T09:34:14Z</time>
      </trkpt>
      <trkpt lat="45.50335" lon="6.70067">
        <ele>2143.8</ele>
        <time>2012-02-22T09:34:15Z</time>
      </trkpt>
      <trkpt lat="45.50342" lon="6.70066">
        <ele>2142.4</ele>
        <time>2012-02-22T09:34:16Z</time>
      </trkpt>
      <trkpt lat="45.50346" lon="6.70061">
        <ele>2141.3</ele>
        <time>2012-02-22T09:34:17Z</time>
      </trkpt>
      <trkpt lat="45.50348" lon="6.70062">
        <ele>2138.8</ele>
        <time>2012-02-22T09:35:12Z</time>
      </trkpt>
      <trkpt lat="45.50349" lon="6.70062">
        <ele>2138.6</ele>
        <time>2012-02-22T09:35:13Z</time>
      </trkpt>
      <trkpt lat="45.50351" lon="6.70061">
        <ele>2138.5</ele>
        <time>2012-02-22T09:35:14Z</time>
      </trkpt>
      <trkpt lat="45.50355" lon="6.70061">
        <ele>2138.1</ele>
        <time>2012-02-22T09:35:16Z</time>
      </trkpt>
      <trkpt lat="45.50359" lon="6.70061">
        <ele>2138</ele>
        <time>2012-02-22T09:35:17Z</time>
      </trkpt>
      <trkpt lat="45.50365" lon="6.70064">
        <ele>2137</ele>
        <time>2012-02-22T09:35:18Z</time>
      </trkpt>
      <trkpt lat="45.50377" lon="6.70078">
        <ele>2135.7</ele>
        <time>2012-02-22T09:35:20Z</time>
      </trkpt>
      <trkpt lat="45.50386" lon="6.70097">
        <ele>2133.1</ele>
        <time>2012-02-22T09:35:22Z</time>
      </trkpt>
      <trkpt lat="45.50391" lon="6.70104">
        <ele>2132.3</ele>
        <time>2012-02-22T09:35:23Z</time>
      </trkpt>
      <trkpt lat="45.50399" lon="6.70106">
        <ele>2131.7</ele>
        <time>2012-02-22T09:35:24Z</time>
      </trkpt>
      <trkpt lat="45.50417" lon="6.70095">
        <ele>2128.2</ele>
        <time>2012-02-22T09:35:26Z</time>
      </trkpt>
      <trkpt lat="45.50428" lon="6.70092">
        <ele>2127</ele>
        <time>2012-02-22T09:35:27Z</time>
      </trkpt>
      <trkpt lat="45.50453" lon="6.70096">
        <ele>2121.1</ele>
        <time>2012-02-22T09:35:29Z</time>
      </trkpt>
      <trkpt lat="45.50465" lon="6.7009">
        <ele>2119.2</ele>
        <time>2012-02-22T09:35:30Z</time>
      </trkpt>
      <trkpt lat="45.50477" lon="6.70091">
        <ele>2116.1</ele>
        <time>2012-02-22T09:35:31Z</time>
      </trkpt>
      <trkpt lat="45.50487" lon="6.70096">
        <ele>2113.8</ele>
        <time>2012-02-22T09:35:32Z</time>
      </trkpt>
      <trkpt lat="45.50494" lon="6.70093">
        <ele>2112</ele>
        <time>2012-02-22T09:35:33Z</time>
      </trkpt>
      <trkpt lat="45.50505" lon="6.70079">
        <ele>2109.9</ele>
        <time>2012-02-22T09:35:35Z</time>
      </trkpt>
      <trkpt lat="45.50512" lon="6.70075">
        <ele>2109.2</ele>
        <time>2012-02-22T09:35:36Z</time>
      </trkpt>
      <trkpt lat="45.50521" lon="6.70073">
        <ele>2108</ele>
        <time>2012-02-22T09:35:37Z</time>
      </trkpt>
      <trkpt lat="45.5053" lon="6.70073">
        <ele>2107</ele>
        <time>2012-02-22T09:35:38Z</time>
      </trkpt>
      <trkpt lat="45.5054" lon="6.7008">
        <ele>2106.3</ele>
        <time>2012-02-22T09:35:39Z</time>
      </trkpt>
      <trkpt lat="45.50544" lon="6.70092">
        <ele>2105.7</ele>
        <time>2012-02-22T09:35:40Z</time>
      </trkpt>
      <trkpt lat="45.50545" lon="6.70107">
        <ele>2102.4</ele>
        <time>2012-02-22T09:35:41Z</time>
      </trkpt>
      <trkpt lat="45.50548" lon="6.70122">
        <ele>2100</ele>
        <time>2012-02-22T09:35:42Z</time>
      </trkpt>
      <trkpt lat="45.50555" lon="6.70132">
        <ele>2098.1</ele>
        <time>2012-02-22T09:35:43Z</time>
      </trkpt>
      <trkpt lat="45.50563" lon="6.70139">
        <ele>2093.9</ele>
        <time>2012-02-22T09:35:44Z</time>
      </trkpt>
      <trkpt lat="45.50573" lon="6.70143">
        <ele>2090.7</ele>
        <time>2012-02-22T09:35:45Z</time>
      </trkpt>
      <trkpt lat="45.50585" lon="6.70138">
        <ele>2088.3</ele>
        <time>2012-02-22T09:35:46Z</time>
      </trkpt>
      <trkpt lat="45.50596" lon="6.70137">
        <ele>2084</ele>
        <time>2012-02-22T09:35:47Z</time>
      </trkpt>
      <trkpt lat="45.50606" lon="6.70144">
        <ele>2080.8</ele>
        <time>2012-02-22T09:35:48Z</time>
      </trkpt>
      <trkpt lat="45.50616" lon="6.70148">
        <ele>2078.3</ele>
        <time>2012-02-22T09:35:49Z</time>
      </trkpt>
      <trkpt lat="45.50625" lon="6.70148">
        <ele>2074.2</ele>
        <time>2012-02-22T09:35:50Z</time>
      </trkpt>
      <trkpt lat="45.50632" lon="6.70151">
        <ele>2071.2</ele>
        <time>2012-02-22T09:35:51Z</time>
      </trkpt>
      <trkpt lat="45.50636" lon="6.70159">
        <ele>2068.9</ele>
        <time>2012-02-22T09:35:52Z</time>
      </trkpt>
      <trkpt lat="45.5064" lon="6.70165">
        <ele>2066</ele>
        <time>2012-02-22T09:35:53Z</time>
      </trkpt>
      <trkpt lat="45.50646" lon="6.70166">
        <ele>2063.8</ele>
        <time>2012-02-22T09:35:54Z</time>
      </trkpt>
      <trkpt lat="45.50651" lon="6.7017">
        <ele>2062.2</ele>
        <time>2012-02-22T09:35:55Z</time>
      </trkpt>
      <trkpt lat="45.50652" lon="6.70178">
        <ele>2060.9</ele>
        <time>2012-02-22T09:35:56Z</time>
      </trkpt>
      <trkpt lat="45.50649" lon="6.7019">
        <ele>2056.3</ele>
        <time>2012-02-22T09:35:58Z</time>
      </trkpt>
      <trkpt lat="45.5065" lon="6.70197">
        <ele>2054.8</ele>
        <time>2012-02-22T09:35:59Z</time>
      </trkpt>
      <trkpt lat="45.50654" lon="6.70204">
        <ele>2053</ele>
        <time>2012-02-22T09:36:00Z</time>
      </trkpt>
      <trkpt lat="45.50661" lon="6.7021">
        <ele>2051.6</ele>
        <time>2012-02-22T09:36:01Z</time>
      </trkpt>
      <trkpt lat="45.5067" lon="6.70215">
        <ele>2050.6</ele>
        <time>2012-02-22T09:36:02Z</time>
      </trkpt>
      <trkpt lat="45.50731" lon="6.70263">
        <ele>2035.6</ele>
        <time>2012-02-22T09:36:09Z</time>
      </trkpt>
      <trkpt lat="45.50738" lon="6.70263">
        <ele>2035.2</ele>
        <time>2012-02-22T09:36:10Z</time>
      </trkpt>
      <trkpt lat="45.50755" lon="6.70252">
        <ele>2034.2</ele>
        <time>2012-02-22T09:36:13Z</time>
      </trkpt>
      <trkpt lat="45.50769" lon="6.70247">
        <ele>2033.6</ele>
        <time>2012-02-22T09:36:15Z</time>
      </trkpt>
      <trkpt lat="45.50776" lon="6.70247">
        <ele>2032.6</ele>
        <time>2012-02-22T09:36:16Z</time>
      </trkpt>
      <trkpt lat="45.50784" lon="6.70248">
        <ele>2031.7</ele>
        <time>2012-02-22T09:36:17Z</time>
      </trkpt>
      <trkpt lat="45.5079" lon="6.70245">
        <ele>2031.1</ele>
        <time>2012-02-22T09:36:18Z</time>
      </trkpt>
      <trkpt lat="45.50797" lon="6.70237">
        <ele>2030</ele>
        <time>2012-02-22T09:36:20Z</time>
      </trkpt>
      <trkpt lat="45.50813" lon="6.70212">
        <ele>2027.9</ele>
        <time>2012-02-22T09:36:25Z</time>
      </trkpt>
      <trkpt lat="45.50833" lon="6.70197">
        <ele>2026.4</ele>
        <time>2012-02-22T09:36:29Z</time>
      </trkpt>
      <trkpt lat="45.50845" lon="6.70184">
        <ele>2025.5</ele>
        <time>2012-02-22T09:36:31Z</time>
      </trkpt>
      <trkpt lat="45.50851" lon="6.70179">
        <ele>2024.6</ele>
        <time>2012-02-22T09:36:32Z</time>
      </trkpt>
      <trkpt lat="45.50864" lon="6.70177">
        <ele>2023.4</ele>
        <time>2012-02-22T09:36:34Z</time>
      </trkpt>
      <trkpt lat="45.50907" lon="6.70154">
        <ele>2013.1</ele>
        <time>2012-02-22T09:36:40Z</time>
      </trkpt>
      <trkpt lat="45.50956" lon="6.70115">
        <ele>1994.8</ele>
        <time>2012-02-22T09:36:46Z</time>
      </trkpt>
      <trkpt lat="45.50966" lon="6.7011">
        <ele>1993</ele>
        <time>2012-02-22T09:36:47Z</time>
      </trkpt>
      <trkpt lat="45.50974" lon="6.70102">
        <ele>1989.3</ele>
        <time>2012-02-22T09:36:48Z</time>
      </trkpt>
      <trkpt lat="45.50981" lon="6.7009">
        <ele>1986.6</ele>
        <time>2012-02-22T09:36:49Z</time>
      </trkpt>
      <trkpt lat="45.50989" lon="6.7008">
        <ele>1984.5</ele>
        <time>2012-02-22T09:36:50Z</time>
      </trkpt>
      <trkpt lat="45.51" lon="6.70077">
        <ele>1981.4</ele>
        <time>2012-02-22T09:36:51Z</time>
      </trkpt>
      <trkpt lat="45.51011" lon="6.70079">
        <ele>1979.1</ele>
        <time>2012-02-22T09:36:52Z</time>
      </trkpt>
      <trkpt lat="45.51022" lon="6.70079">
        <ele>1977.3</ele>
        <time>2012-02-22T09:36:53Z</time>
      </trkpt>
      <trkpt lat="45.51032" lon="6.70071">
        <ele>1974.4</ele>
        <time>2012-02-22T09:36:54Z</time>
      </trkpt>
      <trkpt lat="45.51039" lon="6.7006">
        <ele>1972.1</ele>
        <time>2012-02-22T09:36:55Z</time>
      </trkpt>
      <trkpt lat="45.51048" lon="6.7004">
        <ele>1968.5</ele>
        <time>2012-02-22T09:36:57Z</time>
      </trkpt>
      <trkpt lat="45.51052" lon="6.70035">
        <ele>1967.1</ele>
        <time>2012-02-22T09:36:58Z</time>
      </trkpt>
      <trkpt lat="45.51057" lon="6.70034">
        <ele>1966</ele>
        <time>2012-02-22T09:36:59Z</time>
      </trkpt>
      <trkpt lat="45.51065" lon="6.70036">
        <ele>1963.2</ele>
        <time>2012-02-22T09:37:01Z</time>
      </trkpt>
      <trkpt lat="45.51069" lon="6.70036">
        <ele>1962.3</ele>
        <time>2012-02-22T09:37:02Z</time>
      </trkpt>
      <trkpt lat="45.51072" lon="6.70036">
        <ele>1961.6</ele>
        <time>2012-02-22T09:37:03Z</time>
      </trkpt>
      <trkpt lat="45.51075" lon="6.70036">
        <ele>1961</ele>
        <time>2012-02-22T09:37:04Z</time>
      </trkpt>
      <trkpt lat="45.51096" lon="6.70029">
        <ele>1959</ele>
        <time>2012-02-22T09:37:08Z</time>
      </trkpt>
      <trkpt lat="45.51101" lon="6.70025">
        <ele>1958.6</ele>
        <time>2012-02-22T09:37:09Z</time>
      </trkpt>
      <trkpt lat="45.51105" lon="6.70018">
        <ele>1957.7</ele>
        <time>2012-02-22T09:37:10Z</time>
      </trkpt>
      <trkpt lat="45.51108" lon="6.70013">
        <ele>1957</ele>
        <time>2012-02-22T09:37:11Z</time>
      </trkpt>
      <trkpt lat="45.51111" lon="6.70008">
        <ele>1956.5</ele>
        <time>2012-02-22T09:37:12Z</time>
      </trkpt>
      <trkpt lat="45.51121" lon="6.69999">
        <ele>1953.9</ele>
        <time>2012-02-22T09:37:15Z</time>
      </trkpt>
      <trkpt lat="45.51131" lon="6.69985">
        <ele>1952.8</ele>
        <time>2012-02-22T09:37:18Z</time>
      </trkpt>
      <trkpt lat="45.51141" lon="6.69967">
        <ele>1950.9</ele>
        <time>2012-02-22T09:37:21Z</time>
      </trkpt>
      <trkpt lat="45.51145" lon="6.69961">
        <ele>1950.3</ele>
        <time>2012-02-22T09:37:22Z</time>
      </trkpt>
      <trkpt lat="45.51149" lon="6.69956">
        <ele>1950</ele>
        <time>2012-02-22T09:37:23Z</time>
      </trkpt>
      <trkpt lat="45.51165" lon="6.69946">
        <ele>1949</ele>
        <time>2012-02-22T09:37:26Z</time>
      </trkpt>
      <trkpt lat="45.51169" lon="6.6994">
        <ele>1948.5</ele>
        <time>2012-02-22T09:37:27Z</time>
      </trkpt>
      <trkpt lat="45.51178" lon="6.69924">
        <ele>1947.6</ele>
        <time>2012-02-22T09:37:29Z</time>
      </trkpt>
      <trkpt lat="45.51183" lon="6.69918">
        <ele>1947.1</ele>
        <time>2012-02-22T09:37:30Z</time>
      </trkpt>
      <trkpt lat="45.51189" lon="6.69915">
        <ele>1946.8</ele>
        <time>2012-02-22T09:37:31Z</time>
      </trkpt>
      <trkpt lat="45.51195" lon="6.69914">
        <ele>1945.3</ele>
        <time>2012-02-22T09:37:32Z</time>
      </trkpt>
      <trkpt lat="45.51199" lon="6.6991">
        <ele>1944.1</ele>
        <time>2012-02-22T09:37:33Z</time>
      </trkpt>
      <trkpt lat="45.51205" lon="6.699">
        <ele>1942.6</ele>
        <time>2012-02-22T09:37:35Z</time>
      </trkpt>
      <trkpt lat="45.51217" lon="6.6989">
        <ele>1941.8</ele>
        <time>2012-02-22T09:37:38Z</time>
      </trkpt>
      <trkpt lat="45.51219" lon="6.69886">
        <ele>1941.4</ele>
        <time>2012-02-22T09:37:39Z</time>
      </trkpt>
      <trkpt lat="45.5122" lon="6.69883">
        <ele>1941.1</ele>
        <time>2012-02-22T09:37:40Z</time>
      </trkpt>
      <trkpt lat="45.51221" lon="6.69877">
        <ele>1940.1</ele>
        <time>2012-02-22T09:37:43Z</time>
      </trkpt>
      <trkpt lat="45.51221" lon="6.69876">
        <ele>1939.9</ele>
        <time>2012-02-22T09:37:44Z</time>
      </trkpt>
      <trkpt lat="45.5125" lon="6.69892">
        <ele>1938.4</ele>
        <time>2012-02-22T09:45:43Z</time>
      </trkpt>
      <trkpt lat="45.5125" lon="6.69893">
        <ele>1938.2</ele>
        <time>2012-02-22T09:45:44Z</time>
      </trkpt>
      <trkpt lat="45.51252" lon="6.69896">
        <ele>1937.9</ele>
        <time>2012-02-22T09:45:46Z</time>
      </trkpt>
      <trkpt lat="45.5125" lon="6.69897">
        <ele>1938.3</ele>
        <time>2012-02-22T09:45:54Z</time>
      </trkpt>
      <trkpt lat="45.51257" lon="6.69918">
        <ele>1938.1</ele>
        <time>2012-02-22T09:45:58Z</time>
      </trkpt>
      <trkpt lat="45.51279" lon="6.69954">
        <ele>1939.6</ele>
        <time>2012-02-22T09:46:05Z</time>
      </trkpt>
      <trkpt lat="45.51283" lon="6.69958">
        <ele>1941.2</ele>
        <time>2012-02-22T09:46:06Z</time>
      </trkpt>
      <trkpt lat="45.5194" lon="6.71104">
        <ele>2256.9</ele>
        <time>2012-02-22T09:49:45Z</time>
      </trkpt>
      <trkpt lat="45.51942" lon="6.71109">
        <ele>2259.9</ele>
        <time>2012-02-22T09:49:46Z</time>
      </trkpt>
      <trkpt lat="45.51985" lon="6.71186">
        <ele>2284.4</ele>
        <time>2012-02-22T09:50:01Z</time>
      </trkpt>
      <trkpt lat="45.52249" lon="6.71642">
        <ele>2348.9</ele>
        <time>2012-02-22T09:51:26Z</time>
      </trkpt>
      <trkpt lat="45.52251" lon="6.71648">
        <ele>2349.5</ele>
        <time>2012-02-22T09:51:27Z</time>
      </trkpt>
      <trkpt lat="45.52251" lon="6.71658">
        <ele>2350.9</ele>
        <time>2012-02-22T09:51:30Z</time>
      </trkpt>
      <trkpt lat="45.52251" lon="6.7166">
        <ele>2351.2</ele>
        <time>2012-02-22T09:51:31Z</time>
      </trkpt>
      <trkpt lat="45.52252" lon="6.71661">
        <ele>2351.4</ele>
        <time>2012-02-22T09:51:32Z</time>
      </trkpt>
      <trkpt lat="45.52252" lon="6.71663">
        <ele>2351.5</ele>
        <time>2012-02-22T09:51:33Z</time>
      </trkpt>
      <trkpt lat="45.52257" lon="6.7167">
        <ele>2351.3</ele>
        <time>2012-02-22T09:51:36Z</time>
      </trkpt>
      <trkpt lat="45.52259" lon="6.71672">
        <ele>2351.2</ele>
        <time>2012-02-22T09:51:37Z</time>
      </trkpt>
      <trkpt lat="45.52268" lon="6.71676">
        <ele>2350.6</ele>
        <time>2012-02-22T09:51:42Z</time>
      </trkpt>
      <trkpt lat="45.52272" lon="6.71678">
        <ele>2350.3</ele>
        <time>2012-02-22T09:51:44Z</time>
      </trkpt>
      <trkpt lat="45.52273" lon="6.71679">
        <ele>2350.3</ele>
        <time>2012-02-22T09:51:45Z</time>
      </trkpt>
      <trkpt lat="45.52274" lon="6.7168">
        <ele>2350.3</ele>
        <time>2012-02-22T09:51:46Z</time>
      </trkpt>
      <trkpt lat="45.52274" lon="6.71681">
        <ele>2350.3</ele>
        <time>2012-02-22T09:51:47Z</time>
      </trkpt>
      <trkpt lat="45.52277" lon="6.71684">
        <ele>2349.9</ele>
        <time>2012-02-22T09:51:50Z</time>
      </trkpt>
      <trkpt lat="45.52277" lon="6.71685">
        <ele>2349.4</ele>
        <time>2012-02-22T09:51:51Z</time>
      </trkpt>
      <trkpt lat="45.52277" lon="6.71687">
        <ele>2349</ele>
        <time>2012-02-22T09:51:52Z</time>
      </trkpt>
      <trkpt lat="45.52278" lon="6.71688">
        <ele>2348.7</ele>
        <time>2012-02-22T09:51:53Z</time>
      </trkpt>
      <trkpt lat="45.52279" lon="6.71689">
        <ele>2348.6</ele>
        <time>2012-02-22T09:51:54Z</time>
      </trkpt>
      <trkpt lat="45.52279" lon="6.7169">
        <ele>2348.6</ele>
        <time>2012-02-22T09:51:55Z</time>
      </trkpt>
      <trkpt lat="45.5228" lon="6.71691">
        <ele>2348.5</ele>
        <time>2012-02-22T09:51:56Z</time>
      </trkpt>
      <trkpt lat="45.52285" lon="6.71707">
        <ele>2347.9</ele>
        <time>2012-02-22T09:56:39Z</time>
      </trkpt>
      <trkpt lat="45.52285" lon="6.71708">
        <ele>2347.7</ele>
        <time>2012-02-22T09:56:40Z</time>
      </trkpt>
      <trkpt lat="45.52294" lon="6.71702">
        <ele>2347.5</ele>
        <time>2012-02-22T09:57:21Z</time>
      </trkpt>
      <trkpt lat="45.52312" lon="6.71716">
        <ele>2345.7</ele>
        <time>2012-02-22T09:57:25Z</time>
      </trkpt>
      <trkpt lat="45.52326" lon="6.71736">
        <ele>2342.4</ele>
        <time>2012-02-22T09:57:28Z</time>
      </trkpt>
      <trkpt lat="45.52344" lon="6.71765">
        <ele>2337.1</ele>
        <time>2012-02-22T09:57:31Z</time>
      </trkpt>
      <trkpt lat="45.52379" lon="6.71858">
        <ele>2319.1</ele>
        <time>2012-02-22T09:57:37Z</time>
      </trkpt>
      <trkpt lat="45.52388" lon="6.71873">
        <ele>2317.3</ele>
        <time>2012-02-22T09:57:38Z</time>
      </trkpt>
      <trkpt lat="45.52481" lon="6.7197">
        <ele>2298.5</ele>
        <time>2012-02-22T09:57:47Z</time>
      </trkpt>
      <trkpt lat="45.52544" lon="6.72007">
        <ele>2295</ele>
        <time>2012-02-22T09:57:57Z</time>
      </trkpt>
      <trkpt lat="45.52555" lon="6.72017">
        <ele>2295.1</ele>
        <time>2012-02-22T09:58:01Z</time>
      </trkpt>
      <trkpt lat="45.52562" lon="6.72021">
        <ele>2295.7</ele>
        <time>2012-02-22T09:58:04Z</time>
      </trkpt>
      <trkpt lat="45.52565" lon="6.72025">
        <ele>2296.1</ele>
        <time>2012-02-22T09:58:06Z</time>
      </trkpt>
      <trkpt lat="45.5257" lon="6.72029">
        <ele>2294.8</ele>
        <time>2012-02-22T09:58:10Z</time>
      </trkpt>
      <trkpt lat="45.52572" lon="6.72032">
        <ele>2295.1</ele>
        <time>2012-02-22T09:58:19Z</time>
      </trkpt>
      <trkpt lat="45.52573" lon="6.72032">
        <ele>2295.2</ele>
        <time>2012-02-22T09:58:20Z</time>
      </trkpt>
      <trkpt lat="45.52574" lon="6.72033">
        <ele>2295.4</ele>
        <time>2012-02-22T09:58:21Z</time>
      </trkpt>
      <trkpt lat="45.52575" lon="6.72033">
        <ele>2295.4</ele>
        <time>2012-02-22T09:58:22Z</time>
      </trkpt>
      <trkpt lat="45.52605" lon="6.72075">
        <ele>2296.1</ele>
        <time>2012-02-22T09:58:48Z</time>
      </trkpt>
      <trkpt lat="45.52606" lon="6.72077">
        <ele>2296.1</ele>
        <time>2012-02-22T09:58:49Z</time>
      </trkpt>
      <trkpt lat="45.52607" lon="6.72078">
        <ele>2296.2</ele>
        <time>2012-02-22T09:58:50Z</time>
      </trkpt>
      <trkpt lat="45.52608" lon="6.7208">
        <ele>2296.2</ele>
        <time>2012-02-22T09:58:51Z</time>
      </trkpt>
      <trkpt lat="45.52618" lon="6.72095">
        <ele>2296.3</ele>
        <time>2012-02-22T09:59:00Z</time>
      </trkpt>
      <trkpt lat="45.52635" lon="6.72117">
        <ele>2296.4</ele>
        <time>2012-02-22T09:59:15Z</time>
      </trkpt>
      <trkpt lat="45.52637" lon="6.72119">
        <ele>2296.3</ele>
        <time>2012-02-22T09:59:16Z</time>
      </trkpt>
      <trkpt lat="45.52643" lon="6.72127">
        <ele>2295.8</ele>
        <time>2012-02-22T09:59:20Z</time>
      </trkpt>
      <trkpt lat="45.52649" lon="6.72136">
        <ele>2296.2</ele>
        <time>2012-02-22T09:59:25Z</time>
      </trkpt>
      <trkpt lat="45.5265" lon="6.72137">
        <ele>2296.1</ele>
        <time>2012-02-22T09:59:26Z</time>
      </trkpt>
      <trkpt lat="45.52651" lon="6.72139">
        <ele>2295.9</ele>
        <time>2012-02-22T09:59:27Z</time>
      </trkpt>
      <trkpt lat="45.52655" lon="6.72144">
        <ele>2295.7</ele>
        <time>2012-02-22T09:59:30Z</time>
      </trkpt>
      <trkpt lat="45.52656" lon="6.72147">
        <ele>2295.9</ele>
        <time>2012-02-22T09:59:32Z</time>
      </trkpt>
      <trkpt lat="45.52657" lon="6.72149">
        <ele>2295.9</ele>
        <time>2012-02-22T09:59:33Z</time>
      </trkpt>
      <trkpt lat="45.52676" lon="6.72177">
        <ele>2293.4</ele>
        <time>2012-02-22T09:59:50Z</time>
      </trkpt>
      <trkpt lat="45.52677" lon="6.72178">
        <ele>2293.9</ele>
        <time>2012-02-22T09:59:51Z</time>
      </trkpt>
      <trkpt lat="45.52685" lon="6.72189">
        <ele>2294.6</ele>
        <time>2012-02-22T09:59:59Z</time>
      </trkpt>
      <trkpt lat="45.52686" lon="6.7219">
        <ele>2294.4</ele>
        <time>2012-02-22T10:00:00Z</time>
      </trkpt>
      <trkpt lat="45.52687" lon="6.72192">
        <ele>2294.2</ele>
        <time>2012-02-22T10:00:01Z</time>
      </trkpt>
      <trkpt lat="45.52703" lon="6.72211">
        <ele>2294.8</ele>
        <time>2012-02-22T10:00:15Z</time>
      </trkpt>
      <trkpt lat="45.52705" lon="6.72214">
        <ele>2294.8</ele>
        <time>2012-02-22T10:00:17Z</time>
      </trkpt>
      <trkpt lat="45.52706" lon="6.72215">
        <ele>2295</ele>
        <time>2012-02-22T10:00:18Z</time>
      </trkpt>
      <trkpt lat="45.52718" lon="6.72234">
        <ele>2297.1</ele>
        <time>2012-02-22T10:00:30Z</time>
      </trkpt>
      <trkpt lat="45.5272" lon="6.72238">
        <ele>2296.2</ele>
        <time>2012-02-22T10:00:33Z</time>
      </trkpt>
      <trkpt lat="45.52721" lon="6.72242">
        <ele>2296.6</ele>
        <time>2012-02-22T10:00:40Z</time>
      </trkpt>
      <trkpt lat="45.52722" lon="6.72244">
        <ele>2296.8</ele>
        <time>2012-02-22T10:00:41Z</time>
      </trkpt>
      <trkpt lat="45.52722" lon="6.72245">
        <ele>2297</ele>
        <time>2012-02-22T10:00:42Z</time>
      </trkpt>
      <trkpt lat="45.52723" lon="6.72247">
        <ele>2297.2</ele>
        <time>2012-02-22T10:00:43Z</time>
      </trkpt>
      <trkpt lat="45.52725" lon="6.72251">
        <ele>2296.8</ele>
        <time>2012-02-22T10:00:46Z</time>
      </trkpt>
      <trkpt lat="45.52726" lon="6.72252">
        <ele>2296.6</ele>
        <time>2012-02-22T10:00:47Z</time>
      </trkpt>
      <trkpt lat="45.52727" lon="6.72252">
        <ele>2296.5</ele>
        <time>2012-02-22T10:00:48Z</time>
      </trkpt>
      <trkpt lat="45.52741" lon="6.72261">
        <ele>2296.5</ele>
        <time>2012-02-22T10:00:54Z</time>
      </trkpt>
      <trkpt lat="45.52745" lon="6.72262">
        <ele>2296.2</ele>
        <time>2012-02-22T10:00:55Z</time>
      </trkpt>
      <trkpt lat="45.52767" lon="6.72275">
        <ele>2294.8</ele>
        <time>2012-02-22T10:01:04Z</time>
      </trkpt>
      <trkpt lat="45.52772" lon="6.72278">
        <ele>2294.9</ele>
        <time>2012-02-22T10:01:06Z</time>
      </trkpt>
      <trkpt lat="45.52776" lon="6.72279">
        <ele>2294.6</ele>
        <time>2012-02-22T10:01:09Z</time>
      </trkpt>
      <trkpt lat="45.52779" lon="6.72281">
        <ele>2294.4</ele>
        <time>2012-02-22T10:01:11Z</time>
      </trkpt>
      <trkpt lat="45.5278" lon="6.72281">
        <ele>2294.3</ele>
        <time>2012-02-22T10:01:12Z</time>
      </trkpt>
      <trkpt lat="45.52782" lon="6.72282">
        <ele>2293.8</ele>
        <time>2012-02-22T10:01:13Z</time>
      </trkpt>
      <trkpt lat="45.52793" lon="6.72287">
        <ele>2293.7</ele>
        <time>2012-02-22T10:01:18Z</time>
      </trkpt>
      <trkpt lat="45.52808" lon="6.72289">
        <ele>2292.3</ele>
        <time>2012-02-22T10:01:24Z</time>
      </trkpt>
      <trkpt lat="45.52812" lon="6.72288">
        <ele>2292.3</ele>
        <time>2012-02-22T10:01:25Z</time>
      </trkpt>
      <trkpt lat="45.52815" lon="6.72289">
        <ele>2292.3</ele>
        <time>2012-02-22T10:01:26Z</time>
      </trkpt>
      <trkpt lat="45.52818" lon="6.72292">
        <ele>2292.3</ele>
        <time>2012-02-22T10:01:27Z</time>
      </trkpt>
      <trkpt lat="45.52818" lon="6.72295">
        <ele>2292.3</ele>
        <time>2012-02-22T10:01:28Z</time>
      </trkpt>
      <trkpt lat="45.52819" lon="6.72296">
        <ele>2291.8</ele>
        <time>2012-02-22T10:01:29Z</time>
      </trkpt>
      <trkpt lat="45.52828" lon="6.72314">
        <ele>2289.7</ele>
        <time>2012-02-22T10:02:17Z</time>
      </trkpt>
      <trkpt lat="45.52851" lon="6.72345">
        <ele>2286.8</ele>
        <time>2012-02-22T10:02:25Z</time>
      </trkpt>
      <trkpt lat="45.52854" lon="6.72353">
        <ele>2285.9</ele>
        <time>2012-02-22T10:02:26Z</time>
      </trkpt>
      <trkpt lat="45.52855" lon="6.72361">
        <ele>2285.2</ele>
        <time>2012-02-22T10:02:27Z</time>
      </trkpt>
      <trkpt lat="45.52854" lon="6.7237">
        <ele>2284.7</ele>
        <time>2012-02-22T10:02:28Z</time>
      </trkpt>
      <trkpt lat="45.52854" lon="6.72378">
        <ele>2283.7</ele>
        <time>2012-02-22T10:02:29Z</time>
      </trkpt>
      <trkpt lat="45.52856" lon="6.72387">
        <ele>2283</ele>
        <time>2012-02-22T10:02:30Z</time>
      </trkpt>
      <trkpt lat="45.5286" lon="6.72393">
        <ele>2282.4</ele>
        <time>2012-02-22T10:02:31Z</time>
      </trkpt>
      <trkpt lat="45.52867" lon="6.72395">
        <ele>2281.2</ele>
        <time>2012-02-22T10:02:32Z</time>
      </trkpt>
      <trkpt lat="45.52873" lon="6.72401">
        <ele>2280.2</ele>
        <time>2012-02-22T10:02:33Z</time>
      </trkpt>
      <trkpt lat="45.52878" lon="6.72409">
        <ele>2279.5</ele>
        <time>2012-02-22T10:02:34Z</time>
      </trkpt>
      <trkpt lat="45.52879" lon="6.7242">
        <ele>2279</ele>
        <time>2012-02-22T10:02:35Z</time>
      </trkpt>
      <trkpt lat="45.52878" lon="6.72431">
        <ele>2278</ele>
        <time>2012-02-22T10:02:36Z</time>
      </trkpt>
      <trkpt lat="45.5288" lon="6.72455">
        <ele>2276.6</ele>
        <time>2012-02-22T10:02:38Z</time>
      </trkpt>
      <trkpt lat="45.52883" lon="6.72468">
        <ele>2275.1</ele>
        <time>2012-02-22T10:02:39Z</time>
      </trkpt>
      <trkpt lat="45.5289" lon="6.72478">
        <ele>2274</ele>
        <time>2012-02-22T10:02:40Z</time>
      </trkpt>
      <trkpt lat="45.52899" lon="6.72486">
        <ele>2273.2</ele>
        <time>2012-02-22T10:02:41Z</time>
      </trkpt>
      <trkpt lat="45.52907" lon="6.72499">
        <ele>2269.8</ele>
        <time>2012-02-22T10:02:42Z</time>
      </trkpt>
      <trkpt lat="45.52916" lon="6.72533">
        <ele>2265.3</ele>
        <time>2012-02-22T10:02:44Z</time>
      </trkpt>
      <trkpt lat="45.52924" lon="6.72548">
        <ele>2261.5</ele>
        <time>2012-02-22T10:02:45Z</time>
      </trkpt>
      <trkpt lat="45.5295" lon="6.72569">
        <ele>2256.6</ele>
        <time>2012-02-22T10:02:47Z</time>
      </trkpt>
      <trkpt lat="45.52958" lon="6.72585">
        <ele>2252</ele>
        <time>2012-02-22T10:02:48Z</time>
      </trkpt>
      <trkpt lat="45.5297" lon="6.72621">
        <ele>2245.9</ele>
        <time>2012-02-22T10:02:50Z</time>
      </trkpt>
      <trkpt lat="45.52981" lon="6.72635">
        <ele>2244</ele>
        <time>2012-02-22T10:02:51Z</time>
      </trkpt>
      <trkpt lat="45.52996" lon="6.72643">
        <ele>2240.1</ele>
        <time>2012-02-22T10:02:52Z</time>
      </trkpt>
      <trkpt lat="45.53008" lon="6.72655">
        <ele>2237.3</ele>
        <time>2012-02-22T10:02:53Z</time>
      </trkpt>
      <trkpt lat="45.53023" lon="6.7269">
        <ele>2231.3</ele>
        <time>2012-02-22T10:02:55Z</time>
      </trkpt>
      <trkpt lat="45.53031" lon="6.72704">
        <ele>2228.4</ele>
        <time>2012-02-22T10:02:56Z</time>
      </trkpt>
      <trkpt lat="45.53041" lon="6.72716">
        <ele>2226.2</ele>
        <time>2012-02-22T10:02:57Z</time>
      </trkpt>
      <trkpt lat="45.53077" lon="6.72781">
        <ele>2213</ele>
        <time>2012-02-22T10:03:01Z</time>
      </trkpt>
      <trkpt lat="45.53088" lon="6.72795">
        <ele>2209.7</ele>
        <time>2012-02-22T10:03:02Z</time>
      </trkpt>
      <trkpt lat="45.53116" lon="6.7285">
        <ele>2201.5</ele>
        <time>2012-02-22T10:03:05Z</time>
      </trkpt>
      <trkpt lat="45.53153" lon="6.72888">
        <ele>2193.9</ele>
        <time>2012-02-22T10:03:08Z</time>
      </trkpt>
      <trkpt lat="45.5317" lon="6.72922">
        <ele>2188.2</ele>
        <time>2012-02-22T10:03:10Z</time>
      </trkpt>
      <trkpt lat="45.5318" lon="6.72936">
        <ele>2185</ele>
        <time>2012-02-22T10:03:11Z</time>
      </trkpt>
      <trkpt lat="45.53191" lon="6.72944">
        <ele>2182.5</ele>
        <time>2012-02-22T10:03:12Z</time>
      </trkpt>
      <trkpt lat="45.53202" lon="6.72945">
        <ele>2180.7</ele>
        <time>2012-02-22T10:03:13Z</time>
      </trkpt>
      <trkpt lat="45.53212" lon="6.72944">
        <ele>2178.7</ele>
        <time>2012-02-22T10:03:14Z</time>
      </trkpt>
      <trkpt lat="45.53219" lon="6.72945">
        <ele>2177.2</ele>
        <time>2012-02-22T10:03:15Z</time>
      </trkpt>
      <trkpt lat="45.53222" lon="6.72949">
        <ele>2176.1</ele>
        <time>2012-02-22T10:03:16Z</time>
      </trkpt>
      <trkpt lat="45.53223" lon="6.7295">
        <ele>2176.2</ele>
        <time>2012-02-22T10:03:17Z</time>
      </trkpt>
      <trkpt lat="45.53235" lon="6.72959">
        <ele>2175</ele>
        <time>2012-02-22T10:03:58Z</time>
      </trkpt>
      <trkpt lat="45.53237" lon="6.7296">
        <ele>2175.3</ele>
        <time>2012-02-22T10:03:59Z</time>
      </trkpt>
      <trkpt lat="45.53257" lon="6.72955">
        <ele>2173.6</ele>
        <time>2012-02-22T10:04:04Z</time>
      </trkpt>
      <trkpt lat="45.53267" lon="6.72949">
        <ele>2171.9</ele>
        <time>2012-02-22T10:04:06Z</time>
      </trkpt>
      <trkpt lat="45.53272" lon="6.72948">
        <ele>2171.3</ele>
        <time>2012-02-22T10:04:07Z</time>
      </trkpt>
      <trkpt lat="45.53285" lon="6.72957">
        <ele>2169.1</ele>
        <time>2012-02-22T10:04:10Z</time>
      </trkpt>
      <trkpt lat="45.53294" lon="6.72965">
        <ele>2164.3</ele>
        <time>2012-02-22T10:04:12Z</time>
      </trkpt>
      <trkpt lat="45.53335" lon="6.7298">
        <ele>2153.2</ele>
        <time>2012-02-22T10:04:16Z</time>
      </trkpt>
      <trkpt lat="45.53348" lon="6.72981">
        <ele>2151.5</ele>
        <time>2012-02-22T10:04:17Z</time>
      </trkpt>
      <trkpt lat="45.53375" lon="6.72974">
        <ele>2142.7</ele>
        <time>2012-02-22T10:04:19Z</time>
      </trkpt>
      <trkpt lat="45.5339" lon="6.72974">
        <ele>2139.9</ele>
        <time>2012-02-22T10:04:20Z</time>
      </trkpt>
      <trkpt lat="45.53414" lon="6.72988">
        <ele>2132.5</ele>
        <time>2012-02-22T10:04:22Z</time>
      </trkpt>
      <trkpt lat="45.53437" lon="6.72993">
        <ele>2128</ele>
        <time>2012-02-22T10:04:24Z</time>
      </trkpt>
      <trkpt lat="45.53448" lon="6.72998">
        <ele>2126.4</ele>
        <time>2012-02-22T10:04:25Z</time>
      </trkpt>
      <trkpt lat="45.53458" lon="6.73008">
        <ele>2125.3</ele>
        <time>2012-02-22T10:04:26Z</time>
      </trkpt>
      <trkpt lat="45.53474" lon="6.73034">
        <ele>2121.9</ele>
        <time>2012-02-22T10:04:28Z</time>
      </trkpt>
      <trkpt lat="45.53497" lon="6.73086">
        <ele>2116.2</ele>
        <time>2012-02-22T10:04:32Z</time>
      </trkpt>
      <trkpt lat="45.53503" lon="6.73096">
        <ele>2115.4</ele>
        <time>2012-02-22T10:04:33Z</time>
      </trkpt>
      <trkpt lat="45.53511" lon="6.73102">
        <ele>2114.2</ele>
        <time>2012-02-22T10:04:34Z</time>
      </trkpt>
      <trkpt lat="45.53524" lon="6.73106">
        <ele>2112.7</ele>
        <time>2012-02-22T10:04:36Z</time>
      </trkpt>
      <trkpt lat="45.53528" lon="6.73109">
        <ele>2112</ele>
        <time>2012-02-22T10:04:37Z</time>
      </trkpt>
      <trkpt lat="45.53531" lon="6.73112">
        <ele>2111.5</ele>
        <time>2012-02-22T10:04:38Z</time>
      </trkpt>
      <trkpt lat="45.53533" lon="6.73116">
        <ele>2111.1</ele>
        <time>2012-02-22T10:04:39Z</time>
      </trkpt>
      <trkpt lat="45.53534" lon="6.73121">
        <ele>2110.8</ele>
        <time>2012-02-22T10:04:41Z</time>
      </trkpt>
      <trkpt lat="45.53535" lon="6.73121">
        <ele>2110.7</ele>
        <time>2012-02-22T10:04:42Z</time>
      </trkpt>
      <trkpt lat="45.53536" lon="6.73121">
        <ele>2110.6</ele>
        <time>2012-02-22T10:04:43Z</time>
      </trkpt>
      <trkpt lat="45.53537" lon="6.7312">
        <ele>2110.6</ele>
        <time>2012-02-22T10:04:44Z</time>
      </trkpt>
      <trkpt lat="45.53539" lon="6.73119">
        <ele>2110.6</ele>
        <time>2012-02-22T10:04:45Z</time>
      </trkpt>
      <trkpt lat="45.5354" lon="6.73117">
        <ele>2110.1</ele>
        <time>2012-02-22T10:04:46Z</time>
      </trkpt>
      <trkpt lat="45.53541" lon="6.73114">
        <ele>2109.7</ele>
        <time>2012-02-22T10:04:47Z</time>
      </trkpt>
      <trkpt lat="45.53542" lon="6.7311">
        <ele>2109.4</ele>
        <time>2012-02-22T10:04:48Z</time>
      </trkpt>
      <trkpt lat="45.53545" lon="6.73105">
        <ele>2109.2</ele>
        <time>2012-02-22T10:04:49Z</time>
      </trkpt>
      <trkpt lat="45.53549" lon="6.73101">
        <ele>2108.4</ele>
        <time>2012-02-22T10:04:50Z</time>
      </trkpt>
      <trkpt lat="45.53556" lon="6.73097">
        <ele>2107.9</ele>
        <time>2012-02-22T10:04:51Z</time>
      </trkpt>
      <trkpt lat="45.53573" lon="6.731">
        <ele>2105.6</ele>
        <time>2012-02-22T10:04:53Z</time>
      </trkpt>
      <trkpt lat="45.53602" lon="6.73097">
        <ele>2100.6</ele>
        <time>2012-02-22T10:04:56Z</time>
      </trkpt>
      <trkpt lat="45.53612" lon="6.73097">
        <ele>2098.8</ele>
        <time>2012-02-22T10:04:57Z</time>
      </trkpt>
      <trkpt lat="45.53626" lon="6.73095">
        <ele>2095.9</ele>
        <time>2012-02-22T10:04:59Z</time>
      </trkpt>
      <trkpt lat="45.53627" lon="6.73092">
        <ele>2094.8</ele>
        <time>2012-02-22T10:05:00Z</time>
      </trkpt>
      <trkpt lat="45.53622" lon="6.73086">
        <ele>2094</ele>
        <time>2012-02-22T10:05:01Z</time>
      </trkpt>
      <trkpt lat="45.53612" lon="6.7307">
        <ele>2091.2</ele>
        <time>2012-02-22T10:05:03Z</time>
      </trkpt>
      <trkpt lat="45.53612" lon="6.7306">
        <ele>2090.3</ele>
        <time>2012-02-22T10:05:04Z</time>
      </trkpt>
      <trkpt lat="45.53614" lon="6.7305">
        <ele>2089.6</ele>
        <time>2012-02-22T10:05:05Z</time>
      </trkpt>
      <trkpt lat="45.53617" lon="6.73042">
        <ele>2088.7</ele>
        <time>2012-02-22T10:05:06Z</time>
      </trkpt>
      <trkpt lat="45.53621" lon="6.73032">
        <ele>2088</ele>
        <time>2012-02-22T10:05:07Z</time>
      </trkpt>
      <trkpt lat="45.53622" lon="6.73022">
        <ele>2087.5</ele>
        <time>2012-02-22T10:05:08Z</time>
      </trkpt>
      <trkpt lat="45.53618" lon="6.73002">
        <ele>2085</ele>
        <time>2012-02-22T10:05:10Z</time>
      </trkpt>
      <trkpt lat="45.5362" lon="6.72993">
        <ele>2084.3</ele>
        <time>2012-02-22T10:05:11Z</time>
      </trkpt>
      <trkpt lat="45.53626" lon="6.72986">
        <ele>2083.6</ele>
        <time>2012-02-22T10:05:12Z</time>
      </trkpt>
      <trkpt lat="45.5363" lon="6.72979">
        <ele>2083.1</ele>
        <time>2012-02-22T10:05:13Z</time>
      </trkpt>
      <trkpt lat="45.53631" lon="6.7297">
        <ele>2082.7</ele>
        <time>2012-02-22T10:05:14Z</time>
      </trkpt>
      <trkpt lat="45.53628" lon="6.7296">
        <ele>2080.9</ele>
        <time>2012-02-22T10:05:15Z</time>
      </trkpt>
      <trkpt lat="45.5362" lon="6.72941">
        <ele>2078.5</ele>
        <time>2012-02-22T10:05:17Z</time>
      </trkpt>
      <trkpt lat="45.53621" lon="6.72932">
        <ele>2077.1</ele>
        <time>2012-02-22T10:05:18Z</time>
      </trkpt>
      <trkpt lat="45.53622" lon="6.72923">
        <ele>2076</ele>
        <time>2012-02-22T10:05:19Z</time>
      </trkpt>
      <trkpt lat="45.53625" lon="6.72915">
        <ele>2075.1</ele>
        <time>2012-02-22T10:05:20Z</time>
      </trkpt>
      <trkpt lat="45.53627" lon="6.72907">
        <ele>2073.2</ele>
        <time>2012-02-22T10:05:21Z</time>
      </trkpt>
      <trkpt lat="45.53633" lon="6.72893">
        <ele>2070.7</ele>
        <time>2012-02-22T10:05:23Z</time>
      </trkpt>
      <trkpt lat="45.53644" lon="6.72872">
        <ele>2067</ele>
        <time>2012-02-22T10:05:26Z</time>
      </trkpt>
      <trkpt lat="45.5365" lon="6.72859">
        <ele>2063.8</ele>
        <time>2012-02-22T10:05:28Z</time>
      </trkpt>
      <trkpt lat="45.53653" lon="6.72854">
        <ele>2062.1</ele>
        <time>2012-02-22T10:05:29Z</time>
      </trkpt>
      <trkpt lat="45.53655" lon="6.72852">
        <ele>2060.9</ele>
        <time>2012-02-22T10:05:30Z</time>
      </trkpt>
      <trkpt lat="45.53656" lon="6.72851">
        <ele>2058.5</ele>
        <time>2012-02-22T10:05:31Z</time>
      </trkpt>
      <trkpt lat="45.53656" lon="6.72849">
        <ele>2056.6</ele>
        <time>2012-02-22T10:05:32Z</time>
      </trkpt>
      <trkpt lat="45.53656" lon="6.72848">
        <ele>2055.3</ele>
        <time>2012-02-22T10:05:33Z</time>
      </trkpt>
      <trkpt lat="45.53656" lon="6.72848">
        <ele>2054.5</ele>
        <time>2012-02-22T10:05:34Z</time>
      </trkpt>
      <trkpt lat="45.53655" lon="6.72847">
        <ele>2053.9</ele>
        <time>2012-02-22T10:05:35Z</time>
      </trkpt>
      <trkpt lat="45.53655" lon="6.72845">
        <ele>2053.4</ele>
        <time>2012-02-22T10:05:36Z</time>
      </trkpt>
      <trkpt lat="45.53655" lon="6.72844">
        <ele>2052.8</ele>
        <time>2012-02-22T10:05:37Z</time>
      </trkpt>
      <trkpt lat="45.53654" lon="6.72843">
        <ele>2052.3</ele>
        <time>2012-02-22T10:05:38Z</time>
      </trkpt>
      <trkpt lat="45.53653" lon="6.72843">
        <ele>2052</ele>
        <time>2012-02-22T10:05:39Z</time>
      </trkpt>
      <trkpt lat="45.53653" lon="6.72842">
        <ele>2051.8</ele>
        <time>2012-02-22T10:05:40Z</time>
      </trkpt>
      <trkpt lat="45.53652" lon="6.72842">
        <ele>2051.4</ele>
        <time>2012-02-22T10:05:41Z</time>
      </trkpt>
      <trkpt lat="45.53652" lon="6.72842">
        <ele>2051.1</ele>
        <time>2012-02-22T10:05:42Z</time>
      </trkpt>
      <trkpt lat="45.5365" lon="6.72825">
        <ele>2050.7</ele>
        <time>2012-02-22T10:06:20Z</time>
      </trkpt>
      <trkpt lat="45.53653" lon="6.72819">
        <ele>2050.5</ele>
        <time>2012-02-22T10:06:21Z</time>
      </trkpt>
      <trkpt lat="45.53656" lon="6.72814">
        <ele>2049.8</ele>
        <time>2012-02-22T10:06:22Z</time>
      </trkpt>
      <trkpt lat="45.53658" lon="6.72808">
        <ele>2049.3</ele>
        <time>2012-02-22T10:06:23Z</time>
      </trkpt>
      <trkpt lat="45.53661" lon="6.72802">
        <ele>2048.9</ele>
        <time>2012-02-22T10:06:24Z</time>
      </trkpt>
      <trkpt lat="45.53662" lon="6.72795">
        <ele>2046.6</ele>
        <time>2012-02-22T10:06:25Z</time>
      </trkpt>
      <trkpt lat="45.53666" lon="6.72788">
        <ele>2044.9</ele>
        <time>2012-02-22T10:06:26Z</time>
      </trkpt>
      <trkpt lat="45.53667" lon="6.7278">
        <ele>2043.7</ele>
        <time>2012-02-22T10:06:27Z</time>
      </trkpt>
      <trkpt lat="45.53674" lon="6.72768">
        <ele>2040.5</ele>
        <time>2012-02-22T10:06:29Z</time>
      </trkpt>
      <trkpt lat="45.53678" lon="6.72764">
        <ele>2037.6</ele>
        <time>2012-02-22T10:06:31Z</time>
      </trkpt>
      <trkpt lat="45.5368" lon="6.72761">
        <ele>2035.4</ele>
        <time>2012-02-22T10:06:32Z</time>
      </trkpt>
      <trkpt lat="45.53682" lon="6.72756">
        <ele>2033.7</ele>
        <time>2012-02-22T10:06:33Z</time>
      </trkpt>
      <trkpt lat="45.53686" lon="6.72751">
        <ele>2032.5</ele>
        <time>2012-02-22T10:06:34Z</time>
      </trkpt>
      <trkpt lat="45.53691" lon="6.72746">
        <ele>2030.1</ele>
        <time>2012-02-22T10:06:35Z</time>
      </trkpt>
      <trkpt lat="45.53695" lon="6.72738">
        <ele>2028.4</ele>
        <time>2012-02-22T10:06:36Z</time>
      </trkpt>
      <trkpt lat="45.53701" lon="6.72734">
        <ele>2027</ele>
        <time>2012-02-22T10:06:37Z</time>
      </trkpt>
      <trkpt lat="45.5371" lon="6.72723">
        <ele>2021.6</ele>
        <time>2012-02-22T10:06:39Z</time>
      </trkpt>
      <trkpt lat="45.53715" lon="6.7272">
        <ele>2019.8</ele>
        <time>2012-02-22T10:06:40Z</time>
      </trkpt>
      <trkpt lat="45.5372" lon="6.72715">
        <ele>2016.4</ele>
        <time>2012-02-22T10:06:41Z</time>
      </trkpt>
      <trkpt lat="45.53726" lon="6.72712">
        <ele>2013.8</ele>
        <time>2012-02-22T10:06:42Z</time>
      </trkpt>
      <trkpt lat="45.53731" lon="6.72706">
        <ele>2011.9</ele>
        <time>2012-02-22T10:06:43Z</time>
      </trkpt>
      <trkpt lat="45.53735" lon="6.727">
        <ele>2010.4</ele>
        <time>2012-02-22T10:06:44Z</time>
      </trkpt>
      <trkpt lat="45.53746" lon="6.72696">
        <ele>2005.5</ele>
        <time>2012-02-22T10:06:46Z</time>
      </trkpt>
      <trkpt lat="45.53757" lon="6.7269">
        <ele>2001.3</ele>
        <time>2012-02-22T10:06:48Z</time>
      </trkpt>
      <trkpt lat="45.53762" lon="6.72686">
        <ele>1999.4</ele>
        <time>2012-02-22T10:06:49Z</time>
      </trkpt>
      <trkpt lat="45.53774" lon="6.72671">
        <ele>1994.5</ele>
        <time>2012-02-22T10:06:52Z</time>
      </trkpt>
      <trkpt lat="45.53775" lon="6.72667">
        <ele>1993.4</ele>
        <time>2012-02-22T10:06:53Z</time>
      </trkpt>
      <trkpt lat="45.53775" lon="6.72654">
        <ele>1988.6</ele>
        <time>2012-02-22T10:06:57Z</time>
      </trkpt>
      <trkpt lat="45.53775" lon="6.72653">
        <ele>1987.5</ele>
        <time>2012-02-22T10:06:58Z</time>
      </trkpt>
      <trkpt lat="45.53775" lon="6.72652">
        <ele>1986.7</ele>
        <time>2012-02-22T10:06:59Z</time>
      </trkpt>
      <trkpt lat="45.53775" lon="6.7265">
        <ele>1985.8</ele>
        <time>2012-02-22T10:07:00Z</time>
      </trkpt>
      <trkpt lat="45.53776" lon="6.72649">
        <ele>1985.2</ele>
        <time>2012-02-22T10:07:01Z</time>
      </trkpt>
      <trkpt lat="45.53776" lon="6.72648">
        <ele>1984.8</ele>
        <time>2012-02-22T10:07:02Z</time>
      </trkpt>
      <trkpt lat="45.53776" lon="6.72647">
        <ele>1984.4</ele>
        <time>2012-02-22T10:07:03Z</time>
      </trkpt>
      <trkpt lat="45.53776" lon="6.72645">
        <ele>1984</ele>
        <time>2012-02-22T10:07:04Z</time>
      </trkpt>
      <trkpt lat="45.53777" lon="6.72644">
        <ele>1983.6</ele>
        <time>2012-02-22T10:07:05Z</time>
      </trkpt>
      <trkpt lat="45.53777" lon="6.72643">
        <ele>1983.4</ele>
        <time>2012-02-22T10:07:06Z</time>
      </trkpt>
      <trkpt lat="45.53777" lon="6.72642">
        <ele>1983.6</ele>
        <time>2012-02-22T10:07:07Z</time>
      </trkpt>
      <trkpt lat="45.53777" lon="6.72641">
        <ele>1983.8</ele>
        <time>2012-02-22T10:07:08Z</time>
      </trkpt>
      <trkpt lat="45.53777" lon="6.7264">
        <ele>1983.9</ele>
        <time>2012-02-22T10:07:09Z</time>
      </trkpt>
      <trkpt lat="45.53777" lon="6.72639">
        <ele>1983.9</ele>
        <time>2012-02-22T10:07:10Z</time>
      </trkpt>
      <trkpt lat="45.53779" lon="6.72634">
        <ele>1983.8</ele>
        <time>2012-02-22T10:07:12Z</time>
      </trkpt>
      <trkpt lat="45.53782" lon="6.7263">
        <ele>1983.3</ele>
        <time>2012-02-22T10:07:13Z</time>
      </trkpt>
      <trkpt lat="45.53783" lon="6.72625">
        <ele>1982.9</ele>
        <time>2012-02-22T10:07:14Z</time>
      </trkpt>
      <trkpt lat="45.53782" lon="6.72619">
        <ele>1982.6</ele>
        <time>2012-02-22T10:07:15Z</time>
      </trkpt>
      <trkpt lat="45.53779" lon="6.72613">
        <ele>1981.7</ele>
        <time>2012-02-22T10:07:16Z</time>
      </trkpt>
      <trkpt lat="45.53777" lon="6.72606">
        <ele>1980.9</ele>
        <time>2012-02-22T10:07:17Z</time>
      </trkpt>
      <trkpt lat="45.53779" lon="6.72598">
        <ele>1980.4</ele>
        <time>2012-02-22T10:07:18Z</time>
      </trkpt>
      <trkpt lat="45.53779" lon="6.72589">
        <ele>1980</ele>
        <time>2012-02-22T10:07:19Z</time>
      </trkpt>
      <trkpt lat="45.53778" lon="6.7258">
        <ele>1979</ele>
        <time>2012-02-22T10:07:20Z</time>
      </trkpt>
      <trkpt lat="45.53776" lon="6.72572">
        <ele>1978.2</ele>
        <time>2012-02-22T10:07:21Z</time>
      </trkpt>
      <trkpt lat="45.53776" lon="6.72563">
        <ele>1977.7</ele>
        <time>2012-02-22T10:07:22Z</time>
      </trkpt>
      <trkpt lat="45.53778" lon="6.72544">
        <ele>1975.6</ele>
        <time>2012-02-22T10:07:24Z</time>
      </trkpt>
      <trkpt lat="45.53775" lon="6.72523">
        <ele>1972.8</ele>
        <time>2012-02-22T10:07:26Z</time>
      </trkpt>
      <trkpt lat="45.53778" lon="6.72498">
        <ele>1969.9</ele>
        <time>2012-02-22T10:07:28Z</time>
      </trkpt>
      <trkpt lat="45.53776" lon="6.72486">
        <ele>1966.6</ele>
        <time>2012-02-22T10:07:29Z</time>
      </trkpt>
      <trkpt lat="45.53775" lon="6.72472">
        <ele>1964.1</ele>
        <time>2012-02-22T10:07:30Z</time>
      </trkpt>
      <trkpt lat="45.53779" lon="6.72457">
        <ele>1962.3</ele>
        <time>2012-02-22T10:07:31Z</time>
      </trkpt>
      <trkpt lat="45.53781" lon="6.72441">
        <ele>1958</ele>
        <time>2012-02-22T10:07:32Z</time>
      </trkpt>
      <trkpt lat="45.53778" lon="6.72408">
        <ele>1952.4</ele>
        <time>2012-02-22T10:07:34Z</time>
      </trkpt>
      <trkpt lat="45.5378" lon="6.72391">
        <ele>1950.6</ele>
        <time>2012-02-22T10:07:35Z</time>
      </trkpt>
      <trkpt lat="45.5378" lon="6.7236">
        <ele>1944.5</ele>
        <time>2012-02-22T10:07:37Z</time>
      </trkpt>
      <trkpt lat="45.53781" lon="6.72345">
        <ele>1942.5</ele>
        <time>2012-02-22T10:07:38Z</time>
      </trkpt>
      <trkpt lat="45.5378" lon="6.72322">
        <ele>1936.1</ele>
        <time>2012-02-22T10:07:40Z</time>
      </trkpt>
      <trkpt lat="45.53781" lon="6.72314">
        <ele>1934.1</ele>
        <time>2012-02-22T10:07:41Z</time>
      </trkpt>
      <trkpt lat="45.53781" lon="6.72297">
        <ele>1930.4</ele>
        <time>2012-02-22T10:07:43Z</time>
      </trkpt>
      <trkpt lat="45.53782" lon="6.72291">
        <ele>1929.3</ele>
        <time>2012-02-22T10:07:44Z</time>
      </trkpt>
      <trkpt lat="45.53782" lon="6.72286">
        <ele>1927.2</ele>
        <time>2012-02-22T10:07:45Z</time>
      </trkpt>
      <trkpt lat="45.53781" lon="6.72282">
        <ele>1925.6</ele>
        <time>2012-02-22T10:07:46Z</time>
      </trkpt>
      <trkpt lat="45.5378" lon="6.72271">
        <ele>1922.6</ele>
        <time>2012-02-22T10:07:49Z</time>
      </trkpt>
      <trkpt lat="45.53781" lon="6.72268">
        <ele>1922.1</ele>
        <time>2012-02-22T10:07:50Z</time>
      </trkpt>
      <trkpt lat="45.5378" lon="6.72267">
        <ele>1921</ele>
        <time>2012-02-22T10:07:51Z</time>
      </trkpt>
      <trkpt lat="45.53784" lon="6.72257">
        <ele>1917.6</ele>
        <time>2012-02-22T10:08:13Z</time>
      </trkpt>
      <trkpt lat="45.53784" lon="6.72257">
        <ele>1917.7</ele>
        <time>2012-02-22T10:08:14Z</time>
      </trkpt>
      <trkpt lat="45.53785" lon="6.72257">
        <ele>1917.7</ele>
        <time>2012-02-22T10:08:15Z</time>
      </trkpt>
      <trkpt lat="45.53786" lon="6.72257">
        <ele>1917.8</ele>
        <time>2012-02-22T10:08:16Z</time>
      </trkpt>
      <trkpt lat="45.53786" lon="6.72257">
        <ele>1917.5</ele>
        <time>2012-02-22T10:08:17Z</time>
      </trkpt>
      <trkpt lat="45.53787" lon="6.72256">
        <ele>1917.4</ele>
        <time>2012-02-22T10:08:18Z</time>
      </trkpt>
      <trkpt lat="45.53789" lon="6.72256">
        <ele>1917.2</ele>
        <time>2012-02-22T10:08:19Z</time>
      </trkpt>
      <trkpt lat="45.53791" lon="6.72257">
        <ele>1917.2</ele>
        <time>2012-02-22T10:08:20Z</time>
      </trkpt>
      <trkpt lat="45.53793" lon="6.72259">
        <ele>1917.2</ele>
        <time>2012-02-22T10:08:21Z</time>
      </trkpt>
      <trkpt lat="45.53795" lon="6.72263">
        <ele>1917.2</ele>
        <time>2012-02-22T10:08:22Z</time>
      </trkpt>
      <trkpt lat="45.53799" lon="6.72265">
        <ele>1916.5</ele>
        <time>2012-02-22T10:08:23Z</time>
      </trkpt>
      <trkpt lat="45.53802" lon="6.72265">
        <ele>1915.9</ele>
        <time>2012-02-22T10:08:24Z</time>
      </trkpt>
      <trkpt lat="45.53806" lon="6.72263">
        <ele>1915.2</ele>
        <time>2012-02-22T10:08:26Z</time>
      </trkpt>
      <trkpt lat="45.53808" lon="6.72262">
        <ele>1914.2</ele>
        <time>2012-02-22T10:08:27Z</time>
      </trkpt>
      <trkpt lat="45.53811" lon="6.72261">
        <ele>1913.5</ele>
        <time>2012-02-22T10:08:28Z</time>
      </trkpt>
      <trkpt lat="45.53816" lon="6.72269">
        <ele>1911.7</ele>
        <time>2012-02-22T10:08:30Z</time>
      </trkpt>
      <trkpt lat="45.53818" lon="6.72273">
        <ele>1910.8</ele>
        <time>2012-02-22T10:08:31Z</time>
      </trkpt>
      <trkpt lat="45.53827" lon="6.72276">
        <ele>1908.5</ele>
        <time>2012-02-22T10:08:33Z</time>
      </trkpt>
      <trkpt lat="45.53833" lon="6.72288">
        <ele>1906.2</ele>
        <time>2012-02-22T10:08:35Z</time>
      </trkpt>
      <trkpt lat="45.53837" lon="6.72289">
        <ele>1904.4</ele>
        <time>2012-02-22T10:08:36Z</time>
      </trkpt>
      <trkpt lat="45.53842" lon="6.72289">
        <ele>1903</ele>
        <time>2012-02-22T10:08:37Z</time>
      </trkpt>
      <trkpt lat="45.53847" lon="6.72292">
        <ele>1901.9</ele>
        <time>2012-02-22T10:08:38Z</time>
      </trkpt>
      <trkpt lat="45.53851" lon="6.72296">
        <ele>1899.9</ele>
        <time>2012-02-22T10:08:39Z</time>
      </trkpt>
      <trkpt lat="45.53856" lon="6.723">
        <ele>1898.5</ele>
        <time>2012-02-22T10:08:40Z</time>
      </trkpt>
      <trkpt lat="45.53862" lon="6.72301">
        <ele>1897.4</ele>
        <time>2012-02-22T10:08:41Z</time>
      </trkpt>
      <trkpt lat="45.53871" lon="6.72306">
        <ele>1895.4</ele>
        <time>2012-02-22T10:08:43Z</time>
      </trkpt>
      <trkpt lat="45.53876" lon="6.72306">
        <ele>1894.6</ele>
        <time>2012-02-22T10:08:44Z</time>
      </trkpt>
      <trkpt lat="45.53881" lon="6.72306">
        <ele>1894</ele>
        <time>2012-02-22T10:08:45Z</time>
      </trkpt>
      <trkpt lat="45.53885" lon="6.72308">
        <ele>1892.6</ele>
        <time>2012-02-22T10:08:46Z</time>
      </trkpt>
      <trkpt lat="45.53896" lon="6.72322">
        <ele>1888.3</ele>
        <time>2012-02-22T10:08:50Z</time>
      </trkpt>
      <trkpt lat="45.53899" lon="6.72322">
        <ele>1887.5</ele>
        <time>2012-02-22T10:08:51Z</time>
      </trkpt>
      <trkpt lat="45.53907" lon="6.72318">
        <ele>1886.8</ele>
        <time>2012-02-22T10:08:53Z</time>
      </trkpt>
      <trkpt lat="45.53913" lon="6.72318">
        <ele>1886.6</ele>
        <time>2012-02-22T10:08:54Z</time>
      </trkpt>
      <trkpt lat="45.53917" lon="6.7232">
        <ele>1885</ele>
        <time>2012-02-22T10:08:55Z</time>
      </trkpt>
      <trkpt lat="45.53922" lon="6.72325">
        <ele>1883.8</ele>
        <time>2012-02-22T10:08:56Z</time>
      </trkpt>
      <trkpt lat="45.53925" lon="6.72331">
        <ele>1882.9</ele>
        <time>2012-02-22T10:08:57Z</time>
      </trkpt>
      <trkpt lat="45.53929" lon="6.72344">
        <ele>1881.2</ele>
        <time>2012-02-22T10:08:59Z</time>
      </trkpt>
      <trkpt lat="45.53932" lon="6.72348">
        <ele>1880.4</ele>
        <time>2012-02-22T10:09:00Z</time>
      </trkpt>
      <trkpt lat="45.53947" lon="6.72362">
        <ele>1879.7</ele>
        <time>2012-02-22T10:09:05Z</time>
      </trkpt>
      <trkpt lat="45.5395" lon="6.72364">
        <ele>1879.7</ele>
        <time>2012-02-22T10:09:06Z</time>
      </trkpt>
      <trkpt lat="45.53953" lon="6.72365">
        <ele>1879</ele>
        <time>2012-02-22T10:09:08Z</time>
      </trkpt>
      <trkpt lat="45.53954" lon="6.72366">
        <ele>1878.5</ele>
        <time>2012-02-22T10:09:09Z</time>
      </trkpt>
      <trkpt lat="45.53955" lon="6.72368">
        <ele>1878.2</ele>
        <time>2012-02-22T10:09:10Z</time>
      </trkpt>
      <trkpt lat="45.53964" lon="6.7239">
        <ele>1876.6</ele>
        <time>2012-02-22T10:09:14Z</time>
      </trkpt>
      <trkpt lat="45.53976" lon="6.72405">
        <ele>1875</ele>
        <time>2012-02-22T10:09:16Z</time>
      </trkpt>
      <trkpt lat="45.53988" lon="6.72414">
        <ele>1871.4</ele>
        <time>2012-02-22T10:09:18Z</time>
      </trkpt>
      <trkpt lat="45.53994" lon="6.72417">
        <ele>1869.1</ele>
        <time>2012-02-22T10:09:19Z</time>
      </trkpt>
      <trkpt lat="45.54" lon="6.72422">
        <ele>1867.4</ele>
        <time>2012-02-22T10:09:20Z</time>
      </trkpt>
      <trkpt lat="45.54023" lon="6.72431">
        <ele>1860.6</ele>
        <time>2012-02-22T10:09:23Z</time>
      </trkpt>
      <trkpt lat="45.54031" lon="6.72436">
        <ele>1857</ele>
        <time>2012-02-22T10:09:24Z</time>
      </trkpt>
      <trkpt lat="45.5404" lon="6.72439">
        <ele>1854.3</ele>
        <time>2012-02-22T10:09:25Z</time>
      </trkpt>
      <trkpt lat="45.54071" lon="6.72455">
        <ele>1844.4</ele>
        <time>2012-02-22T10:09:29Z</time>
      </trkpt>
      <trkpt lat="45.54078" lon="6.7246">
        <ele>1841.5</ele>
        <time>2012-02-22T10:09:30Z</time>
      </trkpt>
      <trkpt lat="45.54087" lon="6.72461">
        <ele>1839.3</ele>
        <time>2012-02-22T10:09:31Z</time>
      </trkpt>
      <trkpt lat="45.54095" lon="6.7246">
        <ele>1837.7</ele>
        <time>2012-02-22T10:09:32Z</time>
      </trkpt>
      <trkpt lat="45.54102" lon="6.72457">
        <ele>1836.4</ele>
        <time>2012-02-22T10:09:33Z</time>
      </trkpt>
      <trkpt lat="45.5411" lon="6.72455">
        <ele>1834.1</ele>
        <time>2012-02-22T10:09:34Z</time>
      </trkpt>
      <trkpt lat="45.54116" lon="6.72456">
        <ele>1832.4</ele>
        <time>2012-02-22T10:09:35Z</time>
      </trkpt>
      <trkpt lat="45.54122" lon="6.72458">
        <ele>1831.1</ele>
        <time>2012-02-22T10:09:36Z</time>
      </trkpt>
      <trkpt lat="45.54135" lon="6.72465">
        <ele>1828.4</ele>
        <time>2012-02-22T10:09:39Z</time>
      </trkpt>
      <trkpt lat="45.54138" lon="6.72468">
        <ele>1828.3</ele>
        <time>2012-02-22T10:09:40Z</time>
      </trkpt>
      <trkpt lat="45.54141" lon="6.72472">
        <ele>1828.1</ele>
        <time>2012-02-22T10:09:42Z</time>
      </trkpt>
      <trkpt lat="45.54142" lon="6.72474">
        <ele>1828.1</ele>
        <time>2012-02-22T10:09:43Z</time>
      </trkpt>
      <trkpt lat="45.54143" lon="6.72475">
        <ele>1828.2</ele>
        <time>2012-02-22T10:09:44Z</time>
      </trkpt>
      <trkpt lat="45.54144" lon="6.72476">
        <ele>1828.2</ele>
        <time>2012-02-22T10:09:45Z</time>
      </trkpt>
      <trkpt lat="45.54144" lon="6.72477">
        <ele>1828.2</ele>
        <time>2012-02-22T10:09:46Z</time>
      </trkpt>
      <trkpt lat="45.54145" lon="6.72478">
        <ele>1828.3</ele>
        <time>2012-02-22T10:09:47Z</time>
      </trkpt>
      <trkpt lat="45.54146" lon="6.72482">
        <ele>1828.3</ele>
        <time>2012-02-22T10:09:49Z</time>
      </trkpt>
      <trkpt lat="45.54146" lon="6.72483">
        <ele>1828.3</ele>
        <time>2012-02-22T10:09:50Z</time>
      </trkpt>
      <trkpt lat="45.54147" lon="6.72485">
        <ele>1828.2</ele>
        <time>2012-02-22T10:09:51Z</time>
      </trkpt>
      <trkpt lat="45.54147" lon="6.72486">
        <ele>1828.2</ele>
        <time>2012-02-22T10:09:52Z</time>
      </trkpt>
      <trkpt lat="45.54149" lon="6.72499">
        <ele>1827.5</ele>
        <time>2012-02-22T10:09:57Z</time>
      </trkpt>
      <trkpt lat="45.54149" lon="6.72501">
        <ele>1827.5</ele>
        <time>2012-02-22T10:09:58Z</time>
      </trkpt>
      <trkpt lat="45.5415" lon="6.72508">
        <ele>1826.9</ele>
        <time>2012-02-22T10:10:02Z</time>
      </trkpt>
      <trkpt lat="45.5415" lon="6.7251">
        <ele>1826.7</ele>
        <time>2012-02-22T10:10:03Z</time>
      </trkpt>
      <trkpt lat="45.5415" lon="6.72513">
        <ele>1826.6</ele>
        <time>2012-02-22T10:10:04Z</time>
      </trkpt>
      <trkpt lat="45.54151" lon="6.72527">
        <ele>1826.9</ele>
        <time>2012-02-22T10:10:07Z</time>
      </trkpt>
      <trkpt lat="45.54151" lon="6.72533">
        <ele>1827.1</ele>
        <time>2012-02-22T10:10:08Z</time>
      </trkpt>
      <trkpt lat="45.54149" lon="6.72592">
        <ele>1821.9</ele>
        <time>2012-02-22T10:10:16Z</time>
      </trkpt>
      <trkpt lat="45.54149" lon="6.72596">
        <ele>1821.4</ele>
        <time>2012-02-22T10:10:17Z</time>
      </trkpt>
      <trkpt lat="45.5415" lon="6.72597">
        <ele>1821.5</ele>
        <time>2012-02-22T10:10:18Z</time>
      </trkpt>
      <trkpt lat="45.54151" lon="6.72597">
        <ele>1821.6</ele>
        <time>2012-02-22T10:10:19Z</time>
      </trkpt>
      <trkpt lat="45.54152" lon="6.72598">
        <ele>1821.7</ele>
        <time>2012-02-22T10:10:20Z</time>
      </trkpt>
      <trkpt lat="45.54153" lon="6.72598">
        <ele>1821.7</ele>
        <time>2012-02-22T10:10:21Z</time>
      </trkpt>
      <trkpt lat="45.54154" lon="6.72599">
        <ele>1821.6</ele>
        <time>2012-02-22T10:10:22Z</time>
      </trkpt>
      <trkpt lat="45.54154" lon="6.72599">
        <ele>1821.4</ele>
        <time>2012-02-22T10:10:23Z</time>
      </trkpt>
      <trkpt lat="45.54155" lon="6.72599">
        <ele>1821.3</ele>
        <time>2012-02-22T10:10:24Z</time>
      </trkpt>
      <trkpt lat="45.54156" lon="6.726">
        <ele>1821.8</ele>
        <time>2012-02-22T10:10:25Z</time>
      </trkpt>
      <trkpt lat="45.54157" lon="6.726">
        <ele>1822.1</ele>
        <time>2012-02-22T10:10:26Z</time>
      </trkpt>
      <trkpt lat="45.54158" lon="6.72601">
        <ele>1822.4</ele>
        <time>2012-02-22T10:10:27Z</time>
      </trkpt>
      <trkpt lat="45.54161" lon="6.726">
        <ele>1822.3</ele>
        <time>2012-02-22T10:10:28Z</time>
      </trkpt>
      <trkpt lat="45.54164" lon="6.72597">
        <ele>1822.2</ele>
        <time>2012-02-22T10:10:29Z</time>
      </trkpt>
      <trkpt lat="45.54169" lon="6.72597">
        <ele>1822.1</ele>
        <time>2012-02-22T10:10:30Z</time>
      </trkpt>
      <trkpt lat="45.54171" lon="6.726">
        <ele>1821.3</ele>
        <time>2012-02-22T10:10:31Z</time>
      </trkpt>
      <trkpt lat="45.54177" lon="6.72615">
        <ele>1818.5</ele>
        <time>2012-02-22T10:10:35Z</time>
      </trkpt>
      <trkpt lat="45.5418" lon="6.72617">
        <ele>1818</ele>
        <time>2012-02-22T10:10:36Z</time>
      </trkpt>
      <trkpt lat="45.54181" lon="6.72617">
        <ele>1817</ele>
        <time>2012-02-22T10:10:37Z</time>
      </trkpt>
      <trkpt lat="45.54182" lon="6.72617">
        <ele>1816.3</ele>
        <time>2012-02-22T10:10:38Z</time>
      </trkpt>
      <trkpt lat="45.54182" lon="6.72616">
        <ele>1815.7</ele>
        <time>2012-02-22T10:10:39Z</time>
      </trkpt>
      <trkpt lat="45.54184" lon="6.72615">
        <ele>1815.3</ele>
        <time>2012-02-22T10:10:40Z</time>
      </trkpt>
      <trkpt lat="45.54188" lon="6.72608">
        <ele>1814.9</ele>
        <time>2012-02-22T10:10:42Z</time>
      </trkpt>
      <trkpt lat="45.54191" lon="6.72605">
        <ele>1814.8</ele>
        <time>2012-02-22T10:10:43Z</time>
      </trkpt>
      <trkpt lat="45.54195" lon="6.72607">
        <ele>1813.6</ele>
        <time>2012-02-22T10:10:44Z</time>
      </trkpt>
      <trkpt lat="45.54199" lon="6.72611">
        <ele>1812.8</ele>
        <time>2012-02-22T10:10:45Z</time>
      </trkpt>
      <trkpt lat="45.54204" lon="6.72612">
        <ele>1812.1</ele>
        <time>2012-02-22T10:10:46Z</time>
      </trkpt>
      <trkpt lat="45.54208" lon="6.72609">
        <ele>1810.2</ele>
        <time>2012-02-22T10:10:47Z</time>
      </trkpt>
      <trkpt lat="45.54213" lon="6.72606">
        <ele>1808.8</ele>
        <time>2012-02-22T10:10:48Z</time>
      </trkpt>
      <trkpt lat="45.54216" lon="6.72606">
        <ele>1807.8</ele>
        <time>2012-02-22T10:10:49Z</time>
      </trkpt>
      <trkpt lat="45.54219" lon="6.7261">
        <ele>1805.5</ele>
        <time>2012-02-22T10:10:50Z</time>
      </trkpt>
      <trkpt lat="45.5422" lon="6.72615">
        <ele>1803.8</ele>
        <time>2012-02-22T10:10:51Z</time>
      </trkpt>
      <trkpt lat="45.54222" lon="6.72618">
        <ele>1802.5</ele>
        <time>2012-02-22T10:10:52Z</time>
      </trkpt>
      <trkpt lat="45.54224" lon="6.72618">
        <ele>1800.8</ele>
        <time>2012-02-22T10:10:53Z</time>
      </trkpt>
      <trkpt lat="45.54228" lon="6.72616">
        <ele>1799.5</ele>
        <time>2012-02-22T10:10:54Z</time>
      </trkpt>
      <trkpt lat="45.54231" lon="6.72613">
        <ele>1798.6</ele>
        <time>2012-02-22T10:10:55Z</time>
      </trkpt>
      <trkpt lat="45.54236" lon="6.72604">
        <ele>1796.7</ele>
        <time>2012-02-22T10:10:57Z</time>
      </trkpt>
      <trkpt lat="45.5424" lon="6.72605">
        <ele>1795.9</ele>
        <time>2012-02-22T10:10:58Z</time>
      </trkpt>
      <trkpt lat="45.54251" lon="6.72617">
        <ele>1789.9</ele>
        <time>2012-02-22T10:11:02Z</time>
      </trkpt>
      <trkpt lat="45.54256" lon="6.72623">
        <ele>1788.1</ele>
        <time>2012-02-22T10:11:03Z</time>
      </trkpt>
      <trkpt lat="45.54293" lon="6.72691">
        <ele>1775.7</ele>
        <time>2012-02-22T10:11:09Z</time>
      </trkpt>
      <trkpt lat="45.54301" lon="6.72701">
        <ele>1773.6</ele>
        <time>2012-02-22T10:11:10Z</time>
      </trkpt>
      <trkpt lat="45.54342" lon="6.72766">
        <ele>1765.4</ele>
        <time>2012-02-22T10:11:17Z</time>
      </trkpt>
      <trkpt lat="45.54349" lon="6.72778">
        <ele>1765.3</ele>
        <time>2012-02-22T10:11:19Z</time>
      </trkpt>
      <trkpt lat="45.54353" lon="6.72785">
        <ele>1765.5</ele>
        <time>2012-02-22T10:11:20Z</time>
      </trkpt>
      <trkpt lat="45.54357" lon="6.72792">
        <ele>1765.7</ele>
        <time>2012-02-22T10:11:21Z</time>
      </trkpt>
      <trkpt lat="45.54361" lon="6.72799">
        <ele>1764.7</ele>
        <time>2012-02-22T10:11:22Z</time>
      </trkpt>
      <trkpt lat="45.54363" lon="6.72808">
        <ele>1764</ele>
        <time>2012-02-22T10:11:23Z</time>
      </trkpt>
      <trkpt lat="45.54367" lon="6.72815">
        <ele>1763.5</ele>
        <time>2012-02-22T10:11:24Z</time>
      </trkpt>
      <trkpt lat="45.54371" lon="6.7282">
        <ele>1762.7</ele>
        <time>2012-02-22T10:11:25Z</time>
      </trkpt>
      <trkpt lat="45.54376" lon="6.72823">
        <ele>1762</ele>
        <time>2012-02-22T10:11:26Z</time>
      </trkpt>
      <trkpt lat="45.5438" lon="6.72827">
        <ele>1761.6</ele>
        <time>2012-02-22T10:11:27Z</time>
      </trkpt>
      <trkpt lat="45.54386" lon="6.72836">
        <ele>1760.9</ele>
        <time>2012-02-22T10:11:29Z</time>
      </trkpt>
      <trkpt lat="45.5439" lon="6.72838">
        <ele>1760.6</ele>
        <time>2012-02-22T10:11:30Z</time>
      </trkpt>
      <trkpt lat="45.54393" lon="6.72837">
        <ele>1760.3</ele>
        <time>2012-02-22T10:11:31Z</time>
      </trkpt>
      <trkpt lat="45.54398" lon="6.72834">
        <ele>1759.2</ele>
        <time>2012-02-22T10:11:33Z</time>
      </trkpt>
      <trkpt lat="45.54403" lon="6.72828">
        <ele>1757.8</ele>
        <time>2012-02-22T10:11:37Z</time>
      </trkpt>
      <trkpt lat="45.54405" lon="6.72827">
        <ele>1757.6</ele>
        <time>2012-02-22T10:11:38Z</time>
      </trkpt>
      <trkpt lat="45.54407" lon="6.72828">
        <ele>1757.6</ele>
        <time>2012-02-22T10:11:39Z</time>
      </trkpt>
      <trkpt lat="45.54413" lon="6.72835">
        <ele>1755.4</ele>
        <time>2012-02-22T10:11:42Z</time>
      </trkpt>
      <trkpt lat="45.54416" lon="6.72837">
        <ele>1754.7</ele>
        <time>2012-02-22T10:11:43Z</time>
      </trkpt>
      <trkpt lat="45.54421" lon="6.72837">
        <ele>1754.2</ele>
        <time>2012-02-22T10:11:44Z</time>
      </trkpt>
      <trkpt lat="45.54425" lon="6.72833">
        <ele>1752.8</ele>
        <time>2012-02-22T10:11:45Z</time>
      </trkpt>
      <trkpt lat="45.54428" lon="6.72828">
        <ele>1751.8</ele>
        <time>2012-02-22T10:11:46Z</time>
      </trkpt>
      <trkpt lat="45.54431" lon="6.72813">
        <ele>1749.4</ele>
        <time>2012-02-22T10:11:48Z</time>
      </trkpt>
      <trkpt lat="45.54436" lon="6.72812">
        <ele>1748.2</ele>
        <time>2012-02-22T10:11:49Z</time>
      </trkpt>
      <trkpt lat="45.54443" lon="6.72813">
        <ele>1747.3</ele>
        <time>2012-02-22T10:11:50Z</time>
      </trkpt>
      <trkpt lat="45.54455" lon="6.72808">
        <ele>1744.3</ele>
        <time>2012-02-22T10:11:52Z</time>
      </trkpt>
      <trkpt lat="45.5446" lon="6.72803">
        <ele>1743.3</ele>
        <time>2012-02-22T10:11:53Z</time>
      </trkpt>
      <trkpt lat="45.54464" lon="6.72802">
        <ele>1740.7</ele>
        <time>2012-02-22T10:11:54Z</time>
      </trkpt>
      <trkpt lat="45.54466" lon="6.72805">
        <ele>1738.8</ele>
        <time>2012-02-22T10:11:55Z</time>
      </trkpt>
      <trkpt lat="45.54467" lon="6.72809">
        <ele>1737.4</ele>
        <time>2012-02-22T10:11:56Z</time>
      </trkpt>
      <trkpt lat="45.54469" lon="6.72811">
        <ele>1735.5</ele>
        <time>2012-02-22T10:11:57Z</time>
      </trkpt>
      <trkpt lat="45.54473" lon="6.72813">
        <ele>1734.1</ele>
        <time>2012-02-22T10:11:58Z</time>
      </trkpt>
      <trkpt lat="45.54475" lon="6.72817">
        <ele>1733</ele>
        <time>2012-02-22T10:11:59Z</time>
      </trkpt>
      <trkpt lat="45.54477" lon="6.72821">
        <ele>1731.4</ele>
        <time>2012-02-22T10:12:00Z</time>
      </trkpt>
      <trkpt lat="45.54479" lon="6.72824">
        <ele>1730.2</ele>
        <time>2012-02-22T10:12:01Z</time>
      </trkpt>
      <trkpt lat="45.54483" lon="6.72824">
        <ele>1729.3</ele>
        <time>2012-02-22T10:12:02Z</time>
      </trkpt>
      <trkpt lat="45.54485" lon="6.72825">
        <ele>1728.6</ele>
        <time>2012-02-22T10:12:03Z</time>
      </trkpt>
      <trkpt lat="45.54486" lon="6.72826">
        <ele>1726.7</ele>
        <time>2012-02-22T10:12:04Z</time>
      </trkpt>
      <trkpt lat="45.54486" lon="6.72826">
        <ele>1725.2</ele>
        <time>2012-02-22T10:12:05Z</time>
      </trkpt>
      <trkpt lat="45.54487" lon="6.72826">
        <ele>1724.1</ele>
        <time>2012-02-22T10:12:06Z</time>
      </trkpt>
      <trkpt lat="45.54488" lon="6.72828">
        <ele>1723.8</ele>
        <time>2012-02-22T10:12:07Z</time>
      </trkpt>
      <trkpt lat="45.54492" lon="6.72828">
        <ele>1723.4</ele>
        <time>2012-02-22T10:12:09Z</time>
      </trkpt>
      <trkpt lat="45.54495" lon="6.72831">
        <ele>1722.5</ele>
        <time>2012-02-22T10:12:10Z</time>
      </trkpt>
      <trkpt lat="45.54496" lon="6.72835">
        <ele>1721.9</ele>
        <time>2012-02-22T10:12:11Z</time>
      </trkpt>
      <trkpt lat="45.54496" lon="6.72838">
        <ele>1721.4</ele>
        <time>2012-02-22T10:12:12Z</time>
      </trkpt>
      <trkpt lat="45.54497" lon="6.72841">
        <ele>1719.7</ele>
        <time>2012-02-22T10:12:13Z</time>
      </trkpt>
      <trkpt lat="45.54504" lon="6.72844">
        <ele>1717.4</ele>
        <time>2012-02-22T10:12:15Z</time>
      </trkpt>
      <trkpt lat="45.54508" lon="6.7285">
        <ele>1715.6</ele>
        <time>2012-02-22T10:12:16Z</time>
      </trkpt>
      <trkpt lat="45.54511" lon="6.72857">
        <ele>1714.3</ele>
        <time>2012-02-22T10:12:17Z</time>
      </trkpt>
      <trkpt lat="45.54516" lon="6.72861">
        <ele>1713.3</ele>
        <time>2012-02-22T10:12:18Z</time>
      </trkpt>
      <trkpt lat="45.54522" lon="6.72864">
        <ele>1712.5</ele>
        <time>2012-02-22T10:12:19Z</time>
      </trkpt>
      <trkpt lat="45.54526" lon="6.7287">
        <ele>1710.5</ele>
        <time>2012-02-22T10:12:20Z</time>
      </trkpt>
      <trkpt lat="45.5453" lon="6.72878">
        <ele>1709</ele>
        <time>2012-02-22T10:12:21Z</time>
      </trkpt>
      <trkpt lat="45.54532" lon="6.72886">
        <ele>1707.8</ele>
        <time>2012-02-22T10:12:22Z</time>
      </trkpt>
      <trkpt lat="45.54532" lon="6.72895">
        <ele>1705.9</ele>
        <time>2012-02-22T10:12:23Z</time>
      </trkpt>
      <trkpt lat="45.54531" lon="6.72903">
        <ele>1704.4</ele>
        <time>2012-02-22T10:12:24Z</time>
      </trkpt>
      <trkpt lat="45.54528" lon="6.72917">
        <ele>1702.5</ele>
        <time>2012-02-22T10:12:26Z</time>
      </trkpt>
      <trkpt lat="45.54527" lon="6.72925">
        <ele>1701.9</ele>
        <time>2012-02-22T10:12:27Z</time>
      </trkpt>
      <trkpt lat="45.54528" lon="6.72934">
        <ele>1701.4</ele>
        <time>2012-02-22T10:12:28Z</time>
      </trkpt>
      <trkpt lat="45.54531" lon="6.72944">
        <ele>1699.7</ele>
        <time>2012-02-22T10:12:29Z</time>
      </trkpt>
      <trkpt lat="45.54533" lon="6.72956">
        <ele>1698.5</ele>
        <time>2012-02-22T10:12:30Z</time>
      </trkpt>
      <trkpt lat="45.54533" lon="6.72968">
        <ele>1697.5</ele>
        <time>2012-02-22T10:12:31Z</time>
      </trkpt>
      <trkpt lat="45.54535" lon="6.7298">
        <ele>1695.3</ele>
        <time>2012-02-22T10:12:32Z</time>
      </trkpt>
      <trkpt lat="45.5454" lon="6.72991">
        <ele>1693.6</ele>
        <time>2012-02-22T10:12:33Z</time>
      </trkpt>
      <trkpt lat="45.54548" lon="6.73014">
        <ele>1691.4</ele>
        <time>2012-02-22T10:12:35Z</time>
      </trkpt>
      <trkpt lat="45.54558" lon="6.73036">
        <ele>1687.3</ele>
        <time>2012-02-22T10:12:37Z</time>
      </trkpt>
      <trkpt lat="45.54564" lon="6.73045">
        <ele>1686</ele>
        <time>2012-02-22T10:12:38Z</time>
      </trkpt>
      <trkpt lat="45.54571" lon="6.73051">
        <ele>1684</ele>
        <time>2012-02-22T10:12:39Z</time>
      </trkpt>
      <trkpt lat="45.54578" lon="6.7306">
        <ele>1682.4</ele>
        <time>2012-02-22T10:12:40Z</time>
      </trkpt>
      <trkpt lat="45.54584" lon="6.73071">
        <ele>1681.3</ele>
        <time>2012-02-22T10:12:41Z</time>
      </trkpt>
      <trkpt lat="45.54599" lon="6.73086">
        <ele>1676.1</ele>
        <time>2012-02-22T10:12:43Z</time>
      </trkpt>
      <trkpt lat="45.54605" lon="6.73095">
        <ele>1674.4</ele>
        <time>2012-02-22T10:12:44Z</time>
      </trkpt>
      <trkpt lat="45.54617" lon="6.73123">
        <ele>1668.6</ele>
        <time>2012-02-22T10:12:47Z</time>
      </trkpt>
      <trkpt lat="45.54628" lon="6.73142">
        <ele>1665.6</ele>
        <time>2012-02-22T10:12:50Z</time>
      </trkpt>
      <trkpt lat="45.54629" lon="6.73147">
        <ele>1665.1</ele>
        <time>2012-02-22T10:12:51Z</time>
      </trkpt>
      <trkpt lat="45.54631" lon="6.73155">
        <ele>1663.7</ele>
        <time>2012-02-22T10:12:53Z</time>
      </trkpt>
      <trkpt lat="45.54633" lon="6.73159">
        <ele>1663.4</ele>
        <time>2012-02-22T10:12:55Z</time>
      </trkpt>
      <trkpt lat="45.54633" lon="6.73161">
        <ele>1663.5</ele>
        <time>2012-02-22T10:12:56Z</time>
      </trkpt>
      <trkpt lat="45.54633" lon="6.73162">
        <ele>1663.5</ele>
        <time>2012-02-22T10:12:57Z</time>
      </trkpt>
      <trkpt lat="45.54634" lon="6.73163">
        <ele>1663.4</ele>
        <time>2012-02-22T10:12:58Z</time>
      </trkpt>
      <trkpt lat="45.54634" lon="6.73165">
        <ele>1663.2</ele>
        <time>2012-02-22T10:12:59Z</time>
      </trkpt>
      <trkpt lat="45.54634" lon="6.73167">
        <ele>1663.1</ele>
        <time>2012-02-22T10:13:00Z</time>
      </trkpt>
      <trkpt lat="45.54634" lon="6.73168">
        <ele>1662.5</ele>
        <time>2012-02-22T10:13:01Z</time>
      </trkpt>
      <trkpt lat="45.54634" lon="6.73168">
        <ele>1662.1</ele>
        <time>2012-02-22T10:13:02Z</time>
      </trkpt>
      <trkpt lat="45.54635" lon="6.7317">
        <ele>1661.7</ele>
        <time>2012-02-22T10:13:03Z</time>
      </trkpt>
      <trkpt lat="45.5464" lon="6.73183">
        <ele>1661.6</ele>
        <time>2012-02-22T10:13:06Z</time>
      </trkpt>
      <trkpt lat="45.5464" lon="6.73198">
        <ele>1659.9</ele>
        <time>2012-02-22T10:13:08Z</time>
      </trkpt>
      <trkpt lat="45.54638" lon="6.73209">
        <ele>1659</ele>
        <time>2012-02-22T10:13:10Z</time>
      </trkpt>
      <trkpt lat="45.54638" lon="6.73214">
        <ele>1658.1</ele>
        <time>2012-02-22T10:13:11Z</time>
      </trkpt>
      <trkpt lat="45.54639" lon="6.73216">
        <ele>1657.5</ele>
        <time>2012-02-22T10:13:12Z</time>
      </trkpt>
      <trkpt lat="45.54645" lon="6.73218">
        <ele>1657</ele>
        <time>2012-02-22T10:13:14Z</time>
      </trkpt>
      <trkpt lat="45.5465" lon="6.73218">
        <ele>1656.9</ele>
        <time>2012-02-22T10:13:15Z</time>
      </trkpt>
      <trkpt lat="45.54655" lon="6.7322">
        <ele>1656.9</ele>
        <time>2012-02-22T10:13:16Z</time>
      </trkpt>
      <trkpt lat="45.54658" lon="6.73226">
        <ele>1655.4</ele>
        <time>2012-02-22T10:13:17Z</time>
      </trkpt>
      <trkpt lat="45.54661" lon="6.73242">
        <ele>1653.4</ele>
        <time>2012-02-22T10:13:19Z</time>
      </trkpt>
      <trkpt lat="45.54663" lon="6.7325">
        <ele>1651.7</ele>
        <time>2012-02-22T10:13:20Z</time>
      </trkpt>
      <trkpt lat="45.54669" lon="6.73253">
        <ele>1650.4</ele>
        <time>2012-02-22T10:13:21Z</time>
      </trkpt>
      <trkpt lat="45.54674" lon="6.7326">
        <ele>1649.4</ele>
        <time>2012-02-22T10:13:22Z</time>
      </trkpt>
      <trkpt lat="45.54675" lon="6.73269">
        <ele>1646.6</ele>
        <time>2012-02-22T10:13:23Z</time>
      </trkpt>
      <trkpt lat="45.54678" lon="6.73276">
        <ele>1644.5</ele>
        <time>2012-02-22T10:13:24Z</time>
      </trkpt>
      <trkpt lat="45.54682" lon="6.73279">
        <ele>1642.9</ele>
        <time>2012-02-22T10:13:25Z</time>
      </trkpt>
      <trkpt lat="45.54686" lon="6.73284">
        <ele>1641.7</ele>
        <time>2012-02-22T10:13:26Z</time>
      </trkpt>
      <trkpt lat="45.54688" lon="6.7329">
        <ele>1639.3</ele>
        <time>2012-02-22T10:13:27Z</time>
      </trkpt>
      <trkpt lat="45.54691" lon="6.73295">
        <ele>1637.5</ele>
        <time>2012-02-22T10:13:28Z</time>
      </trkpt>
      <trkpt lat="45.54695" lon="6.73298">
        <ele>1636.2</ele>
        <time>2012-02-22T10:13:29Z</time>
      </trkpt>
      <trkpt lat="45.54697" lon="6.73305">
        <ele>1633.8</ele>
        <time>2012-02-22T10:13:30Z</time>
      </trkpt>
      <trkpt lat="45.54697" lon="6.73313">
        <ele>1632</ele>
        <time>2012-02-22T10:13:31Z</time>
      </trkpt>
      <trkpt lat="45.54692" lon="6.73353">
        <ele>1624.6</ele>
        <time>2012-02-22T10:13:35Z</time>
      </trkpt>
      <trkpt lat="45.54686" lon="6.73375">
        <ele>1621.5</ele>
        <time>2012-02-22T10:13:37Z</time>
      </trkpt>
      <trkpt lat="45.54684" lon="6.73398">
        <ele>1619.1</ele>
        <time>2012-02-22T10:13:39Z</time>
      </trkpt>
      <trkpt lat="45.54688" lon="6.73419">
        <ele>1617.1</ele>
        <time>2012-02-22T10:13:41Z</time>
      </trkpt>
      <trkpt lat="45.54691" lon="6.73429">
        <ele>1616.5</ele>
        <time>2012-02-22T10:13:42Z</time>
      </trkpt>
      <trkpt lat="45.54718" lon="6.73499">
        <ele>1609.8</ele>
        <time>2012-02-22T10:13:49Z</time>
      </trkpt>
      <trkpt lat="45.54771" lon="6.73682">
        <ele>1595.6</ele>
        <time>2012-02-22T10:14:06Z</time>
      </trkpt>
      <trkpt lat="45.54773" lon="6.73695">
        <ele>1594.9</ele>
        <time>2012-02-22T10:14:07Z</time>
      </trkpt>
      <trkpt lat="45.54782" lon="6.73719">
        <ele>1592.4</ele>
        <time>2012-02-22T10:14:09Z</time>
      </trkpt>
      <trkpt lat="45.5483" lon="6.73798">
        <ele>1584.3</ele>
        <time>2012-02-22T10:14:17Z</time>
      </trkpt>
      <trkpt lat="45.54835" lon="6.73804">
        <ele>1583.4</ele>
        <time>2012-02-22T10:14:18Z</time>
      </trkpt>
      <trkpt lat="45.54843" lon="6.73816">
        <ele>1582.3</ele>
        <time>2012-02-22T10:14:20Z</time>
      </trkpt>
      <trkpt lat="45.54846" lon="6.73823">
        <ele>1581.7</ele>
        <time>2012-02-22T10:14:21Z</time>
      </trkpt>
      <trkpt lat="45.54848" lon="6.73829">
        <ele>1581.2</ele>
        <time>2012-02-22T10:14:22Z</time>
      </trkpt>
      <trkpt lat="45.54848" lon="6.73836">
        <ele>1580.8</ele>
        <time>2012-02-22T10:14:23Z</time>
      </trkpt>
      <trkpt lat="45.54848" lon="6.73847">
        <ele>1579.9</ele>
        <time>2012-02-22T10:14:25Z</time>
      </trkpt>
      <trkpt lat="45.54848" lon="6.73852">
        <ele>1579.5</ele>
        <time>2012-02-22T10:14:26Z</time>
      </trkpt>
      <trkpt lat="45.54851" lon="6.73861">
        <ele>1579.3</ele>
        <time>2012-02-22T10:14:28Z</time>
      </trkpt>
      <trkpt lat="45.54851" lon="6.73866">
        <ele>1579.2</ele>
        <time>2012-02-22T10:14:29Z</time>
      </trkpt>
      <trkpt lat="45.54851" lon="6.73873">
        <ele>1579</ele>
        <time>2012-02-22T10:14:30Z</time>
      </trkpt>
      <trkpt lat="45.5485" lon="6.73879">
        <ele>1578.8</ele>
        <time>2012-02-22T10:14:31Z</time>
      </trkpt>
      <trkpt lat="45.54849" lon="6.73887">
        <ele>1578.6</ele>
        <time>2012-02-22T10:14:32Z</time>
      </trkpt>
      <trkpt lat="45.54849" lon="6.73895">
        <ele>1578.5</ele>
        <time>2012-02-22T10:14:33Z</time>
      </trkpt>
      <trkpt lat="45.54849" lon="6.73903">
        <ele>1577</ele>
        <time>2012-02-22T10:14:34Z</time>
      </trkpt>
      <trkpt lat="45.54847" lon="6.73909">
        <ele>1575.9</ele>
        <time>2012-02-22T10:14:35Z</time>
      </trkpt>
      <trkpt lat="45.54844" lon="6.73918">
        <ele>1573.3</ele>
        <time>2012-02-22T10:14:37Z</time>
      </trkpt>
      <trkpt lat="45.54843" lon="6.73924">
        <ele>1572</ele>
        <time>2012-02-22T10:14:38Z</time>
      </trkpt>
      <trkpt lat="45.54843" lon="6.73944">
        <ele>1569.5</ele>
        <time>2012-02-22T10:14:41Z</time>
      </trkpt>
      <trkpt lat="45.54845" lon="6.73947">
        <ele>1569</ele>
        <time>2012-02-22T10:14:42Z</time>
      </trkpt>
      <trkpt lat="45.5485" lon="6.73949">
        <ele>1567.6</ele>
        <time>2012-02-22T10:14:43Z</time>
      </trkpt>
      <trkpt lat="45.54854" lon="6.73952">
        <ele>1566.6</ele>
        <time>2012-02-22T10:14:44Z</time>
      </trkpt>
      <trkpt lat="45.5486" lon="6.73959">
        <ele>1563.8</ele>
        <time>2012-02-22T10:14:46Z</time>
      </trkpt>
      <trkpt lat="45.54865" lon="6.73959">
        <ele>1562.2</ele>
        <time>2012-02-22T10:14:47Z</time>
      </trkpt>
      <trkpt lat="45.54875" lon="6.73956">
        <ele>1560.2</ele>
        <time>2012-02-22T10:14:49Z</time>
      </trkpt>
      <trkpt lat="45.54883" lon="6.73952">
        <ele>1558.5</ele>
        <time>2012-02-22T10:14:50Z</time>
      </trkpt>
      <trkpt lat="45.5489" lon="6.73946">
        <ele>1557.2</ele>
        <time>2012-02-22T10:14:51Z</time>
      </trkpt>
      <trkpt lat="45.54901" lon="6.73932">
        <ele>1553.9</ele>
        <time>2012-02-22T10:14:53Z</time>
      </trkpt>
      <trkpt lat="45.54913" lon="6.73905">
        <ele>1549.4</ele>
        <time>2012-02-22T10:14:57Z</time>
      </trkpt>
      <trkpt lat="45.54916" lon="6.73901">
        <ele>1549</ele>
        <time>2012-02-22T10:14:58Z</time>
      </trkpt>
      <trkpt lat="45.54919" lon="6.73901">
        <ele>1548.8</ele>
        <time>2012-02-22T10:14:59Z</time>
      </trkpt>
      <trkpt lat="45.54922" lon="6.73903">
        <ele>1548.7</ele>
        <time>2012-02-22T10:15:00Z</time>
      </trkpt>
      <trkpt lat="45.54923" lon="6.73905">
        <ele>1548.6</ele>
        <time>2012-02-22T10:15:01Z</time>
      </trkpt>
      <trkpt lat="45.54924" lon="6.73909">
        <ele>1549.3</ele>
        <time>2012-02-22T10:15:03Z</time>
      </trkpt>
      <trkpt lat="45.54928" lon="6.73914">
        <ele>1547.8</ele>
        <time>2012-02-22T10:15:27Z</time>
      </trkpt>
      <trkpt lat="45.54929" lon="6.73915">
        <ele>1547.6</ele>
        <time>2012-02-22T10:15:28Z</time>
      </trkpt>
      <trkpt lat="45.54929" lon="6.73916">
        <ele>1547.4</ele>
        <time>2012-02-22T10:15:29Z</time>
      </trkpt>
      <trkpt lat="45.54929" lon="6.73917">
        <ele>1547.2</ele>
        <time>2012-02-22T10:15:30Z</time>
      </trkpt>
      <trkpt lat="45.5493" lon="6.73922">
        <ele>1548</ele>
        <time>2012-02-22T10:15:38Z</time>
      </trkpt>
      <trkpt lat="45.54931" lon="6.73923">
        <ele>1548</ele>
        <time>2012-02-22T10:15:40Z</time>
      </trkpt>
      <trkpt lat="45.54931" lon="6.73924">
        <ele>1548</ele>
        <time>2012-02-22T10:15:41Z</time>
      </trkpt>
      <trkpt lat="45.5493" lon="6.73925">
        <ele>1548.1</ele>
        <time>2012-02-22T10:15:42Z</time>
      </trkpt>
      <trkpt lat="45.5493" lon="6.73926">
        <ele>1548.1</ele>
        <time>2012-02-22T10:15:43Z</time>
      </trkpt>
      <trkpt lat="45.5493" lon="6.73928">
        <ele>1548.6</ele>
        <time>2012-02-22T10:15:44Z</time>
      </trkpt>
      <trkpt lat="45.54929" lon="6.73931">
        <ele>1549.4</ele>
        <time>2012-02-22T10:15:46Z</time>
      </trkpt>
      <trkpt lat="45.54929" lon="6.73931">
        <ele>1548.8</ele>
        <time>2012-02-22T10:15:47Z</time>
      </trkpt>
      <trkpt lat="45.54929" lon="6.73932">
        <ele>1548.3</ele>
        <time>2012-02-22T10:15:48Z</time>
      </trkpt>
      <trkpt lat="45.54929" lon="6.73932">
        <ele>1548</ele>
        <time>2012-02-22T10:15:49Z</time>
      </trkpt>
      <trkpt lat="45.54929" lon="6.73933">
        <ele>1547.6</ele>
        <time>2012-02-22T10:15:50Z</time>
      </trkpt>
      <trkpt lat="45.54929" lon="6.73934">
        <ele>1547.3</ele>
        <time>2012-02-22T10:15:51Z</time>
      </trkpt>
      <trkpt lat="45.54929" lon="6.73935">
        <ele>1547</ele>
        <time>2012-02-22T10:15:53Z</time>
      </trkpt>
      <trkpt lat="45.5493" lon="6.73936">
        <ele>1547</ele>
        <time>2012-02-22T10:15:54Z</time>
      </trkpt>
      <trkpt lat="45.5493" lon="6.73936">
        <ele>1546.9</ele>
        <time>2012-02-22T10:15:55Z</time>
      </trkpt>
      <trkpt lat="45.5493" lon="6.73937">
        <ele>1546.9</ele>
        <time>2012-02-22T10:15:56Z</time>
      </trkpt>
      <trkpt lat="45.54936" lon="6.73938">
        <ele>1546.7</ele>
        <time>2012-02-22T10:16:19Z</time>
      </trkpt>
      <trkpt lat="45.54938" lon="6.73937">
        <ele>1546.9</ele>
        <time>2012-02-22T10:16:20Z</time>
      </trkpt>
      <trkpt lat="45.54942" lon="6.73935">
        <ele>1546.9</ele>
        <time>2012-02-22T10:16:23Z</time>
      </trkpt>
      <trkpt lat="45.54942" lon="6.73934">
        <ele>1547.1</ele>
        <time>2012-02-22T10:16:32Z</time>
      </trkpt>
      <trkpt lat="45.54942" lon="6.73934">
        <ele>1546.8</ele>
        <time>2012-02-22T10:16:33Z</time>
      </trkpt>
      <trkpt lat="45.54941" lon="6.73934">
        <ele>1546.8</ele>
        <time>2012-02-22T10:16:35Z</time>
      </trkpt>
      <trkpt lat="45.54945" lon="6.7394">
        <ele>1546.9</ele>
        <time>2012-02-22T10:17:22Z</time>
      </trkpt>
      <trkpt lat="45.54945" lon="6.73941">
        <ele>1546.7</ele>
        <time>2012-02-22T10:17:23Z</time>
      </trkpt>
      <trkpt lat="45.54938" lon="6.7394">
        <ele>1546.1</ele>
        <time>2012-02-22T10:18:49Z</time>
      </trkpt>
      <trkpt lat="45.54939" lon="6.73942">
        <ele>1546</ele>
        <time>2012-02-22T10:18:50Z</time>
      </trkpt>
      <trkpt lat="45.54938" lon="6.73943">
        <ele>1546</ele>
        <time>2012-02-22T10:18:51Z</time>
      </trkpt>
      <trkpt lat="45.54937" lon="6.73944">
        <ele>1545</ele>
        <time>2012-02-22T10:18:52Z</time>
      </trkpt>
      <trkpt lat="45.54935" lon="6.73945">
        <ele>1544.2</ele>
        <time>2012-02-22T10:18:53Z</time>
      </trkpt>
      <trkpt lat="45.54933" lon="6.73946">
        <ele>1543.6</ele>
        <time>2012-02-22T10:18:54Z</time>
      </trkpt>
      <trkpt lat="45.54932" lon="6.73948">
        <ele>1542.1</ele>
        <time>2012-02-22T10:18:55Z</time>
      </trkpt>
      <trkpt lat="45.5493" lon="6.73951">
        <ele>1540.9</ele>
        <time>2012-02-22T10:18:56Z</time>
      </trkpt>
      <trkpt lat="45.54928" lon="6.7396">
        <ele>1539.5</ele>
        <time>2012-02-22T10:18:58Z</time>
      </trkpt>
      <trkpt lat="45.54922" lon="6.7403">
        <ele>1526.9</ele>
        <time>2012-02-22T10:19:06Z</time>
      </trkpt>
      <trkpt lat="45.54916" lon="6.74062">
        <ele>1520.2</ele>
        <time>2012-02-22T10:19:09Z</time>
      </trkpt>
      <trkpt lat="45.54977" lon="6.74652">
        <ele>1470.4</ele>
        <time>2012-02-22T10:19:45Z</time>
      </trkpt>
      <trkpt lat="45.54981" lon="6.74671">
        <ele>1469.7</ele>
        <time>2012-02-22T10:19:46Z</time>
      </trkpt>
      <trkpt lat="45.55119" lon="6.76242">
        <ele>1585.2</ele>
        <time>2012-02-22T10:21:30Z</time>
      </trkpt>
      <trkpt lat="45.55116" lon="6.76291">
        <ele>1610.1</ele>
        <time>2012-02-22T10:23:18Z</time>
      </trkpt>
      <trkpt lat="45.55117" lon="6.76292">
        <ele>1610.2</ele>
        <time>2012-02-22T10:23:19Z</time>
      </trkpt>
      <trkpt lat="45.55118" lon="6.76293">
        <ele>1610.2</ele>
        <time>2012-02-22T10:23:20Z</time>
      </trkpt>
      <trkpt lat="45.55119" lon="6.76294">
        <ele>1610.2</ele>
        <time>2012-02-22T10:23:21Z</time>
      </trkpt>
      <trkpt lat="45.5512" lon="6.76295">
        <ele>1610.3</ele>
        <time>2012-02-22T10:23:22Z</time>
      </trkpt>
      <trkpt lat="45.5512" lon="6.76297">
        <ele>1610.5</ele>
        <time>2012-02-22T10:23:23Z</time>
      </trkpt>
      <trkpt lat="45.55121" lon="6.76298">
        <ele>1610.6</ele>
        <time>2012-02-22T10:23:24Z</time>
      </trkpt>
      <trkpt lat="45.55123" lon="6.76299">
        <ele>1610.8</ele>
        <time>2012-02-22T10:23:25Z</time>
      </trkpt>
      <trkpt lat="45.55123" lon="6.763">
        <ele>1610.8</ele>
        <time>2012-02-22T10:23:26Z</time>
      </trkpt>
      <trkpt lat="45.55124" lon="6.763">
        <ele>1611</ele>
        <time>2012-02-22T10:23:27Z</time>
      </trkpt>
      <trkpt lat="45.55125" lon="6.76301">
        <ele>1611.1</ele>
        <time>2012-02-22T10:23:28Z</time>
      </trkpt>
      <trkpt lat="45.55126" lon="6.76302">
        <ele>1611.2</ele>
        <time>2012-02-22T10:23:29Z</time>
      </trkpt>
      <trkpt lat="45.55126" lon="6.76303">
        <ele>1611.4</ele>
        <time>2012-02-22T10:23:30Z</time>
      </trkpt>
      <trkpt lat="45.55127" lon="6.76304">
        <ele>1611.5</ele>
        <time>2012-02-22T10:23:31Z</time>
      </trkpt>
      <trkpt lat="45.55128" lon="6.76304">
        <ele>1611.6</ele>
        <time>2012-02-22T10:23:32Z</time>
      </trkpt>
      <trkpt lat="45.55129" lon="6.76305">
        <ele>1611.3</ele>
        <time>2012-02-22T10:23:34Z</time>
      </trkpt>
      <trkpt lat="45.5513" lon="6.76305">
        <ele>1611.1</ele>
        <time>2012-02-22T10:23:35Z</time>
      </trkpt>
      <trkpt lat="45.55131" lon="6.76307">
        <ele>1610.9</ele>
        <time>2012-02-22T10:23:37Z</time>
      </trkpt>
      <trkpt lat="45.55131" lon="6.76308">
        <ele>1610.9</ele>
        <time>2012-02-22T10:23:38Z</time>
      </trkpt>
      <trkpt lat="45.5513" lon="6.76309">
        <ele>1610.7</ele>
        <time>2012-02-22T10:23:39Z</time>
      </trkpt>
      <trkpt lat="45.5513" lon="6.76309">
        <ele>1610.6</ele>
        <time>2012-02-22T10:23:40Z</time>
      </trkpt>
      <trkpt lat="45.5513" lon="6.7631">
        <ele>1610.5</ele>
        <time>2012-02-22T10:23:41Z</time>
      </trkpt>
      <trkpt lat="45.55131" lon="6.76311">
        <ele>1610.5</ele>
        <time>2012-02-22T10:23:42Z</time>
      </trkpt>
      <trkpt lat="45.55131" lon="6.76312">
        <ele>1610.6</ele>
        <time>2012-02-22T10:23:43Z</time>
      </trkpt>
      <trkpt lat="45.55131" lon="6.76313">
        <ele>1610.6</ele>
        <time>2012-02-22T10:23:44Z</time>
      </trkpt>
      <trkpt lat="45.55132" lon="6.76314">
        <ele>1610.7</ele>
        <time>2012-02-22T10:23:45Z</time>
      </trkpt>
      <trkpt lat="45.55132" lon="6.76315">
        <ele>1610.8</ele>
        <time>2012-02-22T10:23:46Z</time>
      </trkpt>
      <trkpt lat="45.55132" lon="6.76316">
        <ele>1610.9</ele>
        <time>2012-02-22T10:23:47Z</time>
      </trkpt>
      <trkpt lat="45.55132" lon="6.76317">
        <ele>1611</ele>
        <time>2012-02-22T10:23:48Z</time>
      </trkpt>
      <trkpt lat="45.55132" lon="6.76318">
        <ele>1611.2</ele>
        <time>2012-02-22T10:23:49Z</time>
      </trkpt>
      <trkpt lat="45.55133" lon="6.76319">
        <ele>1611.3</ele>
        <time>2012-02-22T10:23:50Z</time>
      </trkpt>
      <trkpt lat="45.55133" lon="6.7632">
        <ele>1611.5</ele>
        <time>2012-02-22T10:23:51Z</time>
      </trkpt>
      <trkpt lat="45.55133" lon="6.76322">
        <ele>1611.4</ele>
        <time>2012-02-22T10:23:52Z</time>
      </trkpt>
      <trkpt lat="45.55134" lon="6.76323">
        <ele>1611.3</ele>
        <time>2012-02-22T10:23:53Z</time>
      </trkpt>
      <trkpt lat="45.55134" lon="6.76324">
        <ele>1611.2</ele>
        <time>2012-02-22T10:23:54Z</time>
      </trkpt>
      <trkpt lat="45.55134" lon="6.76325">
        <ele>1611.3</ele>
        <time>2012-02-22T10:23:55Z</time>
      </trkpt>
      <trkpt lat="45.55134" lon="6.76327">
        <ele>1611.3</ele>
        <time>2012-02-22T10:23:56Z</time>
      </trkpt>
      <trkpt lat="45.55134" lon="6.76328">
        <ele>1611.4</ele>
        <time>2012-02-22T10:23:57Z</time>
      </trkpt>
      <trkpt lat="45.55134" lon="6.76329">
        <ele>1611.4</ele>
        <time>2012-02-22T10:23:58Z</time>
      </trkpt>
      <trkpt lat="45.55133" lon="6.76331">
        <ele>1611.5</ele>
        <time>2012-02-22T10:23:59Z</time>
      </trkpt>
      <trkpt lat="45.55133" lon="6.76332">
        <ele>1611.6</ele>
        <time>2012-02-22T10:24:00Z</time>
      </trkpt>
      <trkpt lat="45.55133" lon="6.76333">
        <ele>1611.7</ele>
        <time>2012-02-22T10:24:01Z</time>
      </trkpt>
      <trkpt lat="45.55132" lon="6.76335">
        <ele>1611.5</ele>
        <time>2012-02-22T10:24:02Z</time>
      </trkpt>
      <trkpt lat="45.55132" lon="6.76335">
        <ele>1611.4</ele>
        <time>2012-02-22T10:24:03Z</time>
      </trkpt>
      <trkpt lat="45.55132" lon="6.76336">
        <ele>1611.3</ele>
        <time>2012-02-22T10:24:04Z</time>
      </trkpt>
      <trkpt lat="45.55132" lon="6.76337">
        <ele>1611.4</ele>
        <time>2012-02-22T10:24:05Z</time>
      </trkpt>
      <trkpt lat="45.55132" lon="6.76338">
        <ele>1611.5</ele>
        <time>2012-02-22T10:24:06Z</time>
      </trkpt>
      <trkpt lat="45.55131" lon="6.76338">
        <ele>1611.5</ele>
        <time>2012-02-22T10:24:07Z</time>
      </trkpt>
      <trkpt lat="45.55131" lon="6.76339">
        <ele>1611.3</ele>
        <time>2012-02-22T10:24:08Z</time>
      </trkpt>
      <trkpt lat="45.55131" lon="6.7634">
        <ele>1611.1</ele>
        <time>2012-02-22T10:24:09Z</time>
      </trkpt>
      <trkpt lat="45.5513" lon="6.76341">
        <ele>1611</ele>
        <time>2012-02-22T10:24:10Z</time>
      </trkpt>
      <trkpt lat="45.5513" lon="6.76342">
        <ele>1611.1</ele>
        <time>2012-02-22T10:24:11Z</time>
      </trkpt>
      <trkpt lat="45.55129" lon="6.76344">
        <ele>1611.2</ele>
        <time>2012-02-22T10:24:12Z</time>
      </trkpt>
      <trkpt lat="45.55129" lon="6.76345">
        <ele>1611.2</ele>
        <time>2012-02-22T10:24:13Z</time>
      </trkpt>
      <trkpt lat="45.55129" lon="6.76346">
        <ele>1611.2</ele>
        <time>2012-02-22T10:24:14Z</time>
      </trkpt>
      <trkpt lat="45.55129" lon="6.76347">
        <ele>1611.6</ele>
        <time>2012-02-22T10:24:15Z</time>
      </trkpt>
      <trkpt lat="45.55128" lon="6.76348">
        <ele>1611.9</ele>
        <time>2012-02-22T10:24:16Z</time>
      </trkpt>
      <trkpt lat="45.55128" lon="6.76348">
        <ele>1612.1</ele>
        <time>2012-02-22T10:24:17Z</time>
      </trkpt>
      <trkpt lat="45.55128" lon="6.76349">
        <ele>1612.4</ele>
        <time>2012-02-22T10:24:18Z</time>
      </trkpt>
      <trkpt lat="45.55128" lon="6.7635">
        <ele>1612.7</ele>
        <time>2012-02-22T10:24:19Z</time>
      </trkpt>
      <trkpt lat="45.55127" lon="6.7635">
        <ele>1612.8</ele>
        <time>2012-02-22T10:24:20Z</time>
      </trkpt>
      <trkpt lat="45.55127" lon="6.76351">
        <ele>1612.8</ele>
        <time>2012-02-22T10:24:21Z</time>
      </trkpt>
      <trkpt lat="45.55127" lon="6.76352">
        <ele>1612.7</ele>
        <time>2012-02-22T10:24:22Z</time>
      </trkpt>
      <trkpt lat="45.55126" lon="6.76353">
        <ele>1612.7</ele>
        <time>2012-02-22T10:24:23Z</time>
      </trkpt>
      <trkpt lat="45.55126" lon="6.76353">
        <ele>1612.5</ele>
        <time>2012-02-22T10:24:24Z</time>
      </trkpt>
      <trkpt lat="45.55126" lon="6.76354">
        <ele>1612.4</ele>
        <time>2012-02-22T10:24:25Z</time>
      </trkpt>
      <trkpt lat="45.5512" lon="6.76367">
        <ele>1613.6</ele>
        <time>2012-02-22T10:24:53Z</time>
      </trkpt>
      <trkpt lat="45.5512" lon="6.76367">
        <ele>1613.5</ele>
        <time>2012-02-22T10:24:54Z</time>
      </trkpt>
      <trkpt lat="45.55118" lon="6.76367">
        <ele>1613.5</ele>
        <time>2012-02-22T10:24:55Z</time>
      </trkpt>
      <trkpt lat="45.55118" lon="6.76367">
        <ele>1613.5</ele>
        <time>2012-02-22T10:24:56Z</time>
      </trkpt>
      <trkpt lat="45.55117" lon="6.76367">
        <ele>1613.6</ele>
        <time>2012-02-22T10:24:57Z</time>
      </trkpt>
      <trkpt lat="45.55116" lon="6.76367">
        <ele>1613.6</ele>
        <time>2012-02-22T10:24:58Z</time>
      </trkpt>
      <trkpt lat="45.55115" lon="6.76367">
        <ele>1613.4</ele>
        <time>2012-02-22T10:24:59Z</time>
      </trkpt>
      <trkpt lat="45.55115" lon="6.76368">
        <ele>1613.3</ele>
        <time>2012-02-22T10:25:00Z</time>
      </trkpt>
      <trkpt lat="45.55114" lon="6.76368">
        <ele>1613.2</ele>
        <time>2012-02-22T10:25:01Z</time>
      </trkpt>
      <trkpt lat="45.55114" lon="6.76368">
        <ele>1613.1</ele>
        <time>2012-02-22T10:25:02Z</time>
      </trkpt>
      <trkpt lat="45.55113" lon="6.76368">
        <ele>1613</ele>
        <time>2012-02-22T10:25:03Z</time>
      </trkpt>
      <trkpt lat="45.55112" lon="6.76368">
        <ele>1612.9</ele>
        <time>2012-02-22T10:25:04Z</time>
      </trkpt>
      <trkpt lat="45.55112" lon="6.76368">
        <ele>1612.8</ele>
        <time>2012-02-22T10:25:05Z</time>
      </trkpt>
      <trkpt lat="45.55111" lon="6.76368">
        <ele>1612.9</ele>
        <time>2012-02-22T10:25:06Z</time>
      </trkpt>
      <trkpt lat="45.5511" lon="6.76368">
        <ele>1613</ele>
        <time>2012-02-22T10:25:07Z</time>
      </trkpt>
      <trkpt lat="45.5511" lon="6.76368">
        <ele>1613.1</ele>
        <time>2012-02-22T10:25:08Z</time>
      </trkpt>
      <trkpt lat="45.55108" lon="6.76368">
        <ele>1613.4</ele>
        <time>2012-02-22T10:25:11Z</time>
      </trkpt>
      <trkpt lat="45.55108" lon="6.76368">
        <ele>1613.1</ele>
        <time>2012-02-22T10:25:12Z</time>
      </trkpt>
      <trkpt lat="45.55107" lon="6.76368">
        <ele>1612.9</ele>
        <time>2012-02-22T10:25:13Z</time>
      </trkpt>
      <trkpt lat="45.55107" lon="6.76367">
        <ele>1612.7</ele>
        <time>2012-02-22T10:25:14Z</time>
      </trkpt>
      <trkpt lat="45.55072" lon="6.76344">
        <ele>1612.8</ele>
        <time>2012-02-22T10:30:29Z</time>
      </trkpt>
      <trkpt lat="45.55072" lon="6.76345">
        <ele>1612.8</ele>
        <time>2012-02-22T10:30:30Z</time>
      </trkpt>
      <trkpt lat="45.55072" lon="6.76346">
        <ele>1612.4</ele>
        <time>2012-02-22T10:30:31Z</time>
      </trkpt>
      <trkpt lat="45.55072" lon="6.76347">
        <ele>1612.1</ele>
        <time>2012-02-22T10:30:32Z</time>
      </trkpt>
      <trkpt lat="45.55072" lon="6.76348">
        <ele>1611.9</ele>
        <time>2012-02-22T10:30:33Z</time>
      </trkpt>
      <trkpt lat="45.5506" lon="6.76422">
        <ele>1617.8</ele>
        <time>2012-02-22T10:30:46Z</time>
      </trkpt>
      <trkpt lat="45.55059" lon="6.76428">
        <ele>1620.2</ele>
        <time>2012-02-22T10:30:47Z</time>
      </trkpt>
      <trkpt lat="45.54988" lon="6.76851">
        <ele>1729.3</ele>
        <time>2012-02-22T10:31:56Z</time>
      </trkpt>
      <trkpt lat="45.54988" lon="6.76856">
        <ele>1731.6</ele>
        <time>2012-02-22T10:31:57Z</time>
      </trkpt>
      <trkpt lat="45.54971" lon="6.76981">
        <ele>1775</ele>
        <time>2012-02-22T10:32:19Z</time>
      </trkpt>
      <trkpt lat="45.5497" lon="6.76987">
        <ele>1776.7</ele>
        <time>2012-02-22T10:32:20Z</time>
      </trkpt>
      <trkpt lat="45.54869" lon="6.77606">
        <ele>1942.7</ele>
        <time>2012-02-22T10:34:03Z</time>
      </trkpt>
      <trkpt lat="45.54869" lon="6.77611">
        <ele>1943.9</ele>
        <time>2012-02-22T10:34:04Z</time>
      </trkpt>
      <trkpt lat="45.54772" lon="6.78214">
        <ele>2071.6</ele>
        <time>2012-02-22T10:35:41Z</time>
      </trkpt>
      <trkpt lat="45.54771" lon="6.7822">
        <ele>2072.8</ele>
        <time>2012-02-22T10:35:42Z</time>
      </trkpt>
      <trkpt lat="45.54756" lon="6.78328">
        <ele>2085.4</ele>
        <time>2012-02-22T10:36:00Z</time>
      </trkpt>
      <trkpt lat="45.54756" lon="6.78331">
        <ele>2085.8</ele>
        <time>2012-02-22T10:36:01Z</time>
      </trkpt>
      <trkpt lat="45.54756" lon="6.78332">
        <ele>2086.1</ele>
        <time>2012-02-22T10:36:02Z</time>
      </trkpt>
      <trkpt lat="45.54756" lon="6.78333">
        <ele>2086.2</ele>
        <time>2012-02-22T10:36:03Z</time>
      </trkpt>
      <trkpt lat="45.54756" lon="6.78334">
        <ele>2086.4</ele>
        <time>2012-02-22T10:36:04Z</time>
      </trkpt>
      <trkpt lat="45.54756" lon="6.78336">
        <ele>2086.5</ele>
        <time>2012-02-22T10:36:05Z</time>
      </trkpt>
      <trkpt lat="45.54756" lon="6.7834">
        <ele>2086.7</ele>
        <time>2012-02-22T10:36:07Z</time>
      </trkpt>
      <trkpt lat="45.54757" lon="6.78343">
        <ele>2086.8</ele>
        <time>2012-02-22T10:36:08Z</time>
      </trkpt>
      <trkpt lat="45.54759" lon="6.78344">
        <ele>2087.3</ele>
        <time>2012-02-22T10:36:09Z</time>
      </trkpt>
      <trkpt lat="45.54763" lon="6.78351">
        <ele>2087.7</ele>
        <time>2012-02-22T10:36:13Z</time>
      </trkpt>
      <trkpt lat="45.54768" lon="6.78356">
        <ele>2087.7</ele>
        <time>2012-02-22T10:36:18Z</time>
      </trkpt>
      <trkpt lat="45.54769" lon="6.78357">
        <ele>2087.3</ele>
        <time>2012-02-22T10:36:19Z</time>
      </trkpt>
      <trkpt lat="45.5477" lon="6.78358">
        <ele>2086.9</ele>
        <time>2012-02-22T10:36:20Z</time>
      </trkpt>
      <trkpt lat="45.54771" lon="6.78359">
        <ele>2086.7</ele>
        <time>2012-02-22T10:36:21Z</time>
      </trkpt>
      <trkpt lat="45.54772" lon="6.7836">
        <ele>2086.4</ele>
        <time>2012-02-22T10:36:22Z</time>
      </trkpt>
      <trkpt lat="45.54774" lon="6.78361">
        <ele>2086.1</ele>
        <time>2012-02-22T10:36:23Z</time>
      </trkpt>
      <trkpt lat="45.54778" lon="6.7836">
        <ele>2086.3</ele>
        <time>2012-02-22T10:36:25Z</time>
      </trkpt>
      <trkpt lat="45.54779" lon="6.78359">
        <ele>2086.6</ele>
        <time>2012-02-22T10:36:26Z</time>
      </trkpt>
      <trkpt lat="45.5478" lon="6.78359">
        <ele>2086.8</ele>
        <time>2012-02-22T10:36:27Z</time>
      </trkpt>
      <trkpt lat="45.54781" lon="6.78359">
        <ele>2086.7</ele>
        <time>2012-02-22T10:36:28Z</time>
      </trkpt>
      <trkpt lat="45.54782" lon="6.78358">
        <ele>2086.7</ele>
        <time>2012-02-22T10:36:29Z</time>
      </trkpt>
      <trkpt lat="45.54783" lon="6.78358">
        <ele>2086.7</ele>
        <time>2012-02-22T10:36:30Z</time>
      </trkpt>
      <trkpt lat="45.54784" lon="6.78357">
        <ele>2086.6</ele>
        <time>2012-02-22T10:36:31Z</time>
      </trkpt>
      <trkpt lat="45.54793" lon="6.78354">
        <ele>2086.1</ele>
        <time>2012-02-22T10:37:08Z</time>
      </trkpt>
      <trkpt lat="45.54794" lon="6.78354">
        <ele>2086.4</ele>
        <time>2012-02-22T10:37:09Z</time>
      </trkpt>
      <trkpt lat="45.54794" lon="6.78354">
        <ele>2086.6</ele>
        <time>2012-02-22T10:37:10Z</time>
      </trkpt>
      <trkpt lat="45.54795" lon="6.78353">
        <ele>2086.7</ele>
        <time>2012-02-22T10:37:11Z</time>
      </trkpt>
      <trkpt lat="45.54796" lon="6.78353">
        <ele>2086.7</ele>
        <time>2012-02-22T10:37:12Z</time>
      </trkpt>
      <trkpt lat="45.54796" lon="6.78353">
        <ele>2086.2</ele>
        <time>2012-02-22T10:37:13Z</time>
      </trkpt>
      <trkpt lat="45.54797" lon="6.78353">
        <ele>2085.7</ele>
        <time>2012-02-22T10:37:14Z</time>
      </trkpt>
      <trkpt lat="45.54798" lon="6.78352">
        <ele>2085.4</ele>
        <time>2012-02-22T10:37:15Z</time>
      </trkpt>
      <trkpt lat="45.54799" lon="6.78352">
        <ele>2085.5</ele>
        <time>2012-02-22T10:37:16Z</time>
      </trkpt>
      <trkpt lat="45.548" lon="6.78352">
        <ele>2085.6</ele>
        <time>2012-02-22T10:37:17Z</time>
      </trkpt>
      <trkpt lat="45.54801" lon="6.78352">
        <ele>2085.7</ele>
        <time>2012-02-22T10:37:18Z</time>
      </trkpt>
      <trkpt lat="45.54802" lon="6.78352">
        <ele>2085.6</ele>
        <time>2012-02-22T10:37:19Z</time>
      </trkpt>
      <trkpt lat="45.54802" lon="6.78352">
        <ele>2085.6</ele>
        <time>2012-02-22T10:37:20Z</time>
      </trkpt>
      <trkpt lat="45.54804" lon="6.78351">
        <ele>2085.5</ele>
        <time>2012-02-22T10:37:22Z</time>
      </trkpt>
      <trkpt lat="45.54806" lon="6.78352">
        <ele>2085.6</ele>
        <time>2012-02-22T10:37:23Z</time>
      </trkpt>
      <trkpt lat="45.54807" lon="6.78352">
        <ele>2085.7</ele>
        <time>2012-02-22T10:37:24Z</time>
      </trkpt>
      <trkpt lat="45.54808" lon="6.78352">
        <ele>2085.8</ele>
        <time>2012-02-22T10:37:25Z</time>
      </trkpt>
      <trkpt lat="45.54808" lon="6.78352">
        <ele>2085.6</ele>
        <time>2012-02-22T10:37:26Z</time>
      </trkpt>
      <trkpt lat="45.54809" lon="6.78351">
        <ele>2085.5</ele>
        <time>2012-02-22T10:37:27Z</time>
      </trkpt>
      <trkpt lat="45.5481" lon="6.7835">
        <ele>2085.4</ele>
        <time>2012-02-22T10:37:28Z</time>
      </trkpt>
      <trkpt lat="45.54813" lon="6.78348">
        <ele>2083.9</ele>
        <time>2012-02-22T10:37:31Z</time>
      </trkpt>
      <trkpt lat="45.54817" lon="6.78348">
        <ele>2084.1</ele>
        <time>2012-02-22T10:37:33Z</time>
      </trkpt>
      <trkpt lat="45.5482" lon="6.78347">
        <ele>2084.2</ele>
        <time>2012-02-22T10:37:34Z</time>
      </trkpt>
      <trkpt lat="45.54832" lon="6.78342">
        <ele>2084.8</ele>
        <time>2012-02-22T10:37:39Z</time>
      </trkpt>
      <trkpt lat="45.54834" lon="6.78341">
        <ele>2084.8</ele>
        <time>2012-02-22T10:37:40Z</time>
      </trkpt>
      <trkpt lat="45.54836" lon="6.78339">
        <ele>2084.9</ele>
        <time>2012-02-22T10:37:41Z</time>
      </trkpt>
      <trkpt lat="45.54838" lon="6.78338">
        <ele>2084.5</ele>
        <time>2012-02-22T10:37:42Z</time>
      </trkpt>
      <trkpt lat="45.54846" lon="6.78336">
        <ele>2083.6</ele>
        <time>2012-02-22T10:37:46Z</time>
      </trkpt>
      <trkpt lat="45.54848" lon="6.78335">
        <ele>2083.5</ele>
        <time>2012-02-22T10:37:47Z</time>
      </trkpt>
      <trkpt lat="45.54856" lon="6.78333">
        <ele>2082.4</ele>
        <time>2012-02-22T10:37:50Z</time>
      </trkpt>
      <trkpt lat="45.54877" lon="6.78335">
        <ele>2080.6</ele>
        <time>2012-02-22T10:37:58Z</time>
      </trkpt>
      <trkpt lat="45.54883" lon="6.7833">
        <ele>2079.4</ele>
        <time>2012-02-22T10:38:15Z</time>
      </trkpt>
      <trkpt lat="45.54892" lon="6.78332">
        <ele>2078.1</ele>
        <time>2012-02-22T10:38:17Z</time>
      </trkpt>
      <trkpt lat="45.54898" lon="6.78331">
        <ele>2077.3</ele>
        <time>2012-02-22T10:38:18Z</time>
      </trkpt>
      <trkpt lat="45.54905" lon="6.78325">
        <ele>2076.8</ele>
        <time>2012-02-22T10:38:19Z</time>
      </trkpt>
      <trkpt lat="45.5491" lon="6.78313">
        <ele>2074.5</ele>
        <time>2012-02-22T10:38:20Z</time>
      </trkpt>
      <trkpt lat="45.54913" lon="6.78297">
        <ele>2072.8</ele>
        <time>2012-02-22T10:38:21Z</time>
      </trkpt>
      <trkpt lat="45.5492" lon="6.78284">
        <ele>2071.6</ele>
        <time>2012-02-22T10:38:22Z</time>
      </trkpt>
      <trkpt lat="45.54929" lon="6.78273">
        <ele>2067.7</ele>
        <time>2012-02-22T10:38:23Z</time>
      </trkpt>
      <trkpt lat="45.54936" lon="6.78261">
        <ele>2064.8</ele>
        <time>2012-02-22T10:38:24Z</time>
      </trkpt>
      <trkpt lat="45.5494" lon="6.78247">
        <ele>2062.6</ele>
        <time>2012-02-22T10:38:25Z</time>
      </trkpt>
      <trkpt lat="45.54948" lon="6.78235">
        <ele>2061</ele>
        <time>2012-02-22T10:38:26Z</time>
      </trkpt>
      <trkpt lat="45.54956" lon="6.78224">
        <ele>2058.2</ele>
        <time>2012-02-22T10:38:27Z</time>
      </trkpt>
      <trkpt lat="45.54963" lon="6.78195">
        <ele>2054.7</ele>
        <time>2012-02-22T10:38:29Z</time>
      </trkpt>
      <trkpt lat="45.5497" lon="6.78182">
        <ele>2052.2</ele>
        <time>2012-02-22T10:38:30Z</time>
      </trkpt>
      <trkpt lat="45.54991" lon="6.78162">
        <ele>2049</ele>
        <time>2012-02-22T10:38:32Z</time>
      </trkpt>
      <trkpt lat="45.54995" lon="6.78146">
        <ele>2045.5</ele>
        <time>2012-02-22T10:38:33Z</time>
      </trkpt>
      <trkpt lat="45.54995" lon="6.78132">
        <ele>2042.8</ele>
        <time>2012-02-22T10:38:34Z</time>
      </trkpt>
      <trkpt lat="45.54994" lon="6.78122">
        <ele>2040.8</ele>
        <time>2012-02-22T10:38:35Z</time>
      </trkpt>
      <trkpt lat="45.54995" lon="6.78113">
        <ele>2037.9</ele>
        <time>2012-02-22T10:38:36Z</time>
      </trkpt>
      <trkpt lat="45.55015" lon="6.7808">
        <ele>2030.3</ele>
        <time>2012-02-22T10:38:40Z</time>
      </trkpt>
      <trkpt lat="45.5502" lon="6.78074">
        <ele>2029</ele>
        <time>2012-02-22T10:38:41Z</time>
      </trkpt>
      <trkpt lat="45.55028" lon="6.7806">
        <ele>2027.7</ele>
        <time>2012-02-22T10:38:43Z</time>
      </trkpt>
      <trkpt lat="45.55037" lon="6.78055">
        <ele>2027</ele>
        <time>2012-02-22T10:38:45Z</time>
      </trkpt>
      <trkpt lat="45.55038" lon="6.78053">
        <ele>2025.7</ele>
        <time>2012-02-22T10:38:46Z</time>
      </trkpt>
      <trkpt lat="45.55038" lon="6.78052">
        <ele>2024.7</ele>
        <time>2012-02-22T10:38:47Z</time>
      </trkpt>
      <trkpt lat="45.55038" lon="6.7805">
        <ele>2024</ele>
        <time>2012-02-22T10:38:48Z</time>
      </trkpt>
      <trkpt lat="45.55039" lon="6.78047">
        <ele>2022.9</ele>
        <time>2012-02-22T10:38:50Z</time>
      </trkpt>
      <trkpt lat="45.55038" lon="6.78047">
        <ele>2022.5</ele>
        <time>2012-02-22T10:38:51Z</time>
      </trkpt>
      <trkpt lat="45.55038" lon="6.78046">
        <ele>2022.1</ele>
        <time>2012-02-22T10:38:52Z</time>
      </trkpt>
      <trkpt lat="45.55038" lon="6.78044">
        <ele>2021.8</ele>
        <time>2012-02-22T10:38:53Z</time>
      </trkpt>
      <trkpt lat="45.55037" lon="6.78041">
        <ele>2021.6</ele>
        <time>2012-02-22T10:38:54Z</time>
      </trkpt>
      <trkpt lat="45.55039" lon="6.78037">
        <ele>2020.8</ele>
        <time>2012-02-22T10:38:55Z</time>
      </trkpt>
      <trkpt lat="45.55042" lon="6.78034">
        <ele>2020.3</ele>
        <time>2012-02-22T10:38:56Z</time>
      </trkpt>
      <trkpt lat="45.55057" lon="6.78027">
        <ele>2018.7</ele>
        <time>2012-02-22T10:38:59Z</time>
      </trkpt>
      <trkpt lat="45.55061" lon="6.78021">
        <ele>2018.3</ele>
        <time>2012-02-22T10:39:00Z</time>
      </trkpt>
      <trkpt lat="45.55062" lon="6.78015">
        <ele>2018</ele>
        <time>2012-02-22T10:39:01Z</time>
      </trkpt>
      <trkpt lat="45.55061" lon="6.7801">
        <ele>2016.8</ele>
        <time>2012-02-22T10:39:02Z</time>
      </trkpt>
      <trkpt lat="45.55061" lon="6.78008">
        <ele>2015.8</ele>
        <time>2012-02-22T10:39:03Z</time>
      </trkpt>
      <trkpt lat="45.55063" lon="6.78006">
        <ele>2014.3</ele>
        <time>2012-02-22T10:39:05Z</time>
      </trkpt>
      <trkpt lat="45.55062" lon="6.78005">
        <ele>2013.7</ele>
        <time>2012-02-22T10:39:06Z</time>
      </trkpt>
      <trkpt lat="45.55062" lon="6.78004">
        <ele>2013.2</ele>
        <time>2012-02-22T10:39:07Z</time>
      </trkpt>
      <trkpt lat="45.55062" lon="6.78002">
        <ele>2012.5</ele>
        <time>2012-02-22T10:39:08Z</time>
      </trkpt>
      <trkpt lat="45.55063" lon="6.77999">
        <ele>2011</ele>
        <time>2012-02-22T10:39:13Z</time>
      </trkpt>
      <trkpt lat="45.55063" lon="6.77999">
        <ele>2010.6</ele>
        <time>2012-02-22T10:39:14Z</time>
      </trkpt>
      <trkpt lat="45.55064" lon="6.77997">
        <ele>2010.3</ele>
        <time>2012-02-22T10:39:15Z</time>
      </trkpt>
      <trkpt lat="45.5507" lon="6.7799">
        <ele>2009.9</ele>
        <time>2012-02-22T10:39:18Z</time>
      </trkpt>
      <trkpt lat="45.55073" lon="6.77988">
        <ele>2009.9</ele>
        <time>2012-02-22T10:39:19Z</time>
      </trkpt>
      <trkpt lat="45.55076" lon="6.77988">
        <ele>2009.9</ele>
        <time>2012-02-22T10:39:20Z</time>
      </trkpt>
      <trkpt lat="45.55077" lon="6.7799">
        <ele>2008.9</ele>
        <time>2012-02-22T10:39:21Z</time>
      </trkpt>
      <trkpt lat="45.55086" lon="6.77992">
        <ele>2007.6</ele>
        <time>2012-02-22T10:39:23Z</time>
      </trkpt>
      <trkpt lat="45.5509" lon="6.77995">
        <ele>2007.3</ele>
        <time>2012-02-22T10:39:24Z</time>
      </trkpt>
      <trkpt lat="45.55095" lon="6.77996">
        <ele>2007</ele>
        <time>2012-02-22T10:39:25Z</time>
      </trkpt>
      <trkpt lat="45.55103" lon="6.77996">
        <ele>2006.5</ele>
        <time>2012-02-22T10:39:27Z</time>
      </trkpt>
      <trkpt lat="45.55114" lon="6.78">
        <ele>2006</ele>
        <time>2012-02-22T10:39:29Z</time>
      </trkpt>
      <trkpt lat="45.55125" lon="6.78002">
        <ele>2003.6</ele>
        <time>2012-02-22T10:39:31Z</time>
      </trkpt>
      <trkpt lat="45.55129" lon="6.78005">
        <ele>2002.9</ele>
        <time>2012-02-22T10:39:32Z</time>
      </trkpt>
      <trkpt lat="45.55134" lon="6.78006">
        <ele>2001.7</ele>
        <time>2012-02-22T10:39:33Z</time>
      </trkpt>
      <trkpt lat="45.55145" lon="6.78005">
        <ele>2000.1</ele>
        <time>2012-02-22T10:39:35Z</time>
      </trkpt>
      <trkpt lat="45.5516" lon="6.78009">
        <ele>1998.4</ele>
        <time>2012-02-22T10:39:38Z</time>
      </trkpt>
      <trkpt lat="45.55163" lon="6.78012">
        <ele>1998</ele>
        <time>2012-02-22T10:39:39Z</time>
      </trkpt>
      <trkpt lat="45.55171" lon="6.78024">
        <ele>1995.9</ele>
        <time>2012-02-22T10:39:41Z</time>
      </trkpt>
      <trkpt lat="45.55175" lon="6.78029">
        <ele>1995.3</ele>
        <time>2012-02-22T10:39:42Z</time>
      </trkpt>
      <trkpt lat="45.552" lon="6.78043">
        <ele>1991.8</ele>
        <time>2012-02-22T10:39:46Z</time>
      </trkpt>
      <trkpt lat="45.55246" lon="6.7805">
        <ele>1989</ele>
        <time>2012-02-22T10:39:53Z</time>
      </trkpt>
      <trkpt lat="45.55254" lon="6.7805">
        <ele>1989</ele>
        <time>2012-02-22T10:39:54Z</time>
      </trkpt>
      <trkpt lat="45.55261" lon="6.7805">
        <ele>1988.9</ele>
        <time>2012-02-22T10:39:55Z</time>
      </trkpt>
      <trkpt lat="45.55286" lon="6.78043">
        <ele>1986.2</ele>
        <time>2012-02-22T10:39:59Z</time>
      </trkpt>
      <trkpt lat="45.55294" lon="6.78042">
        <ele>1985.5</ele>
        <time>2012-02-22T10:40:00Z</time>
      </trkpt>
      <trkpt lat="45.553" lon="6.78044">
        <ele>1985.1</ele>
        <time>2012-02-22T10:40:01Z</time>
      </trkpt>
      <trkpt lat="45.55311" lon="6.78052">
        <ele>1983.9</ele>
        <time>2012-02-22T10:40:03Z</time>
      </trkpt>
      <trkpt lat="45.5533" lon="6.78072">
        <ele>1980.2</ele>
        <time>2012-02-22T10:40:07Z</time>
      </trkpt>
      <trkpt lat="45.55335" lon="6.78076">
        <ele>1979.6</ele>
        <time>2012-02-22T10:40:08Z</time>
      </trkpt>
      <trkpt lat="45.55341" lon="6.78079">
        <ele>1978.5</ele>
        <time>2012-02-22T10:40:09Z</time>
      </trkpt>
      <trkpt lat="45.55347" lon="6.7808">
        <ele>1977.6</ele>
        <time>2012-02-22T10:40:10Z</time>
      </trkpt>
      <trkpt lat="45.55354" lon="6.78079">
        <ele>1977</ele>
        <time>2012-02-22T10:40:11Z</time>
      </trkpt>
      <trkpt lat="45.55365" lon="6.78072">
        <ele>1975.7</ele>
        <time>2012-02-22T10:40:13Z</time>
      </trkpt>
      <trkpt lat="45.55383" lon="6.78056">
        <ele>1973.7</ele>
        <time>2012-02-22T10:40:16Z</time>
      </trkpt>
      <trkpt lat="45.55392" lon="6.78053">
        <ele>1973.2</ele>
        <time>2012-02-22T10:40:17Z</time>
      </trkpt>
      <trkpt lat="45.554" lon="6.78053">
        <ele>1972</ele>
        <time>2012-02-22T10:40:18Z</time>
      </trkpt>
      <trkpt lat="45.55409" lon="6.78056">
        <ele>1971.1</ele>
        <time>2012-02-22T10:40:19Z</time>
      </trkpt>
      <trkpt lat="45.55417" lon="6.78062">
        <ele>1970.4</ele>
        <time>2012-02-22T10:40:20Z</time>
      </trkpt>
      <trkpt lat="45.55428" lon="6.78078">
        <ele>1968.4</ele>
        <time>2012-02-22T10:40:22Z</time>
      </trkpt>
      <trkpt lat="45.55433" lon="6.78083">
        <ele>1967.8</ele>
        <time>2012-02-22T10:40:23Z</time>
      </trkpt>
      <trkpt lat="45.55447" lon="6.78086">
        <ele>1964.9</ele>
        <time>2012-02-22T10:40:26Z</time>
      </trkpt>
      <trkpt lat="45.55452" lon="6.78089">
        <ele>1964.1</ele>
        <time>2012-02-22T10:40:27Z</time>
      </trkpt>
      <trkpt lat="45.55457" lon="6.78093">
        <ele>1963.1</ele>
        <time>2012-02-22T10:40:28Z</time>
      </trkpt>
      <trkpt lat="45.55462" lon="6.78096">
        <ele>1962.4</ele>
        <time>2012-02-22T10:40:29Z</time>
      </trkpt>
      <trkpt lat="45.55469" lon="6.78097">
        <ele>1961.8</ele>
        <time>2012-02-22T10:40:30Z</time>
      </trkpt>
      <trkpt lat="45.55526" lon="6.78084">
        <ele>1955.1</ele>
        <time>2012-02-22T10:40:36Z</time>
      </trkpt>
      <trkpt lat="45.55563" lon="6.78065">
        <ele>1951.1</ele>
        <time>2012-02-22T10:40:40Z</time>
      </trkpt>
      <trkpt lat="45.55593" lon="6.78039">
        <ele>1948.5</ele>
        <time>2012-02-22T10:40:44Z</time>
      </trkpt>
      <trkpt lat="45.55603" lon="6.78035">
        <ele>1947.8</ele>
        <time>2012-02-22T10:40:45Z</time>
      </trkpt>
      <trkpt lat="45.55624" lon="6.78032">
        <ele>1946.2</ele>
        <time>2012-02-22T10:40:47Z</time>
      </trkpt>
      <trkpt lat="45.55635" lon="6.78032">
        <ele>1945.4</ele>
        <time>2012-02-22T10:40:48Z</time>
      </trkpt>
      <trkpt lat="45.55645" lon="6.78031">
        <ele>1944.8</ele>
        <time>2012-02-22T10:40:49Z</time>
      </trkpt>
      <trkpt lat="45.55655" lon="6.78026">
        <ele>1943.4</ele>
        <time>2012-02-22T10:40:50Z</time>
      </trkpt>
      <trkpt lat="45.55663" lon="6.78018">
        <ele>1942.4</ele>
        <time>2012-02-22T10:40:51Z</time>
      </trkpt>
      <trkpt lat="45.5567" lon="6.78007">
        <ele>1941.6</ele>
        <time>2012-02-22T10:40:52Z</time>
      </trkpt>
      <trkpt lat="45.55683" lon="6.77983">
        <ele>1939.1</ele>
        <time>2012-02-22T10:40:54Z</time>
      </trkpt>
      <trkpt lat="45.55692" lon="6.77974">
        <ele>1938.3</ele>
        <time>2012-02-22T10:40:55Z</time>
      </trkpt>
      <trkpt lat="45.55701" lon="6.77968">
        <ele>1937.1</ele>
        <time>2012-02-22T10:40:56Z</time>
      </trkpt>
      <trkpt lat="45.5571" lon="6.77966">
        <ele>1936.2</ele>
        <time>2012-02-22T10:40:57Z</time>
      </trkpt>
      <trkpt lat="45.55719" lon="6.77967">
        <ele>1935.5</ele>
        <time>2012-02-22T10:40:58Z</time>
      </trkpt>
      <trkpt lat="45.55726" lon="6.77971">
        <ele>1935</ele>
        <time>2012-02-22T10:40:59Z</time>
      </trkpt>
      <trkpt lat="45.5574" lon="6.77984">
        <ele>1934.5</ele>
        <time>2012-02-22T10:41:02Z</time>
      </trkpt>
      <trkpt lat="45.55747" lon="6.77995">
        <ele>1934.1</ele>
        <time>2012-02-22T10:41:04Z</time>
      </trkpt>
      <trkpt lat="45.5576" lon="6.78024">
        <ele>1932.9</ele>
        <time>2012-02-22T10:41:10Z</time>
      </trkpt>
      <trkpt lat="45.55761" lon="6.78026">
        <ele>1933</ele>
        <time>2012-02-22T10:41:11Z</time>
      </trkpt>
      <trkpt lat="45.55762" lon="6.78027">
        <ele>1933.2</ele>
        <time>2012-02-22T10:41:12Z</time>
      </trkpt>
      <trkpt lat="45.55763" lon="6.78028">
        <ele>1933.4</ele>
        <time>2012-02-22T10:41:13Z</time>
      </trkpt>
      <trkpt lat="45.55765" lon="6.78031">
        <ele>1933.5</ele>
        <time>2012-02-22T10:41:14Z</time>
      </trkpt>
      <trkpt lat="45.55769" lon="6.78032">
        <ele>1933.6</ele>
        <time>2012-02-22T10:41:15Z</time>
      </trkpt>
      <trkpt lat="45.55788" lon="6.78036">
        <ele>1932.5</ele>
        <time>2012-02-22T10:41:19Z</time>
      </trkpt>
      <trkpt lat="45.55808" lon="6.78045">
        <ele>1931.2</ele>
        <time>2012-02-22T10:41:24Z</time>
      </trkpt>
      <trkpt lat="45.55864" lon="6.78057">
        <ele>1925.1</ele>
        <time>2012-02-22T10:41:37Z</time>
      </trkpt>
      <trkpt lat="45.55869" lon="6.78059">
        <ele>1924.7</ele>
        <time>2012-02-22T10:41:38Z</time>
      </trkpt>
      <trkpt lat="45.55908" lon="6.78093">
        <ele>1920.1</ele>
        <time>2012-02-22T10:41:46Z</time>
      </trkpt>
      <trkpt lat="45.55921" lon="6.78098">
        <ele>1919.3</ele>
        <time>2012-02-22T10:41:48Z</time>
      </trkpt>
      <trkpt lat="45.55934" lon="6.78117">
        <ele>1917.9</ele>
        <time>2012-02-22T10:41:51Z</time>
      </trkpt>
      <trkpt lat="45.55954" lon="6.78133">
        <ele>1915.2</ele>
        <time>2012-02-22T10:41:55Z</time>
      </trkpt>
      <trkpt lat="45.5596" lon="6.78137">
        <ele>1914.8</ele>
        <time>2012-02-22T10:41:56Z</time>
      </trkpt>
      <trkpt lat="45.55979" lon="6.78148">
        <ele>1911.6</ele>
        <time>2012-02-22T10:41:59Z</time>
      </trkpt>
      <trkpt lat="45.55984" lon="6.7815">
        <ele>1910.5</ele>
        <time>2012-02-22T10:42:00Z</time>
      </trkpt>
      <trkpt lat="45.55991" lon="6.7815">
        <ele>1909.7</ele>
        <time>2012-02-22T10:42:01Z</time>
      </trkpt>
      <trkpt lat="45.56011" lon="6.7816">
        <ele>1908.1</ele>
        <time>2012-02-22T10:42:04Z</time>
      </trkpt>
      <trkpt lat="45.56022" lon="6.78172">
        <ele>1907.4</ele>
        <time>2012-02-22T10:42:06Z</time>
      </trkpt>
      <trkpt lat="45.56028" lon="6.78173">
        <ele>1906.4</ele>
        <time>2012-02-22T10:42:07Z</time>
      </trkpt>
      <trkpt lat="45.56043" lon="6.7817">
        <ele>1905.1</ele>
        <time>2012-02-22T10:42:09Z</time>
      </trkpt>
      <trkpt lat="45.5605" lon="6.78172">
        <ele>1903.7</ele>
        <time>2012-02-22T10:42:10Z</time>
      </trkpt>
      <trkpt lat="45.56064" lon="6.78186">
        <ele>1901.9</ele>
        <time>2012-02-22T10:42:12Z</time>
      </trkpt>
      <trkpt lat="45.56083" lon="6.78196">
        <ele>1899</ele>
        <time>2012-02-22T10:42:14Z</time>
      </trkpt>
      <trkpt lat="45.56093" lon="6.78203">
        <ele>1898</ele>
        <time>2012-02-22T10:42:15Z</time>
      </trkpt>
      <trkpt lat="45.56118" lon="6.78229">
        <ele>1891.6</ele>
        <time>2012-02-22T10:42:18Z</time>
      </trkpt>
      <trkpt lat="45.56197" lon="6.78281">
        <ele>1877.6</ele>
        <time>2012-02-22T10:42:26Z</time>
      </trkpt>
      <trkpt lat="45.56257" lon="6.78305">
        <ele>1872.4</ele>
        <time>2012-02-22T10:42:32Z</time>
      </trkpt>
      <trkpt lat="45.56317" lon="6.78317">
        <ele>1868</ele>
        <time>2012-02-22T10:42:38Z</time>
      </trkpt>
      <trkpt lat="45.56389" lon="6.78366">
        <ele>1859.9</ele>
        <time>2012-02-22T10:42:48Z</time>
      </trkpt>
      <trkpt lat="45.56396" lon="6.78368">
        <ele>1859.4</ele>
        <time>2012-02-22T10:42:49Z</time>
      </trkpt>
      <trkpt lat="45.56404" lon="6.78367">
        <ele>1858.9</ele>
        <time>2012-02-22T10:42:50Z</time>
      </trkpt>
      <trkpt lat="45.56412" lon="6.78362">
        <ele>1857.6</ele>
        <time>2012-02-22T10:42:51Z</time>
      </trkpt>
      <trkpt lat="45.56418" lon="6.78352">
        <ele>1856.6</ele>
        <time>2012-02-22T10:42:52Z</time>
      </trkpt>
      <trkpt lat="45.56421" lon="6.78339">
        <ele>1855.9</ele>
        <time>2012-02-22T10:42:53Z</time>
      </trkpt>
      <trkpt lat="45.56426" lon="6.78325">
        <ele>1855.3</ele>
        <time>2012-02-22T10:42:54Z</time>
      </trkpt>
      <trkpt lat="45.56436" lon="6.78316">
        <ele>1853</ele>
        <time>2012-02-22T10:42:55Z</time>
      </trkpt>
      <trkpt lat="45.56459" lon="6.78309">
        <ele>1849.9</ele>
        <time>2012-02-22T10:42:57Z</time>
      </trkpt>
      <trkpt lat="45.56469" lon="6.783">
        <ele>1847.6</ele>
        <time>2012-02-22T10:42:58Z</time>
      </trkpt>
      <trkpt lat="45.56519" lon="6.78286">
        <ele>1838.1</ele>
        <time>2012-02-22T10:43:03Z</time>
      </trkpt>
      <trkpt lat="45.56527" lon="6.78279">
        <ele>1837</ele>
        <time>2012-02-22T10:43:04Z</time>
      </trkpt>
      <trkpt lat="45.56542" lon="6.7826">
        <ele>1835.6</ele>
        <time>2012-02-22T10:43:06Z</time>
      </trkpt>
      <trkpt lat="45.56558" lon="6.7825">
        <ele>1833.1</ele>
        <time>2012-02-22T10:43:08Z</time>
      </trkpt>
      <trkpt lat="45.56564" lon="6.78243">
        <ele>1832.2</ele>
        <time>2012-02-22T10:43:09Z</time>
      </trkpt>
      <trkpt lat="45.56567" lon="6.78234">
        <ele>1831.6</ele>
        <time>2012-02-22T10:43:10Z</time>
      </trkpt>
      <trkpt lat="45.56569" lon="6.78223">
        <ele>1830.3</ele>
        <time>2012-02-22T10:43:11Z</time>
      </trkpt>
      <trkpt lat="45.56573" lon="6.78214">
        <ele>1829.3</ele>
        <time>2012-02-22T10:43:12Z</time>
      </trkpt>
      <trkpt lat="45.56578" lon="6.78205">
        <ele>1828.6</ele>
        <time>2012-02-22T10:43:13Z</time>
      </trkpt>
      <trkpt lat="45.56584" lon="6.78197">
        <ele>1827.3</ele>
        <time>2012-02-22T10:43:14Z</time>
      </trkpt>
      <trkpt lat="45.56592" lon="6.78189">
        <ele>1826.4</ele>
        <time>2012-02-22T10:43:15Z</time>
      </trkpt>
      <trkpt lat="45.5664" lon="6.78162">
        <ele>1818.7</ele>
        <time>2012-02-22T10:43:20Z</time>
      </trkpt>
      <trkpt lat="45.5665" lon="6.78159">
        <ele>1817.2</ele>
        <time>2012-02-22T10:43:21Z</time>
      </trkpt>
      <trkpt lat="45.56678" lon="6.78154">
        <ele>1814</ele>
        <time>2012-02-22T10:43:24Z</time>
      </trkpt>
      <trkpt lat="45.56716" lon="6.78138">
        <ele>1810.3</ele>
        <time>2012-02-22T10:43:28Z</time>
      </trkpt>
      <trkpt lat="45.56735" lon="6.78138">
        <ele>1808.1</ele>
        <time>2012-02-22T10:43:30Z</time>
      </trkpt>
      <trkpt lat="45.56761" lon="6.78135">
        <ele>1805.6</ele>
        <time>2012-02-22T10:43:33Z</time>
      </trkpt>
      <trkpt lat="45.56766" lon="6.7813">
        <ele>1805.2</ele>
        <time>2012-02-22T10:43:34Z</time>
      </trkpt>
      <trkpt lat="45.56776" lon="6.78112">
        <ele>1804.2</ele>
        <time>2012-02-22T10:43:36Z</time>
      </trkpt>
      <trkpt lat="45.56782" lon="6.78108">
        <ele>1803.7</ele>
        <time>2012-02-22T10:43:37Z</time>
      </trkpt>
      <trkpt lat="45.56787" lon="6.78106">
        <ele>1803.3</ele>
        <time>2012-02-22T10:43:38Z</time>
      </trkpt>
      <trkpt lat="45.56796" lon="6.78099">
        <ele>1798.6</ele>
        <time>2012-02-22T10:43:41Z</time>
      </trkpt>
      <trkpt lat="45.568" lon="6.78097">
        <ele>1797.9</ele>
        <time>2012-02-22T10:43:42Z</time>
      </trkpt>
      <trkpt lat="45.5681" lon="6.78096">
        <ele>1796.6</ele>
        <time>2012-02-22T10:43:45Z</time>
      </trkpt>
      <trkpt lat="45.56812" lon="6.78095">
        <ele>1795.5</ele>
        <time>2012-02-22T10:43:46Z</time>
      </trkpt>
      <trkpt lat="45.56816" lon="6.78092">
        <ele>1794.2</ele>
        <time>2012-02-22T10:43:48Z</time>
      </trkpt>
      <trkpt lat="45.56819" lon="6.78088">
        <ele>1793.9</ele>
        <time>2012-02-22T10:43:50Z</time>
      </trkpt>
      <trkpt lat="45.56823" lon="6.78084">
        <ele>1793.3</ele>
        <time>2012-02-22T10:43:52Z</time>
      </trkpt>
      <trkpt lat="45.56826" lon="6.78083">
        <ele>1792.9</ele>
        <time>2012-02-22T10:43:53Z</time>
      </trkpt>
      <trkpt lat="45.56829" lon="6.78083">
        <ele>1791.9</ele>
        <time>2012-02-22T10:43:55Z</time>
      </trkpt>
      <trkpt lat="45.56834" lon="6.78083">
        <ele>1790.9</ele>
        <time>2012-02-22T10:43:58Z</time>
      </trkpt>
      <trkpt lat="45.56836" lon="6.78083">
        <ele>1790.8</ele>
        <time>2012-02-22T10:43:59Z</time>
      </trkpt>
      <trkpt lat="45.56838" lon="6.78082">
        <ele>1790.7</ele>
        <time>2012-02-22T10:44:00Z</time>
      </trkpt>
      <trkpt lat="45.56849" lon="6.78078">
        <ele>1789.9</ele>
        <time>2012-02-22T10:44:03Z</time>
      </trkpt>
      <trkpt lat="45.5686" lon="6.78079">
        <ele>1788.9</ele>
        <time>2012-02-22T10:44:05Z</time>
      </trkpt>
      <trkpt lat="45.56888" lon="6.78088">
        <ele>1785</ele>
        <time>2012-02-22T10:44:09Z</time>
      </trkpt>
      <trkpt lat="45.56915" lon="6.78085">
        <ele>1781.1</ele>
        <time>2012-02-22T10:44:12Z</time>
      </trkpt>
      <trkpt lat="45.56934" lon="6.7809">
        <ele>1778.3</ele>
        <time>2012-02-22T10:44:14Z</time>
      </trkpt>
      <trkpt lat="45.56942" lon="6.78089">
        <ele>1776.9</ele>
        <time>2012-02-22T10:44:15Z</time>
      </trkpt>
      <trkpt lat="45.56951" lon="6.78086">
        <ele>1775.9</ele>
        <time>2012-02-22T10:44:16Z</time>
      </trkpt>
      <trkpt lat="45.56959" lon="6.78087">
        <ele>1775.1</ele>
        <time>2012-02-22T10:44:17Z</time>
      </trkpt>
      <trkpt lat="45.56965" lon="6.78091">
        <ele>1774.3</ele>
        <time>2012-02-22T10:44:18Z</time>
      </trkpt>
      <trkpt lat="45.5697" lon="6.78096">
        <ele>1773.7</ele>
        <time>2012-02-22T10:44:19Z</time>
      </trkpt>
      <trkpt lat="45.56975" lon="6.78099">
        <ele>1773.3</ele>
        <time>2012-02-22T10:44:20Z</time>
      </trkpt>
      <trkpt lat="45.5698" lon="6.781">
        <ele>1772.5</ele>
        <time>2012-02-22T10:44:21Z</time>
      </trkpt>
      <trkpt lat="45.56985" lon="6.781">
        <ele>1771.9</ele>
        <time>2012-02-22T10:44:22Z</time>
      </trkpt>
      <trkpt lat="45.56991" lon="6.78101">
        <ele>1771.5</ele>
        <time>2012-02-22T10:44:23Z</time>
      </trkpt>
      <trkpt lat="45.56997" lon="6.78103">
        <ele>1771</ele>
        <time>2012-02-22T10:44:24Z</time>
      </trkpt>
      <trkpt lat="45.57001" lon="6.78106">
        <ele>1770.6</ele>
        <time>2012-02-22T10:44:25Z</time>
      </trkpt>
      <trkpt lat="45.57004" lon="6.78109">
        <ele>1770.2</ele>
        <time>2012-02-22T10:44:26Z</time>
      </trkpt>
      <trkpt lat="45.5702" lon="6.78131">
        <ele>1767</ele>
        <time>2012-02-22T10:44:33Z</time>
      </trkpt>
      <trkpt lat="45.57029" lon="6.78138">
        <ele>1766.5</ele>
        <time>2012-02-22T10:44:37Z</time>
      </trkpt>
      <trkpt lat="45.57031" lon="6.78139">
        <ele>1766.5</ele>
        <time>2012-02-22T10:44:38Z</time>
      </trkpt>
      <trkpt lat="45.57031" lon="6.78139">
        <ele>1766.5</ele>
        <time>2012-02-22T10:44:39Z</time>
      </trkpt>
      <trkpt lat="45.57032" lon="6.78139">
        <ele>1766.4</ele>
        <time>2012-02-22T10:44:40Z</time>
      </trkpt>
      <trkpt lat="45.57033" lon="6.78139">
        <ele>1766.3</ele>
        <time>2012-02-22T10:44:41Z</time>
      </trkpt>
      <trkpt lat="45.57033" lon="6.78139">
        <ele>1766.2</ele>
        <time>2012-02-22T10:44:42Z</time>
      </trkpt>
      <trkpt lat="45.57034" lon="6.78139">
        <ele>1765.4</ele>
        <time>2012-02-22T10:44:43Z</time>
      </trkpt>
      <trkpt lat="45.57041" lon="6.78137">
        <ele>1764.2</ele>
        <time>2012-02-22T10:44:58Z</time>
      </trkpt>
      <trkpt lat="45.57041" lon="6.78137">
        <ele>1764.2</ele>
        <time>2012-02-22T10:44:59Z</time>
      </trkpt>
      <trkpt lat="45.57042" lon="6.78136">
        <ele>1764.2</ele>
        <time>2012-02-22T10:45:00Z</time>
      </trkpt>
      <trkpt lat="45.57047" lon="6.78122">
        <ele>1762.4</ele>
        <time>2012-02-22T10:45:54Z</time>
      </trkpt>
      <trkpt lat="45.57049" lon="6.78122">
        <ele>1762.3</ele>
        <time>2012-02-22T10:45:55Z</time>
      </trkpt>
      <trkpt lat="45.5705" lon="6.78122">
        <ele>1762.2</ele>
        <time>2012-02-22T10:45:56Z</time>
      </trkpt>
      <trkpt lat="45.57053" lon="6.78125">
        <ele>1761.3</ele>
        <time>2012-02-22T10:45:58Z</time>
      </trkpt>
      <trkpt lat="45.57055" lon="6.78127">
        <ele>1761</ele>
        <time>2012-02-22T10:45:59Z</time>
      </trkpt>
      <trkpt lat="45.57059" lon="6.78126">
        <ele>1760.4</ele>
        <time>2012-02-22T10:46:00Z</time>
      </trkpt>
      <trkpt lat="45.57065" lon="6.78116">
        <ele>1759.6</ele>
        <time>2012-02-22T10:46:02Z</time>
      </trkpt>
      <trkpt lat="45.57071" lon="6.78114">
        <ele>1758.4</ele>
        <time>2012-02-22T10:46:03Z</time>
      </trkpt>
      <trkpt lat="45.57078" lon="6.78112">
        <ele>1757.4</ele>
        <time>2012-02-22T10:46:04Z</time>
      </trkpt>
      <trkpt lat="45.57087" lon="6.78108">
        <ele>1756.7</ele>
        <time>2012-02-22T10:46:05Z</time>
      </trkpt>
      <trkpt lat="45.57115" lon="6.78092">
        <ele>1750.8</ele>
        <time>2012-02-22T10:46:08Z</time>
      </trkpt>
      <trkpt lat="45.57129" lon="6.78074">
        <ele>1746</ele>
        <time>2012-02-22T10:46:10Z</time>
      </trkpt>
      <trkpt lat="45.57137" lon="6.78067">
        <ele>1744.5</ele>
        <time>2012-02-22T10:46:11Z</time>
      </trkpt>
      <trkpt lat="45.57143" lon="6.78057">
        <ele>1742.3</ele>
        <time>2012-02-22T10:46:12Z</time>
      </trkpt>
      <trkpt lat="45.57152" lon="6.78049">
        <ele>1740.6</ele>
        <time>2012-02-22T10:46:13Z</time>
      </trkpt>
      <trkpt lat="45.57162" lon="6.78047">
        <ele>1739.3</ele>
        <time>2012-02-22T10:46:14Z</time>
      </trkpt>
      <trkpt lat="45.5717" lon="6.78041">
        <ele>1738.4</ele>
        <time>2012-02-22T10:46:15Z</time>
      </trkpt>
      <trkpt lat="45.57176" lon="6.78032">
        <ele>1737.2</ele>
        <time>2012-02-22T10:46:16Z</time>
      </trkpt>
      <trkpt lat="45.57192" lon="6.78022">
        <ele>1735.6</ele>
        <time>2012-02-22T10:46:18Z</time>
      </trkpt>
      <trkpt lat="45.57196" lon="6.78012">
        <ele>1734</ele>
        <time>2012-02-22T10:46:19Z</time>
      </trkpt>
      <trkpt lat="45.57202" lon="6.78003">
        <ele>1732.8</ele>
        <time>2012-02-22T10:46:20Z</time>
      </trkpt>
      <trkpt lat="45.5721" lon="6.77997">
        <ele>1731.9</ele>
        <time>2012-02-22T10:46:21Z</time>
      </trkpt>
      <trkpt lat="45.57216" lon="6.77989">
        <ele>1731.2</ele>
        <time>2012-02-22T10:46:22Z</time>
      </trkpt>
      <trkpt lat="45.5722" lon="6.77978">
        <ele>1730.7</ele>
        <time>2012-02-22T10:46:23Z</time>
      </trkpt>
      <trkpt lat="45.57232" lon="6.77964">
        <ele>1728.1</ele>
        <time>2012-02-22T10:46:25Z</time>
      </trkpt>
      <trkpt lat="45.57236" lon="6.77956">
        <ele>1726.5</ele>
        <time>2012-02-22T10:46:26Z</time>
      </trkpt>
      <trkpt lat="45.57241" lon="6.77949">
        <ele>1725.3</ele>
        <time>2012-02-22T10:46:27Z</time>
      </trkpt>
      <trkpt lat="45.57252" lon="6.7794">
        <ele>1722</ele>
        <time>2012-02-22T10:46:29Z</time>
      </trkpt>
      <trkpt lat="45.57255" lon="6.77934">
        <ele>1720.9</ele>
        <time>2012-02-22T10:46:30Z</time>
      </trkpt>
      <trkpt lat="45.57255" lon="6.77929">
        <ele>1720.1</ele>
        <time>2012-02-22T10:46:31Z</time>
      </trkpt>
      <trkpt lat="45.57254" lon="6.77927">
        <ele>1719</ele>
        <time>2012-02-22T10:46:32Z</time>
      </trkpt>
      <trkpt lat="45.57254" lon="6.77926">
        <ele>1718.1</ele>
        <time>2012-02-22T10:46:33Z</time>
      </trkpt>
      <trkpt lat="45.57253" lon="6.77926">
        <ele>1717.4</ele>
        <time>2012-02-22T10:46:34Z</time>
      </trkpt>
      <trkpt lat="45.57212" lon="6.77914">
        <ele>1714.4</ele>
        <time>2012-02-22T10:56:37Z</time>
      </trkpt>
      <trkpt lat="45.57068" lon="6.78254">
        <ele>1780</ele>
        <time>2012-02-22T10:57:46Z</time>
      </trkpt>
      <trkpt lat="45.57067" lon="6.78259">
        <ele>1780.7</ele>
        <time>2012-02-22T10:57:47Z</time>
      </trkpt>
      <trkpt lat="45.56973" lon="6.78478">
        <ele>1821.9</ele>
        <time>2012-02-22T10:58:38Z</time>
      </trkpt>
      <trkpt lat="45.56733" lon="6.79053">
        <ele>1946.7</ele>
        <time>2012-02-22T11:00:40Z</time>
      </trkpt>
      <trkpt lat="45.56732" lon="6.79058">
        <ele>1948.3</ele>
        <time>2012-02-22T11:00:41Z</time>
      </trkpt>
      <trkpt lat="45.56686" lon="6.79163">
        <ele>1978.8</ele>
        <time>2012-02-22T11:01:03Z</time>
      </trkpt>
      <trkpt lat="45.56393" lon="6.79848">
        <ele>2174.4</ele>
        <time>2012-02-22T11:03:32Z</time>
      </trkpt>
      <trkpt lat="45.56392" lon="6.7985">
        <ele>2174.6</ele>
        <time>2012-02-22T11:03:33Z</time>
      </trkpt>
      <trkpt lat="45.56391" lon="6.79852">
        <ele>2174.7</ele>
        <time>2012-02-22T11:03:34Z</time>
      </trkpt>
      <trkpt lat="45.56389" lon="6.79855">
        <ele>2175</ele>
        <time>2012-02-22T11:03:36Z</time>
      </trkpt>
      <trkpt lat="45.56389" lon="6.79856">
        <ele>2175.2</ele>
        <time>2012-02-22T11:03:37Z</time>
      </trkpt>
      <trkpt lat="45.56388" lon="6.79857">
        <ele>2175.4</ele>
        <time>2012-02-22T11:03:38Z</time>
      </trkpt>
      <trkpt lat="45.56388" lon="6.79858">
        <ele>2175.2</ele>
        <time>2012-02-22T11:03:39Z</time>
      </trkpt>
      <trkpt lat="45.56387" lon="6.7986">
        <ele>2175.1</ele>
        <time>2012-02-22T11:03:40Z</time>
      </trkpt>
      <trkpt lat="45.56387" lon="6.79861">
        <ele>2175</ele>
        <time>2012-02-22T11:03:41Z</time>
      </trkpt>
      <trkpt lat="45.56387" lon="6.79862">
        <ele>2174.6</ele>
        <time>2012-02-22T11:03:42Z</time>
      </trkpt>
      <trkpt lat="45.56386" lon="6.79863">
        <ele>2174.2</ele>
        <time>2012-02-22T11:03:43Z</time>
      </trkpt>
      <trkpt lat="45.56385" lon="6.79864">
        <ele>2174</ele>
        <time>2012-02-22T11:03:44Z</time>
      </trkpt>
      <trkpt lat="45.56382" lon="6.79872">
        <ele>2174.6</ele>
        <time>2012-02-22T11:03:46Z</time>
      </trkpt>
      <trkpt lat="45.56379" lon="6.79884">
        <ele>2174.9</ele>
        <time>2012-02-22T11:03:49Z</time>
      </trkpt>
      <trkpt lat="45.56379" lon="6.79888">
        <ele>2174</ele>
        <time>2012-02-22T11:03:51Z</time>
      </trkpt>
      <trkpt lat="45.56379" lon="6.79889">
        <ele>2174.1</ele>
        <time>2012-02-22T11:03:52Z</time>
      </trkpt>
      <trkpt lat="45.56379" lon="6.79889">
        <ele>2174.2</ele>
        <time>2012-02-22T11:03:53Z</time>
      </trkpt>
      <trkpt lat="45.56379" lon="6.7989">
        <ele>2174.2</ele>
        <time>2012-02-22T11:03:54Z</time>
      </trkpt>
      <trkpt lat="45.56379" lon="6.79891">
        <ele>2174.5</ele>
        <time>2012-02-22T11:03:55Z</time>
      </trkpt>
      <trkpt lat="45.56379" lon="6.79892">
        <ele>2174.8</ele>
        <time>2012-02-22T11:03:56Z</time>
      </trkpt>
      <trkpt lat="45.56379" lon="6.79893">
        <ele>2175</ele>
        <time>2012-02-22T11:03:57Z</time>
      </trkpt>
      <trkpt lat="45.56379" lon="6.79893">
        <ele>2175.1</ele>
        <time>2012-02-22T11:03:58Z</time>
      </trkpt>
      <trkpt lat="45.56379" lon="6.79894">
        <ele>2175.3</ele>
        <time>2012-02-22T11:03:59Z</time>
      </trkpt>
      <trkpt lat="45.56379" lon="6.79895">
        <ele>2175.4</ele>
        <time>2012-02-22T11:04:00Z</time>
      </trkpt>
      <trkpt lat="45.56379" lon="6.79896">
        <ele>2175.4</ele>
        <time>2012-02-22T11:04:01Z</time>
      </trkpt>
      <trkpt lat="45.56379" lon="6.79897">
        <ele>2175.4</ele>
        <time>2012-02-22T11:04:02Z</time>
      </trkpt>
      <trkpt lat="45.56379" lon="6.79897">
        <ele>2175.3</ele>
        <time>2012-02-22T11:04:03Z</time>
      </trkpt>
      <trkpt lat="45.56378" lon="6.79898">
        <ele>2175.3</ele>
        <time>2012-02-22T11:04:04Z</time>
      </trkpt>
      <trkpt lat="45.56378" lon="6.79899">
        <ele>2175</ele>
        <time>2012-02-22T11:04:05Z</time>
      </trkpt>
      <trkpt lat="45.56368" lon="6.79918">
        <ele>2174.4</ele>
        <time>2012-02-22T11:06:03Z</time>
      </trkpt>
      <trkpt lat="45.56365" lon="6.79917">
        <ele>2174.1</ele>
        <time>2012-02-22T11:06:04Z</time>
      </trkpt>
      <trkpt lat="45.56362" lon="6.79915">
        <ele>2174</ele>
        <time>2012-02-22T11:06:05Z</time>
      </trkpt>
      <trkpt lat="45.56359" lon="6.79913">
        <ele>2173.4</ele>
        <time>2012-02-22T11:06:06Z</time>
      </trkpt>
      <trkpt lat="45.56356" lon="6.7991">
        <ele>2173</ele>
        <time>2012-02-22T11:06:07Z</time>
      </trkpt>
      <trkpt lat="45.56354" lon="6.79906">
        <ele>2172.7</ele>
        <time>2012-02-22T11:06:08Z</time>
      </trkpt>
      <trkpt lat="45.5635" lon="6.79898">
        <ele>2172.9</ele>
        <time>2012-02-22T11:06:10Z</time>
      </trkpt>
      <trkpt lat="45.56343" lon="6.79872">
        <ele>2171.9</ele>
        <time>2012-02-22T11:06:14Z</time>
      </trkpt>
      <trkpt lat="45.56327" lon="6.79836">
        <ele>2168.6</ele>
        <time>2012-02-22T11:06:19Z</time>
      </trkpt>
      <trkpt lat="45.56323" lon="6.79816">
        <ele>2167.7</ele>
        <time>2012-02-22T11:06:21Z</time>
      </trkpt>
      <trkpt lat="45.5632" lon="6.79806">
        <ele>2166.7</ele>
        <time>2012-02-22T11:06:22Z</time>
      </trkpt>
      <trkpt lat="45.56317" lon="6.79785">
        <ele>2165.4</ele>
        <time>2012-02-22T11:06:24Z</time>
      </trkpt>
      <trkpt lat="45.5632" lon="6.79777">
        <ele>2163.6</ele>
        <time>2012-02-22T11:06:25Z</time>
      </trkpt>
      <trkpt lat="45.56326" lon="6.79771">
        <ele>2161.2</ele>
        <time>2012-02-22T11:06:27Z</time>
      </trkpt>
      <trkpt lat="45.56326" lon="6.79767">
        <ele>2159.6</ele>
        <time>2012-02-22T11:06:28Z</time>
      </trkpt>
      <trkpt lat="45.56325" lon="6.79763">
        <ele>2158.4</ele>
        <time>2012-02-22T11:06:29Z</time>
      </trkpt>
      <trkpt lat="45.56324" lon="6.79758">
        <ele>2157.5</ele>
        <time>2012-02-22T11:06:30Z</time>
      </trkpt>
      <trkpt lat="45.56325" lon="6.79753">
        <ele>2156.8</ele>
        <time>2012-02-22T11:06:31Z</time>
      </trkpt>
      <trkpt lat="45.56328" lon="6.7975">
        <ele>2155.3</ele>
        <time>2012-02-22T11:06:32Z</time>
      </trkpt>
      <trkpt lat="45.56328" lon="6.79749">
        <ele>2154.1</ele>
        <time>2012-02-22T11:06:33Z</time>
      </trkpt>
      <trkpt lat="45.56332" lon="6.79739">
        <ele>2147.6</ele>
        <time>2012-02-22T11:07:04Z</time>
      </trkpt>
      <trkpt lat="45.56316" lon="6.79702">
        <ele>2144.6</ele>
        <time>2012-02-22T11:07:11Z</time>
      </trkpt>
      <trkpt lat="45.56316" lon="6.79694">
        <ele>2144.2</ele>
        <time>2012-02-22T11:07:12Z</time>
      </trkpt>
      <trkpt lat="45.5632" lon="6.79688">
        <ele>2143.5</ele>
        <time>2012-02-22T11:07:13Z</time>
      </trkpt>
      <trkpt lat="45.5633" lon="6.79683">
        <ele>2142.6</ele>
        <time>2012-02-22T11:07:15Z</time>
      </trkpt>
      <trkpt lat="45.56332" lon="6.79678">
        <ele>2141.1</ele>
        <time>2012-02-22T11:07:16Z</time>
      </trkpt>
      <trkpt lat="45.56332" lon="6.79671">
        <ele>2140.1</ele>
        <time>2012-02-22T11:07:17Z</time>
      </trkpt>
      <trkpt lat="45.5633" lon="6.79662">
        <ele>2139.2</ele>
        <time>2012-02-22T11:07:18Z</time>
      </trkpt>
      <trkpt lat="45.56327" lon="6.79654">
        <ele>2138.6</ele>
        <time>2012-02-22T11:07:19Z</time>
      </trkpt>
      <trkpt lat="45.56318" lon="6.79638">
        <ele>2136.7</ele>
        <time>2012-02-22T11:07:21Z</time>
      </trkpt>
      <trkpt lat="45.56318" lon="6.79629">
        <ele>2136.1</ele>
        <time>2012-02-22T11:07:22Z</time>
      </trkpt>
      <trkpt lat="45.56322" lon="6.79623">
        <ele>2135</ele>
        <time>2012-02-22T11:07:23Z</time>
      </trkpt>
      <trkpt lat="45.56327" lon="6.79621">
        <ele>2134.2</ele>
        <time>2012-02-22T11:07:24Z</time>
      </trkpt>
      <trkpt lat="45.56334" lon="6.79619">
        <ele>2132</ele>
        <time>2012-02-22T11:07:26Z</time>
      </trkpt>
      <trkpt lat="45.56337" lon="6.79617">
        <ele>2130.8</ele>
        <time>2012-02-22T11:07:27Z</time>
      </trkpt>
      <trkpt lat="45.56345" lon="6.79611">
        <ele>2129.2</ele>
        <time>2012-02-22T11:07:29Z</time>
      </trkpt>
      <trkpt lat="45.56355" lon="6.79607">
        <ele>2128.3</ele>
        <time>2012-02-22T11:07:31Z</time>
      </trkpt>
      <trkpt lat="45.56365" lon="6.79608">
        <ele>2127</ele>
        <time>2012-02-22T11:07:33Z</time>
      </trkpt>
      <trkpt lat="45.56368" lon="6.7961">
        <ele>2126.6</ele>
        <time>2012-02-22T11:07:34Z</time>
      </trkpt>
      <trkpt lat="45.56372" lon="6.79611">
        <ele>2126.1</ele>
        <time>2012-02-22T11:07:35Z</time>
      </trkpt>
      <trkpt lat="45.56393" lon="6.79607">
        <ele>2124.3</ele>
        <time>2012-02-22T11:07:39Z</time>
      </trkpt>
      <trkpt lat="45.56401" lon="6.79604">
        <ele>2123.7</ele>
        <time>2012-02-22T11:07:40Z</time>
      </trkpt>
      <trkpt lat="45.56413" lon="6.79596">
        <ele>2121.6</ele>
        <time>2012-02-22T11:07:42Z</time>
      </trkpt>
      <trkpt lat="45.56416" lon="6.79591">
        <ele>2120.3</ele>
        <time>2012-02-22T11:07:43Z</time>
      </trkpt>
      <trkpt lat="45.56413" lon="6.79579">
        <ele>2118.7</ele>
        <time>2012-02-22T11:07:45Z</time>
      </trkpt>
      <trkpt lat="45.56414" lon="6.79571">
        <ele>2118.2</ele>
        <time>2012-02-22T11:07:46Z</time>
      </trkpt>
      <trkpt lat="45.56417" lon="6.79564">
        <ele>2117.9</ele>
        <time>2012-02-22T11:07:47Z</time>
      </trkpt>
      <trkpt lat="45.56422" lon="6.79558">
        <ele>2116.5</ele>
        <time>2012-02-22T11:07:48Z</time>
      </trkpt>
      <trkpt lat="45.56426" lon="6.7955">
        <ele>2115.5</ele>
        <time>2012-02-22T11:07:49Z</time>
      </trkpt>
      <trkpt lat="45.56426" lon="6.79541">
        <ele>2114.8</ele>
        <time>2012-02-22T11:07:50Z</time>
      </trkpt>
      <trkpt lat="45.56423" lon="6.79534">
        <ele>2113.1</ele>
        <time>2012-02-22T11:07:51Z</time>
      </trkpt>
      <trkpt lat="45.5642" lon="6.79526">
        <ele>2111.8</ele>
        <time>2012-02-22T11:07:52Z</time>
      </trkpt>
      <trkpt lat="45.56417" lon="6.79517">
        <ele>2110.8</ele>
        <time>2012-02-22T11:07:53Z</time>
      </trkpt>
      <trkpt lat="45.56416" lon="6.79506">
        <ele>2110.1</ele>
        <time>2012-02-22T11:07:54Z</time>
      </trkpt>
      <trkpt lat="45.56417" lon="6.79485">
        <ele>2106</ele>
        <time>2012-02-22T11:07:56Z</time>
      </trkpt>
      <trkpt lat="45.56279" lon="6.79661">
        <ele>2146.6</ele>
        <time>2012-02-22T11:17:26Z</time>
      </trkpt>
      <trkpt lat="45.56125" lon="6.79891">
        <ele>2198.9</ele>
        <time>2012-02-22T11:19:19Z</time>
      </trkpt>
      <trkpt lat="45.56123" lon="6.79893">
        <ele>2199.2</ele>
        <time>2012-02-22T11:19:20Z</time>
      </trkpt>
      <trkpt lat="45.5611" lon="6.79914">
        <ele>2210.3</ele>
        <time>2012-02-22T11:19:31Z</time>
      </trkpt>
      <trkpt lat="45.56045" lon="6.80015">
        <ele>2274.8</ele>
        <time>2012-02-22T11:20:27Z</time>
      </trkpt>
      <trkpt lat="45.56044" lon="6.80016">
        <ele>2276.5</ele>
        <time>2012-02-22T11:20:28Z</time>
      </trkpt>
      <trkpt lat="45.56042" lon="6.8002">
        <ele>2278.8</ele>
        <time>2012-02-22T11:20:30Z</time>
      </trkpt>
      <trkpt lat="45.5604" lon="6.80022">
        <ele>2280.7</ele>
        <time>2012-02-22T11:20:31Z</time>
      </trkpt>
      <trkpt lat="45.55958" lon="6.80148">
        <ele>2315.3</ele>
        <time>2012-02-22T11:21:34Z</time>
      </trkpt>
      <trkpt lat="45.55957" lon="6.8015">
        <ele>2315.5</ele>
        <time>2012-02-22T11:21:35Z</time>
      </trkpt>
      <trkpt lat="45.55946" lon="6.80167">
        <ele>2317.5</ele>
        <time>2012-02-22T11:21:44Z</time>
      </trkpt>
      <trkpt lat="45.55945" lon="6.80168">
        <ele>2318.2</ele>
        <time>2012-02-22T11:21:45Z</time>
      </trkpt>
      <trkpt lat="45.55852" lon="6.80321">
        <ele>2403</ele>
        <time>2012-02-22T11:23:04Z</time>
      </trkpt>
      <trkpt lat="45.55851" lon="6.80322">
        <ele>2404.2</ele>
        <time>2012-02-22T11:23:05Z</time>
      </trkpt>
      <trkpt lat="45.55833" lon="6.8035">
        <ele>2422.5</ele>
        <time>2012-02-22T11:23:21Z</time>
      </trkpt>
      <trkpt lat="45.55832" lon="6.80351">
        <ele>2423.1</ele>
        <time>2012-02-22T11:23:22Z</time>
      </trkpt>
      <trkpt lat="45.55823" lon="6.80365">
        <ele>2430.3</ele>
        <time>2012-02-22T11:23:29Z</time>
      </trkpt>
      <trkpt lat="45.55809" lon="6.80382">
        <ele>2436.2</ele>
        <time>2012-02-22T11:23:39Z</time>
      </trkpt>
      <trkpt lat="45.55805" lon="6.80389">
        <ele>2437.4</ele>
        <time>2012-02-22T11:23:42Z</time>
      </trkpt>
      <trkpt lat="45.55802" lon="6.80392">
        <ele>2439.1</ele>
        <time>2012-02-22T11:23:44Z</time>
      </trkpt>
      <trkpt lat="45.55801" lon="6.80393">
        <ele>2439.7</ele>
        <time>2012-02-22T11:23:45Z</time>
      </trkpt>
      <trkpt lat="45.55799" lon="6.80395">
        <ele>2440.1</ele>
        <time>2012-02-22T11:23:46Z</time>
      </trkpt>
      <trkpt lat="45.55789" lon="6.80409">
        <ele>2443.5</ele>
        <time>2012-02-22T11:23:53Z</time>
      </trkpt>
      <trkpt lat="45.55787" lon="6.80414">
        <ele>2443.9</ele>
        <time>2012-02-22T11:23:54Z</time>
      </trkpt>
      <trkpt lat="45.55786" lon="6.80418">
        <ele>2443.7</ele>
        <time>2012-02-22T11:23:55Z</time>
      </trkpt>
      <trkpt lat="45.55784" lon="6.80434">
        <ele>2442.4</ele>
        <time>2012-02-22T11:24:57Z</time>
      </trkpt>
      <trkpt lat="45.55783" lon="6.80436">
        <ele>2442.2</ele>
        <time>2012-02-22T11:24:58Z</time>
      </trkpt>
      <trkpt lat="45.55782" lon="6.80439">
        <ele>2442.1</ele>
        <time>2012-02-22T11:24:59Z</time>
      </trkpt>
      <trkpt lat="45.55781" lon="6.8044">
        <ele>2442</ele>
        <time>2012-02-22T11:25:00Z</time>
      </trkpt>
      <trkpt lat="45.5578" lon="6.80441">
        <ele>2441.9</ele>
        <time>2012-02-22T11:25:01Z</time>
      </trkpt>
      <trkpt lat="45.5578" lon="6.80444">
        <ele>2442.1</ele>
        <time>2012-02-22T11:25:02Z</time>
      </trkpt>
      <trkpt lat="45.55781" lon="6.80447">
        <ele>2442.2</ele>
        <time>2012-02-22T11:25:03Z</time>
      </trkpt>
      <trkpt lat="45.55782" lon="6.8045">
        <ele>2442.3</ele>
        <time>2012-02-22T11:25:04Z</time>
      </trkpt>
      <trkpt lat="45.55781" lon="6.80453">
        <ele>2442.4</ele>
        <time>2012-02-22T11:25:05Z</time>
      </trkpt>
      <trkpt lat="45.5578" lon="6.80456">
        <ele>2441.8</ele>
        <time>2012-02-22T11:25:06Z</time>
      </trkpt>
      <trkpt lat="45.55779" lon="6.80459">
        <ele>2441.4</ele>
        <time>2012-02-22T11:25:07Z</time>
      </trkpt>
      <trkpt lat="45.55779" lon="6.80473">
        <ele>2439.8</ele>
        <time>2012-02-22T11:25:10Z</time>
      </trkpt>
      <trkpt lat="45.55779" lon="6.80479">
        <ele>2439.4</ele>
        <time>2012-02-22T11:25:11Z</time>
      </trkpt>
      <trkpt lat="45.55783" lon="6.80491">
        <ele>2438.3</ele>
        <time>2012-02-22T11:25:13Z</time>
      </trkpt>
      <trkpt lat="45.55782" lon="6.80497">
        <ele>2438</ele>
        <time>2012-02-22T11:25:14Z</time>
      </trkpt>
      <trkpt lat="45.55779" lon="6.80503">
        <ele>2437.4</ele>
        <time>2012-02-22T11:25:15Z</time>
      </trkpt>
      <trkpt lat="45.55777" lon="6.8051">
        <ele>2436.9</ele>
        <time>2012-02-22T11:25:16Z</time>
      </trkpt>
      <trkpt lat="45.5578" lon="6.80516">
        <ele>2436.6</ele>
        <time>2012-02-22T11:25:17Z</time>
      </trkpt>
      <trkpt lat="45.55788" lon="6.80527">
        <ele>2433.9</ele>
        <time>2012-02-22T11:25:19Z</time>
      </trkpt>
      <trkpt lat="45.55791" lon="6.80533">
        <ele>2433.1</ele>
        <time>2012-02-22T11:25:20Z</time>
      </trkpt>
      <trkpt lat="45.5579" lon="6.80536">
        <ele>2431.8</ele>
        <time>2012-02-22T11:25:21Z</time>
      </trkpt>
      <trkpt lat="45.55785" lon="6.80538">
        <ele>2430.9</ele>
        <time>2012-02-22T11:25:22Z</time>
      </trkpt>
      <trkpt lat="45.55782" lon="6.80543">
        <ele>2430.2</ele>
        <time>2012-02-22T11:25:23Z</time>
      </trkpt>
      <trkpt lat="45.55782" lon="6.80551">
        <ele>2429.7</ele>
        <time>2012-02-22T11:25:24Z</time>
      </trkpt>
      <trkpt lat="45.55786" lon="6.80559">
        <ele>2428.1</ele>
        <time>2012-02-22T11:25:25Z</time>
      </trkpt>
      <trkpt lat="45.55792" lon="6.80564">
        <ele>2426.9</ele>
        <time>2012-02-22T11:25:26Z</time>
      </trkpt>
      <trkpt lat="45.55805" lon="6.8057">
        <ele>2424.6</ele>
        <time>2012-02-22T11:25:28Z</time>
      </trkpt>
      <trkpt lat="45.5581" lon="6.80578">
        <ele>2423.5</ele>
        <time>2012-02-22T11:25:29Z</time>
      </trkpt>
      <trkpt lat="45.55813" lon="6.80598">
        <ele>2420.5</ele>
        <time>2012-02-22T11:25:31Z</time>
      </trkpt>
      <trkpt lat="45.55815" lon="6.80605">
        <ele>2418.8</ele>
        <time>2012-02-22T11:25:32Z</time>
      </trkpt>
      <trkpt lat="45.55821" lon="6.80615">
        <ele>2415.6</ele>
        <time>2012-02-22T11:25:34Z</time>
      </trkpt>
      <trkpt lat="45.55826" lon="6.80629">
        <ele>2412.1</ele>
        <time>2012-02-22T11:25:37Z</time>
      </trkpt>
      <trkpt lat="45.55833" lon="6.8064">
        <ele>2409.6</ele>
        <time>2012-02-22T11:25:39Z</time>
      </trkpt>
      <trkpt lat="45.55838" lon="6.80644">
        <ele>2408.8</ele>
        <time>2012-02-22T11:25:40Z</time>
      </trkpt>
      <trkpt lat="45.5585" lon="6.80649">
        <ele>2406.3</ele>
        <time>2012-02-22T11:25:42Z</time>
      </trkpt>
      <trkpt lat="45.55855" lon="6.80655">
        <ele>2405.5</ele>
        <time>2012-02-22T11:25:43Z</time>
      </trkpt>
      <trkpt lat="45.55859" lon="6.80663">
        <ele>2404.6</ele>
        <time>2012-02-22T11:25:44Z</time>
      </trkpt>
      <trkpt lat="45.5586" lon="6.80674">
        <ele>2403.9</ele>
        <time>2012-02-22T11:25:45Z</time>
      </trkpt>
      <trkpt lat="45.5586" lon="6.80696">
        <ele>2401.9</ele>
        <time>2012-02-22T11:25:47Z</time>
      </trkpt>
      <trkpt lat="45.55864" lon="6.80705">
        <ele>2400.7</ele>
        <time>2012-02-22T11:25:48Z</time>
      </trkpt>
      <trkpt lat="45.55869" lon="6.80712">
        <ele>2399.9</ele>
        <time>2012-02-22T11:25:49Z</time>
      </trkpt>
      <trkpt lat="45.55875" lon="6.80713">
        <ele>2398.2</ele>
        <time>2012-02-22T11:25:50Z</time>
      </trkpt>
      <trkpt lat="45.55883" lon="6.80712">
        <ele>2397</ele>
        <time>2012-02-22T11:25:51Z</time>
      </trkpt>
      <trkpt lat="45.5589" lon="6.80712">
        <ele>2396.1</ele>
        <time>2012-02-22T11:25:52Z</time>
      </trkpt>
      <trkpt lat="45.55897" lon="6.80716">
        <ele>2394.9</ele>
        <time>2012-02-22T11:25:53Z</time>
      </trkpt>
      <trkpt lat="45.55904" lon="6.80724">
        <ele>2394.1</ele>
        <time>2012-02-22T11:25:54Z</time>
      </trkpt>
      <trkpt lat="45.55913" lon="6.80743">
        <ele>2392.9</ele>
        <time>2012-02-22T11:25:56Z</time>
      </trkpt>
      <trkpt lat="45.55919" lon="6.80752">
        <ele>2389</ele>
        <time>2012-02-22T11:25:59Z</time>
      </trkpt>
      <trkpt lat="45.55919" lon="6.80753">
        <ele>2389.2</ele>
        <time>2012-02-22T11:26:00Z</time>
      </trkpt>
      <trkpt lat="45.55924" lon="6.80747">
        <ele>2389.5</ele>
        <time>2012-02-22T11:26:02Z</time>
      </trkpt>
      <trkpt lat="45.5593" lon="6.80744">
        <ele>2388.8</ele>
        <time>2012-02-22T11:26:03Z</time>
      </trkpt>
      <trkpt lat="45.55936" lon="6.80746">
        <ele>2388.4</ele>
        <time>2012-02-22T11:26:04Z</time>
      </trkpt>
      <trkpt lat="45.55941" lon="6.80753">
        <ele>2388</ele>
        <time>2012-02-22T11:26:05Z</time>
      </trkpt>
      <trkpt lat="45.55944" lon="6.80761">
        <ele>2386.2</ele>
        <time>2012-02-22T11:26:06Z</time>
      </trkpt>
      <trkpt lat="45.55944" lon="6.80769">
        <ele>2384.9</ele>
        <time>2012-02-22T11:26:07Z</time>
      </trkpt>
      <trkpt lat="45.55943" lon="6.80774">
        <ele>2383.9</ele>
        <time>2012-02-22T11:26:08Z</time>
      </trkpt>
      <trkpt lat="45.55944" lon="6.80774">
        <ele>2383.2</ele>
        <time>2012-02-22T11:26:09Z</time>
      </trkpt>
      <trkpt lat="45.55956" lon="6.80776">
        <ele>2381.7</ele>
        <time>2012-02-22T11:26:13Z</time>
      </trkpt>
      <trkpt lat="45.5597" lon="6.80784">
        <ele>2381.4</ele>
        <time>2012-02-22T11:26:15Z</time>
      </trkpt>
      <trkpt lat="45.56057" lon="6.80856">
        <ele>2365.1</ele>
        <time>2012-02-22T11:26:25Z</time>
      </trkpt>
      <trkpt lat="45.56095" lon="6.80871">
        <ele>2360.4</ele>
        <time>2012-02-22T11:26:29Z</time>
      </trkpt>
      <trkpt lat="45.56102" lon="6.80878">
        <ele>2359.8</ele>
        <time>2012-02-22T11:26:30Z</time>
      </trkpt>
      <trkpt lat="45.56107" lon="6.80884">
        <ele>2359.3</ele>
        <time>2012-02-22T11:26:31Z</time>
      </trkpt>
      <trkpt lat="45.56112" lon="6.80889">
        <ele>2359.3</ele>
        <time>2012-02-22T11:26:32Z</time>
      </trkpt>
      <trkpt lat="45.56119" lon="6.80891">
        <ele>2359.3</ele>
        <time>2012-02-22T11:26:35Z</time>
      </trkpt>
      <trkpt lat="45.5612" lon="6.80891">
        <ele>2359.3</ele>
        <time>2012-02-22T11:26:38Z</time>
      </trkpt>
      <trkpt lat="45.56128" lon="6.80887">
        <ele>2359.2</ele>
        <time>2012-02-22T11:26:41Z</time>
      </trkpt>
      <trkpt lat="45.56133" lon="6.80886">
        <ele>2359.1</ele>
        <time>2012-02-22T11:26:42Z</time>
      </trkpt>
      <trkpt lat="45.56294" lon="6.80908">
        <ele>2340.2</ele>
        <time>2012-02-22T11:27:00Z</time>
      </trkpt>
      <trkpt lat="45.56314" lon="6.80918">
        <ele>2339.2</ele>
        <time>2012-02-22T11:27:03Z</time>
      </trkpt>
      <trkpt lat="45.56346" lon="6.80939">
        <ele>2339</ele>
        <time>2012-02-22T11:27:09Z</time>
      </trkpt>
      <trkpt lat="45.5635" lon="6.80945">
        <ele>2338.3</ele>
        <time>2012-02-22T11:27:10Z</time>
      </trkpt>
      <trkpt lat="45.56353" lon="6.80951">
        <ele>2337.7</ele>
        <time>2012-02-22T11:27:11Z</time>
      </trkpt>
      <trkpt lat="45.56354" lon="6.80958">
        <ele>2337.3</ele>
        <time>2012-02-22T11:27:12Z</time>
      </trkpt>
      <trkpt lat="45.56354" lon="6.80963">
        <ele>2337.2</ele>
        <time>2012-02-22T11:27:13Z</time>
      </trkpt>
      <trkpt lat="45.56355" lon="6.80967">
        <ele>2337.2</ele>
        <time>2012-02-22T11:27:14Z</time>
      </trkpt>
      <trkpt lat="45.56356" lon="6.80968">
        <ele>2337.1</ele>
        <time>2012-02-22T11:27:15Z</time>
      </trkpt>
      <trkpt lat="45.56357" lon="6.80968">
        <ele>2337.2</ele>
        <time>2012-02-22T11:27:16Z</time>
      </trkpt>
      <trkpt lat="45.56358" lon="6.80968">
        <ele>2337.3</ele>
        <time>2012-02-22T11:27:17Z</time>
      </trkpt>
      <trkpt lat="45.56359" lon="6.80968">
        <ele>2337</ele>
        <time>2012-02-22T11:27:20Z</time>
      </trkpt>
      <trkpt lat="45.5636" lon="6.80967">
        <ele>2336.7</ele>
        <time>2012-02-22T11:27:21Z</time>
      </trkpt>
      <trkpt lat="45.56362" lon="6.80966">
        <ele>2336.5</ele>
        <time>2012-02-22T11:27:22Z</time>
      </trkpt>
      <trkpt lat="45.56379" lon="6.80954">
        <ele>2334.5</ele>
        <time>2012-02-22T11:27:27Z</time>
      </trkpt>
      <trkpt lat="45.56382" lon="6.80954">
        <ele>2334</ele>
        <time>2012-02-22T11:27:28Z</time>
      </trkpt>
      <trkpt lat="45.56387" lon="6.80966">
        <ele>2331.7</ele>
        <time>2012-02-22T11:28:08Z</time>
      </trkpt>
      <trkpt lat="45.56389" lon="6.80971">
        <ele>2331.6</ele>
        <time>2012-02-22T11:28:09Z</time>
      </trkpt>
      <trkpt lat="45.56394" lon="6.80977">
        <ele>2331.6</ele>
        <time>2012-02-22T11:28:10Z</time>
      </trkpt>
      <trkpt lat="45.56401" lon="6.80982">
        <ele>2330.4</ele>
        <time>2012-02-22T11:28:11Z</time>
      </trkpt>
      <trkpt lat="45.56416" lon="6.81001">
        <ele>2328.9</ele>
        <time>2012-02-22T11:28:13Z</time>
      </trkpt>
      <trkpt lat="45.56419" lon="6.81016">
        <ele>2326.2</ele>
        <time>2012-02-22T11:28:14Z</time>
      </trkpt>
      <trkpt lat="45.56419" lon="6.81046">
        <ele>2322.8</ele>
        <time>2012-02-22T11:28:16Z</time>
      </trkpt>
      <trkpt lat="45.56428" lon="6.81075">
        <ele>2318.3</ele>
        <time>2012-02-22T11:28:18Z</time>
      </trkpt>
      <trkpt lat="45.56431" lon="6.81091">
        <ele>2316.9</ele>
        <time>2012-02-22T11:28:19Z</time>
      </trkpt>
      <trkpt lat="45.56431" lon="6.81108">
        <ele>2314.3</ele>
        <time>2012-02-22T11:28:20Z</time>
      </trkpt>
      <trkpt lat="45.56427" lon="6.81142">
        <ele>2311</ele>
        <time>2012-02-22T11:28:22Z</time>
      </trkpt>
      <trkpt lat="45.56428" lon="6.81158">
        <ele>2308.2</ele>
        <time>2012-02-22T11:28:23Z</time>
      </trkpt>
      <trkpt lat="45.56431" lon="6.81174">
        <ele>2306.1</ele>
        <time>2012-02-22T11:28:24Z</time>
      </trkpt>
      <trkpt lat="45.56429" lon="6.81202">
        <ele>2303.3</ele>
        <time>2012-02-22T11:28:26Z</time>
      </trkpt>
      <trkpt lat="45.56433" lon="6.81227">
        <ele>2301.8</ele>
        <time>2012-02-22T11:28:28Z</time>
      </trkpt>
      <trkpt lat="45.56434" lon="6.81278">
        <ele>2298.3</ele>
        <time>2012-02-22T11:28:32Z</time>
      </trkpt>
      <trkpt lat="45.56433" lon="6.81291">
        <ele>2297.3</ele>
        <time>2012-02-22T11:28:33Z</time>
      </trkpt>
      <trkpt lat="45.5643" lon="6.81302">
        <ele>2296.6</ele>
        <time>2012-02-22T11:28:34Z</time>
      </trkpt>
      <trkpt lat="45.56422" lon="6.81321">
        <ele>2294.8</ele>
        <time>2012-02-22T11:28:36Z</time>
      </trkpt>
      <trkpt lat="45.56399" lon="6.81352">
        <ele>2291.3</ele>
        <time>2012-02-22T11:28:40Z</time>
      </trkpt>
      <trkpt lat="45.56384" lon="6.81365">
        <ele>2290.2</ele>
        <time>2012-02-22T11:28:42Z</time>
      </trkpt>
      <trkpt lat="45.56376" lon="6.81368">
        <ele>2289.2</ele>
        <time>2012-02-22T11:28:43Z</time>
      </trkpt>
      <trkpt lat="45.56307" lon="6.81377">
        <ele>2282.6</ele>
        <time>2012-02-22T11:28:52Z</time>
      </trkpt>
      <trkpt lat="45.5627" lon="6.81397">
        <ele>2278.8</ele>
        <time>2012-02-22T11:28:58Z</time>
      </trkpt>
      <trkpt lat="45.56183" lon="6.8148">
        <ele>2268.7</ele>
        <time>2012-02-22T11:29:13Z</time>
      </trkpt>
      <trkpt lat="45.56177" lon="6.81488">
        <ele>2268.3</ele>
        <time>2012-02-22T11:29:14Z</time>
      </trkpt>
      <trkpt lat="45.56156" lon="6.81537">
        <ele>2265.4</ele>
        <time>2012-02-22T11:29:19Z</time>
      </trkpt>
      <trkpt lat="45.56146" lon="6.81641">
        <ele>2258.5</ele>
        <time>2012-02-22T11:29:27Z</time>
      </trkpt>
      <trkpt lat="45.56147" lon="6.8167">
        <ele>2256.6</ele>
        <time>2012-02-22T11:29:29Z</time>
      </trkpt>
      <trkpt lat="45.5615" lon="6.81683">
        <ele>2255.2</ele>
        <time>2012-02-22T11:29:30Z</time>
      </trkpt>
      <trkpt lat="45.56153" lon="6.81696">
        <ele>2254.1</ele>
        <time>2012-02-22T11:29:31Z</time>
      </trkpt>
      <trkpt lat="45.5617" lon="6.8173">
        <ele>2251.5</ele>
        <time>2012-02-22T11:29:34Z</time>
      </trkpt>
      <trkpt lat="45.56191" lon="6.81758">
        <ele>2249</ele>
        <time>2012-02-22T11:29:37Z</time>
      </trkpt>
      <trkpt lat="45.5621" lon="6.81776">
        <ele>2247.6</ele>
        <time>2012-02-22T11:29:40Z</time>
      </trkpt>
      <trkpt lat="45.56224" lon="6.81783">
        <ele>2248.1</ele>
        <time>2012-02-22T11:29:43Z</time>
      </trkpt>
      <trkpt lat="45.56228" lon="6.81784">
        <ele>2248.5</ele>
        <time>2012-02-22T11:29:44Z</time>
      </trkpt>
      <trkpt lat="45.56252" lon="6.8178">
        <ele>2248</ele>
        <time>2012-02-22T11:29:49Z</time>
      </trkpt>
      <trkpt lat="45.56301" lon="6.81791">
        <ele>2242.9</ele>
        <time>2012-02-22T11:29:56Z</time>
      </trkpt>
      <trkpt lat="45.56315" lon="6.818">
        <ele>2241.6</ele>
        <time>2012-02-22T11:29:58Z</time>
      </trkpt>
      <trkpt lat="45.56327" lon="6.81812">
        <ele>2239.2</ele>
        <time>2012-02-22T11:30:00Z</time>
      </trkpt>
      <trkpt lat="45.56337" lon="6.81826">
        <ele>2238</ele>
        <time>2012-02-22T11:30:02Z</time>
      </trkpt>
      <trkpt lat="45.56355" lon="6.81844">
        <ele>2237.1</ele>
        <time>2012-02-22T11:30:05Z</time>
      </trkpt>
      <trkpt lat="45.5636" lon="6.81851">
        <ele>2236.5</ele>
        <time>2012-02-22T11:30:06Z</time>
      </trkpt>
      <trkpt lat="45.56393" lon="6.81898">
        <ele>2234.5</ele>
        <time>2012-02-22T11:30:13Z</time>
      </trkpt>
      <trkpt lat="45.56495" lon="6.81975">
        <ele>2225.9</ele>
        <time>2012-02-22T11:30:30Z</time>
      </trkpt>
      <trkpt lat="45.56501" lon="6.81983">
        <ele>2224.6</ele>
        <time>2012-02-22T11:30:31Z</time>
      </trkpt>
      <trkpt lat="45.56505" lon="6.81992">
        <ele>2223.7</ele>
        <time>2012-02-22T11:30:32Z</time>
      </trkpt>
      <trkpt lat="45.56508" lon="6.82002">
        <ele>2223</ele>
        <time>2012-02-22T11:30:33Z</time>
      </trkpt>
      <trkpt lat="45.56509" lon="6.82013">
        <ele>2222</ele>
        <time>2012-02-22T11:30:34Z</time>
      </trkpt>
      <trkpt lat="45.56512" lon="6.82023">
        <ele>2221.3</ele>
        <time>2012-02-22T11:30:35Z</time>
      </trkpt>
      <trkpt lat="45.56519" lon="6.82041">
        <ele>2219.7</ele>
        <time>2012-02-22T11:30:37Z</time>
      </trkpt>
      <trkpt lat="45.56521" lon="6.8205">
        <ele>2218.9</ele>
        <time>2012-02-22T11:30:38Z</time>
      </trkpt>
      <trkpt lat="45.56521" lon="6.8206">
        <ele>2218.3</ele>
        <time>2012-02-22T11:30:39Z</time>
      </trkpt>
      <trkpt lat="45.56519" lon="6.8207">
        <ele>2217.9</ele>
        <time>2012-02-22T11:30:40Z</time>
      </trkpt>
      <trkpt lat="45.56504" lon="6.82117">
        <ele>2214.4</ele>
        <time>2012-02-22T11:30:45Z</time>
      </trkpt>
      <trkpt lat="45.56503" lon="6.8213">
        <ele>2213.4</ele>
        <time>2012-02-22T11:30:46Z</time>
      </trkpt>
      <trkpt lat="45.56503" lon="6.82142">
        <ele>2212.1</ele>
        <time>2012-02-22T11:30:47Z</time>
      </trkpt>
      <trkpt lat="45.56508" lon="6.82168">
        <ele>2210.3</ele>
        <time>2012-02-22T11:30:49Z</time>
      </trkpt>
      <trkpt lat="45.56509" lon="6.82181">
        <ele>2208.9</ele>
        <time>2012-02-22T11:30:50Z</time>
      </trkpt>
      <trkpt lat="45.56505" lon="6.8222">
        <ele>2205.7</ele>
        <time>2012-02-22T11:30:53Z</time>
      </trkpt>
      <trkpt lat="45.56504" lon="6.82247">
        <ele>2203.9</ele>
        <time>2012-02-22T11:30:55Z</time>
      </trkpt>
      <trkpt lat="45.56493" lon="6.82286">
        <ele>2201.7</ele>
        <time>2012-02-22T11:30:58Z</time>
      </trkpt>
      <trkpt lat="45.56467" lon="6.82357">
        <ele>2193.3</ele>
        <time>2012-02-22T11:31:03Z</time>
      </trkpt>
      <trkpt lat="45.56464" lon="6.82371">
        <ele>2191.4</ele>
        <time>2012-02-22T11:31:04Z</time>
      </trkpt>
      <trkpt lat="45.56465" lon="6.82384">
        <ele>2190</ele>
        <time>2012-02-22T11:31:05Z</time>
      </trkpt>
      <trkpt lat="45.56467" lon="6.82394">
        <ele>2189.1</ele>
        <time>2012-02-22T11:31:06Z</time>
      </trkpt>
      <trkpt lat="45.5647" lon="6.82402">
        <ele>2188.3</ele>
        <time>2012-02-22T11:31:07Z</time>
      </trkpt>
      <trkpt lat="45.56478" lon="6.82413">
        <ele>2187.6</ele>
        <time>2012-02-22T11:31:09Z</time>
      </trkpt>
      <trkpt lat="45.5648" lon="6.82419">
        <ele>2187.4</ele>
        <time>2012-02-22T11:31:10Z</time>
      </trkpt>
      <trkpt lat="45.56481" lon="6.82438">
        <ele>2186.3</ele>
        <time>2012-02-22T11:31:44Z</time>
      </trkpt>
      <trkpt lat="45.56481" lon="6.82439">
        <ele>2186.3</ele>
        <time>2012-02-22T11:31:45Z</time>
      </trkpt>
      <trkpt lat="45.5648" lon="6.82439">
        <ele>2186.3</ele>
        <time>2012-02-22T11:31:46Z</time>
      </trkpt>
      <trkpt lat="45.56479" lon="6.82438">
        <ele>2186.3</ele>
        <time>2012-02-22T11:31:47Z</time>
      </trkpt>
      <trkpt lat="45.56478" lon="6.82439">
        <ele>2186</ele>
        <time>2012-02-22T11:31:48Z</time>
      </trkpt>
      <trkpt lat="45.56449" lon="6.8242">
        <ele>2186.8</ele>
        <time>2012-02-22T11:37:53Z</time>
      </trkpt>
      <trkpt lat="45.56448" lon="6.8242">
        <ele>2187</ele>
        <time>2012-02-22T11:37:54Z</time>
      </trkpt>
      <trkpt lat="45.56448" lon="6.82419">
        <ele>2186.5</ele>
        <time>2012-02-22T11:37:55Z</time>
      </trkpt>
      <trkpt lat="45.56446" lon="6.82415">
        <ele>2184.9</ele>
        <time>2012-02-22T11:38:03Z</time>
      </trkpt>
      <trkpt lat="45.56442" lon="6.8241">
        <ele>2184.7</ele>
        <time>2012-02-22T11:38:05Z</time>
      </trkpt>
      <trkpt lat="45.55106" lon="6.81082">
        <ele>2544.8</ele>
        <time>2012-02-22T11:45:00Z</time>
      </trkpt>
      <trkpt lat="45.55105" lon="6.8108">
        <ele>2545.6</ele>
        <time>2012-02-22T11:45:01Z</time>
      </trkpt>
      <trkpt lat="45.55101" lon="6.81076">
        <ele>2547.1</ele>
        <time>2012-02-22T11:45:05Z</time>
      </trkpt>
      <trkpt lat="45.55099" lon="6.81075">
        <ele>2547.5</ele>
        <time>2012-02-22T11:45:06Z</time>
      </trkpt>
      <trkpt lat="45.55096" lon="6.81075">
        <ele>2547.8</ele>
        <time>2012-02-22T11:45:07Z</time>
      </trkpt>
      <trkpt lat="45.55077" lon="6.81076">
        <ele>2548.2</ele>
        <time>2012-02-22T11:48:24Z</time>
      </trkpt>
      <trkpt lat="45.55076" lon="6.81077">
        <ele>2548.3</ele>
        <time>2012-02-22T11:48:27Z</time>
      </trkpt>
      <trkpt lat="45.55076" lon="6.81078">
        <ele>2548.3</ele>
        <time>2012-02-22T11:48:28Z</time>
      </trkpt>
      <trkpt lat="45.55075" lon="6.81078">
        <ele>2548.3</ele>
        <time>2012-02-22T11:48:29Z</time>
      </trkpt>
      <trkpt lat="45.55074" lon="6.81079">
        <ele>2548.4</ele>
        <time>2012-02-22T11:48:30Z</time>
      </trkpt>
      <trkpt lat="45.55074" lon="6.81079">
        <ele>2548.5</ele>
        <time>2012-02-22T11:48:31Z</time>
      </trkpt>
      <trkpt lat="45.55073" lon="6.81079">
        <ele>2548.5</ele>
        <time>2012-02-22T11:48:32Z</time>
      </trkpt>
      <trkpt lat="45.55072" lon="6.81079">
        <ele>2548.6</ele>
        <time>2012-02-22T11:48:33Z</time>
      </trkpt>
      <trkpt lat="45.55071" lon="6.81079">
        <ele>2548.6</ele>
        <time>2012-02-22T11:48:34Z</time>
      </trkpt>
      <trkpt lat="45.55066" lon="6.8108">
        <ele>2548</ele>
        <time>2012-02-22T11:48:38Z</time>
      </trkpt>
      <trkpt lat="45.55063" lon="6.8108">
        <ele>2547.7</ele>
        <time>2012-02-22T11:48:40Z</time>
      </trkpt>
      <trkpt lat="45.55063" lon="6.8108">
        <ele>2547.6</ele>
        <time>2012-02-22T11:48:41Z</time>
      </trkpt>
      <trkpt lat="45.55061" lon="6.81081">
        <ele>2547.5</ele>
        <time>2012-02-22T11:48:42Z</time>
      </trkpt>
      <trkpt lat="45.55058" lon="6.81081">
        <ele>2547.5</ele>
        <time>2012-02-22T11:48:44Z</time>
      </trkpt>
      <trkpt lat="45.55053" lon="6.81088">
        <ele>2545.2</ele>
        <time>2012-02-22T11:57:10Z</time>
      </trkpt>
      <trkpt lat="45.55053" lon="6.8109">
        <ele>2545.1</ele>
        <time>2012-02-22T11:57:12Z</time>
      </trkpt>
      <trkpt lat="45.55053" lon="6.81091">
        <ele>2545.3</ele>
        <time>2012-02-22T11:57:14Z</time>
      </trkpt>
      <trkpt lat="45.55052" lon="6.8109">
        <ele>2545.4</ele>
        <time>2012-02-22T11:57:15Z</time>
      </trkpt>
      <trkpt lat="45.55051" lon="6.8109">
        <ele>2545.3</ele>
        <time>2012-02-22T11:57:16Z</time>
      </trkpt>
      <trkpt lat="45.5505" lon="6.81092">
        <ele>2545.3</ele>
        <time>2012-02-22T11:57:17Z</time>
      </trkpt>
      <trkpt lat="45.55051" lon="6.81098">
        <ele>2545.2</ele>
        <time>2012-02-22T11:57:19Z</time>
      </trkpt>
      <trkpt lat="45.5505" lon="6.81103">
        <ele>2544.8</ele>
        <time>2012-02-22T11:57:20Z</time>
      </trkpt>
      <trkpt lat="45.55046" lon="6.81118">
        <ele>2544.3</ele>
        <time>2012-02-22T11:57:22Z</time>
      </trkpt>
      <trkpt lat="45.55049" lon="6.81168">
        <ele>2540.9</ele>
        <time>2012-02-22T11:57:27Z</time>
      </trkpt>
      <trkpt lat="45.55044" lon="6.8119">
        <ele>2538.7</ele>
        <time>2012-02-22T11:57:29Z</time>
      </trkpt>
      <trkpt lat="45.55038" lon="6.81202">
        <ele>2537.4</ele>
        <time>2012-02-22T11:57:30Z</time>
      </trkpt>
      <trkpt lat="45.55029" lon="6.81209">
        <ele>2536.5</ele>
        <time>2012-02-22T11:57:31Z</time>
      </trkpt>
      <trkpt lat="45.55021" lon="6.81218">
        <ele>2533.8</ele>
        <time>2012-02-22T11:57:32Z</time>
      </trkpt>
      <trkpt lat="45.55019" lon="6.81232">
        <ele>2531.7</ele>
        <time>2012-02-22T11:57:33Z</time>
      </trkpt>
      <trkpt lat="45.55023" lon="6.81244">
        <ele>2530.2</ele>
        <time>2012-02-22T11:57:34Z</time>
      </trkpt>
      <trkpt lat="45.5503" lon="6.81251">
        <ele>2529.1</ele>
        <time>2012-02-22T11:57:35Z</time>
      </trkpt>
      <trkpt lat="45.55038" lon="6.8125">
        <ele>2527.1</ele>
        <time>2012-02-22T11:57:36Z</time>
      </trkpt>
      <trkpt lat="45.55043" lon="6.81247">
        <ele>2525.6</ele>
        <time>2012-02-22T11:57:37Z</time>
      </trkpt>
      <trkpt lat="45.55048" lon="6.81248">
        <ele>2525.4</ele>
        <time>2012-02-22T11:57:52Z</time>
      </trkpt>
      <trkpt lat="45.55054" lon="6.81249">
        <ele>2524.9</ele>
        <time>2012-02-22T11:57:54Z</time>
      </trkpt>
      <trkpt lat="45.55061" lon="6.81248">
        <ele>2524.3</ele>
        <time>2012-02-22T11:57:57Z</time>
      </trkpt>
      <trkpt lat="45.55063" lon="6.81249">
        <ele>2524.5</ele>
        <time>2012-02-22T11:58:05Z</time>
      </trkpt>
      <trkpt lat="45.55077" lon="6.81267">
        <ele>2522.9</ele>
        <time>2012-02-22T11:58:10Z</time>
      </trkpt>
      <trkpt lat="45.55088" lon="6.81286">
        <ele>2520.9</ele>
        <time>2012-02-22T11:58:12Z</time>
      </trkpt>
      <trkpt lat="45.55104" lon="6.813">
        <ele>2517.7</ele>
        <time>2012-02-22T11:58:14Z</time>
      </trkpt>
      <trkpt lat="45.5511" lon="6.81309">
        <ele>2515.8</ele>
        <time>2012-02-22T11:58:15Z</time>
      </trkpt>
      <trkpt lat="45.55115" lon="6.81314">
        <ele>2514.4</ele>
        <time>2012-02-22T11:58:16Z</time>
      </trkpt>
      <trkpt lat="45.55117" lon="6.81319">
        <ele>2512.7</ele>
        <time>2012-02-22T11:58:17Z</time>
      </trkpt>
      <trkpt lat="45.55119" lon="6.81327">
        <ele>2508.7</ele>
        <time>2012-02-22T11:58:20Z</time>
      </trkpt>
      <trkpt lat="45.5512" lon="6.81327">
        <ele>2507.3</ele>
        <time>2012-02-22T11:58:21Z</time>
      </trkpt>
      <trkpt lat="45.55121" lon="6.81327">
        <ele>2506.3</ele>
        <time>2012-02-22T11:58:22Z</time>
      </trkpt>
      <trkpt lat="45.55127" lon="6.81323">
        <ele>2505.4</ele>
        <time>2012-02-22T11:58:24Z</time>
      </trkpt>
      <trkpt lat="45.55132" lon="6.81322">
        <ele>2505.2</ele>
        <time>2012-02-22T11:58:25Z</time>
      </trkpt>
      <trkpt lat="45.55135" lon="6.81327">
        <ele>2505</ele>
        <time>2012-02-22T11:58:26Z</time>
      </trkpt>
      <trkpt lat="45.55136" lon="6.81333">
        <ele>2503.9</ele>
        <time>2012-02-22T11:58:27Z</time>
      </trkpt>
      <trkpt lat="45.55133" lon="6.81343">
        <ele>2502.5</ele>
        <time>2012-02-22T11:58:29Z</time>
      </trkpt>
      <trkpt lat="45.55133" lon="6.81348">
        <ele>2501.4</ele>
        <time>2012-02-22T11:58:30Z</time>
      </trkpt>
      <trkpt lat="45.55135" lon="6.81352">
        <ele>2500.6</ele>
        <time>2012-02-22T11:58:31Z</time>
      </trkpt>
      <trkpt lat="45.55138" lon="6.81351">
        <ele>2500</ele>
        <time>2012-02-22T11:58:32Z</time>
      </trkpt>
      <trkpt lat="45.55143" lon="6.81347">
        <ele>2497.5</ele>
        <time>2012-02-22T11:58:34Z</time>
      </trkpt>
      <trkpt lat="45.55144" lon="6.81347">
        <ele>2496.7</ele>
        <time>2012-02-22T11:58:35Z</time>
      </trkpt>
      <trkpt lat="45.55145" lon="6.81347">
        <ele>2495.1</ele>
        <time>2012-02-22T11:58:36Z</time>
      </trkpt>
      <trkpt lat="45.55148" lon="6.81346">
        <ele>2493.1</ele>
        <time>2012-02-22T11:58:38Z</time>
      </trkpt>
      <trkpt lat="45.55148" lon="6.81346">
        <ele>2492.7</ele>
        <time>2012-02-22T11:58:39Z</time>
      </trkpt>
      <trkpt lat="45.55149" lon="6.81345">
        <ele>2492.4</ele>
        <time>2012-02-22T11:58:40Z</time>
      </trkpt>
      <trkpt lat="45.5515" lon="6.81345">
        <ele>2492.2</ele>
        <time>2012-02-22T11:58:41Z</time>
      </trkpt>
      <trkpt lat="45.5515" lon="6.81345">
        <ele>2492.1</ele>
        <time>2012-02-22T11:58:42Z</time>
      </trkpt>
      <trkpt lat="45.55151" lon="6.81345">
        <ele>2492.2</ele>
        <time>2012-02-22T11:58:43Z</time>
      </trkpt>
      <trkpt lat="45.55152" lon="6.81344">
        <ele>2492.2</ele>
        <time>2012-02-22T11:58:44Z</time>
      </trkpt>
      <trkpt lat="45.55153" lon="6.81344">
        <ele>2492.3</ele>
        <time>2012-02-22T11:58:45Z</time>
      </trkpt>
      <trkpt lat="45.55153" lon="6.81344">
        <ele>2491.7</ele>
        <time>2012-02-22T11:58:46Z</time>
      </trkpt>
      <trkpt lat="45.55154" lon="6.81346">
        <ele>2491.3</ele>
        <time>2012-02-22T11:58:47Z</time>
      </trkpt>
      <trkpt lat="45.55154" lon="6.81349">
        <ele>2491</ele>
        <time>2012-02-22T11:58:48Z</time>
      </trkpt>
      <trkpt lat="45.55149" lon="6.81362">
        <ele>2488.8</ele>
        <time>2012-02-22T11:58:55Z</time>
      </trkpt>
      <trkpt lat="45.55148" lon="6.81365">
        <ele>2488.5</ele>
        <time>2012-02-22T11:58:56Z</time>
      </trkpt>
      <trkpt lat="45.55148" lon="6.81368">
        <ele>2488.2</ele>
        <time>2012-02-22T11:58:57Z</time>
      </trkpt>
      <trkpt lat="45.5515" lon="6.81371">
        <ele>2488</ele>
        <time>2012-02-22T11:58:58Z</time>
      </trkpt>
      <trkpt lat="45.55153" lon="6.81371">
        <ele>2487.4</ele>
        <time>2012-02-22T11:58:59Z</time>
      </trkpt>
      <trkpt lat="45.55156" lon="6.81371">
        <ele>2486.9</ele>
        <time>2012-02-22T11:59:00Z</time>
      </trkpt>
      <trkpt lat="45.55163" lon="6.81372">
        <ele>2485.4</ele>
        <time>2012-02-22T11:59:02Z</time>
      </trkpt>
      <trkpt lat="45.55166" lon="6.81376">
        <ele>2484.5</ele>
        <time>2012-02-22T11:59:03Z</time>
      </trkpt>
      <trkpt lat="45.55166" lon="6.81382">
        <ele>2483.9</ele>
        <time>2012-02-22T11:59:04Z</time>
      </trkpt>
      <trkpt lat="45.55165" lon="6.81388">
        <ele>2482.5</ele>
        <time>2012-02-22T11:59:05Z</time>
      </trkpt>
      <trkpt lat="45.55152" lon="6.81416">
        <ele>2476.8</ele>
        <time>2012-02-22T11:59:12Z</time>
      </trkpt>
      <trkpt lat="45.55153" lon="6.81419">
        <ele>2476.6</ele>
        <time>2012-02-22T11:59:13Z</time>
      </trkpt>
      <trkpt lat="45.55154" lon="6.8143">
        <ele>2476.1</ele>
        <time>2012-02-22T11:59:16Z</time>
      </trkpt>
      <trkpt lat="45.55156" lon="6.81434">
        <ele>2476</ele>
        <time>2012-02-22T11:59:17Z</time>
      </trkpt>
      <trkpt lat="45.55157" lon="6.81435">
        <ele>2475.4</ele>
        <time>2012-02-22T11:59:18Z</time>
      </trkpt>
      <trkpt lat="45.55159" lon="6.81435">
        <ele>2474.9</ele>
        <time>2012-02-22T11:59:19Z</time>
      </trkpt>
      <trkpt lat="45.55162" lon="6.81434">
        <ele>2474.6</ele>
        <time>2012-02-22T11:59:20Z</time>
      </trkpt>
      <trkpt lat="45.55166" lon="6.81431">
        <ele>2473.9</ele>
        <time>2012-02-22T11:59:21Z</time>
      </trkpt>
      <trkpt lat="45.55177" lon="6.81417">
        <ele>2471.8</ele>
        <time>2012-02-22T11:59:24Z</time>
      </trkpt>
      <trkpt lat="45.55179" lon="6.81419">
        <ele>2470.9</ele>
        <time>2012-02-22T11:59:25Z</time>
      </trkpt>
      <trkpt lat="45.55179" lon="6.81422">
        <ele>2470.3</ele>
        <time>2012-02-22T11:59:26Z</time>
      </trkpt>
      <trkpt lat="45.55178" lon="6.81435">
        <ele>2467.2</ele>
        <time>2012-02-22T11:59:29Z</time>
      </trkpt>
      <trkpt lat="45.55178" lon="6.81439">
        <ele>2466.6</ele>
        <time>2012-02-22T11:59:30Z</time>
      </trkpt>
      <trkpt lat="45.5518" lon="6.81443">
        <ele>2465.8</ele>
        <time>2012-02-22T11:59:31Z</time>
      </trkpt>
      <trkpt lat="45.55183" lon="6.81442">
        <ele>2465.1</ele>
        <time>2012-02-22T11:59:32Z</time>
      </trkpt>
      <trkpt lat="45.55189" lon="6.81435">
        <ele>2463.8</ele>
        <time>2012-02-22T11:59:34Z</time>
      </trkpt>
      <trkpt lat="45.55193" lon="6.81436">
        <ele>2463.1</ele>
        <time>2012-02-22T11:59:35Z</time>
      </trkpt>
      <trkpt lat="45.55194" lon="6.81437">
        <ele>2462.6</ele>
        <time>2012-02-22T11:59:36Z</time>
      </trkpt>
      <trkpt lat="45.55194" lon="6.81437">
        <ele>2461.3</ele>
        <time>2012-02-22T11:59:38Z</time>
      </trkpt>
      <trkpt lat="45.55195" lon="6.81437">
        <ele>2460.9</ele>
        <time>2012-02-22T11:59:39Z</time>
      </trkpt>
      <trkpt lat="45.55198" lon="6.81437">
        <ele>2457.6</ele>
        <time>2012-02-22T11:59:59Z</time>
      </trkpt>
      <trkpt lat="45.55199" lon="6.81436">
        <ele>2457.4</ele>
        <time>2012-02-22T12:00:00Z</time>
      </trkpt>
      <trkpt lat="45.552" lon="6.81437">
        <ele>2457.2</ele>
        <time>2012-02-22T12:00:01Z</time>
      </trkpt>
      <trkpt lat="45.552" lon="6.81436">
        <ele>2456.8</ele>
        <time>2012-02-22T12:00:02Z</time>
      </trkpt>
      <trkpt lat="45.55201" lon="6.81436">
        <ele>2456.4</ele>
        <time>2012-02-22T12:00:03Z</time>
      </trkpt>
      <trkpt lat="45.55201" lon="6.81435">
        <ele>2456.2</ele>
        <time>2012-02-22T12:00:04Z</time>
      </trkpt>
      <trkpt lat="45.55201" lon="6.81434">
        <ele>2456</ele>
        <time>2012-02-22T12:00:05Z</time>
      </trkpt>
      <trkpt lat="45.55202" lon="6.81434">
        <ele>2456.2</ele>
        <time>2012-02-22T12:00:06Z</time>
      </trkpt>
      <trkpt lat="45.55203" lon="6.81433">
        <ele>2456.3</ele>
        <time>2012-02-22T12:00:07Z</time>
      </trkpt>
      <trkpt lat="45.55205" lon="6.81432">
        <ele>2456.4</ele>
        <time>2012-02-22T12:00:08Z</time>
      </trkpt>
      <trkpt lat="45.55214" lon="6.8144">
        <ele>2455.4</ele>
        <time>2012-02-22T12:00:11Z</time>
      </trkpt>
      <trkpt lat="45.55215" lon="6.81445">
        <ele>2454.1</ele>
        <time>2012-02-22T12:00:12Z</time>
      </trkpt>
      <trkpt lat="45.55215" lon="6.81449">
        <ele>2453.2</ele>
        <time>2012-02-22T12:00:13Z</time>
      </trkpt>
      <trkpt lat="45.55214" lon="6.81451">
        <ele>2452.4</ele>
        <time>2012-02-22T12:00:14Z</time>
      </trkpt>
      <trkpt lat="45.55212" lon="6.81454">
        <ele>2449.8</ele>
        <time>2012-02-22T12:00:16Z</time>
      </trkpt>
      <trkpt lat="45.55212" lon="6.81455">
        <ele>2449</ele>
        <time>2012-02-22T12:00:17Z</time>
      </trkpt>
      <trkpt lat="45.55211" lon="6.81457">
        <ele>2448.4</ele>
        <time>2012-02-22T12:00:18Z</time>
      </trkpt>
      <trkpt lat="45.55211" lon="6.81464">
        <ele>2447.2</ele>
        <time>2012-02-22T12:00:22Z</time>
      </trkpt>
      <trkpt lat="45.55211" lon="6.81466">
        <ele>2447.1</ele>
        <time>2012-02-22T12:00:23Z</time>
      </trkpt>
      <trkpt lat="45.5521" lon="6.81468">
        <ele>2447.2</ele>
        <time>2012-02-22T12:00:25Z</time>
      </trkpt>
      <trkpt lat="45.55211" lon="6.81468">
        <ele>2447.3</ele>
        <time>2012-02-22T12:00:26Z</time>
      </trkpt>
      <trkpt lat="45.55211" lon="6.81468">
        <ele>2447.4</ele>
        <time>2012-02-22T12:00:27Z</time>
      </trkpt>
      <trkpt lat="45.55218" lon="6.81462">
        <ele>2446.5</ele>
        <time>2012-02-22T12:00:30Z</time>
      </trkpt>
      <trkpt lat="45.55222" lon="6.8146">
        <ele>2446</ele>
        <time>2012-02-22T12:00:31Z</time>
      </trkpt>
      <trkpt lat="45.55227" lon="6.8146">
        <ele>2445.5</ele>
        <time>2012-02-22T12:00:32Z</time>
      </trkpt>
      <trkpt lat="45.55234" lon="6.81465">
        <ele>2445.2</ele>
        <time>2012-02-22T12:00:33Z</time>
      </trkpt>
      <trkpt lat="45.55239" lon="6.81476">
        <ele>2443.7</ele>
        <time>2012-02-22T12:00:34Z</time>
      </trkpt>
      <trkpt lat="45.55242" lon="6.81505">
        <ele>2441.7</ele>
        <time>2012-02-22T12:00:36Z</time>
      </trkpt>
      <trkpt lat="45.55249" lon="6.81513">
        <ele>2441</ele>
        <time>2012-02-22T12:00:37Z</time>
      </trkpt>
      <trkpt lat="45.55257" lon="6.81518">
        <ele>2438.3</ele>
        <time>2012-02-22T12:00:38Z</time>
      </trkpt>
      <trkpt lat="45.55267" lon="6.81532">
        <ele>2434.8</ele>
        <time>2012-02-22T12:00:40Z</time>
      </trkpt>
      <trkpt lat="45.55268" lon="6.81537">
        <ele>2432</ele>
        <time>2012-02-22T12:00:41Z</time>
      </trkpt>
      <trkpt lat="45.55268" lon="6.81542">
        <ele>2428.3</ele>
        <time>2012-02-22T12:00:43Z</time>
      </trkpt>
      <trkpt lat="45.55268" lon="6.81542">
        <ele>2426.2</ele>
        <time>2012-02-22T12:00:44Z</time>
      </trkpt>
      <trkpt lat="45.5527" lon="6.81541">
        <ele>2424.7</ele>
        <time>2012-02-22T12:00:45Z</time>
      </trkpt>
      <trkpt lat="45.55272" lon="6.8154">
        <ele>2423.6</ele>
        <time>2012-02-22T12:00:46Z</time>
      </trkpt>
      <trkpt lat="45.55277" lon="6.81535">
        <ele>2422.2</ele>
        <time>2012-02-22T12:00:48Z</time>
      </trkpt>
      <trkpt lat="45.5528" lon="6.81533">
        <ele>2421.8</ele>
        <time>2012-02-22T12:00:49Z</time>
      </trkpt>
      <trkpt lat="45.55298" lon="6.81529">
        <ele>2419.7</ele>
        <time>2012-02-22T12:00:52Z</time>
      </trkpt>
      <trkpt lat="45.55301" lon="6.81527">
        <ele>2418.1</ele>
        <time>2012-02-22T12:00:53Z</time>
      </trkpt>
      <trkpt lat="45.55303" lon="6.81528">
        <ele>2416.9</ele>
        <time>2012-02-22T12:00:54Z</time>
      </trkpt>
      <trkpt lat="45.553" lon="6.8153">
        <ele>2413.6</ele>
        <time>2012-02-22T12:01:06Z</time>
      </trkpt>
      <trkpt lat="45.55299" lon="6.81534">
        <ele>2413.4</ele>
        <time>2012-02-22T12:01:07Z</time>
      </trkpt>
      <trkpt lat="45.553" lon="6.81536">
        <ele>2413.3</ele>
        <time>2012-02-22T12:01:08Z</time>
      </trkpt>
      <trkpt lat="45.55304" lon="6.81536">
        <ele>2411.8</ele>
        <time>2012-02-22T12:01:09Z</time>
      </trkpt>
      <trkpt lat="45.55308" lon="6.81534">
        <ele>2410.7</ele>
        <time>2012-02-22T12:01:10Z</time>
      </trkpt>
      <trkpt lat="45.55313" lon="6.8154">
        <ele>2407.4</ele>
        <time>2012-02-22T12:01:33Z</time>
      </trkpt>
      <trkpt lat="45.55313" lon="6.81543">
        <ele>2404.7</ele>
        <time>2012-02-22T12:01:41Z</time>
      </trkpt>
      <trkpt lat="45.55313" lon="6.81546">
        <ele>2403.7</ele>
        <time>2012-02-22T12:01:43Z</time>
      </trkpt>
      <trkpt lat="45.55313" lon="6.81547">
        <ele>2403.4</ele>
        <time>2012-02-22T12:01:44Z</time>
      </trkpt>
      <trkpt lat="45.55313" lon="6.81548">
        <ele>2403.2</ele>
        <time>2012-02-22T12:01:45Z</time>
      </trkpt>
      <trkpt lat="45.55313" lon="6.81549">
        <ele>2403</ele>
        <time>2012-02-22T12:01:46Z</time>
      </trkpt>
      <trkpt lat="45.55313" lon="6.81551">
        <ele>2402.9</ele>
        <time>2012-02-22T12:01:47Z</time>
      </trkpt>
      <trkpt lat="45.55314" lon="6.81556">
        <ele>2402.8</ele>
        <time>2012-02-22T12:01:48Z</time>
      </trkpt>
      <trkpt lat="45.55318" lon="6.8156">
        <ele>2402.7</ele>
        <time>2012-02-22T12:01:49Z</time>
      </trkpt>
      <trkpt lat="45.55323" lon="6.8156">
        <ele>2402.7</ele>
        <time>2012-02-22T12:01:50Z</time>
      </trkpt>
      <trkpt lat="45.55328" lon="6.81563">
        <ele>2401.3</ele>
        <time>2012-02-22T12:01:51Z</time>
      </trkpt>
      <trkpt lat="45.55331" lon="6.81571">
        <ele>2400.3</ele>
        <time>2012-02-22T12:01:52Z</time>
      </trkpt>
      <trkpt lat="45.55336" lon="6.81577">
        <ele>2399.5</ele>
        <time>2012-02-22T12:01:53Z</time>
      </trkpt>
      <trkpt lat="45.55343" lon="6.81581">
        <ele>2397.3</ele>
        <time>2012-02-22T12:01:54Z</time>
      </trkpt>
      <trkpt lat="45.55348" lon="6.81587">
        <ele>2395.7</ele>
        <time>2012-02-22T12:01:55Z</time>
      </trkpt>
      <trkpt lat="45.55354" lon="6.81589">
        <ele>2394.5</ele>
        <time>2012-02-22T12:01:56Z</time>
      </trkpt>
      <trkpt lat="45.5536" lon="6.81585">
        <ele>2392.4</ele>
        <time>2012-02-22T12:01:57Z</time>
      </trkpt>
      <trkpt lat="45.55365" lon="6.81581">
        <ele>2390.7</ele>
        <time>2012-02-22T12:01:58Z</time>
      </trkpt>
      <trkpt lat="45.5537" lon="6.81578">
        <ele>2389.5</ele>
        <time>2012-02-22T12:01:59Z</time>
      </trkpt>
      <trkpt lat="45.55379" lon="6.81581">
        <ele>2387.1</ele>
        <time>2012-02-22T12:02:01Z</time>
      </trkpt>
      <trkpt lat="45.55383" lon="6.8158">
        <ele>2385.9</ele>
        <time>2012-02-22T12:02:02Z</time>
      </trkpt>
      <trkpt lat="45.55395" lon="6.81563">
        <ele>2383.2</ele>
        <time>2012-02-22T12:02:05Z</time>
      </trkpt>
      <trkpt lat="45.55399" lon="6.81563">
        <ele>2382.6</ele>
        <time>2012-02-22T12:02:06Z</time>
      </trkpt>
      <trkpt lat="45.55401" lon="6.8157">
        <ele>2381.7</ele>
        <time>2012-02-22T12:02:07Z</time>
      </trkpt>
      <trkpt lat="45.55403" lon="6.81588">
        <ele>2380.5</ele>
        <time>2012-02-22T12:02:09Z</time>
      </trkpt>
      <trkpt lat="45.55404" lon="6.81591">
        <ele>2379.4</ele>
        <time>2012-02-22T12:02:10Z</time>
      </trkpt>
      <trkpt lat="45.55406" lon="6.81589">
        <ele>2378.5</ele>
        <time>2012-02-22T12:02:11Z</time>
      </trkpt>
      <trkpt lat="45.55411" lon="6.81584">
        <ele>2377.9</ele>
        <time>2012-02-22T12:02:12Z</time>
      </trkpt>
      <trkpt lat="45.55416" lon="6.81576">
        <ele>2376.4</ele>
        <time>2012-02-22T12:02:13Z</time>
      </trkpt>
      <trkpt lat="45.55419" lon="6.81572">
        <ele>2375.3</ele>
        <time>2012-02-22T12:02:14Z</time>
      </trkpt>
      <trkpt lat="45.55421" lon="6.81573">
        <ele>2374.5</ele>
        <time>2012-02-22T12:02:15Z</time>
      </trkpt>
      <trkpt lat="45.55424" lon="6.81579">
        <ele>2373.6</ele>
        <time>2012-02-22T12:02:16Z</time>
      </trkpt>
      <trkpt lat="45.55426" lon="6.8159">
        <ele>2373</ele>
        <time>2012-02-22T12:02:17Z</time>
      </trkpt>
      <trkpt lat="45.55429" lon="6.81598">
        <ele>2372.6</ele>
        <time>2012-02-22T12:02:18Z</time>
      </trkpt>
      <trkpt lat="45.55433" lon="6.81601">
        <ele>2372.2</ele>
        <time>2012-02-22T12:02:19Z</time>
      </trkpt>
      <trkpt lat="45.55438" lon="6.81599">
        <ele>2370.4</ele>
        <time>2012-02-22T12:02:20Z</time>
      </trkpt>
      <trkpt lat="45.55444" lon="6.81592">
        <ele>2369</ele>
        <time>2012-02-22T12:02:21Z</time>
      </trkpt>
      <trkpt lat="45.55449" lon="6.81585">
        <ele>2367.9</ele>
        <time>2012-02-22T12:02:22Z</time>
      </trkpt>
      <trkpt lat="45.55452" lon="6.81581">
        <ele>2366.8</ele>
        <time>2012-02-22T12:02:23Z</time>
      </trkpt>
      <trkpt lat="45.55457" lon="6.81581">
        <ele>2365.9</ele>
        <time>2012-02-22T12:02:24Z</time>
      </trkpt>
      <trkpt lat="45.5546" lon="6.81586">
        <ele>2365.3</ele>
        <time>2012-02-22T12:02:25Z</time>
      </trkpt>
      <trkpt lat="45.55462" lon="6.81595">
        <ele>2364.4</ele>
        <time>2012-02-22T12:02:26Z</time>
      </trkpt>
      <trkpt lat="45.55463" lon="6.81618">
        <ele>2363.3</ele>
        <time>2012-02-22T12:02:28Z</time>
      </trkpt>
      <trkpt lat="45.55467" lon="6.81635">
        <ele>2359.8</ele>
        <time>2012-02-22T12:02:30Z</time>
      </trkpt>
      <trkpt lat="45.55479" lon="6.81665">
        <ele>2356.4</ele>
        <time>2012-02-22T12:02:33Z</time>
      </trkpt>
      <trkpt lat="45.55487" lon="6.81676">
        <ele>2355.6</ele>
        <time>2012-02-22T12:02:34Z</time>
      </trkpt>
      <trkpt lat="45.55521" lon="6.817">
        <ele>2349.7</ele>
        <time>2012-02-22T12:02:37Z</time>
      </trkpt>
      <trkpt lat="45.55533" lon="6.81713">
        <ele>2348</ele>
        <time>2012-02-22T12:02:38Z</time>
      </trkpt>
      <trkpt lat="45.55551" lon="6.81744">
        <ele>2341.2</ele>
        <time>2012-02-22T12:02:40Z</time>
      </trkpt>
      <trkpt lat="45.55576" lon="6.81795">
        <ele>2332.2</ele>
        <time>2012-02-22T12:02:43Z</time>
      </trkpt>
      <trkpt lat="45.55587" lon="6.8181">
        <ele>2329.9</ele>
        <time>2012-02-22T12:02:44Z</time>
      </trkpt>
      <trkpt lat="45.55599" lon="6.8182">
        <ele>2326.2</ele>
        <time>2012-02-22T12:02:45Z</time>
      </trkpt>
      <trkpt lat="45.55612" lon="6.81825">
        <ele>2323.4</ele>
        <time>2012-02-22T12:02:46Z</time>
      </trkpt>
      <trkpt lat="45.55636" lon="6.81827">
        <ele>2319.2</ele>
        <time>2012-02-22T12:02:48Z</time>
      </trkpt>
      <trkpt lat="45.55647" lon="6.81833">
        <ele>2317.7</ele>
        <time>2012-02-22T12:02:49Z</time>
      </trkpt>
      <trkpt lat="45.55674" lon="6.81861">
        <ele>2314.5</ele>
        <time>2012-02-22T12:02:52Z</time>
      </trkpt>
      <trkpt lat="45.55694" lon="6.81875">
        <ele>2313</ele>
        <time>2012-02-22T12:02:54Z</time>
      </trkpt>
      <trkpt lat="45.55703" lon="6.81895">
        <ele>2309.6</ele>
        <time>2012-02-22T12:02:56Z</time>
      </trkpt>
      <trkpt lat="45.55704" lon="6.81895">
        <ele>2308.5</ele>
        <time>2012-02-22T12:02:57Z</time>
      </trkpt>
      <trkpt lat="45.55712" lon="6.81891">
        <ele>2304.7</ele>
        <time>2012-02-22T12:03:22Z</time>
      </trkpt>
      <trkpt lat="45.55712" lon="6.81891">
        <ele>2304.7</ele>
        <time>2012-02-22T12:03:23Z</time>
      </trkpt>
      <trkpt lat="45.55722" lon="6.81896">
        <ele>2304.4</ele>
        <time>2012-02-22T12:03:29Z</time>
      </trkpt>
      <trkpt lat="45.55725" lon="6.81899">
        <ele>2304.3</ele>
        <time>2012-02-22T12:03:30Z</time>
      </trkpt>
      <trkpt lat="45.5573" lon="6.81902">
        <ele>2304.2</ele>
        <time>2012-02-22T12:03:32Z</time>
      </trkpt>
      <trkpt lat="45.55739" lon="6.81906">
        <ele>2302.9</ele>
        <time>2012-02-22T12:03:35Z</time>
      </trkpt>
      <trkpt lat="45.55741" lon="6.81909">
        <ele>2302.2</ele>
        <time>2012-02-22T12:03:36Z</time>
      </trkpt>
      <trkpt lat="45.55743" lon="6.81917">
        <ele>2300.9</ele>
        <time>2012-02-22T12:03:39Z</time>
      </trkpt>
      <trkpt lat="45.55749" lon="6.8193">
        <ele>2301</ele>
        <time>2012-02-22T12:03:42Z</time>
      </trkpt>
      <trkpt lat="45.55753" lon="6.81943">
        <ele>2299.3</ele>
        <time>2012-02-22T12:03:44Z</time>
      </trkpt>
      <trkpt lat="45.55755" lon="6.81944">
        <ele>2298.7</ele>
        <time>2012-02-22T12:03:45Z</time>
      </trkpt>
      <trkpt lat="45.55758" lon="6.81941">
        <ele>2297.5</ele>
        <time>2012-02-22T12:03:48Z</time>
      </trkpt>
      <trkpt lat="45.55759" lon="6.81941">
        <ele>2296.7</ele>
        <time>2012-02-22T12:03:49Z</time>
      </trkpt>
      <trkpt lat="45.55759" lon="6.81941">
        <ele>2296.1</ele>
        <time>2012-02-22T12:03:50Z</time>
      </trkpt>
      <trkpt lat="45.5576" lon="6.81939">
        <ele>2295.6</ele>
        <time>2012-02-22T12:03:51Z</time>
      </trkpt>
      <trkpt lat="45.55762" lon="6.81938">
        <ele>2295.1</ele>
        <time>2012-02-22T12:03:52Z</time>
      </trkpt>
      <trkpt lat="45.55763" lon="6.81939">
        <ele>2294.7</ele>
        <time>2012-02-22T12:03:53Z</time>
      </trkpt>
      <trkpt lat="45.55765" lon="6.81942">
        <ele>2294.4</ele>
        <time>2012-02-22T12:03:54Z</time>
      </trkpt>
      <trkpt lat="45.55772" lon="6.81959">
        <ele>2294.4</ele>
        <time>2012-02-22T12:03:58Z</time>
      </trkpt>
      <trkpt lat="45.55777" lon="6.81968">
        <ele>2293.5</ele>
        <time>2012-02-22T12:03:59Z</time>
      </trkpt>
      <trkpt lat="45.55784" lon="6.81973">
        <ele>2292.9</ele>
        <time>2012-02-22T12:04:00Z</time>
      </trkpt>
      <trkpt lat="45.55804" lon="6.8198">
        <ele>2287.9</ele>
        <time>2012-02-22T12:04:03Z</time>
      </trkpt>
      <trkpt lat="45.55863" lon="6.81994">
        <ele>2279.6</ele>
        <time>2012-02-22T12:04:11Z</time>
      </trkpt>
      <trkpt lat="45.55872" lon="6.81998">
        <ele>2278.6</ele>
        <time>2012-02-22T12:04:12Z</time>
      </trkpt>
      <trkpt lat="45.55879" lon="6.82005">
        <ele>2277.8</ele>
        <time>2012-02-22T12:04:13Z</time>
      </trkpt>
      <trkpt lat="45.55891" lon="6.82024">
        <ele>2276.1</ele>
        <time>2012-02-22T12:04:15Z</time>
      </trkpt>
      <trkpt lat="45.55899" lon="6.82032">
        <ele>2275.2</ele>
        <time>2012-02-22T12:04:16Z</time>
      </trkpt>
      <trkpt lat="45.55907" lon="6.82038">
        <ele>2274.6</ele>
        <time>2012-02-22T12:04:17Z</time>
      </trkpt>
      <trkpt lat="45.55917" lon="6.8204">
        <ele>2273.2</ele>
        <time>2012-02-22T12:04:18Z</time>
      </trkpt>
      <trkpt lat="45.55928" lon="6.8204">
        <ele>2272.2</ele>
        <time>2012-02-22T12:04:19Z</time>
      </trkpt>
      <trkpt lat="45.55939" lon="6.8204">
        <ele>2271.5</ele>
        <time>2012-02-22T12:04:20Z</time>
      </trkpt>
      <trkpt lat="45.5595" lon="6.82043">
        <ele>2269.5</ele>
        <time>2012-02-22T12:04:21Z</time>
      </trkpt>
      <trkpt lat="45.5596" lon="6.8205">
        <ele>2268</ele>
        <time>2012-02-22T12:04:22Z</time>
      </trkpt>
      <trkpt lat="45.55976" lon="6.82072">
        <ele>2264.7</ele>
        <time>2012-02-22T12:04:24Z</time>
      </trkpt>
      <trkpt lat="45.55986" lon="6.82081">
        <ele>2263</ele>
        <time>2012-02-22T12:04:25Z</time>
      </trkpt>
      <trkpt lat="45.55997" lon="6.82085">
        <ele>2261.7</ele>
        <time>2012-02-22T12:04:26Z</time>
      </trkpt>
      <trkpt lat="45.56019" lon="6.82081">
        <ele>2258</ele>
        <time>2012-02-22T12:04:28Z</time>
      </trkpt>
      <trkpt lat="45.56029" lon="6.82085">
        <ele>2256.8</ele>
        <time>2012-02-22T12:04:29Z</time>
      </trkpt>
      <trkpt lat="45.56036" lon="6.82095">
        <ele>2255.9</ele>
        <time>2012-02-22T12:04:30Z</time>
      </trkpt>
      <trkpt lat="45.56041" lon="6.82107">
        <ele>2254.5</ele>
        <time>2012-02-22T12:04:31Z</time>
      </trkpt>
      <trkpt lat="45.56048" lon="6.82115">
        <ele>2253.5</ele>
        <time>2012-02-22T12:04:32Z</time>
      </trkpt>
      <trkpt lat="45.56065" lon="6.82122">
        <ele>2250.8</ele>
        <time>2012-02-22T12:04:34Z</time>
      </trkpt>
      <trkpt lat="45.56096" lon="6.82143">
        <ele>2245.7</ele>
        <time>2012-02-22T12:04:38Z</time>
      </trkpt>
      <trkpt lat="45.56104" lon="6.8215">
        <ele>2244.8</ele>
        <time>2012-02-22T12:04:39Z</time>
      </trkpt>
      <trkpt lat="45.56122" lon="6.82163">
        <ele>2241.9</ele>
        <time>2012-02-22T12:04:41Z</time>
      </trkpt>
      <trkpt lat="45.5613" lon="6.82173">
        <ele>2241</ele>
        <time>2012-02-22T12:04:42Z</time>
      </trkpt>
      <trkpt lat="45.56254" lon="6.82257">
        <ele>2218.1</ele>
        <time>2012-02-22T12:04:53Z</time>
      </trkpt>
      <trkpt lat="45.56277" lon="6.82263">
        <ele>2215.9</ele>
        <time>2012-02-22T12:04:55Z</time>
      </trkpt>
      <trkpt lat="45.56307" lon="6.82284">
        <ele>2212.7</ele>
        <time>2012-02-22T12:04:58Z</time>
      </trkpt>
      <trkpt lat="45.56319" lon="6.82288">
        <ele>2211.3</ele>
        <time>2012-02-22T12:04:59Z</time>
      </trkpt>
      <trkpt lat="45.56342" lon="6.82287">
        <ele>2209.3</ele>
        <time>2012-02-22T12:05:01Z</time>
      </trkpt>
      <trkpt lat="45.56352" lon="6.8229">
        <ele>2207.3</ele>
        <time>2012-02-22T12:05:02Z</time>
      </trkpt>
      <trkpt lat="45.56362" lon="6.82297">
        <ele>2205.8</ele>
        <time>2012-02-22T12:05:03Z</time>
      </trkpt>
      <trkpt lat="45.56369" lon="6.82308">
        <ele>2204.7</ele>
        <time>2012-02-22T12:05:04Z</time>
      </trkpt>
      <trkpt lat="45.56375" lon="6.82319">
        <ele>2203.8</ele>
        <time>2012-02-22T12:05:05Z</time>
      </trkpt>
      <trkpt lat="45.56382" lon="6.82329">
        <ele>2203.2</ele>
        <time>2012-02-22T12:05:06Z</time>
      </trkpt>
      <trkpt lat="45.56391" lon="6.82334">
        <ele>2202.7</ele>
        <time>2012-02-22T12:05:07Z</time>
      </trkpt>
      <trkpt lat="45.56409" lon="6.82336">
        <ele>2201.1</ele>
        <time>2012-02-22T12:05:09Z</time>
      </trkpt>
      <trkpt lat="45.56418" lon="6.82338">
        <ele>2200.1</ele>
        <time>2012-02-22T12:05:10Z</time>
      </trkpt>
      <trkpt lat="45.56467" lon="6.82378">
        <ele>2195.3</ele>
        <time>2012-02-22T12:05:16Z</time>
      </trkpt>
      <trkpt lat="45.56474" lon="6.82388">
        <ele>2194.7</ele>
        <time>2012-02-22T12:05:17Z</time>
      </trkpt>
      <trkpt lat="45.5649" lon="6.82428">
        <ele>2190.9</ele>
        <time>2012-02-22T12:05:21Z</time>
      </trkpt>
      <trkpt lat="45.56496" lon="6.82434">
        <ele>2190.4</ele>
        <time>2012-02-22T12:05:22Z</time>
      </trkpt>
      <trkpt lat="45.56502" lon="6.82435">
        <ele>2190.1</ele>
        <time>2012-02-22T12:05:23Z</time>
      </trkpt>
      <trkpt lat="45.56519" lon="6.82437">
        <ele>2188.6</ele>
        <time>2012-02-22T12:05:26Z</time>
      </trkpt>
      <trkpt lat="45.56557" lon="6.82452">
        <ele>2187.5</ele>
        <time>2012-02-22T12:05:33Z</time>
      </trkpt>
      <trkpt lat="45.56618" lon="6.82503">
        <ele>2184.7</ele>
        <time>2012-02-22T12:05:46Z</time>
      </trkpt>
      <trkpt lat="45.56641" lon="6.82514">
        <ele>2181.9</ele>
        <time>2012-02-22T12:05:50Z</time>
      </trkpt>
      <trkpt lat="45.56647" lon="6.82514">
        <ele>2181</ele>
        <time>2012-02-22T12:05:51Z</time>
      </trkpt>
      <trkpt lat="45.56659" lon="6.82513">
        <ele>2180</ele>
        <time>2012-02-22T12:05:53Z</time>
      </trkpt>
      <trkpt lat="45.56666" lon="6.82514">
        <ele>2179.7</ele>
        <time>2012-02-22T12:05:54Z</time>
      </trkpt>
      <trkpt lat="45.56675" lon="6.82521">
        <ele>2179.4</ele>
        <time>2012-02-22T12:05:56Z</time>
      </trkpt>
      <trkpt lat="45.5668" lon="6.82521">
        <ele>2178.2</ele>
        <time>2012-02-22T12:05:58Z</time>
      </trkpt>
      <trkpt lat="45.5668" lon="6.82521">
        <ele>2177.8</ele>
        <time>2012-02-22T12:05:59Z</time>
      </trkpt>
      <trkpt lat="45.56683" lon="6.82521">
        <ele>2177.1</ele>
        <time>2012-02-22T12:06:04Z</time>
      </trkpt>
      <trkpt lat="45.56689" lon="6.82521">
        <ele>2176</ele>
        <time>2012-02-22T12:06:08Z</time>
      </trkpt>
      <trkpt lat="45.56698" lon="6.8252">
        <ele>2175.7</ele>
        <time>2012-02-22T12:06:11Z</time>
      </trkpt>
      <trkpt lat="45.56702" lon="6.82519">
        <ele>2175.7</ele>
        <time>2012-02-22T12:06:12Z</time>
      </trkpt>
      <trkpt lat="45.56749" lon="6.8249">
        <ele>2170.9</ele>
        <time>2012-02-22T12:06:20Z</time>
      </trkpt>
      <trkpt lat="45.5676" lon="6.82479">
        <ele>2169.5</ele>
        <time>2012-02-22T12:06:23Z</time>
      </trkpt>
      <trkpt lat="45.56762" lon="6.82478">
        <ele>2169.3</ele>
        <time>2012-02-22T12:06:24Z</time>
      </trkpt>
      <trkpt lat="45.5677" lon="6.8247">
        <ele>2170</ele>
        <time>2012-02-22T12:06:28Z</time>
      </trkpt>
      <trkpt lat="45.56774" lon="6.82466">
        <ele>2168.6</ele>
        <time>2012-02-22T12:06:46Z</time>
      </trkpt>
      <trkpt lat="45.56836" lon="6.8244">
        <ele>2161.2</ele>
        <time>2012-02-22T12:06:53Z</time>
      </trkpt>
      <trkpt lat="45.56847" lon="6.82438">
        <ele>2158</ele>
        <time>2012-02-22T12:06:54Z</time>
      </trkpt>
      <trkpt lat="45.56868" lon="6.82439">
        <ele>2153.8</ele>
        <time>2012-02-22T12:06:56Z</time>
      </trkpt>
      <trkpt lat="45.56877" lon="6.82441">
        <ele>2152</ele>
        <time>2012-02-22T12:06:57Z</time>
      </trkpt>
      <trkpt lat="45.56885" lon="6.82448">
        <ele>2150.7</ele>
        <time>2012-02-22T12:06:58Z</time>
      </trkpt>
      <trkpt lat="45.56889" lon="6.82458">
        <ele>2149.6</ele>
        <time>2012-02-22T12:06:59Z</time>
      </trkpt>
      <trkpt lat="45.56919" lon="6.82536">
        <ele>2130.1</ele>
        <time>2012-02-22T12:57:54Z</time>
      </trkpt>
      <trkpt lat="45.56922" lon="6.82546">
        <ele>2128.9</ele>
        <time>2012-02-22T12:57:56Z</time>
      </trkpt>
      <trkpt lat="45.56925" lon="6.8255">
        <ele>2128.5</ele>
        <time>2012-02-22T12:57:57Z</time>
      </trkpt>
      <trkpt lat="45.56928" lon="6.82551">
        <ele>2127.4</ele>
        <time>2012-02-22T12:57:58Z</time>
      </trkpt>
      <trkpt lat="45.56933" lon="6.82548">
        <ele>2126.6</ele>
        <time>2012-02-22T12:57:59Z</time>
      </trkpt>
      <trkpt lat="45.56937" lon="6.82544">
        <ele>2126</ele>
        <time>2012-02-22T12:58:00Z</time>
      </trkpt>
      <trkpt lat="45.56942" lon="6.82543">
        <ele>2124.6</ele>
        <time>2012-02-22T12:58:01Z</time>
      </trkpt>
      <trkpt lat="45.56946" lon="6.82548">
        <ele>2123.5</ele>
        <time>2012-02-22T12:58:02Z</time>
      </trkpt>
      <trkpt lat="45.5695" lon="6.82561">
        <ele>2122.1</ele>
        <time>2012-02-22T12:58:04Z</time>
      </trkpt>
      <trkpt lat="45.56952" lon="6.82566">
        <ele>2120.4</ele>
        <time>2012-02-22T12:58:05Z</time>
      </trkpt>
      <trkpt lat="45.56957" lon="6.82569">
        <ele>2119</ele>
        <time>2012-02-22T12:58:06Z</time>
      </trkpt>
      <trkpt lat="45.56977" lon="6.82576">
        <ele>2115.2</ele>
        <time>2012-02-22T12:58:09Z</time>
      </trkpt>
      <trkpt lat="45.56982" lon="6.82574">
        <ele>2114.2</ele>
        <time>2012-02-22T12:58:10Z</time>
      </trkpt>
      <trkpt lat="45.56988" lon="6.82576">
        <ele>2111.4</ele>
        <time>2012-02-22T12:58:11Z</time>
      </trkpt>
      <trkpt lat="45.56994" lon="6.82575">
        <ele>2109.3</ele>
        <time>2012-02-22T12:58:12Z</time>
      </trkpt>
      <trkpt lat="45.57" lon="6.82574">
        <ele>2107.7</ele>
        <time>2012-02-22T12:58:13Z</time>
      </trkpt>
      <trkpt lat="45.57005" lon="6.82578">
        <ele>2104.3</ele>
        <time>2012-02-22T12:58:14Z</time>
      </trkpt>
      <trkpt lat="45.5701" lon="6.82578">
        <ele>2101.8</ele>
        <time>2012-02-22T12:58:15Z</time>
      </trkpt>
      <trkpt lat="45.57015" lon="6.82576">
        <ele>2099.8</ele>
        <time>2012-02-22T12:58:16Z</time>
      </trkpt>
      <trkpt lat="45.5702" lon="6.82578">
        <ele>2096.7</ele>
        <time>2012-02-22T12:58:17Z</time>
      </trkpt>
      <trkpt lat="45.57026" lon="6.82579">
        <ele>2094.4</ele>
        <time>2012-02-22T12:58:18Z</time>
      </trkpt>
      <trkpt lat="45.57031" lon="6.82577">
        <ele>2092.6</ele>
        <time>2012-02-22T12:58:19Z</time>
      </trkpt>
      <trkpt lat="45.57034" lon="6.82577">
        <ele>2090</ele>
        <time>2012-02-22T12:58:20Z</time>
      </trkpt>
      <trkpt lat="45.5704" lon="6.82582">
        <ele>2086.4</ele>
        <time>2012-02-22T12:58:22Z</time>
      </trkpt>
      <trkpt lat="45.57044" lon="6.82582">
        <ele>2085.3</ele>
        <time>2012-02-22T12:58:23Z</time>
      </trkpt>
      <trkpt lat="45.57053" lon="6.82582">
        <ele>2082.1</ele>
        <time>2012-02-22T12:58:25Z</time>
      </trkpt>
      <trkpt lat="45.57061" lon="6.82576">
        <ele>2079.3</ele>
        <time>2012-02-22T12:58:27Z</time>
      </trkpt>
      <trkpt lat="45.57066" lon="6.82571">
        <ele>2076.9</ele>
        <time>2012-02-22T12:58:29Z</time>
      </trkpt>
      <trkpt lat="45.57069" lon="6.8257">
        <ele>2075.5</ele>
        <time>2012-02-22T12:58:30Z</time>
      </trkpt>
      <trkpt lat="45.57074" lon="6.82569">
        <ele>2073.6</ele>
        <time>2012-02-22T12:58:32Z</time>
      </trkpt>
      <trkpt lat="45.57082" lon="6.82565">
        <ele>2071</ele>
        <time>2012-02-22T12:58:35Z</time>
      </trkpt>
      <trkpt lat="45.57084" lon="6.82562">
        <ele>2070.6</ele>
        <time>2012-02-22T12:58:36Z</time>
      </trkpt>
      <trkpt lat="45.57086" lon="6.8256">
        <ele>2070.1</ele>
        <time>2012-02-22T12:58:38Z</time>
      </trkpt>
      <trkpt lat="45.57088" lon="6.82559">
        <ele>2069.9</ele>
        <time>2012-02-22T12:58:39Z</time>
      </trkpt>
      <trkpt lat="45.57089" lon="6.82558">
        <ele>2069.5</ele>
        <time>2012-02-22T12:58:40Z</time>
      </trkpt>
      <trkpt lat="45.57091" lon="6.82557">
        <ele>2069.2</ele>
        <time>2012-02-22T12:58:41Z</time>
      </trkpt>
      <trkpt lat="45.57097" lon="6.82552">
        <ele>2068.8</ele>
        <time>2012-02-22T12:58:43Z</time>
      </trkpt>
      <trkpt lat="45.571" lon="6.82547">
        <ele>2068.7</ele>
        <time>2012-02-22T12:58:44Z</time>
      </trkpt>
      <trkpt lat="45.57102" lon="6.8254">
        <ele>2068.6</ele>
        <time>2012-02-22T12:58:45Z</time>
      </trkpt>
      <trkpt lat="45.57099" lon="6.82521">
        <ele>2065.1</ele>
        <time>2012-02-22T12:58:47Z</time>
      </trkpt>
      <trkpt lat="45.57101" lon="6.82508">
        <ele>2064</ele>
        <time>2012-02-22T12:58:48Z</time>
      </trkpt>
      <trkpt lat="45.57106" lon="6.82497">
        <ele>2062</ele>
        <time>2012-02-22T12:58:49Z</time>
      </trkpt>
      <trkpt lat="45.57122" lon="6.82479">
        <ele>2059.4</ele>
        <time>2012-02-22T12:58:51Z</time>
      </trkpt>
      <trkpt lat="45.57126" lon="6.82468">
        <ele>2056.5</ele>
        <time>2012-02-22T12:58:52Z</time>
      </trkpt>
      <trkpt lat="45.57124" lon="6.82441">
        <ele>2052.7</ele>
        <time>2012-02-22T12:58:54Z</time>
      </trkpt>
      <trkpt lat="45.57125" lon="6.82428">
        <ele>2051.5</ele>
        <time>2012-02-22T12:58:55Z</time>
      </trkpt>
      <trkpt lat="45.5713" lon="6.8242">
        <ele>2050.6</ele>
        <time>2012-02-22T12:58:56Z</time>
      </trkpt>
      <trkpt lat="45.57137" lon="6.82418">
        <ele>2049.9</ele>
        <time>2012-02-22T12:58:57Z</time>
      </trkpt>
      <trkpt lat="45.57145" lon="6.82419">
        <ele>2049.4</ele>
        <time>2012-02-22T12:58:58Z</time>
      </trkpt>
      <trkpt lat="45.57159" lon="6.82429">
        <ele>2047.6</ele>
        <time>2012-02-22T12:59:00Z</time>
      </trkpt>
      <trkpt lat="45.57166" lon="6.82431">
        <ele>2047</ele>
        <time>2012-02-22T12:59:01Z</time>
      </trkpt>
      <trkpt lat="45.57174" lon="6.8243">
        <ele>2045.8</ele>
        <time>2012-02-22T12:59:02Z</time>
      </trkpt>
      <trkpt lat="45.57182" lon="6.82425">
        <ele>2044.9</ele>
        <time>2012-02-22T12:59:03Z</time>
      </trkpt>
      <trkpt lat="45.57188" lon="6.82418">
        <ele>2044.2</ele>
        <time>2012-02-22T12:59:04Z</time>
      </trkpt>
      <trkpt lat="45.57206" lon="6.82388">
        <ele>2039.9</ele>
        <time>2012-02-22T12:59:10Z</time>
      </trkpt>
      <trkpt lat="45.57206" lon="6.82387">
        <ele>2039.9</ele>
        <time>2012-02-22T12:59:11Z</time>
      </trkpt>
      <trkpt lat="45.57206" lon="6.82386">
        <ele>2041</ele>
        <time>2012-02-22T12:59:12Z</time>
      </trkpt>
      <trkpt lat="45.57206" lon="6.82385">
        <ele>2041.8</ele>
        <time>2012-02-22T12:59:13Z</time>
      </trkpt>
      <trkpt lat="45.57207" lon="6.82383">
        <ele>2042.7</ele>
        <time>2012-02-22T12:59:16Z</time>
      </trkpt>
      <trkpt lat="45.57207" lon="6.82383">
        <ele>2042.8</ele>
        <time>2012-02-22T12:59:17Z</time>
      </trkpt>
      <trkpt lat="45.57208" lon="6.82383">
        <ele>2042.4</ele>
        <time>2012-02-22T12:59:18Z</time>
      </trkpt>
      <trkpt lat="45.57232" lon="6.82391">
        <ele>2040.8</ele>
        <time>2012-02-22T12:59:23Z</time>
      </trkpt>
      <trkpt lat="45.57238" lon="6.82391">
        <ele>2039.5</ele>
        <time>2012-02-22T12:59:24Z</time>
      </trkpt>
      <trkpt lat="45.57258" lon="6.82396">
        <ele>2036.3</ele>
        <time>2012-02-22T12:59:27Z</time>
      </trkpt>
      <trkpt lat="45.57267" lon="6.82402">
        <ele>2035.2</ele>
        <time>2012-02-22T12:59:28Z</time>
      </trkpt>
      <trkpt lat="45.57274" lon="6.82411">
        <ele>2034.3</ele>
        <time>2012-02-22T12:59:29Z</time>
      </trkpt>
      <trkpt lat="45.5728" lon="6.82421">
        <ele>2033.6</ele>
        <time>2012-02-22T12:59:30Z</time>
      </trkpt>
      <trkpt lat="45.57299" lon="6.82475">
        <ele>2028</ele>
        <time>2012-02-22T12:59:35Z</time>
      </trkpt>
      <trkpt lat="45.57303" lon="6.82483">
        <ele>2027.2</ele>
        <time>2012-02-22T12:59:36Z</time>
      </trkpt>
      <trkpt lat="45.57307" lon="6.82486">
        <ele>2026.8</ele>
        <time>2012-02-22T12:59:37Z</time>
      </trkpt>
      <trkpt lat="45.57311" lon="6.82486">
        <ele>2026.5</ele>
        <time>2012-02-22T12:59:38Z</time>
      </trkpt>
      <trkpt lat="45.57313" lon="6.82484">
        <ele>2025.9</ele>
        <time>2012-02-22T12:59:40Z</time>
      </trkpt>
      <trkpt lat="45.57315" lon="6.82477">
        <ele>2024.8</ele>
        <time>2012-02-22T12:59:44Z</time>
      </trkpt>
      <trkpt lat="45.57315" lon="6.82476">
        <ele>2024.6</ele>
        <time>2012-02-22T12:59:45Z</time>
      </trkpt>
      <trkpt lat="45.57317" lon="6.82468">
        <ele>2024.6</ele>
        <time>2012-02-22T12:59:58Z</time>
      </trkpt>
      <trkpt lat="45.57317" lon="6.82467">
        <ele>2024.5</ele>
        <time>2012-02-22T12:59:59Z</time>
      </trkpt>
      <trkpt lat="45.57317" lon="6.82465">
        <ele>2024.4</ele>
        <time>2012-02-22T13:00:00Z</time>
      </trkpt>
      <trkpt lat="45.57317" lon="6.82464">
        <ele>2024.4</ele>
        <time>2012-02-22T13:00:01Z</time>
      </trkpt>
      <trkpt lat="45.57317" lon="6.82463">
        <ele>2024.3</ele>
        <time>2012-02-22T13:00:02Z</time>
      </trkpt>
      <trkpt lat="45.57317" lon="6.82462">
        <ele>2024.7</ele>
        <time>2012-02-22T13:00:03Z</time>
      </trkpt>
      <trkpt lat="45.57317" lon="6.82462">
        <ele>2025</ele>
        <time>2012-02-22T13:00:04Z</time>
      </trkpt>
      <trkpt lat="45.5731" lon="6.82439">
        <ele>2026.1</ele>
        <time>2012-02-22T13:01:02Z</time>
      </trkpt>
      <trkpt lat="45.5731" lon="6.82439">
        <ele>2025.3</ele>
        <time>2012-02-22T13:01:03Z</time>
      </trkpt>
      <trkpt lat="45.5731" lon="6.82438">
        <ele>2024.7</ele>
        <time>2012-02-22T13:01:04Z</time>
      </trkpt>
      <trkpt lat="45.5731" lon="6.82437">
        <ele>2024.2</ele>
        <time>2012-02-22T13:01:05Z</time>
      </trkpt>
      <trkpt lat="45.57308" lon="6.82435">
        <ele>2023.7</ele>
        <time>2012-02-22T13:01:10Z</time>
      </trkpt>
      <trkpt lat="45.57301" lon="6.82423">
        <ele>2023.4</ele>
        <time>2012-02-22T13:01:15Z</time>
      </trkpt>
      <trkpt lat="45.57288" lon="6.82234">
        <ele>2059.8</ele>
        <time>2012-02-22T13:01:53Z</time>
      </trkpt>
      <trkpt lat="45.57287" lon="6.82229">
        <ele>2062</ele>
        <time>2012-02-22T13:01:54Z</time>
      </trkpt>
      <trkpt lat="45.5727" lon="6.8203">
        <ele>2156.8</ele>
        <time>2012-02-22T13:02:41Z</time>
      </trkpt>
      <trkpt lat="45.57199" lon="6.81248">
        <ele>2415.6</ele>
        <time>2012-02-22T13:05:31Z</time>
      </trkpt>
      <trkpt lat="45.57199" lon="6.81244">
        <ele>2416.3</ele>
        <time>2012-02-22T13:05:32Z</time>
      </trkpt>
      <trkpt lat="45.57199" lon="6.81239">
        <ele>2416.8</ele>
        <time>2012-02-22T13:05:33Z</time>
      </trkpt>
      <trkpt lat="45.57198" lon="6.81223">
        <ele>2419.3</ele>
        <time>2012-02-22T13:05:38Z</time>
      </trkpt>
      <trkpt lat="45.57198" lon="6.81221">
        <ele>2419.7</ele>
        <time>2012-02-22T13:05:39Z</time>
      </trkpt>
      <trkpt lat="45.57197" lon="6.81219">
        <ele>2420</ele>
        <time>2012-02-22T13:05:40Z</time>
      </trkpt>
      <trkpt lat="45.57197" lon="6.81214">
        <ele>2421.7</ele>
        <time>2012-02-22T13:05:42Z</time>
      </trkpt>
      <trkpt lat="45.57196" lon="6.81211">
        <ele>2422.3</ele>
        <time>2012-02-22T13:05:43Z</time>
      </trkpt>
      <trkpt lat="45.57195" lon="6.81205">
        <ele>2422.2</ele>
        <time>2012-02-22T13:05:45Z</time>
      </trkpt>
      <trkpt lat="45.57193" lon="6.81196">
        <ele>2421.6</ele>
        <time>2012-02-22T13:05:48Z</time>
      </trkpt>
      <trkpt lat="45.57193" lon="6.81194">
        <ele>2421.4</ele>
        <time>2012-02-22T13:05:49Z</time>
      </trkpt>
      <trkpt lat="45.57193" lon="6.81193">
        <ele>2421.2</ele>
        <time>2012-02-22T13:05:50Z</time>
      </trkpt>
      <trkpt lat="45.57192" lon="6.81192">
        <ele>2420.9</ele>
        <time>2012-02-22T13:05:51Z</time>
      </trkpt>
      <trkpt lat="45.57191" lon="6.81187">
        <ele>2418.9</ele>
        <time>2012-02-22T13:06:00Z</time>
      </trkpt>
      <trkpt lat="45.57191" lon="6.81186">
        <ele>2418.9</ele>
        <time>2012-02-22T13:06:01Z</time>
      </trkpt>
      <trkpt lat="45.5719" lon="6.81185">
        <ele>2418.9</ele>
        <time>2012-02-22T13:06:02Z</time>
      </trkpt>
      <trkpt lat="45.57189" lon="6.81184">
        <ele>2419</ele>
        <time>2012-02-22T13:06:03Z</time>
      </trkpt>
      <trkpt lat="45.57167" lon="6.81155">
        <ele>2417.7</ele>
        <time>2012-02-22T13:07:04Z</time>
      </trkpt>
      <trkpt lat="45.57166" lon="6.81153">
        <ele>2417.7</ele>
        <time>2012-02-22T13:07:05Z</time>
      </trkpt>
      <trkpt lat="45.57158" lon="6.81145">
        <ele>2418</ele>
        <time>2012-02-22T13:07:10Z</time>
      </trkpt>
      <trkpt lat="45.57157" lon="6.81141">
        <ele>2417.7</ele>
        <time>2012-02-22T13:07:11Z</time>
      </trkpt>
      <trkpt lat="45.57154" lon="6.81133">
        <ele>2416.9</ele>
        <time>2012-02-22T13:07:13Z</time>
      </trkpt>
      <trkpt lat="45.57152" lon="6.81129">
        <ele>2416.4</ele>
        <time>2012-02-22T13:07:14Z</time>
      </trkpt>
      <trkpt lat="45.57149" lon="6.81126">
        <ele>2416.1</ele>
        <time>2012-02-22T13:07:15Z</time>
      </trkpt>
      <trkpt lat="45.57142" lon="6.81122">
        <ele>2415.1</ele>
        <time>2012-02-22T13:07:17Z</time>
      </trkpt>
      <trkpt lat="45.57139" lon="6.81118">
        <ele>2414.6</ele>
        <time>2012-02-22T13:07:18Z</time>
      </trkpt>
      <trkpt lat="45.57134" lon="6.81108">
        <ele>2413.8</ele>
        <time>2012-02-22T13:07:20Z</time>
      </trkpt>
      <trkpt lat="45.57097" lon="6.81008">
        <ele>2408.8</ele>
        <time>2012-02-22T13:07:37Z</time>
      </trkpt>
      <trkpt lat="45.57095" lon="6.81003">
        <ele>2408.4</ele>
        <time>2012-02-22T13:07:38Z</time>
      </trkpt>
      <trkpt lat="45.57086" lon="6.8099">
        <ele>2407.4</ele>
        <time>2012-02-22T13:07:41Z</time>
      </trkpt>
      <trkpt lat="45.5708" lon="6.80979">
        <ele>2406.6</ele>
        <time>2012-02-22T13:07:44Z</time>
      </trkpt>
      <trkpt lat="45.57066" lon="6.80932">
        <ele>2406.5</ele>
        <time>2012-02-22T13:07:52Z</time>
      </trkpt>
      <trkpt lat="45.57059" lon="6.80919">
        <ele>2405.5</ele>
        <time>2012-02-22T13:07:54Z</time>
      </trkpt>
      <trkpt lat="45.57054" lon="6.80912">
        <ele>2404.3</ele>
        <time>2012-02-22T13:07:55Z</time>
      </trkpt>
      <trkpt lat="45.57032" lon="6.80894">
        <ele>2402.1</ele>
        <time>2012-02-22T13:07:59Z</time>
      </trkpt>
      <trkpt lat="45.57004" lon="6.8088">
        <ele>2399.5</ele>
        <time>2012-02-22T13:08:04Z</time>
      </trkpt>
      <trkpt lat="45.56999" lon="6.80876">
        <ele>2399.5</ele>
        <time>2012-02-22T13:08:05Z</time>
      </trkpt>
      <trkpt lat="45.56997" lon="6.8087">
        <ele>2399.4</ele>
        <time>2012-02-22T13:08:06Z</time>
      </trkpt>
      <trkpt lat="45.56995" lon="6.80857">
        <ele>2399.2</ele>
        <time>2012-02-22T13:08:08Z</time>
      </trkpt>
      <trkpt lat="45.56998" lon="6.8082">
        <ele>2398.1</ele>
        <time>2012-02-22T13:08:13Z</time>
      </trkpt>
      <trkpt lat="45.57001" lon="6.80815">
        <ele>2398.1</ele>
        <time>2012-02-22T13:08:14Z</time>
      </trkpt>
      <trkpt lat="45.57005" lon="6.80814">
        <ele>2398.1</ele>
        <time>2012-02-22T13:08:15Z</time>
      </trkpt>
      <trkpt lat="45.57008" lon="6.80814">
        <ele>2398.1</ele>
        <time>2012-02-22T13:08:16Z</time>
      </trkpt>
      <trkpt lat="45.57012" lon="6.80812">
        <ele>2397.4</ele>
        <time>2012-02-22T13:08:17Z</time>
      </trkpt>
      <trkpt lat="45.5702" lon="6.80805">
        <ele>2396.5</ele>
        <time>2012-02-22T13:08:19Z</time>
      </trkpt>
      <trkpt lat="45.57025" lon="6.80802">
        <ele>2396.2</ele>
        <time>2012-02-22T13:08:20Z</time>
      </trkpt>
      <trkpt lat="45.57029" lon="6.80803">
        <ele>2395.6</ele>
        <time>2012-02-22T13:08:21Z</time>
      </trkpt>
      <trkpt lat="45.57043" lon="6.80811">
        <ele>2392.7</ele>
        <time>2012-02-22T13:08:26Z</time>
      </trkpt>
      <trkpt lat="45.57046" lon="6.80812">
        <ele>2392.3</ele>
        <time>2012-02-22T13:08:27Z</time>
      </trkpt>
      <trkpt lat="45.57046" lon="6.80813">
        <ele>2391.4</ele>
        <time>2012-02-22T13:08:31Z</time>
      </trkpt>
      <trkpt lat="45.5705" lon="6.80816">
        <ele>2389.7</ele>
        <time>2012-02-22T13:08:34Z</time>
      </trkpt>
      <trkpt lat="45.5705" lon="6.80817">
        <ele>2388.1</ele>
        <time>2012-02-22T13:08:40Z</time>
      </trkpt>
      <trkpt lat="45.57053" lon="6.80821">
        <ele>2387.2</ele>
        <time>2012-02-22T13:08:42Z</time>
      </trkpt>
      <trkpt lat="45.57056" lon="6.80823">
        <ele>2386.8</ele>
        <time>2012-02-22T13:08:43Z</time>
      </trkpt>
      <trkpt lat="45.5706" lon="6.80825">
        <ele>2386.5</ele>
        <time>2012-02-22T13:08:44Z</time>
      </trkpt>
      <trkpt lat="45.57065" lon="6.80828">
        <ele>2386.2</ele>
        <time>2012-02-22T13:08:45Z</time>
      </trkpt>
      <trkpt lat="45.57069" lon="6.80834">
        <ele>2385.8</ele>
        <time>2012-02-22T13:08:46Z</time>
      </trkpt>
      <trkpt lat="45.57071" lon="6.80841">
        <ele>2385.5</ele>
        <time>2012-02-22T13:08:47Z</time>
      </trkpt>
      <trkpt lat="45.57073" lon="6.80846">
        <ele>2385.2</ele>
        <time>2012-02-22T13:08:48Z</time>
      </trkpt>
      <trkpt lat="45.57074" lon="6.80847">
        <ele>2383.9</ele>
        <time>2012-02-22T13:08:49Z</time>
      </trkpt>
      <trkpt lat="45.57074" lon="6.80847">
        <ele>2382.9</ele>
        <time>2012-02-22T13:08:50Z</time>
      </trkpt>
      <trkpt lat="45.57074" lon="6.80847">
        <ele>2382.2</ele>
        <time>2012-02-22T13:08:51Z</time>
      </trkpt>
      <trkpt lat="45.57074" lon="6.80848">
        <ele>2381.4</ele>
        <time>2012-02-22T13:08:52Z</time>
      </trkpt>
      <trkpt lat="45.57075" lon="6.80848">
        <ele>2380.8</ele>
        <time>2012-02-22T13:08:53Z</time>
      </trkpt>
      <trkpt lat="45.57077" lon="6.80849">
        <ele>2380.4</ele>
        <time>2012-02-22T13:08:54Z</time>
      </trkpt>
      <trkpt lat="45.57079" lon="6.80852">
        <ele>2380.1</ele>
        <time>2012-02-22T13:08:55Z</time>
      </trkpt>
      <trkpt lat="45.57083" lon="6.80855">
        <ele>2379.7</ele>
        <time>2012-02-22T13:08:56Z</time>
      </trkpt>
      <trkpt lat="45.57091" lon="6.80853">
        <ele>2379.2</ele>
        <time>2012-02-22T13:08:58Z</time>
      </trkpt>
      <trkpt lat="45.57095" lon="6.8085">
        <ele>2377.3</ele>
        <time>2012-02-22T13:08:59Z</time>
      </trkpt>
      <trkpt lat="45.57099" lon="6.80846">
        <ele>2375.8</ele>
        <time>2012-02-22T13:09:00Z</time>
      </trkpt>
      <trkpt lat="45.57103" lon="6.80846">
        <ele>2374.6</ele>
        <time>2012-02-22T13:09:01Z</time>
      </trkpt>
      <trkpt lat="45.57106" lon="6.80847">
        <ele>2372</ele>
        <time>2012-02-22T13:09:02Z</time>
      </trkpt>
      <trkpt lat="45.57108" lon="6.80847">
        <ele>2370</ele>
        <time>2012-02-22T13:09:03Z</time>
      </trkpt>
      <trkpt lat="45.57109" lon="6.80846">
        <ele>2368.5</ele>
        <time>2012-02-22T13:09:04Z</time>
      </trkpt>
      <trkpt lat="45.57109" lon="6.80844">
        <ele>2366.6</ele>
        <time>2012-02-22T13:09:05Z</time>
      </trkpt>
      <trkpt lat="45.5711" lon="6.80842">
        <ele>2365.2</ele>
        <time>2012-02-22T13:09:06Z</time>
      </trkpt>
      <trkpt lat="45.57112" lon="6.80841">
        <ele>2362.9</ele>
        <time>2012-02-22T13:09:08Z</time>
      </trkpt>
      <trkpt lat="45.57113" lon="6.8084">
        <ele>2362</ele>
        <time>2012-02-22T13:09:09Z</time>
      </trkpt>
      <trkpt lat="45.57113" lon="6.80838">
        <ele>2361.4</ele>
        <time>2012-02-22T13:09:10Z</time>
      </trkpt>
      <trkpt lat="45.57112" lon="6.80835">
        <ele>2360.8</ele>
        <time>2012-02-22T13:09:11Z</time>
      </trkpt>
      <trkpt lat="45.57111" lon="6.8083">
        <ele>2360.2</ele>
        <time>2012-02-22T13:09:13Z</time>
      </trkpt>
      <trkpt lat="45.57109" lon="6.80825">
        <ele>2359.3</ele>
        <time>2012-02-22T13:09:16Z</time>
      </trkpt>
      <trkpt lat="45.57108" lon="6.80824">
        <ele>2359.1</ele>
        <time>2012-02-22T13:09:17Z</time>
      </trkpt>
      <trkpt lat="45.57108" lon="6.80824">
        <ele>2358.1</ele>
        <time>2012-02-22T13:09:18Z</time>
      </trkpt>
      <trkpt lat="45.57107" lon="6.80823">
        <ele>2357.4</ele>
        <time>2012-02-22T13:09:19Z</time>
      </trkpt>
      <trkpt lat="45.57106" lon="6.80821">
        <ele>2356.9</ele>
        <time>2012-02-22T13:09:20Z</time>
      </trkpt>
      <trkpt lat="45.57102" lon="6.80806">
        <ele>2355.9</ele>
        <time>2012-02-22T13:09:24Z</time>
      </trkpt>
      <trkpt lat="45.57099" lon="6.80798">
        <ele>2355.4</ele>
        <time>2012-02-22T13:09:26Z</time>
      </trkpt>
      <trkpt lat="45.57094" lon="6.80792">
        <ele>2353.8</ele>
        <time>2012-02-22T13:09:28Z</time>
      </trkpt>
      <trkpt lat="45.57093" lon="6.80789">
        <ele>2353.2</ele>
        <time>2012-02-22T13:09:29Z</time>
      </trkpt>
      <trkpt lat="45.57093" lon="6.80787">
        <ele>2352.8</ele>
        <time>2012-02-22T13:09:30Z</time>
      </trkpt>
      <trkpt lat="45.57093" lon="6.80784">
        <ele>2352.8</ele>
        <time>2012-02-22T13:09:31Z</time>
      </trkpt>
      <trkpt lat="45.57095" lon="6.8078">
        <ele>2352.9</ele>
        <time>2012-02-22T13:09:32Z</time>
      </trkpt>
      <trkpt lat="45.57097" lon="6.80776">
        <ele>2352.9</ele>
        <time>2012-02-22T13:09:33Z</time>
      </trkpt>
      <trkpt lat="45.571" lon="6.80773">
        <ele>2353</ele>
        <time>2012-02-22T13:09:34Z</time>
      </trkpt>
      <trkpt lat="45.57101" lon="6.8077">
        <ele>2353</ele>
        <time>2012-02-22T13:09:35Z</time>
      </trkpt>
      <trkpt lat="45.57101" lon="6.80768">
        <ele>2353.1</ele>
        <time>2012-02-22T13:09:36Z</time>
      </trkpt>
      <trkpt lat="45.57074" lon="6.80726">
        <ele>2350.6</ele>
        <time>2012-02-22T13:09:47Z</time>
      </trkpt>
      <trkpt lat="45.5707" lon="6.80721">
        <ele>2350.1</ele>
        <time>2012-02-22T13:09:48Z</time>
      </trkpt>
      <trkpt lat="45.57064" lon="6.80717">
        <ele>2349.8</ele>
        <time>2012-02-22T13:09:49Z</time>
      </trkpt>
      <trkpt lat="45.57059" lon="6.80715">
        <ele>2348.7</ele>
        <time>2012-02-22T13:09:50Z</time>
      </trkpt>
      <trkpt lat="45.57035" lon="6.8071">
        <ele>2346.4</ele>
        <time>2012-02-22T13:09:54Z</time>
      </trkpt>
      <trkpt lat="45.57008" lon="6.80702">
        <ele>2343.6</ele>
        <time>2012-02-22T13:09:59Z</time>
      </trkpt>
      <trkpt lat="45.56991" lon="6.80702">
        <ele>2342.1</ele>
        <time>2012-02-22T13:10:02Z</time>
      </trkpt>
      <trkpt lat="45.5698" lon="6.80698">
        <ele>2341.1</ele>
        <time>2012-02-22T13:10:04Z</time>
      </trkpt>
      <trkpt lat="45.56975" lon="6.80698">
        <ele>2340.7</ele>
        <time>2012-02-22T13:10:05Z</time>
      </trkpt>
      <trkpt lat="45.56962" lon="6.807">
        <ele>2339.8</ele>
        <time>2012-02-22T13:10:07Z</time>
      </trkpt>
      <trkpt lat="45.56956" lon="6.807">
        <ele>2339.5</ele>
        <time>2012-02-22T13:10:08Z</time>
      </trkpt>
      <trkpt lat="45.56942" lon="6.80695">
        <ele>2338.4</ele>
        <time>2012-02-22T13:10:10Z</time>
      </trkpt>
      <trkpt lat="45.5692" lon="6.80694">
        <ele>2336</ele>
        <time>2012-02-22T13:10:13Z</time>
      </trkpt>
      <trkpt lat="45.56843" lon="6.80636">
        <ele>2325.9</ele>
        <time>2012-02-22T13:10:26Z</time>
      </trkpt>
      <trkpt lat="45.56829" lon="6.80623">
        <ele>2323.2</ele>
        <time>2012-02-22T13:10:28Z</time>
      </trkpt>
      <trkpt lat="45.5682" lon="6.80617">
        <ele>2321.7</ele>
        <time>2012-02-22T13:10:29Z</time>
      </trkpt>
      <trkpt lat="45.56806" lon="6.80599">
        <ele>2318</ele>
        <time>2012-02-22T13:10:31Z</time>
      </trkpt>
      <trkpt lat="45.568" lon="6.80592">
        <ele>2316</ele>
        <time>2012-02-22T13:10:32Z</time>
      </trkpt>
      <trkpt lat="45.56796" lon="6.80584">
        <ele>2314.6</ele>
        <time>2012-02-22T13:10:33Z</time>
      </trkpt>
      <trkpt lat="45.56795" lon="6.80577">
        <ele>2313.5</ele>
        <time>2012-02-22T13:10:34Z</time>
      </trkpt>
      <trkpt lat="45.56792" lon="6.8057">
        <ele>2311.8</ele>
        <time>2012-02-22T13:10:35Z</time>
      </trkpt>
      <trkpt lat="45.56787" lon="6.80563">
        <ele>2309.5</ele>
        <time>2012-02-22T13:10:37Z</time>
      </trkpt>
      <trkpt lat="45.56787" lon="6.80559">
        <ele>2308.5</ele>
        <time>2012-02-22T13:10:38Z</time>
      </trkpt>
      <trkpt lat="45.56789" lon="6.80543">
        <ele>2305.5</ele>
        <time>2012-02-22T13:10:41Z</time>
      </trkpt>
      <trkpt lat="45.56789" lon="6.80536">
        <ele>2304.3</ele>
        <time>2012-02-22T13:10:42Z</time>
      </trkpt>
      <trkpt lat="45.56788" lon="6.8053">
        <ele>2303.4</ele>
        <time>2012-02-22T13:10:43Z</time>
      </trkpt>
      <trkpt lat="45.56765" lon="6.8049">
        <ele>2297.6</ele>
        <time>2012-02-22T13:10:47Z</time>
      </trkpt>
      <trkpt lat="45.56762" lon="6.80477">
        <ele>2295.4</ele>
        <time>2012-02-22T13:10:48Z</time>
      </trkpt>
      <trkpt lat="45.56762" lon="6.80466">
        <ele>2293.8</ele>
        <time>2012-02-22T13:10:49Z</time>
      </trkpt>
      <trkpt lat="45.56763" lon="6.80455">
        <ele>2292.5</ele>
        <time>2012-02-22T13:10:50Z</time>
      </trkpt>
      <trkpt lat="45.56763" lon="6.80448">
        <ele>2291</ele>
        <time>2012-02-22T13:10:51Z</time>
      </trkpt>
      <trkpt lat="45.56762" lon="6.80442">
        <ele>2288.9</ele>
        <time>2012-02-22T13:10:53Z</time>
      </trkpt>
      <trkpt lat="45.56762" lon="6.80439">
        <ele>2288.3</ele>
        <time>2012-02-22T13:10:54Z</time>
      </trkpt>
      <trkpt lat="45.56761" lon="6.80436">
        <ele>2287.6</ele>
        <time>2012-02-22T13:10:56Z</time>
      </trkpt>
      <trkpt lat="45.56761" lon="6.80436">
        <ele>2286.7</ele>
        <time>2012-02-22T13:10:57Z</time>
      </trkpt>
      <trkpt lat="45.56761" lon="6.80435">
        <ele>2286</ele>
        <time>2012-02-22T13:10:58Z</time>
      </trkpt>
      <trkpt lat="45.5676" lon="6.80424">
        <ele>2283.6</ele>
        <time>2012-02-22T13:11:17Z</time>
      </trkpt>
      <trkpt lat="45.56758" lon="6.80415">
        <ele>2282.9</ele>
        <time>2012-02-22T13:11:19Z</time>
      </trkpt>
      <trkpt lat="45.56761" lon="6.80403">
        <ele>2282.1</ele>
        <time>2012-02-22T13:11:21Z</time>
      </trkpt>
      <trkpt lat="45.5676" lon="6.80396">
        <ele>2281</ele>
        <time>2012-02-22T13:11:22Z</time>
      </trkpt>
      <trkpt lat="45.56757" lon="6.80388">
        <ele>2280.2</ele>
        <time>2012-02-22T13:11:23Z</time>
      </trkpt>
      <trkpt lat="45.56758" lon="6.80381">
        <ele>2279.6</ele>
        <time>2012-02-22T13:11:24Z</time>
      </trkpt>
      <trkpt lat="45.56761" lon="6.80374">
        <ele>2279.1</ele>
        <time>2012-02-22T13:11:25Z</time>
      </trkpt>
      <trkpt lat="45.56763" lon="6.80367">
        <ele>2277.1</ele>
        <time>2012-02-22T13:11:26Z</time>
      </trkpt>
      <trkpt lat="45.56763" lon="6.8036">
        <ele>2275.6</ele>
        <time>2012-02-22T13:11:27Z</time>
      </trkpt>
      <trkpt lat="45.56764" lon="6.80352">
        <ele>2274.5</ele>
        <time>2012-02-22T13:11:28Z</time>
      </trkpt>
      <trkpt lat="45.56763" lon="6.80344">
        <ele>2271.9</ele>
        <time>2012-02-22T13:11:29Z</time>
      </trkpt>
      <trkpt lat="45.56759" lon="6.80336">
        <ele>2270</ele>
        <time>2012-02-22T13:11:30Z</time>
      </trkpt>
      <trkpt lat="45.56757" lon="6.80325">
        <ele>2268.6</ele>
        <time>2012-02-22T13:11:31Z</time>
      </trkpt>
      <trkpt lat="45.56757" lon="6.80313">
        <ele>2265.5</ele>
        <time>2012-02-22T13:11:32Z</time>
      </trkpt>
      <trkpt lat="45.56752" lon="6.80303">
        <ele>2263.2</ele>
        <time>2012-02-22T13:11:33Z</time>
      </trkpt>
      <trkpt lat="45.56747" lon="6.80297">
        <ele>2261.5</ele>
        <time>2012-02-22T13:11:34Z</time>
      </trkpt>
      <trkpt lat="45.5674" lon="6.80293">
        <ele>2258.2</ele>
        <time>2012-02-22T13:11:35Z</time>
      </trkpt>
      <trkpt lat="45.56734" lon="6.80287">
        <ele>2255.7</ele>
        <time>2012-02-22T13:11:36Z</time>
      </trkpt>
      <trkpt lat="45.56732" lon="6.80277">
        <ele>2253.8</ele>
        <time>2012-02-22T13:11:37Z</time>
      </trkpt>
      <trkpt lat="45.56731" lon="6.80267">
        <ele>2251.3</ele>
        <time>2012-02-22T13:11:38Z</time>
      </trkpt>
      <trkpt lat="45.56727" lon="6.80258">
        <ele>2249.4</ele>
        <time>2012-02-22T13:11:39Z</time>
      </trkpt>
      <trkpt lat="45.56713" lon="6.80248">
        <ele>2246.9</ele>
        <time>2012-02-22T13:11:41Z</time>
      </trkpt>
      <trkpt lat="45.56708" lon="6.80239">
        <ele>2244.4</ele>
        <time>2012-02-22T13:11:42Z</time>
      </trkpt>
      <trkpt lat="45.56706" lon="6.80229">
        <ele>2242.5</ele>
        <time>2012-02-22T13:11:43Z</time>
      </trkpt>
      <trkpt lat="45.56703" lon="6.80219">
        <ele>2241.1</ele>
        <time>2012-02-22T13:11:44Z</time>
      </trkpt>
      <trkpt lat="45.56696" lon="6.80212">
        <ele>2238.6</ele>
        <time>2012-02-22T13:11:45Z</time>
      </trkpt>
      <trkpt lat="45.56688" lon="6.80207">
        <ele>2236.7</ele>
        <time>2012-02-22T13:11:46Z</time>
      </trkpt>
      <trkpt lat="45.56681" lon="6.802">
        <ele>2235.2</ele>
        <time>2012-02-22T13:11:47Z</time>
      </trkpt>
      <trkpt lat="45.56678" lon="6.8019">
        <ele>2233</ele>
        <time>2012-02-22T13:11:48Z</time>
      </trkpt>
      <trkpt lat="45.56676" lon="6.80178">
        <ele>2231.3</ele>
        <time>2012-02-22T13:11:49Z</time>
      </trkpt>
      <trkpt lat="45.56671" lon="6.80167">
        <ele>2230.1</ele>
        <time>2012-02-22T13:11:50Z</time>
      </trkpt>
      <trkpt lat="45.56663" lon="6.80157">
        <ele>2227</ele>
        <time>2012-02-22T13:11:51Z</time>
      </trkpt>
      <trkpt lat="45.56637" lon="6.80137">
        <ele>2220.3</ele>
        <time>2012-02-22T13:11:54Z</time>
      </trkpt>
      <trkpt lat="45.56631" lon="6.8013">
        <ele>2218.3</ele>
        <time>2012-02-22T13:11:55Z</time>
      </trkpt>
      <trkpt lat="45.56628" lon="6.80119">
        <ele>2216.8</ele>
        <time>2012-02-22T13:11:56Z</time>
      </trkpt>
      <trkpt lat="45.56625" lon="6.80107">
        <ele>2215.6</ele>
        <time>2012-02-22T13:11:57Z</time>
      </trkpt>
      <trkpt lat="45.56619" lon="6.80096">
        <ele>2214.1</ele>
        <time>2012-02-22T13:11:58Z</time>
      </trkpt>
      <trkpt lat="45.56614" lon="6.80089">
        <ele>2212.9</ele>
        <time>2012-02-22T13:11:59Z</time>
      </trkpt>
      <trkpt lat="45.56605" lon="6.80082">
        <ele>2211</ele>
        <time>2012-02-22T13:12:01Z</time>
      </trkpt>
      <trkpt lat="45.56561" lon="6.80057">
        <ele>2202.3</ele>
        <time>2012-02-22T13:12:13Z</time>
      </trkpt>
      <trkpt lat="45.56496" lon="6.80033">
        <ele>2196.4</ele>
        <time>2012-02-22T13:12:23Z</time>
      </trkpt>
      <trkpt lat="45.56489" lon="6.80029">
        <ele>2195.4</ele>
        <time>2012-02-22T13:12:24Z</time>
      </trkpt>
      <trkpt lat="45.56468" lon="6.80009">
        <ele>2192.3</ele>
        <time>2012-02-22T13:12:27Z</time>
      </trkpt>
      <trkpt lat="45.56457" lon="6.79995">
        <ele>2190.6</ele>
        <time>2012-02-22T13:12:29Z</time>
      </trkpt>
      <trkpt lat="45.56352" lon="6.7991">
        <ele>2177.3</ele>
        <time>2012-02-22T13:12:44Z</time>
      </trkpt>
      <trkpt lat="45.56348" lon="6.79903">
        <ele>2177</ele>
        <time>2012-02-22T13:12:45Z</time>
      </trkpt>
      <trkpt lat="45.56333" lon="6.79869">
        <ele>2175.5</ele>
        <time>2012-02-22T13:12:49Z</time>
      </trkpt>
      <trkpt lat="45.5633" lon="6.79857">
        <ele>2174.2</ele>
        <time>2012-02-22T13:12:51Z</time>
      </trkpt>
      <trkpt lat="45.5633" lon="6.79852">
        <ele>2173.9</ele>
        <time>2012-02-22T13:12:52Z</time>
      </trkpt>
      <trkpt lat="45.56329" lon="6.79847">
        <ele>2173.7</ele>
        <time>2012-02-22T13:12:53Z</time>
      </trkpt>
      <trkpt lat="45.56327" lon="6.79841">
        <ele>2173.5</ele>
        <time>2012-02-22T13:12:54Z</time>
      </trkpt>
      <trkpt lat="45.5632" lon="6.7983">
        <ele>2172.2</ele>
        <time>2012-02-22T13:12:56Z</time>
      </trkpt>
      <trkpt lat="45.5632" lon="6.79825">
        <ele>2171.8</ele>
        <time>2012-02-22T13:12:57Z</time>
      </trkpt>
      <trkpt lat="45.56321" lon="6.79821">
        <ele>2170.8</ele>
        <time>2012-02-22T13:12:58Z</time>
      </trkpt>
      <trkpt lat="45.56321" lon="6.79815">
        <ele>2170.1</ele>
        <time>2012-02-22T13:12:59Z</time>
      </trkpt>
      <trkpt lat="45.5632" lon="6.79812">
        <ele>2169.5</ele>
        <time>2012-02-22T13:13:00Z</time>
      </trkpt>
      <trkpt lat="45.56311" lon="6.798">
        <ele>2165.8</ele>
        <time>2012-02-22T13:13:04Z</time>
      </trkpt>
      <trkpt lat="45.5631" lon="6.79796">
        <ele>2165.7</ele>
        <time>2012-02-22T13:13:05Z</time>
      </trkpt>
      <trkpt lat="45.5631" lon="6.79789">
        <ele>2162.6</ele>
        <time>2012-02-22T13:13:18Z</time>
      </trkpt>
      <trkpt lat="45.56309" lon="6.79786">
        <ele>2162.8</ele>
        <time>2012-02-22T13:13:19Z</time>
      </trkpt>
      <trkpt lat="45.56226" lon="6.79626">
        <ele>2148</ele>
        <time>2012-02-22T13:13:39Z</time>
      </trkpt>
      <trkpt lat="45.56225" lon="6.79614">
        <ele>2146.4</ele>
        <time>2012-02-22T13:13:40Z</time>
      </trkpt>
      <trkpt lat="45.56225" lon="6.79589">
        <ele>2144.4</ele>
        <time>2012-02-22T13:13:42Z</time>
      </trkpt>
      <trkpt lat="45.56222" lon="6.79577">
        <ele>2141.9</ele>
        <time>2012-02-22T13:13:43Z</time>
      </trkpt>
      <trkpt lat="45.56213" lon="6.79559">
        <ele>2138.8</ele>
        <time>2012-02-22T13:13:45Z</time>
      </trkpt>
      <trkpt lat="45.56212" lon="6.79549">
        <ele>2136.7</ele>
        <time>2012-02-22T13:13:46Z</time>
      </trkpt>
      <trkpt lat="45.56212" lon="6.79539">
        <ele>2135.2</ele>
        <time>2012-02-22T13:13:47Z</time>
      </trkpt>
      <trkpt lat="45.56211" lon="6.79527">
        <ele>2134.1</ele>
        <time>2012-02-22T13:13:48Z</time>
      </trkpt>
      <trkpt lat="45.56207" lon="6.79517">
        <ele>2132.1</ele>
        <time>2012-02-22T13:13:49Z</time>
      </trkpt>
      <trkpt lat="45.56198" lon="6.79499">
        <ele>2129.5</ele>
        <time>2012-02-22T13:13:51Z</time>
      </trkpt>
      <trkpt lat="45.56196" lon="6.79489">
        <ele>2128.3</ele>
        <time>2012-02-22T13:13:52Z</time>
      </trkpt>
      <trkpt lat="45.56198" lon="6.79484">
        <ele>2127.3</ele>
        <time>2012-02-22T13:13:53Z</time>
      </trkpt>
      <trkpt lat="45.56216" lon="6.79476">
        <ele>2125.3</ele>
        <time>2012-02-22T13:13:56Z</time>
      </trkpt>
      <trkpt lat="45.56221" lon="6.79472">
        <ele>2124.6</ele>
        <time>2012-02-22T13:13:57Z</time>
      </trkpt>
      <trkpt lat="45.56222" lon="6.79467">
        <ele>2124.1</ele>
        <time>2012-02-22T13:13:58Z</time>
      </trkpt>
      <trkpt lat="45.56213" lon="6.79442">
        <ele>2118.1</ele>
        <time>2012-02-22T13:14:02Z</time>
      </trkpt>
      <trkpt lat="45.56212" lon="6.79437">
        <ele>2116</ele>
        <time>2012-02-22T13:14:04Z</time>
      </trkpt>
      <trkpt lat="45.56212" lon="6.79435">
        <ele>2115.1</ele>
        <time>2012-02-22T13:14:05Z</time>
      </trkpt>
      <trkpt lat="45.56211" lon="6.79426">
        <ele>2111.8</ele>
        <time>2012-02-22T13:14:21Z</time>
      </trkpt>
      <trkpt lat="45.56217" lon="6.79418">
        <ele>2111.6</ele>
        <time>2012-02-22T13:14:23Z</time>
      </trkpt>
      <trkpt lat="45.56217" lon="6.7941">
        <ele>2110.8</ele>
        <time>2012-02-22T13:14:24Z</time>
      </trkpt>
      <trkpt lat="45.56214" lon="6.7939">
        <ele>2109.7</ele>
        <time>2012-02-22T13:14:26Z</time>
      </trkpt>
      <trkpt lat="45.5621" lon="6.7937">
        <ele>2108.1</ele>
        <time>2012-02-22T13:14:28Z</time>
      </trkpt>
      <trkpt lat="45.56211" lon="6.7936">
        <ele>2107.1</ele>
        <time>2012-02-22T13:14:29Z</time>
      </trkpt>
      <trkpt lat="45.56215" lon="6.7935">
        <ele>2106.4</ele>
        <time>2012-02-22T13:14:30Z</time>
      </trkpt>
      <trkpt lat="45.56216" lon="6.7934">
        <ele>2104.8</ele>
        <time>2012-02-22T13:14:31Z</time>
      </trkpt>
      <trkpt lat="45.56216" lon="6.7933">
        <ele>2103.6</ele>
        <time>2012-02-22T13:14:32Z</time>
      </trkpt>
      <trkpt lat="45.56215" lon="6.79321">
        <ele>2102.7</ele>
        <time>2012-02-22T13:14:33Z</time>
      </trkpt>
      <trkpt lat="45.56203" lon="6.79298">
        <ele>2099.1</ele>
        <time>2012-02-22T13:14:36Z</time>
      </trkpt>
      <trkpt lat="45.56198" lon="6.79292">
        <ele>2098.3</ele>
        <time>2012-02-22T13:14:37Z</time>
      </trkpt>
      <trkpt lat="45.56189" lon="6.79283">
        <ele>2097.3</ele>
        <time>2012-02-22T13:14:39Z</time>
      </trkpt>
      <trkpt lat="45.56185" lon="6.79278">
        <ele>2096.5</ele>
        <time>2012-02-22T13:14:40Z</time>
      </trkpt>
      <trkpt lat="45.56163" lon="6.79231">
        <ele>2093</ele>
        <time>2012-02-22T13:14:48Z</time>
      </trkpt>
      <trkpt lat="45.56156" lon="6.79211">
        <ele>2091.8</ele>
        <time>2012-02-22T13:14:50Z</time>
      </trkpt>
      <trkpt lat="45.56138" lon="6.79183">
        <ele>2088.1</ele>
        <time>2012-02-22T13:14:54Z</time>
      </trkpt>
      <trkpt lat="45.56135" lon="6.79175">
        <ele>2087.2</ele>
        <time>2012-02-22T13:14:55Z</time>
      </trkpt>
      <trkpt lat="45.56125" lon="6.79154">
        <ele>2084.5</ele>
        <time>2012-02-22T13:14:58Z</time>
      </trkpt>
      <trkpt lat="45.56124" lon="6.7914">
        <ele>2083.3</ele>
        <time>2012-02-22T13:15:00Z</time>
      </trkpt>
      <trkpt lat="45.56116" lon="6.79124">
        <ele>2081.5</ele>
        <time>2012-02-22T13:15:03Z</time>
      </trkpt>
      <trkpt lat="45.56114" lon="6.7912">
        <ele>2080.6</ele>
        <time>2012-02-22T13:15:04Z</time>
      </trkpt>
      <trkpt lat="45.5611" lon="6.79119">
        <ele>2078.8</ele>
        <time>2012-02-22T13:15:06Z</time>
      </trkpt>
      <trkpt lat="45.56108" lon="6.79115">
        <ele>2077.2</ele>
        <time>2012-02-22T13:15:08Z</time>
      </trkpt>
      <trkpt lat="45.56108" lon="6.79115">
        <ele>2076.6</ele>
        <time>2012-02-22T13:15:09Z</time>
      </trkpt>
      <trkpt lat="45.56107" lon="6.79114">
        <ele>2076.2</ele>
        <time>2012-02-22T13:15:10Z</time>
      </trkpt>
      <trkpt lat="45.56107" lon="6.79113">
        <ele>2075.8</ele>
        <time>2012-02-22T13:15:11Z</time>
      </trkpt>
      <trkpt lat="45.56106" lon="6.79112">
        <ele>2075.1</ele>
        <time>2012-02-22T13:15:12Z</time>
      </trkpt>
      <trkpt lat="45.56106" lon="6.79111">
        <ele>2074.6</ele>
        <time>2012-02-22T13:15:13Z</time>
      </trkpt>
      <trkpt lat="45.56105" lon="6.7911">
        <ele>2074.2</ele>
        <time>2012-02-22T13:15:14Z</time>
      </trkpt>
      <trkpt lat="45.56104" lon="6.79108">
        <ele>2073.6</ele>
        <time>2012-02-22T13:15:15Z</time>
      </trkpt>
      <trkpt lat="45.56102" lon="6.79107">
        <ele>2073.1</ele>
        <time>2012-02-22T13:15:16Z</time>
      </trkpt>
      <trkpt lat="45.561" lon="6.79107">
        <ele>2072.8</ele>
        <time>2012-02-22T13:15:17Z</time>
      </trkpt>
      <trkpt lat="45.56095" lon="6.79108">
        <ele>2072.3</ele>
        <time>2012-02-22T13:15:19Z</time>
      </trkpt>
      <trkpt lat="45.56092" lon="6.79107">
        <ele>2072.2</ele>
        <time>2012-02-22T13:15:20Z</time>
      </trkpt>
      <trkpt lat="45.56086" lon="6.79103">
        <ele>2071.4</ele>
        <time>2012-02-22T13:15:22Z</time>
      </trkpt>
      <trkpt lat="45.56085" lon="6.79103">
        <ele>2070.9</ele>
        <time>2012-02-22T13:15:23Z</time>
      </trkpt>
      <trkpt lat="45.56084" lon="6.79103">
        <ele>2070.5</ele>
        <time>2012-02-22T13:15:24Z</time>
      </trkpt>
      <trkpt lat="45.56079" lon="6.79102">
        <ele>2069.6</ele>
        <time>2012-02-22T13:15:26Z</time>
      </trkpt>
      <trkpt lat="45.56052" lon="6.79085">
        <ele>2066.4</ele>
        <time>2012-02-22T13:15:32Z</time>
      </trkpt>
      <trkpt lat="45.56049" lon="6.7908">
        <ele>2065.7</ele>
        <time>2012-02-22T13:15:33Z</time>
      </trkpt>
      <trkpt lat="45.56047" lon="6.79075">
        <ele>2065.1</ele>
        <time>2012-02-22T13:15:34Z</time>
      </trkpt>
      <trkpt lat="45.56041" lon="6.79066">
        <ele>2063.5</ele>
        <time>2012-02-22T13:15:36Z</time>
      </trkpt>
      <trkpt lat="45.56039" lon="6.7906">
        <ele>2063</ele>
        <time>2012-02-22T13:15:37Z</time>
      </trkpt>
      <trkpt lat="45.5604" lon="6.79054">
        <ele>2061.9</ele>
        <time>2012-02-22T13:15:38Z</time>
      </trkpt>
      <trkpt lat="45.56043" lon="6.79049">
        <ele>2061.2</ele>
        <time>2012-02-22T13:15:39Z</time>
      </trkpt>
      <trkpt lat="45.56046" lon="6.79047">
        <ele>2060.6</ele>
        <time>2012-02-22T13:15:40Z</time>
      </trkpt>
      <trkpt lat="45.56054" lon="6.79045">
        <ele>2058.9</ele>
        <time>2012-02-22T13:15:42Z</time>
      </trkpt>
      <trkpt lat="45.56059" lon="6.79042">
        <ele>2058.4</ele>
        <time>2012-02-22T13:15:43Z</time>
      </trkpt>
      <trkpt lat="45.56064" lon="6.79037">
        <ele>2057</ele>
        <time>2012-02-22T13:15:44Z</time>
      </trkpt>
      <trkpt lat="45.5607" lon="6.79033">
        <ele>2055.9</ele>
        <time>2012-02-22T13:15:45Z</time>
      </trkpt>
      <trkpt lat="45.56077" lon="6.79033">
        <ele>2055</ele>
        <time>2012-02-22T13:15:46Z</time>
      </trkpt>
      <trkpt lat="45.56084" lon="6.79035">
        <ele>2053.3</ele>
        <time>2012-02-22T13:15:47Z</time>
      </trkpt>
      <trkpt lat="45.56091" lon="6.79034">
        <ele>2052</ele>
        <time>2012-02-22T13:15:48Z</time>
      </trkpt>
      <trkpt lat="45.56104" lon="6.79025">
        <ele>2049.2</ele>
        <time>2012-02-22T13:15:50Z</time>
      </trkpt>
      <trkpt lat="45.5611" lon="6.79024">
        <ele>2047.9</ele>
        <time>2012-02-22T13:15:51Z</time>
      </trkpt>
      <trkpt lat="45.56116" lon="6.79024">
        <ele>2046.9</ele>
        <time>2012-02-22T13:15:52Z</time>
      </trkpt>
      <trkpt lat="45.56143" lon="6.79017">
        <ele>2042.3</ele>
        <time>2012-02-22T13:15:57Z</time>
      </trkpt>
      <trkpt lat="45.56145" lon="6.79015">
        <ele>2041.5</ele>
        <time>2012-02-22T13:15:58Z</time>
      </trkpt>
      <trkpt lat="45.56147" lon="6.79014">
        <ele>2041</ele>
        <time>2012-02-22T13:15:59Z</time>
      </trkpt>
      <trkpt lat="45.5615" lon="6.79014">
        <ele>2039.8</ele>
        <time>2012-02-22T13:16:00Z</time>
      </trkpt>
      <trkpt lat="45.56153" lon="6.79014">
        <ele>2039</ele>
        <time>2012-02-22T13:16:01Z</time>
      </trkpt>
      <trkpt lat="45.5616" lon="6.79016">
        <ele>2037.3</ele>
        <time>2012-02-22T13:16:03Z</time>
      </trkpt>
      <trkpt lat="45.56163" lon="6.79015">
        <ele>2036.6</ele>
        <time>2012-02-22T13:16:04Z</time>
      </trkpt>
      <trkpt lat="45.56169" lon="6.79011">
        <ele>2033.6</ele>
        <time>2012-02-22T13:16:08Z</time>
      </trkpt>
      <trkpt lat="45.56173" lon="6.79006">
        <ele>2033.5</ele>
        <time>2012-02-22T13:16:23Z</time>
      </trkpt>
      <trkpt lat="45.56174" lon="6.79006">
        <ele>2033.7</ele>
        <time>2012-02-22T13:16:24Z</time>
      </trkpt>
      <trkpt lat="45.56176" lon="6.79006">
        <ele>2033.9</ele>
        <time>2012-02-22T13:16:25Z</time>
      </trkpt>
      <trkpt lat="45.5618" lon="6.79007">
        <ele>2034.3</ele>
        <time>2012-02-22T13:16:27Z</time>
      </trkpt>
      <trkpt lat="45.56193" lon="6.79004">
        <ele>2033</ele>
        <time>2012-02-22T13:16:31Z</time>
      </trkpt>
      <trkpt lat="45.56197" lon="6.79004">
        <ele>2032.4</ele>
        <time>2012-02-22T13:16:32Z</time>
      </trkpt>
      <trkpt lat="45.56201" lon="6.79005">
        <ele>2031.9</ele>
        <time>2012-02-22T13:16:33Z</time>
      </trkpt>
      <trkpt lat="45.56206" lon="6.79005">
        <ele>2031.5</ele>
        <time>2012-02-22T13:16:34Z</time>
      </trkpt>
      <trkpt lat="45.56214" lon="6.79004">
        <ele>2031.4</ele>
        <time>2012-02-22T13:16:36Z</time>
      </trkpt>
      <trkpt lat="45.56221" lon="6.79005">
        <ele>2030.3</ele>
        <time>2012-02-22T13:16:38Z</time>
      </trkpt>
      <trkpt lat="45.56224" lon="6.79004">
        <ele>2029.5</ele>
        <time>2012-02-22T13:16:39Z</time>
      </trkpt>
      <trkpt lat="45.56239" lon="6.79006">
        <ele>2027.4</ele>
        <time>2012-02-22T13:19:21Z</time>
      </trkpt>
      <trkpt lat="45.56239" lon="6.79007">
        <ele>2027.3</ele>
        <time>2012-02-22T13:19:22Z</time>
      </trkpt>
      <trkpt lat="45.56239" lon="6.7901">
        <ele>2027.4</ele>
        <time>2012-02-22T13:19:24Z</time>
      </trkpt>
      <trkpt lat="45.5624" lon="6.79012">
        <ele>2027.5</ele>
        <time>2012-02-22T13:19:25Z</time>
      </trkpt>
      <trkpt lat="45.56241" lon="6.79013">
        <ele>2027.6</ele>
        <time>2012-02-22T13:19:26Z</time>
      </trkpt>
      <trkpt lat="45.56243" lon="6.79015">
        <ele>2027.6</ele>
        <time>2012-02-22T13:19:27Z</time>
      </trkpt>
      <trkpt lat="45.56249" lon="6.79016">
        <ele>2026.8</ele>
        <time>2012-02-22T13:19:29Z</time>
      </trkpt>
      <trkpt lat="45.56254" lon="6.79016">
        <ele>2026.6</ele>
        <time>2012-02-22T13:19:30Z</time>
      </trkpt>
      <trkpt lat="45.56259" lon="6.79013">
        <ele>2025.8</ele>
        <time>2012-02-22T13:19:31Z</time>
      </trkpt>
      <trkpt lat="45.56264" lon="6.79009">
        <ele>2025.2</ele>
        <time>2012-02-22T13:19:32Z</time>
      </trkpt>
      <trkpt lat="45.56267" lon="6.79001">
        <ele>2024.8</ele>
        <time>2012-02-22T13:19:33Z</time>
      </trkpt>
      <trkpt lat="45.56267" lon="6.78994">
        <ele>2023.9</ele>
        <time>2012-02-22T13:19:34Z</time>
      </trkpt>
      <trkpt lat="45.56266" lon="6.78985">
        <ele>2023.3</ele>
        <time>2012-02-22T13:19:35Z</time>
      </trkpt>
      <trkpt lat="45.56263" lon="6.78977">
        <ele>2022.9</ele>
        <time>2012-02-22T13:19:36Z</time>
      </trkpt>
      <trkpt lat="45.56259" lon="6.78971">
        <ele>2021.5</ele>
        <time>2012-02-22T13:19:37Z</time>
      </trkpt>
      <trkpt lat="45.56255" lon="6.78963">
        <ele>2020.4</ele>
        <time>2012-02-22T13:19:38Z</time>
      </trkpt>
      <trkpt lat="45.56254" lon="6.78956">
        <ele>2019.6</ele>
        <time>2012-02-22T13:19:39Z</time>
      </trkpt>
      <trkpt lat="45.56253" lon="6.78951">
        <ele>2018.1</ele>
        <time>2012-02-22T13:19:40Z</time>
      </trkpt>
      <trkpt lat="45.5625" lon="6.78945">
        <ele>2017.1</ele>
        <time>2012-02-22T13:19:41Z</time>
      </trkpt>
      <trkpt lat="45.56228" lon="6.78924">
        <ele>2013.7</ele>
        <time>2012-02-22T13:19:45Z</time>
      </trkpt>
      <trkpt lat="45.56223" lon="6.78921">
        <ele>2013.1</ele>
        <time>2012-02-22T13:19:46Z</time>
      </trkpt>
      <trkpt lat="45.56217" lon="6.78919">
        <ele>2012.1</ele>
        <time>2012-02-22T13:19:47Z</time>
      </trkpt>
      <trkpt lat="45.56208" lon="6.78911">
        <ele>2010.7</ele>
        <time>2012-02-22T13:19:49Z</time>
      </trkpt>
      <trkpt lat="45.56199" lon="6.78907">
        <ele>2008.1</ele>
        <time>2012-02-22T13:19:51Z</time>
      </trkpt>
      <trkpt lat="45.56187" lon="6.78898">
        <ele>2006.4</ele>
        <time>2012-02-22T13:19:54Z</time>
      </trkpt>
      <trkpt lat="45.56144" lon="6.78877">
        <ele>2003.6</ele>
        <time>2012-02-22T13:20:02Z</time>
      </trkpt>
      <trkpt lat="45.56138" lon="6.78871">
        <ele>2002.9</ele>
        <time>2012-02-22T13:20:03Z</time>
      </trkpt>
      <trkpt lat="45.56091" lon="6.78803">
        <ele>1997</ele>
        <time>2012-02-22T13:20:11Z</time>
      </trkpt>
      <trkpt lat="45.56087" lon="6.78794">
        <ele>1995.9</ele>
        <time>2012-02-22T13:20:12Z</time>
      </trkpt>
      <trkpt lat="45.56079" lon="6.78768">
        <ele>1993.3</ele>
        <time>2012-02-22T13:20:15Z</time>
      </trkpt>
      <trkpt lat="45.56057" lon="6.78707">
        <ele>1988.9</ele>
        <time>2012-02-22T13:20:21Z</time>
      </trkpt>
      <trkpt lat="45.56052" lon="6.78697">
        <ele>1987.7</ele>
        <time>2012-02-22T13:20:22Z</time>
      </trkpt>
      <trkpt lat="45.5604" lon="6.78682">
        <ele>1986.1</ele>
        <time>2012-02-22T13:20:25Z</time>
      </trkpt>
      <trkpt lat="45.56038" lon="6.7868">
        <ele>1986.1</ele>
        <time>2012-02-22T13:20:26Z</time>
      </trkpt>
      <trkpt lat="45.56037" lon="6.78678">
        <ele>1986</ele>
        <time>2012-02-22T13:20:27Z</time>
      </trkpt>
      <trkpt lat="45.56036" lon="6.78676">
        <ele>1986.7</ele>
        <time>2012-02-22T13:20:28Z</time>
      </trkpt>
      <trkpt lat="45.56035" lon="6.78675">
        <ele>1987.2</ele>
        <time>2012-02-22T13:20:29Z</time>
      </trkpt>
      <trkpt lat="45.56034" lon="6.78673">
        <ele>1987.6</ele>
        <time>2012-02-22T13:20:30Z</time>
      </trkpt>
      <trkpt lat="45.56033" lon="6.78671">
        <ele>1988.1</ele>
        <time>2012-02-22T13:20:31Z</time>
      </trkpt>
      <trkpt lat="45.56033" lon="6.78669">
        <ele>1988.4</ele>
        <time>2012-02-22T13:20:32Z</time>
      </trkpt>
      <trkpt lat="45.56032" lon="6.78668">
        <ele>1988.7</ele>
        <time>2012-02-22T13:20:33Z</time>
      </trkpt>
      <trkpt lat="45.56031" lon="6.78667">
        <ele>1988.9</ele>
        <time>2012-02-22T13:20:34Z</time>
      </trkpt>
      <trkpt lat="45.56029" lon="6.78664">
        <ele>1989</ele>
        <time>2012-02-22T13:20:36Z</time>
      </trkpt>
      <trkpt lat="45.56029" lon="6.78663">
        <ele>1989.1</ele>
        <time>2012-02-22T13:20:37Z</time>
      </trkpt>
      <trkpt lat="45.5603" lon="6.78661">
        <ele>1988.8</ele>
        <time>2012-02-22T13:20:38Z</time>
      </trkpt>
      <trkpt lat="45.56031" lon="6.78659">
        <ele>1988.6</ele>
        <time>2012-02-22T13:20:39Z</time>
      </trkpt>
      <trkpt lat="45.56034" lon="6.78658">
        <ele>1988.4</ele>
        <time>2012-02-22T13:20:40Z</time>
      </trkpt>
      <trkpt lat="45.56036" lon="6.78656">
        <ele>1987.8</ele>
        <time>2012-02-22T13:20:41Z</time>
      </trkpt>
      <trkpt lat="45.56036" lon="6.78653">
        <ele>1987.4</ele>
        <time>2012-02-22T13:20:42Z</time>
      </trkpt>
      <trkpt lat="45.56029" lon="6.78596">
        <ele>1980.8</ele>
        <time>2012-02-22T13:20:51Z</time>
      </trkpt>
      <trkpt lat="45.56013" lon="6.78515">
        <ele>1976.8</ele>
        <time>2012-02-22T13:21:04Z</time>
      </trkpt>
      <trkpt lat="45.56011" lon="6.78508">
        <ele>1976.6</ele>
        <time>2012-02-22T13:21:05Z</time>
      </trkpt>
      <trkpt lat="45.55897" lon="6.78266">
        <ele>1957.7</ele>
        <time>2012-02-22T13:21:34Z</time>
      </trkpt>
      <trkpt lat="45.55871" lon="6.78211">
        <ele>1953.3</ele>
        <time>2012-02-22T13:21:42Z</time>
      </trkpt>
      <trkpt lat="45.55798" lon="6.78089">
        <ele>1944.2</ele>
        <time>2012-02-22T13:21:56Z</time>
      </trkpt>
      <trkpt lat="45.55768" lon="6.78054">
        <ele>1942.2</ele>
        <time>2012-02-22T13:22:01Z</time>
      </trkpt>
      <trkpt lat="45.55761" lon="6.78039">
        <ele>1941.9</ele>
        <time>2012-02-22T13:22:03Z</time>
      </trkpt>
      <trkpt lat="45.55743" lon="6.77983">
        <ele>1939.5</ele>
        <time>2012-02-22T13:22:12Z</time>
      </trkpt>
      <trkpt lat="45.55743" lon="6.77978">
        <ele>1939.4</ele>
        <time>2012-02-22T13:22:13Z</time>
      </trkpt>
      <trkpt lat="45.55739" lon="6.77969">
        <ele>1940.1</ele>
        <time>2012-02-22T13:22:16Z</time>
      </trkpt>
      <trkpt lat="45.55737" lon="6.77967">
        <ele>1939.8</ele>
        <time>2012-02-22T13:22:17Z</time>
      </trkpt>
      <trkpt lat="45.55734" lon="6.77964">
        <ele>1939.5</ele>
        <time>2012-02-22T13:22:19Z</time>
      </trkpt>
      <trkpt lat="45.55732" lon="6.77962">
        <ele>1940.7</ele>
        <time>2012-02-22T13:22:21Z</time>
      </trkpt>
      <trkpt lat="45.55732" lon="6.77961">
        <ele>1941</ele>
        <time>2012-02-22T13:22:22Z</time>
      </trkpt>
      <trkpt lat="45.55731" lon="6.7796">
        <ele>1941.5</ele>
        <time>2012-02-22T13:22:23Z</time>
      </trkpt>
      <trkpt lat="45.55731" lon="6.77959">
        <ele>1941.8</ele>
        <time>2012-02-22T13:22:24Z</time>
      </trkpt>
      <trkpt lat="45.5573" lon="6.77959">
        <ele>1942.1</ele>
        <time>2012-02-22T13:22:25Z</time>
      </trkpt>
      <trkpt lat="45.5573" lon="6.77958">
        <ele>1941.4</ele>
        <time>2012-02-22T13:22:26Z</time>
      </trkpt>
      <trkpt lat="45.55729" lon="6.77957">
        <ele>1940.9</ele>
        <time>2012-02-22T13:22:27Z</time>
      </trkpt>
      <trkpt lat="45.55729" lon="6.77956">
        <ele>1940.5</ele>
        <time>2012-02-22T13:22:28Z</time>
      </trkpt>
      <trkpt lat="45.55728" lon="6.77955">
        <ele>1940.2</ele>
        <time>2012-02-22T13:22:29Z</time>
      </trkpt>
      <trkpt lat="45.55728" lon="6.77955">
        <ele>1939.9</ele>
        <time>2012-02-22T13:22:30Z</time>
      </trkpt>
      <trkpt lat="45.55727" lon="6.77954">
        <ele>1939.7</ele>
        <time>2012-02-22T13:22:31Z</time>
      </trkpt>
      <trkpt lat="45.55726" lon="6.77953">
        <ele>1939.6</ele>
        <time>2012-02-22T13:22:32Z</time>
      </trkpt>
      <trkpt lat="45.55725" lon="6.77952">
        <ele>1939.5</ele>
        <time>2012-02-22T13:22:33Z</time>
      </trkpt>
      <trkpt lat="45.55722" lon="6.77949">
        <ele>1939.5</ele>
        <time>2012-02-22T13:22:35Z</time>
      </trkpt>
      <trkpt lat="45.5571" lon="6.7794">
        <ele>1939.7</ele>
        <time>2012-02-22T13:22:43Z</time>
      </trkpt>
      <trkpt lat="45.55705" lon="6.77933">
        <ele>1939.4</ele>
        <time>2012-02-22T13:22:46Z</time>
      </trkpt>
      <trkpt lat="45.55702" lon="6.7793">
        <ele>1939.3</ele>
        <time>2012-02-22T13:22:47Z</time>
      </trkpt>
      <trkpt lat="45.55699" lon="6.77929">
        <ele>1939.3</ele>
        <time>2012-02-22T13:22:48Z</time>
      </trkpt>
      <trkpt lat="45.55674" lon="6.77926">
        <ele>1938</ele>
        <time>2012-02-22T13:22:55Z</time>
      </trkpt>
      <trkpt lat="45.55671" lon="6.77925">
        <ele>1937.8</ele>
        <time>2012-02-22T13:22:56Z</time>
      </trkpt>
      <trkpt lat="45.55661" lon="6.77918">
        <ele>1936.3</ele>
        <time>2012-02-22T13:22:59Z</time>
      </trkpt>
      <trkpt lat="45.5564" lon="6.77915">
        <ele>1932.9</ele>
        <time>2012-02-22T13:23:04Z</time>
      </trkpt>
      <trkpt lat="45.55639" lon="6.77915">
        <ele>1932.2</ele>
        <time>2012-02-22T13:23:05Z</time>
      </trkpt>
      <trkpt lat="45.55638" lon="6.77915">
        <ele>1931.6</ele>
        <time>2012-02-22T13:23:06Z</time>
      </trkpt>
      <trkpt lat="45.55638" lon="6.77916">
        <ele>1931.2</ele>
        <time>2012-02-22T13:23:07Z</time>
      </trkpt>
      <trkpt lat="45.55637" lon="6.77915">
        <ele>1931.3</ele>
        <time>2012-02-22T13:23:08Z</time>
      </trkpt>
      <trkpt lat="45.55634" lon="6.77915">
        <ele>1931.6</ele>
        <time>2012-02-22T13:23:10Z</time>
      </trkpt>
      <trkpt lat="45.55631" lon="6.77914">
        <ele>1930.7</ele>
        <time>2012-02-22T13:23:11Z</time>
      </trkpt>
      <trkpt lat="45.55629" lon="6.77912">
        <ele>1930.1</ele>
        <time>2012-02-22T13:23:12Z</time>
      </trkpt>
      <trkpt lat="45.55626" lon="6.77909">
        <ele>1929.6</ele>
        <time>2012-02-22T13:23:13Z</time>
      </trkpt>
      <trkpt lat="45.55623" lon="6.77904">
        <ele>1929.3</ele>
        <time>2012-02-22T13:23:14Z</time>
      </trkpt>
      <trkpt lat="45.55618" lon="6.77886">
        <ele>1927.9</ele>
        <time>2012-02-22T13:23:17Z</time>
      </trkpt>
      <trkpt lat="45.55616" lon="6.77863">
        <ele>1926.3</ele>
        <time>2012-02-22T13:23:20Z</time>
      </trkpt>
      <trkpt lat="45.55613" lon="6.77854">
        <ele>1925.5</ele>
        <time>2012-02-22T13:23:21Z</time>
      </trkpt>
      <trkpt lat="45.55609" lon="6.77846">
        <ele>1924.8</ele>
        <time>2012-02-22T13:23:22Z</time>
      </trkpt>
      <trkpt lat="45.55603" lon="6.77839">
        <ele>1924.4</ele>
        <time>2012-02-22T13:23:23Z</time>
      </trkpt>
      <trkpt lat="45.55596" lon="6.77834">
        <ele>1923.6</ele>
        <time>2012-02-22T13:23:24Z</time>
      </trkpt>
      <trkpt lat="45.55572" lon="6.77829">
        <ele>1921.2</ele>
        <time>2012-02-22T13:23:27Z</time>
      </trkpt>
      <trkpt lat="45.55527" lon="6.77835">
        <ele>1915.6</ele>
        <time>2012-02-22T13:23:33Z</time>
      </trkpt>
      <trkpt lat="45.5552" lon="6.77831">
        <ele>1914.9</ele>
        <time>2012-02-22T13:23:34Z</time>
      </trkpt>
      <trkpt lat="45.55514" lon="6.77824">
        <ele>1914.4</ele>
        <time>2012-02-22T13:23:35Z</time>
      </trkpt>
      <trkpt lat="45.55511" lon="6.77814">
        <ele>1914</ele>
        <time>2012-02-22T13:23:36Z</time>
      </trkpt>
      <trkpt lat="45.55511" lon="6.77802">
        <ele>1912.8</ele>
        <time>2012-02-22T13:23:37Z</time>
      </trkpt>
      <trkpt lat="45.55513" lon="6.7779">
        <ele>1911.8</ele>
        <time>2012-02-22T13:23:38Z</time>
      </trkpt>
      <trkpt lat="45.55515" lon="6.77779">
        <ele>1911.1</ele>
        <time>2012-02-22T13:23:39Z</time>
      </trkpt>
      <trkpt lat="45.55549" lon="6.77687">
        <ele>1904.3</ele>
        <time>2012-02-22T13:23:48Z</time>
      </trkpt>
      <trkpt lat="45.55551" lon="6.77677">
        <ele>1903.1</ele>
        <time>2012-02-22T13:23:49Z</time>
      </trkpt>
      <trkpt lat="45.55554" lon="6.77651">
        <ele>1900.4</ele>
        <time>2012-02-22T13:23:52Z</time>
      </trkpt>
      <trkpt lat="45.55552" lon="6.77633">
        <ele>1898.9</ele>
        <time>2012-02-22T13:23:54Z</time>
      </trkpt>
      <trkpt lat="45.5555" lon="6.77623">
        <ele>1898.5</ele>
        <time>2012-02-22T13:23:55Z</time>
      </trkpt>
      <trkpt lat="45.55547" lon="6.77614">
        <ele>1898</ele>
        <time>2012-02-22T13:23:56Z</time>
      </trkpt>
      <trkpt lat="45.55543" lon="6.77607">
        <ele>1897.6</ele>
        <time>2012-02-22T13:23:57Z</time>
      </trkpt>
      <trkpt lat="45.55532" lon="6.77594">
        <ele>1896.2</ele>
        <time>2012-02-22T13:23:59Z</time>
      </trkpt>
      <trkpt lat="45.55506" lon="6.77581">
        <ele>1893.4</ele>
        <time>2012-02-22T13:24:03Z</time>
      </trkpt>
      <trkpt lat="45.55484" lon="6.77576">
        <ele>1890.6</ele>
        <time>2012-02-22T13:24:06Z</time>
      </trkpt>
      <trkpt lat="45.55459" lon="6.77574">
        <ele>1887.3</ele>
        <time>2012-02-22T13:24:09Z</time>
      </trkpt>
      <trkpt lat="45.55451" lon="6.77572">
        <ele>1886.5</ele>
        <time>2012-02-22T13:24:10Z</time>
      </trkpt>
      <trkpt lat="45.55444" lon="6.77567">
        <ele>1885.9</ele>
        <time>2012-02-22T13:24:11Z</time>
      </trkpt>
      <trkpt lat="45.55393" lon="6.7749">
        <ele>1879.2</ele>
        <time>2012-02-22T13:24:20Z</time>
      </trkpt>
      <trkpt lat="45.55387" lon="6.77486">
        <ele>1878.5</ele>
        <time>2012-02-22T13:24:21Z</time>
      </trkpt>
      <trkpt lat="45.55381" lon="6.77484">
        <ele>1878</ele>
        <time>2012-02-22T13:24:22Z</time>
      </trkpt>
      <trkpt lat="45.55375" lon="6.77483">
        <ele>1877.7</ele>
        <time>2012-02-22T13:24:23Z</time>
      </trkpt>
      <trkpt lat="45.55358" lon="6.77484">
        <ele>1876.8</ele>
        <time>2012-02-22T13:24:26Z</time>
      </trkpt>
      <trkpt lat="45.55328" lon="6.77479">
        <ele>1874.6</ele>
        <time>2012-02-22T13:24:30Z</time>
      </trkpt>
      <trkpt lat="45.55309" lon="6.77482">
        <ele>1870.7</ele>
        <time>2012-02-22T13:24:33Z</time>
      </trkpt>
      <trkpt lat="45.55305" lon="6.77481">
        <ele>1869.7</ele>
        <time>2012-02-22T13:24:36Z</time>
      </trkpt>
      <trkpt lat="45.55283" lon="6.77429">
        <ele>1867</ele>
        <time>2012-02-22T13:24:42Z</time>
      </trkpt>
      <trkpt lat="45.55276" lon="6.77415">
        <ele>1866.3</ele>
        <time>2012-02-22T13:24:44Z</time>
      </trkpt>
      <trkpt lat="45.55273" lon="6.7741">
        <ele>1866.1</ele>
        <time>2012-02-22T13:24:45Z</time>
      </trkpt>
      <trkpt lat="45.55268" lon="6.77404">
        <ele>1865.5</ele>
        <time>2012-02-22T13:24:47Z</time>
      </trkpt>
      <trkpt lat="45.55266" lon="6.77401">
        <ele>1865.2</ele>
        <time>2012-02-22T13:24:48Z</time>
      </trkpt>
      <trkpt lat="45.55225" lon="6.77294">
        <ele>1857.7</ele>
        <time>2012-02-22T13:25:04Z</time>
      </trkpt>
      <trkpt lat="45.5522" lon="6.77277">
        <ele>1856.8</ele>
        <time>2012-02-22T13:25:06Z</time>
      </trkpt>
      <trkpt lat="45.55217" lon="6.7727">
        <ele>1856.6</ele>
        <time>2012-02-22T13:25:07Z</time>
      </trkpt>
      <trkpt lat="45.55188" lon="6.77231">
        <ele>1852.6</ele>
        <time>2012-02-22T13:25:13Z</time>
      </trkpt>
      <trkpt lat="45.55158" lon="6.77179">
        <ele>1848.4</ele>
        <time>2012-02-22T13:25:18Z</time>
      </trkpt>
      <trkpt lat="45.5515" lon="6.77169">
        <ele>1846.8</ele>
        <time>2012-02-22T13:25:19Z</time>
      </trkpt>
      <trkpt lat="45.55136" lon="6.7716">
        <ele>1844.8</ele>
        <time>2012-02-22T13:25:21Z</time>
      </trkpt>
      <trkpt lat="45.55133" lon="6.77155">
        <ele>1844.1</ele>
        <time>2012-02-22T13:25:22Z</time>
      </trkpt>
      <trkpt lat="45.55133" lon="6.77149">
        <ele>1843.6</ele>
        <time>2012-02-22T13:25:23Z</time>
      </trkpt>
      <trkpt lat="45.55131" lon="6.7714">
        <ele>1843.2</ele>
        <time>2012-02-22T13:25:24Z</time>
      </trkpt>
      <trkpt lat="45.55128" lon="6.77132">
        <ele>1842.3</ele>
        <time>2012-02-22T13:25:25Z</time>
      </trkpt>
      <trkpt lat="45.55106" lon="6.771">
        <ele>1836.8</ele>
        <time>2012-02-22T13:25:29Z</time>
      </trkpt>
      <trkpt lat="45.55061" lon="6.77065">
        <ele>1830.4</ele>
        <time>2012-02-22T13:25:35Z</time>
      </trkpt>
      <trkpt lat="45.55045" lon="6.7706">
        <ele>1828.1</ele>
        <time>2012-02-22T13:25:37Z</time>
      </trkpt>
      <trkpt lat="45.55038" lon="6.77061">
        <ele>1826.7</ele>
        <time>2012-02-22T13:25:38Z</time>
      </trkpt>
      <trkpt lat="45.54974" lon="6.77086">
        <ele>1817.5</ele>
        <time>2012-02-22T13:25:46Z</time>
      </trkpt>
      <trkpt lat="45.54889" lon="6.77144">
        <ele>1808.3</ele>
        <time>2012-02-22T13:25:56Z</time>
      </trkpt>
      <trkpt lat="45.54878" lon="6.77148">
        <ele>1806.4</ele>
        <time>2012-02-22T13:25:57Z</time>
      </trkpt>
      <trkpt lat="45.54866" lon="6.77148">
        <ele>1805</ele>
        <time>2012-02-22T13:25:58Z</time>
      </trkpt>
      <trkpt lat="45.54855" lon="6.77146">
        <ele>1803.9</ele>
        <time>2012-02-22T13:25:59Z</time>
      </trkpt>
      <trkpt lat="45.54843" lon="6.77141">
        <ele>1801.8</ele>
        <time>2012-02-22T13:26:00Z</time>
      </trkpt>
      <trkpt lat="45.54822" lon="6.77125">
        <ele>1799</ele>
        <time>2012-02-22T13:26:02Z</time>
      </trkpt>
      <trkpt lat="45.54803" lon="6.77119">
        <ele>1796</ele>
        <time>2012-02-22T13:26:04Z</time>
      </trkpt>
      <trkpt lat="45.54797" lon="6.77113">
        <ele>1795</ele>
        <time>2012-02-22T13:26:05Z</time>
      </trkpt>
      <trkpt lat="45.54789" lon="6.77099">
        <ele>1793.1</ele>
        <time>2012-02-22T13:26:07Z</time>
      </trkpt>
      <trkpt lat="45.54787" lon="6.77091">
        <ele>1792.2</ele>
        <time>2012-02-22T13:26:08Z</time>
      </trkpt>
      <trkpt lat="45.54788" lon="6.77086">
        <ele>1791.5</ele>
        <time>2012-02-22T13:26:09Z</time>
      </trkpt>
      <trkpt lat="45.54792" lon="6.77073">
        <ele>1785.6</ele>
        <time>2012-02-22T13:26:37Z</time>
      </trkpt>
      <trkpt lat="45.548" lon="6.77067">
        <ele>1785.1</ele>
        <time>2012-02-22T13:26:40Z</time>
      </trkpt>
      <trkpt lat="45.54849" lon="6.77038">
        <ele>1780.5</ele>
        <time>2012-02-22T13:26:46Z</time>
      </trkpt>
      <trkpt lat="45.54856" lon="6.77028">
        <ele>1779.3</ele>
        <time>2012-02-22T13:26:47Z</time>
      </trkpt>
      <trkpt lat="45.54865" lon="6.77004">
        <ele>1774.6</ele>
        <time>2012-02-22T13:26:49Z</time>
      </trkpt>
      <trkpt lat="45.54881" lon="6.76989">
        <ele>1770.4</ele>
        <time>2012-02-22T13:26:51Z</time>
      </trkpt>
      <trkpt lat="45.54885" lon="6.7698">
        <ele>1768.5</ele>
        <time>2012-02-22T13:26:52Z</time>
      </trkpt>
      <trkpt lat="45.54886" lon="6.7697">
        <ele>1767</ele>
        <time>2012-02-22T13:26:53Z</time>
      </trkpt>
      <trkpt lat="45.54889" lon="6.7696">
        <ele>1765.5</ele>
        <time>2012-02-22T13:26:54Z</time>
      </trkpt>
      <trkpt lat="45.54898" lon="6.76942">
        <ele>1763.4</ele>
        <time>2012-02-22T13:26:56Z</time>
      </trkpt>
      <trkpt lat="45.54904" lon="6.76921">
        <ele>1760.5</ele>
        <time>2012-02-22T13:26:58Z</time>
      </trkpt>
      <trkpt lat="45.54911" lon="6.76913">
        <ele>1758.8</ele>
        <time>2012-02-22T13:26:59Z</time>
      </trkpt>
      <trkpt lat="45.54929" lon="6.76898">
        <ele>1755.6</ele>
        <time>2012-02-22T13:27:01Z</time>
      </trkpt>
      <trkpt lat="45.54939" lon="6.76872">
        <ele>1752.9</ele>
        <time>2012-02-22T13:27:03Z</time>
      </trkpt>
      <trkpt lat="45.54948" lon="6.76861">
        <ele>1749</ele>
        <time>2012-02-22T13:27:04Z</time>
      </trkpt>
      <trkpt lat="45.54958" lon="6.76851">
        <ele>1746.2</ele>
        <time>2012-02-22T13:27:05Z</time>
      </trkpt>
      <trkpt lat="45.54973" lon="6.76827">
        <ele>1740.4</ele>
        <time>2012-02-22T13:27:07Z</time>
      </trkpt>
      <trkpt lat="45.54982" lon="6.76816">
        <ele>1737.8</ele>
        <time>2012-02-22T13:27:08Z</time>
      </trkpt>
      <trkpt lat="45.54997" lon="6.76785">
        <ele>1729.4</ele>
        <time>2012-02-22T13:27:11Z</time>
      </trkpt>
      <trkpt lat="45.54999" lon="6.76776">
        <ele>1727.4</ele>
        <time>2012-02-22T13:27:12Z</time>
      </trkpt>
      <trkpt lat="45.54998" lon="6.76766">
        <ele>1725.9</ele>
        <time>2012-02-22T13:27:13Z</time>
      </trkpt>
      <trkpt lat="45.55001" lon="6.76749">
        <ele>1720.6</ele>
        <time>2012-02-22T13:27:15Z</time>
      </trkpt>
      <trkpt lat="45.55" lon="6.76743">
        <ele>1718.9</ele>
        <time>2012-02-22T13:27:16Z</time>
      </trkpt>
      <trkpt lat="45.54996" lon="6.7674">
        <ele>1716.3</ele>
        <time>2012-02-22T13:27:17Z</time>
      </trkpt>
      <trkpt lat="45.54992" lon="6.76739">
        <ele>1714.3</ele>
        <time>2012-02-22T13:27:18Z</time>
      </trkpt>
      <trkpt lat="45.54988" lon="6.76739">
        <ele>1710.9</ele>
        <time>2012-02-22T13:27:20Z</time>
      </trkpt>
      <trkpt lat="45.54988" lon="6.76738">
        <ele>1709.4</ele>
        <time>2012-02-22T13:27:21Z</time>
      </trkpt>
      <trkpt lat="45.54988" lon="6.76737">
        <ele>1708.3</ele>
        <time>2012-02-22T13:27:22Z</time>
      </trkpt>
      <trkpt lat="45.54988" lon="6.76736">
        <ele>1706.7</ele>
        <time>2012-02-22T13:27:23Z</time>
      </trkpt>
      <trkpt lat="45.54988" lon="6.76735">
        <ele>1705.5</ele>
        <time>2012-02-22T13:27:24Z</time>
      </trkpt>
      <trkpt lat="45.54989" lon="6.76733">
        <ele>1704.5</ele>
        <time>2012-02-22T13:27:25Z</time>
      </trkpt>
      <trkpt lat="45.54994" lon="6.76727">
        <ele>1703.3</ele>
        <time>2012-02-22T13:27:28Z</time>
      </trkpt>
      <trkpt lat="45.54995" lon="6.76725">
        <ele>1703.1</ele>
        <time>2012-02-22T13:27:29Z</time>
      </trkpt>
      <trkpt lat="45.54999" lon="6.76718">
        <ele>1703.3</ele>
        <time>2012-02-22T13:27:31Z</time>
      </trkpt>
      <trkpt lat="45.55002" lon="6.76712">
        <ele>1703.3</ele>
        <time>2012-02-22T13:27:32Z</time>
      </trkpt>
      <trkpt lat="45.55005" lon="6.76703">
        <ele>1702.6</ele>
        <time>2012-02-22T13:27:33Z</time>
      </trkpt>
      <trkpt lat="45.55009" lon="6.76678">
        <ele>1701.5</ele>
        <time>2012-02-22T13:27:35Z</time>
      </trkpt>
      <trkpt lat="45.55021" lon="6.76656">
        <ele>1697.3</ele>
        <time>2012-02-22T13:27:37Z</time>
      </trkpt>
      <trkpt lat="45.55029" lon="6.76631">
        <ele>1693.1</ele>
        <time>2012-02-22T13:27:39Z</time>
      </trkpt>
      <trkpt lat="45.55036" lon="6.76621">
        <ele>1690.9</ele>
        <time>2012-02-22T13:27:40Z</time>
      </trkpt>
      <trkpt lat="45.55052" lon="6.76604">
        <ele>1686.3</ele>
        <time>2012-02-22T13:27:42Z</time>
      </trkpt>
      <trkpt lat="45.55068" lon="6.7658">
        <ele>1682.3</ele>
        <time>2012-02-22T13:27:44Z</time>
      </trkpt>
      <trkpt lat="45.55079" lon="6.76572">
        <ele>1681.1</ele>
        <time>2012-02-22T13:27:45Z</time>
      </trkpt>
      <trkpt lat="45.55091" lon="6.76568">
        <ele>1677.3</ele>
        <time>2012-02-22T13:27:46Z</time>
      </trkpt>
      <trkpt lat="45.55103" lon="6.76568">
        <ele>1674.5</ele>
        <time>2012-02-22T13:27:47Z</time>
      </trkpt>
      <trkpt lat="45.55114" lon="6.76565">
        <ele>1672.5</ele>
        <time>2012-02-22T13:27:48Z</time>
      </trkpt>
      <trkpt lat="45.5512" lon="6.76557">
        <ele>1669.8</ele>
        <time>2012-02-22T13:27:49Z</time>
      </trkpt>
      <trkpt lat="45.55131" lon="6.76538">
        <ele>1666.4</ele>
        <time>2012-02-22T13:27:51Z</time>
      </trkpt>
      <trkpt lat="45.55133" lon="6.76528">
        <ele>1663.6</ele>
        <time>2012-02-22T13:27:52Z</time>
      </trkpt>
      <trkpt lat="45.55131" lon="6.76518">
        <ele>1661.5</ele>
        <time>2012-02-22T13:27:53Z</time>
      </trkpt>
      <trkpt lat="45.55127" lon="6.76508">
        <ele>1659.9</ele>
        <time>2012-02-22T13:27:54Z</time>
      </trkpt>
      <trkpt lat="45.55126" lon="6.76498">
        <ele>1657.4</ele>
        <time>2012-02-22T13:27:55Z</time>
      </trkpt>
      <trkpt lat="45.55129" lon="6.76481">
        <ele>1654.1</ele>
        <time>2012-02-22T13:27:57Z</time>
      </trkpt>
      <trkpt lat="45.55129" lon="6.76472">
        <ele>1650.2</ele>
        <time>2012-02-22T13:27:59Z</time>
      </trkpt>
      <trkpt lat="45.5513" lon="6.76468">
        <ele>1649</ele>
        <time>2012-02-22T13:28:00Z</time>
      </trkpt>
      <trkpt lat="45.55132" lon="6.76463">
        <ele>1645.8</ele>
        <time>2012-02-22T13:28:02Z</time>
      </trkpt>
      <trkpt lat="45.55133" lon="6.76461">
        <ele>1644.8</ele>
        <time>2012-02-22T13:28:03Z</time>
      </trkpt>
      <trkpt lat="45.55133" lon="6.76458">
        <ele>1644</ele>
        <time>2012-02-22T13:28:04Z</time>
      </trkpt>
      <trkpt lat="45.55131" lon="6.76453">
        <ele>1642.3</ele>
        <time>2012-02-22T13:28:05Z</time>
      </trkpt>
      <trkpt lat="45.55124" lon="6.7644">
        <ele>1640.1</ele>
        <time>2012-02-22T13:28:07Z</time>
      </trkpt>
      <trkpt lat="45.55123" lon="6.76432">
        <ele>1638.9</ele>
        <time>2012-02-22T13:28:08Z</time>
      </trkpt>
      <trkpt lat="45.55123" lon="6.76424">
        <ele>1638</ele>
        <time>2012-02-22T13:28:09Z</time>
      </trkpt>
      <trkpt lat="45.55122" lon="6.76417">
        <ele>1637.3</ele>
        <time>2012-02-22T13:28:10Z</time>
      </trkpt>
      <trkpt lat="45.55119" lon="6.76412">
        <ele>1635.2</ele>
        <time>2012-02-22T13:28:11Z</time>
      </trkpt>
      <trkpt lat="45.55114" lon="6.76407">
        <ele>1633.7</ele>
        <time>2012-02-22T13:28:12Z</time>
      </trkpt>
      <trkpt lat="45.5511" lon="6.76399">
        <ele>1632.5</ele>
        <time>2012-02-22T13:28:13Z</time>
      </trkpt>
      <trkpt lat="45.55108" lon="6.76391">
        <ele>1630.1</ele>
        <time>2012-02-22T13:28:14Z</time>
      </trkpt>
      <trkpt lat="45.55109" lon="6.76385">
        <ele>1628.2</ele>
        <time>2012-02-22T13:28:15Z</time>
      </trkpt>
      <trkpt lat="45.5511" lon="6.76382">
        <ele>1626.8</ele>
        <time>2012-02-22T13:28:16Z</time>
      </trkpt>
      <trkpt lat="45.55112" lon="6.76379">
        <ele>1625.5</ele>
        <time>2012-02-22T13:28:17Z</time>
      </trkpt>
      <trkpt lat="45.55113" lon="6.76375">
        <ele>1624.5</ele>
        <time>2012-02-22T13:28:18Z</time>
      </trkpt>
      <trkpt lat="45.55112" lon="6.76367">
        <ele>1623.2</ele>
        <time>2012-02-22T13:28:20Z</time>
      </trkpt>
      <trkpt lat="45.55111" lon="6.76365">
        <ele>1622.3</ele>
        <time>2012-02-22T13:28:21Z</time>
      </trkpt>
      <trkpt lat="45.55111" lon="6.76363">
        <ele>1621.6</ele>
        <time>2012-02-22T13:28:22Z</time>
      </trkpt>
      <trkpt lat="45.55111" lon="6.76361">
        <ele>1620.8</ele>
        <time>2012-02-22T13:28:24Z</time>
      </trkpt>
      <trkpt lat="45.5511" lon="6.76361">
        <ele>1620.7</ele>
        <time>2012-02-22T13:28:25Z</time>
      </trkpt>
      <trkpt lat="45.55112" lon="6.76347">
        <ele>1621.2</ele>
        <time>2012-02-22T13:29:09Z</time>
      </trkpt>
      <trkpt lat="45.55112" lon="6.76346">
        <ele>1621.3</ele>
        <time>2012-02-22T13:29:10Z</time>
      </trkpt>
      <trkpt lat="45.55113" lon="6.76346">
        <ele>1621.4</ele>
        <time>2012-02-22T13:29:11Z</time>
      </trkpt>
      <trkpt lat="45.55103" lon="6.76267">
        <ele>1603.5</ele>
        <time>2012-02-22T13:36:39Z</time>
      </trkpt>
      <trkpt lat="45.55098" lon="6.76233">
        <ele>1594.3</ele>
        <time>2012-02-22T13:36:43Z</time>
      </trkpt>
      <trkpt lat="45.55099" lon="6.76211">
        <ele>1589.8</ele>
        <time>2012-02-22T13:36:45Z</time>
      </trkpt>
      <trkpt lat="45.5509" lon="6.76079">
        <ele>1563.1</ele>
        <time>2012-02-22T13:36:56Z</time>
      </trkpt>
      <trkpt lat="45.55088" lon="6.76069">
        <ele>1559.5</ele>
        <time>2012-02-22T13:36:57Z</time>
      </trkpt>
      <trkpt lat="45.55081" lon="6.76042">
        <ele>1553.2</ele>
        <time>2012-02-22T13:37:00Z</time>
      </trkpt>
      <trkpt lat="45.55078" lon="6.76034">
        <ele>1551</ele>
        <time>2012-02-22T13:37:01Z</time>
      </trkpt>
      <trkpt lat="45.55074" lon="6.76029">
        <ele>1549.4</ele>
        <time>2012-02-22T13:37:02Z</time>
      </trkpt>
      <trkpt lat="45.55065" lon="6.76018">
        <ele>1543.7</ele>
        <time>2012-02-22T13:37:05Z</time>
      </trkpt>
      <trkpt lat="45.55063" lon="6.76012">
        <ele>1542.2</ele>
        <time>2012-02-22T13:37:06Z</time>
      </trkpt>
      <trkpt lat="45.55061" lon="6.76">
        <ele>1538.5</ele>
        <time>2012-02-22T13:37:08Z</time>
      </trkpt>
      <trkpt lat="45.55058" lon="6.75994">
        <ele>1537.3</ele>
        <time>2012-02-22T13:37:09Z</time>
      </trkpt>
      <trkpt lat="45.55054" lon="6.75988">
        <ele>1534.9</ele>
        <time>2012-02-22T13:37:10Z</time>
      </trkpt>
      <trkpt lat="45.5504" lon="6.7597">
        <ele>1529.6</ele>
        <time>2012-02-22T13:37:13Z</time>
      </trkpt>
      <trkpt lat="45.55005" lon="6.759">
        <ele>1513.6</ele>
        <time>2012-02-22T13:37:23Z</time>
      </trkpt>
      <trkpt lat="45.55003" lon="6.75892">
        <ele>1512.2</ele>
        <time>2012-02-22T13:37:24Z</time>
      </trkpt>
      <trkpt lat="45.54977" lon="6.75191">
        <ele>1472.7</ele>
        <time>2012-02-22T13:38:16Z</time>
      </trkpt>
      <trkpt lat="45.54978" lon="6.75186">
        <ele>1472.5</ele>
        <time>2012-02-22T13:38:17Z</time>
      </trkpt>
      <trkpt lat="45.54979" lon="6.75175">
        <ele>1472.3</ele>
        <time>2012-02-22T13:38:20Z</time>
      </trkpt>
      <trkpt lat="45.54979" lon="6.75173">
        <ele>1472.5</ele>
        <time>2012-02-22T13:38:21Z</time>
      </trkpt>
      <trkpt lat="45.5498" lon="6.75171">
        <ele>1472.7</ele>
        <time>2012-02-22T13:38:22Z</time>
      </trkpt>
      <trkpt lat="45.5498" lon="6.75169">
        <ele>1472.8</ele>
        <time>2012-02-22T13:38:23Z</time>
      </trkpt>
      <trkpt lat="45.5498" lon="6.75167">
        <ele>1472.7</ele>
        <time>2012-02-22T13:38:24Z</time>
      </trkpt>
      <trkpt lat="45.54981" lon="6.75166">
        <ele>1472.7</ele>
        <time>2012-02-22T13:38:25Z</time>
      </trkpt>
      <trkpt lat="45.54982" lon="6.75164">
        <ele>1472.6</ele>
        <time>2012-02-22T13:38:26Z</time>
      </trkpt>
      <trkpt lat="45.54986" lon="6.75153">
        <ele>1472.4</ele>
        <time>2012-02-22T13:38:29Z</time>
      </trkpt>
      <trkpt lat="45.54988" lon="6.75138">
        <ele>1472.4</ele>
        <time>2012-02-22T13:38:31Z</time>
      </trkpt>
      <trkpt lat="45.5493" lon="6.74032">
        <ele>1536</ele>
        <time>2012-02-22T13:39:35Z</time>
      </trkpt>
      <trkpt lat="45.5493" lon="6.74028">
        <ele>1537.2</ele>
        <time>2012-02-22T13:39:36Z</time>
      </trkpt>
      <trkpt lat="45.54931" lon="6.74017">
        <ele>1543.9</ele>
        <time>2012-02-22T13:39:41Z</time>
      </trkpt>
      <trkpt lat="45.54931" lon="6.74017">
        <ele>1544.5</ele>
        <time>2012-02-22T13:39:42Z</time>
      </trkpt>
      <trkpt lat="45.54931" lon="6.74017">
        <ele>1545.4</ele>
        <time>2012-02-22T13:39:43Z</time>
      </trkpt>
      <trkpt lat="45.54932" lon="6.74017">
        <ele>1546.2</ele>
        <time>2012-02-22T13:39:44Z</time>
      </trkpt>
      <trkpt lat="45.54932" lon="6.74016">
        <ele>1546.7</ele>
        <time>2012-02-22T13:39:45Z</time>
      </trkpt>
      <trkpt lat="45.54932" lon="6.74015">
        <ele>1547.1</ele>
        <time>2012-02-22T13:39:46Z</time>
      </trkpt>
      <trkpt lat="45.54933" lon="6.74015">
        <ele>1547.6</ele>
        <time>2012-02-22T13:39:47Z</time>
      </trkpt>
      <trkpt lat="45.54933" lon="6.74014">
        <ele>1548.2</ele>
        <time>2012-02-22T13:39:49Z</time>
      </trkpt>
      <trkpt lat="45.54933" lon="6.74014">
        <ele>1548.8</ele>
        <time>2012-02-22T13:39:50Z</time>
      </trkpt>
      <trkpt lat="45.54934" lon="6.74013">
        <ele>1549.3</ele>
        <time>2012-02-22T13:39:51Z</time>
      </trkpt>
      <trkpt lat="45.54934" lon="6.74011">
        <ele>1549.7</ele>
        <time>2012-02-22T13:39:55Z</time>
      </trkpt>
      <trkpt lat="45.54935" lon="6.7401">
        <ele>1549.8</ele>
        <time>2012-02-22T13:39:56Z</time>
      </trkpt>
      <trkpt lat="45.54935" lon="6.74009">
        <ele>1549.8</ele>
        <time>2012-02-22T13:39:57Z</time>
      </trkpt>
      <trkpt lat="45.54935" lon="6.74008">
        <ele>1549.9</ele>
        <time>2012-02-22T13:39:58Z</time>
      </trkpt>
      <trkpt lat="45.54936" lon="6.74008">
        <ele>1550.2</ele>
        <time>2012-02-22T13:39:59Z</time>
      </trkpt>
      <trkpt lat="45.54936" lon="6.74007">
        <ele>1550.5</ele>
        <time>2012-02-22T13:40:00Z</time>
      </trkpt>
      <trkpt lat="45.54936" lon="6.74007">
        <ele>1550.7</ele>
        <time>2012-02-22T13:40:01Z</time>
      </trkpt>
      <trkpt lat="45.54936" lon="6.74006">
        <ele>1550.8</ele>
        <time>2012-02-22T13:40:02Z</time>
      </trkpt>
      <trkpt lat="45.54937" lon="6.74005">
        <ele>1550.4</ele>
        <time>2012-02-22T13:40:03Z</time>
      </trkpt>
      <trkpt lat="45.54938" lon="6.74009">
        <ele>1554.4</ele>
        <time>2012-02-22T13:40:23Z</time>
      </trkpt>
      <trkpt lat="45.54938" lon="6.7401">
        <ele>1554.8</ele>
        <time>2012-02-22T13:40:24Z</time>
      </trkpt>
      <trkpt lat="45.54938" lon="6.74012">
        <ele>1554</ele>
        <time>2012-02-22T13:40:27Z</time>
      </trkpt>
      <trkpt lat="45.54937" lon="6.74013">
        <ele>1554.5</ele>
        <time>2012-02-22T13:40:28Z</time>
      </trkpt>
      <trkpt lat="45.54937" lon="6.74014">
        <ele>1554.8</ele>
        <time>2012-02-22T13:40:29Z</time>
      </trkpt>
      <trkpt lat="45.54932" lon="6.74007">
        <ele>1556</ele>
        <time>2012-02-22T13:41:11Z</time>
      </trkpt>
      <trkpt lat="45.54931" lon="6.73997">
        <ele>1554.9</ele>
        <time>2012-02-22T13:41:31Z</time>
      </trkpt>
      <trkpt lat="45.54931" lon="6.73996">
        <ele>1555.1</ele>
        <time>2012-02-22T13:41:32Z</time>
      </trkpt>
      <trkpt lat="45.54932" lon="6.73996">
        <ele>1555.2</ele>
        <time>2012-02-22T13:41:33Z</time>
      </trkpt>
      <trkpt lat="45.54932" lon="6.73995">
        <ele>1555.3</ele>
        <time>2012-02-22T13:41:34Z</time>
      </trkpt>
      <trkpt lat="45.54932" lon="6.73994">
        <ele>1555.6</ele>
        <time>2012-02-22T13:41:36Z</time>
      </trkpt>
      <trkpt lat="45.54932" lon="6.73993">
        <ele>1555.7</ele>
        <time>2012-02-22T13:41:37Z</time>
      </trkpt>
      <trkpt lat="45.54932" lon="6.73992">
        <ele>1556.1</ele>
        <time>2012-02-22T13:41:38Z</time>
      </trkpt>
      <trkpt lat="45.54932" lon="6.7399">
        <ele>1556.4</ele>
        <time>2012-02-22T13:41:39Z</time>
      </trkpt>
      <trkpt lat="45.54933" lon="6.73989">
        <ele>1556.6</ele>
        <time>2012-02-22T13:41:40Z</time>
      </trkpt>
      <trkpt lat="45.54933" lon="6.73987">
        <ele>1555.7</ele>
        <time>2012-02-22T13:41:42Z</time>
      </trkpt>
      <trkpt lat="45.54933" lon="6.73985">
        <ele>1555.4</ele>
        <time>2012-02-22T13:41:43Z</time>
      </trkpt>
      <trkpt lat="45.54934" lon="6.73984">
        <ele>1555.2</ele>
        <time>2012-02-22T13:41:44Z</time>
      </trkpt>
      <trkpt lat="45.54934" lon="6.73982">
        <ele>1555.5</ele>
        <time>2012-02-22T13:41:45Z</time>
      </trkpt>
      <trkpt lat="45.54934" lon="6.73981">
        <ele>1555.8</ele>
        <time>2012-02-22T13:41:46Z</time>
      </trkpt>
      <trkpt lat="45.54934" lon="6.7398">
        <ele>1556.1</ele>
        <time>2012-02-22T13:41:47Z</time>
      </trkpt>
      <trkpt lat="45.54935" lon="6.73978">
        <ele>1556.1</ele>
        <time>2012-02-22T13:41:48Z</time>
      </trkpt>
      <trkpt lat="45.54936" lon="6.73977">
        <ele>1556.2</ele>
        <time>2012-02-22T13:41:49Z</time>
      </trkpt>
      <trkpt lat="45.54937" lon="6.73976">
        <ele>1556.2</ele>
        <time>2012-02-22T13:41:50Z</time>
      </trkpt>
      <trkpt lat="45.54938" lon="6.73975">
        <ele>1556</ele>
        <time>2012-02-22T13:41:51Z</time>
      </trkpt>
      <trkpt lat="45.54938" lon="6.73974">
        <ele>1555.9</ele>
        <time>2012-02-22T13:41:52Z</time>
      </trkpt>
      <trkpt lat="45.54939" lon="6.73973">
        <ele>1555.9</ele>
        <time>2012-02-22T13:41:53Z</time>
      </trkpt>
      <trkpt lat="45.54939" lon="6.73972">
        <ele>1555.9</ele>
        <time>2012-02-22T13:41:54Z</time>
      </trkpt>
      <trkpt lat="45.5494" lon="6.73971">
        <ele>1556</ele>
        <time>2012-02-22T13:41:55Z</time>
      </trkpt>
      <trkpt lat="45.54941" lon="6.7397">
        <ele>1556.1</ele>
        <time>2012-02-22T13:41:56Z</time>
      </trkpt>
      <trkpt lat="45.54942" lon="6.73969">
        <ele>1556.2</ele>
        <time>2012-02-22T13:41:57Z</time>
      </trkpt>
      <trkpt lat="45.54943" lon="6.73968">
        <ele>1556.2</ele>
        <time>2012-02-22T13:41:58Z</time>
      </trkpt>
      <trkpt lat="45.54943" lon="6.73966">
        <ele>1556.3</ele>
        <time>2012-02-22T13:41:59Z</time>
      </trkpt>
      <trkpt lat="45.54944" lon="6.73965">
        <ele>1556.3</ele>
        <time>2012-02-22T13:42:00Z</time>
      </trkpt>
      <trkpt lat="45.54944" lon="6.73965">
        <ele>1556</ele>
        <time>2012-02-22T13:42:01Z</time>
      </trkpt>
      <trkpt lat="45.54944" lon="6.73963">
        <ele>1555.8</ele>
        <time>2012-02-22T13:42:02Z</time>
      </trkpt>
      <trkpt lat="45.54944" lon="6.73962">
        <ele>1555.6</ele>
        <time>2012-02-22T13:42:03Z</time>
      </trkpt>
      <trkpt lat="45.54944" lon="6.73962">
        <ele>1555.3</ele>
        <time>2012-02-22T13:42:04Z</time>
      </trkpt>
      <trkpt lat="45.54944" lon="6.73958">
        <ele>1555.2</ele>
        <time>2012-02-22T13:42:09Z</time>
      </trkpt>
      <trkpt lat="45.54943" lon="6.73958">
        <ele>1555.1</ele>
        <time>2012-02-22T13:42:10Z</time>
      </trkpt>
      <trkpt lat="45.54943" lon="6.73957">
        <ele>1555.1</ele>
        <time>2012-02-22T13:42:11Z</time>
      </trkpt>
      <trkpt lat="45.54943" lon="6.73953">
        <ele>1554.7</ele>
        <time>2012-02-22T13:42:17Z</time>
      </trkpt>
      <trkpt lat="45.54943" lon="6.73952">
        <ele>1554.5</ele>
        <time>2012-02-22T13:42:18Z</time>
      </trkpt>
      <trkpt lat="45.54943" lon="6.73951">
        <ele>1554.4</ele>
        <time>2012-02-22T13:42:19Z</time>
      </trkpt>
      <trkpt lat="45.54943" lon="6.73949">
        <ele>1554.5</ele>
        <time>2012-02-22T13:42:20Z</time>
      </trkpt>
      <trkpt lat="45.54943" lon="6.73948">
        <ele>1554.7</ele>
        <time>2012-02-22T13:42:21Z</time>
      </trkpt>
      <trkpt lat="45.54942" lon="6.73947">
        <ele>1554.8</ele>
        <time>2012-02-22T13:42:22Z</time>
      </trkpt>
      <trkpt lat="45.54943" lon="6.73946">
        <ele>1554.9</ele>
        <time>2012-02-22T13:42:23Z</time>
      </trkpt>
      <trkpt lat="45.54943" lon="6.73944">
        <ele>1555</ele>
        <time>2012-02-22T13:42:24Z</time>
      </trkpt>
      <trkpt lat="45.54944" lon="6.73943">
        <ele>1555.1</ele>
        <time>2012-02-22T13:42:25Z</time>
      </trkpt>
      <trkpt lat="45.54944" lon="6.73942">
        <ele>1555.2</ele>
        <time>2012-02-22T13:42:26Z</time>
      </trkpt>
      <trkpt lat="45.54943" lon="6.73942">
        <ele>1555.2</ele>
        <time>2012-02-22T13:42:27Z</time>
      </trkpt>
      <trkpt lat="45.54943" lon="6.73941">
        <ele>1555.3</ele>
        <time>2012-02-22T13:42:28Z</time>
      </trkpt>
      <trkpt lat="45.54942" lon="6.7394">
        <ele>1554.9</ele>
        <time>2012-02-22T13:42:29Z</time>
      </trkpt>
      <trkpt lat="45.54942" lon="6.7394">
        <ele>1554.7</ele>
        <time>2012-02-22T13:42:30Z</time>
      </trkpt>
      <trkpt lat="45.54942" lon="6.73939">
        <ele>1554.5</ele>
        <time>2012-02-22T13:42:31Z</time>
      </trkpt>
      <trkpt lat="45.54941" lon="6.73938">
        <ele>1554.7</ele>
        <time>2012-02-22T13:42:32Z</time>
      </trkpt>
      <trkpt lat="45.54941" lon="6.73937">
        <ele>1554.8</ele>
        <time>2012-02-22T13:42:33Z</time>
      </trkpt>
      <trkpt lat="45.54941" lon="6.73937">
        <ele>1554.9</ele>
        <time>2012-02-22T13:42:34Z</time>
      </trkpt>
      <trkpt lat="45.5494" lon="6.73936">
        <ele>1555</ele>
        <time>2012-02-22T13:42:35Z</time>
      </trkpt>
      <trkpt lat="45.5494" lon="6.73936">
        <ele>1555.1</ele>
        <time>2012-02-22T13:42:36Z</time>
      </trkpt>
      <trkpt lat="45.54939" lon="6.73935">
        <ele>1555.1</ele>
        <time>2012-02-22T13:42:37Z</time>
      </trkpt>
      <trkpt lat="45.54939" lon="6.73934">
        <ele>1555.2</ele>
        <time>2012-02-22T13:42:38Z</time>
      </trkpt>
      <trkpt lat="45.54939" lon="6.73934">
        <ele>1555.2</ele>
        <time>2012-02-22T13:42:39Z</time>
      </trkpt>
      <trkpt lat="45.54939" lon="6.73933">
        <ele>1555.1</ele>
        <time>2012-02-22T13:42:40Z</time>
      </trkpt>
      <trkpt lat="45.54939" lon="6.73932">
        <ele>1555.1</ele>
        <time>2012-02-22T13:42:41Z</time>
      </trkpt>
      <trkpt lat="45.54939" lon="6.73931">
        <ele>1555.4</ele>
        <time>2012-02-22T13:42:42Z</time>
      </trkpt>
      <trkpt lat="45.54939" lon="6.7393">
        <ele>1555.6</ele>
        <time>2012-02-22T13:42:43Z</time>
      </trkpt>
      <trkpt lat="45.54939" lon="6.73929">
        <ele>1555.7</ele>
        <time>2012-02-22T13:42:44Z</time>
      </trkpt>
      <trkpt lat="45.54939" lon="6.73928">
        <ele>1555.5</ele>
        <time>2012-02-22T13:42:45Z</time>
      </trkpt>
      <trkpt lat="45.54938" lon="6.73928">
        <ele>1555.3</ele>
        <time>2012-02-22T13:42:46Z</time>
      </trkpt>
      <trkpt lat="45.54938" lon="6.73927">
        <ele>1555.1</ele>
        <time>2012-02-22T13:42:47Z</time>
      </trkpt>
      <trkpt lat="45.54938" lon="6.73926">
        <ele>1555.4</ele>
        <time>2012-02-22T13:42:48Z</time>
      </trkpt>
      <trkpt lat="45.54938" lon="6.73926">
        <ele>1555.6</ele>
        <time>2012-02-22T13:42:49Z</time>
      </trkpt>
      <trkpt lat="45.54937" lon="6.73925">
        <ele>1555.8</ele>
        <time>2012-02-22T13:42:50Z</time>
      </trkpt>
      <trkpt lat="45.54937" lon="6.73924">
        <ele>1555.9</ele>
        <time>2012-02-22T13:42:51Z</time>
      </trkpt>
      <trkpt lat="45.54938" lon="6.73923">
        <ele>1556</ele>
        <time>2012-02-22T13:42:52Z</time>
      </trkpt>
      <trkpt lat="45.54938" lon="6.73922">
        <ele>1556.1</ele>
        <time>2012-02-22T13:42:53Z</time>
      </trkpt>
      <trkpt lat="45.54938" lon="6.73921">
        <ele>1556.2</ele>
        <time>2012-02-22T13:42:54Z</time>
      </trkpt>
      <trkpt lat="45.54938" lon="6.7392">
        <ele>1556.4</ele>
        <time>2012-02-22T13:42:55Z</time>
      </trkpt>
      <trkpt lat="45.54937" lon="6.7392">
        <ele>1556.6</ele>
        <time>2012-02-22T13:42:56Z</time>
      </trkpt>
      <trkpt lat="45.54937" lon="6.73919">
        <ele>1556.8</ele>
        <time>2012-02-22T13:42:57Z</time>
      </trkpt>
      <trkpt lat="45.54937" lon="6.73918">
        <ele>1556.3</ele>
        <time>2012-02-22T13:42:58Z</time>
      </trkpt>
      <trkpt lat="45.54937" lon="6.73917">
        <ele>1555.9</ele>
        <time>2012-02-22T13:42:59Z</time>
      </trkpt>
      <trkpt lat="45.54937" lon="6.73917">
        <ele>1555.7</ele>
        <time>2012-02-22T13:43:00Z</time>
      </trkpt>
      <trkpt lat="45.54937" lon="6.73916">
        <ele>1555.8</ele>
        <time>2012-02-22T13:43:01Z</time>
      </trkpt>
      <trkpt lat="45.54937" lon="6.73915">
        <ele>1555.9</ele>
        <time>2012-02-22T13:43:02Z</time>
      </trkpt>
      <trkpt lat="45.54937" lon="6.73914">
        <ele>1555.9</ele>
        <time>2012-02-22T13:43:03Z</time>
      </trkpt>
      <trkpt lat="45.54937" lon="6.73914">
        <ele>1556.2</ele>
        <time>2012-02-22T13:43:04Z</time>
      </trkpt>
      <trkpt lat="45.54937" lon="6.73913">
        <ele>1556.3</ele>
        <time>2012-02-22T13:43:05Z</time>
      </trkpt>
      <trkpt lat="45.54937" lon="6.73912">
        <ele>1556.4</ele>
        <time>2012-02-22T13:43:06Z</time>
      </trkpt>
      <trkpt lat="45.54938" lon="6.73911">
        <ele>1556.5</ele>
        <time>2012-02-22T13:43:07Z</time>
      </trkpt>
      <trkpt lat="45.54938" lon="6.73909">
        <ele>1556.8</ele>
        <time>2012-02-22T13:43:08Z</time>
      </trkpt>
      <trkpt lat="45.54938" lon="6.73908">
        <ele>1557.1</ele>
        <time>2012-02-22T13:43:09Z</time>
      </trkpt>
      <trkpt lat="45.54938" lon="6.73907">
        <ele>1557.3</ele>
        <time>2012-02-22T13:43:10Z</time>
      </trkpt>
      <trkpt lat="45.54939" lon="6.73905">
        <ele>1556.9</ele>
        <time>2012-02-22T13:43:13Z</time>
      </trkpt>
      <trkpt lat="45.54939" lon="6.73904">
        <ele>1556.9</ele>
        <time>2012-02-22T13:43:14Z</time>
      </trkpt>
      <trkpt lat="45.54939" lon="6.73903">
        <ele>1556.9</ele>
        <time>2012-02-22T13:43:15Z</time>
      </trkpt>
      <trkpt lat="45.54939" lon="6.73902">
        <ele>1556.9</ele>
        <time>2012-02-22T13:43:16Z</time>
      </trkpt>
      <trkpt lat="45.54939" lon="6.73901">
        <ele>1556.4</ele>
        <time>2012-02-22T13:43:17Z</time>
      </trkpt>
      <trkpt lat="45.54939" lon="6.739">
        <ele>1556.1</ele>
        <time>2012-02-22T13:43:18Z</time>
      </trkpt>
      <trkpt lat="45.54939" lon="6.73899">
        <ele>1555.8</ele>
        <time>2012-02-22T13:43:19Z</time>
      </trkpt>
      <trkpt lat="45.54939" lon="6.73898">
        <ele>1556</ele>
        <time>2012-02-22T13:43:20Z</time>
      </trkpt>
      <trkpt lat="45.54939" lon="6.73897">
        <ele>1556.2</ele>
        <time>2012-02-22T13:43:21Z</time>
      </trkpt>
      <trkpt lat="45.54939" lon="6.73895">
        <ele>1556.4</ele>
        <time>2012-02-22T13:43:22Z</time>
      </trkpt>
      <trkpt lat="45.54939" lon="6.73894">
        <ele>1556.8</ele>
        <time>2012-02-22T13:43:23Z</time>
      </trkpt>
      <trkpt lat="45.54939" lon="6.73893">
        <ele>1557</ele>
        <time>2012-02-22T13:43:24Z</time>
      </trkpt>
      <trkpt lat="45.54939" lon="6.73892">
        <ele>1557.2</ele>
        <time>2012-02-22T13:43:25Z</time>
      </trkpt>
      <trkpt lat="45.5493" lon="6.73876">
        <ele>1555.8</ele>
        <time>2012-02-22T13:45:21Z</time>
      </trkpt>
      <trkpt lat="45.5493" lon="6.73875">
        <ele>1556</ele>
        <time>2012-02-22T13:45:22Z</time>
      </trkpt>
      <trkpt lat="45.5493" lon="6.73874">
        <ele>1556</ele>
        <time>2012-02-22T13:45:23Z</time>
      </trkpt>
      <trkpt lat="45.54929" lon="6.73873">
        <ele>1556.1</ele>
        <time>2012-02-22T13:45:24Z</time>
      </trkpt>
      <trkpt lat="45.54928" lon="6.73871">
        <ele>1556</ele>
        <time>2012-02-22T13:45:27Z</time>
      </trkpt>
      <trkpt lat="45.54927" lon="6.73868">
        <ele>1555.9</ele>
        <time>2012-02-22T13:45:30Z</time>
      </trkpt>
      <trkpt lat="45.54926" lon="6.73866">
        <ele>1556.4</ele>
        <time>2012-02-22T13:45:32Z</time>
      </trkpt>
      <trkpt lat="45.54925" lon="6.73865">
        <ele>1556.6</ele>
        <time>2012-02-22T13:45:33Z</time>
      </trkpt>
      <trkpt lat="45.54924" lon="6.73861">
        <ele>1555.8</ele>
        <time>2012-02-22T13:45:38Z</time>
      </trkpt>
      <trkpt lat="45.54923" lon="6.73859">
        <ele>1556.1</ele>
        <time>2012-02-22T13:45:39Z</time>
      </trkpt>
      <trkpt lat="45.54923" lon="6.73858">
        <ele>1556.4</ele>
        <time>2012-02-22T13:45:40Z</time>
      </trkpt>
      <trkpt lat="45.54923" lon="6.73857">
        <ele>1556.1</ele>
        <time>2012-02-22T13:45:41Z</time>
      </trkpt>
      <trkpt lat="45.54922" lon="6.73855">
        <ele>1555.9</ele>
        <time>2012-02-22T13:45:42Z</time>
      </trkpt>
      <trkpt lat="45.54921" lon="6.73848">
        <ele>1555.7</ele>
        <time>2012-02-22T13:45:46Z</time>
      </trkpt>
      <trkpt lat="45.54917" lon="6.73836">
        <ele>1555.4</ele>
        <time>2012-02-22T13:45:52Z</time>
      </trkpt>
      <trkpt lat="45.54916" lon="6.73834">
        <ele>1555.6</ele>
        <time>2012-02-22T13:45:53Z</time>
      </trkpt>
      <trkpt lat="45.54915" lon="6.73831">
        <ele>1555.8</ele>
        <time>2012-02-22T13:45:55Z</time>
      </trkpt>
      <trkpt lat="45.54914" lon="6.73829">
        <ele>1555.9</ele>
        <time>2012-02-22T13:45:56Z</time>
      </trkpt>
      <trkpt lat="45.54911" lon="6.73822">
        <ele>1555.1</ele>
        <time>2012-02-22T13:46:00Z</time>
      </trkpt>
      <trkpt lat="45.5491" lon="6.73817">
        <ele>1554.8</ele>
        <time>2012-02-22T13:46:02Z</time>
      </trkpt>
      <trkpt lat="45.5491" lon="6.73815">
        <ele>1554.7</ele>
        <time>2012-02-22T13:46:03Z</time>
      </trkpt>
      <trkpt lat="45.54908" lon="6.73806">
        <ele>1555</ele>
        <time>2012-02-22T13:46:07Z</time>
      </trkpt>
      <trkpt lat="45.54898" lon="6.73767">
        <ele>1554.1</ele>
        <time>2012-02-22T13:46:16Z</time>
      </trkpt>
      <trkpt lat="45.54897" lon="6.7376">
        <ele>1553.9</ele>
        <time>2012-02-22T13:46:17Z</time>
      </trkpt>
      <trkpt lat="45.54887" lon="6.73717">
        <ele>1548.6</ele>
        <time>2012-02-22T13:46:23Z</time>
      </trkpt>
      <trkpt lat="45.54879" lon="6.73614">
        <ele>1541.4</ele>
        <time>2012-02-22T13:46:34Z</time>
      </trkpt>
      <trkpt lat="45.5488" lon="6.73604">
        <ele>1540.7</ele>
        <time>2012-02-22T13:46:35Z</time>
      </trkpt>
      <trkpt lat="45.54882" lon="6.73595">
        <ele>1540.2</ele>
        <time>2012-02-22T13:46:36Z</time>
      </trkpt>
      <trkpt lat="45.54895" lon="6.73555">
        <ele>1536.6</ele>
        <time>2012-02-22T13:46:42Z</time>
      </trkpt>
      <trkpt lat="45.54899" lon="6.73548">
        <ele>1536</ele>
        <time>2012-02-22T13:46:43Z</time>
      </trkpt>
      <trkpt lat="45.54942" lon="6.73446">
        <ele>1528.1</ele>
        <time>2012-02-22T13:46:56Z</time>
      </trkpt>
      <trkpt lat="45.54979" lon="6.73376">
        <ele>1523.1</ele>
        <time>2012-02-22T13:47:04Z</time>
      </trkpt>
      <trkpt lat="45.55007" lon="6.73332">
        <ele>1520.7</ele>
        <time>2012-02-22T13:47:10Z</time>
      </trkpt>
      <trkpt lat="45.55012" lon="6.73328">
        <ele>1520.1</ele>
        <time>2012-02-22T13:47:11Z</time>
      </trkpt>
      <trkpt lat="45.55016" lon="6.73327">
        <ele>1519.7</ele>
        <time>2012-02-22T13:47:12Z</time>
      </trkpt>
      <trkpt lat="45.55018" lon="6.73328">
        <ele>1518.3</ele>
        <time>2012-02-22T13:47:13Z</time>
      </trkpt>
      <trkpt lat="45.55019" lon="6.73328">
        <ele>1517.2</ele>
        <time>2012-02-22T13:47:14Z</time>
      </trkpt>
      <trkpt lat="45.5502" lon="6.73327">
        <ele>1516.4</ele>
        <time>2012-02-22T13:47:15Z</time>
      </trkpt>
      <trkpt lat="45.55021" lon="6.73327">
        <ele>1516.3</ele>
        <time>2012-02-22T13:47:16Z</time>
      </trkpt>
      <trkpt lat="45.55021" lon="6.73326">
        <ele>1516.1</ele>
        <time>2012-02-22T13:47:17Z</time>
      </trkpt>
      <trkpt lat="45.55022" lon="6.73326">
        <ele>1516.1</ele>
        <time>2012-02-22T13:47:18Z</time>
      </trkpt>
      <trkpt lat="45.55023" lon="6.73325">
        <ele>1516</ele>
        <time>2012-02-22T13:47:19Z</time>
      </trkpt>
      <trkpt lat="45.55023" lon="6.73325">
        <ele>1516.3</ele>
        <time>2012-02-22T13:47:20Z</time>
      </trkpt>
      <trkpt lat="45.55024" lon="6.73324">
        <ele>1516.5</ele>
        <time>2012-02-22T13:47:21Z</time>
      </trkpt>
      <trkpt lat="45.55024" lon="6.73324">
        <ele>1516.7</ele>
        <time>2012-02-22T13:47:22Z</time>
      </trkpt>
      <trkpt lat="45.55025" lon="6.73323">
        <ele>1516.5</ele>
        <time>2012-02-22T13:47:23Z</time>
      </trkpt>
      <trkpt lat="45.55025" lon="6.73323">
        <ele>1516.4</ele>
        <time>2012-02-22T13:47:24Z</time>
      </trkpt>
      <trkpt lat="45.55026" lon="6.73322">
        <ele>1516.3</ele>
        <time>2012-02-22T13:47:25Z</time>
      </trkpt>
      <trkpt lat="45.55027" lon="6.73322">
        <ele>1516.2</ele>
        <time>2012-02-22T13:47:26Z</time>
      </trkpt>
      <trkpt lat="45.55028" lon="6.73321">
        <ele>1516.2</ele>
        <time>2012-02-22T13:47:27Z</time>
      </trkpt>
      <trkpt lat="45.55029" lon="6.7332">
        <ele>1516.2</ele>
        <time>2012-02-22T13:47:30Z</time>
      </trkpt>
      <trkpt lat="45.55029" lon="6.7332">
        <ele>1516.3</ele>
        <time>2012-02-22T13:47:31Z</time>
      </trkpt>
      <trkpt lat="45.55038" lon="6.73309">
        <ele>1513.6</ele>
        <time>2012-02-22T13:47:55Z</time>
      </trkpt>
      <trkpt lat="45.55072" lon="6.73269">
        <ele>1510.4</ele>
        <time>2012-02-22T13:48:06Z</time>
      </trkpt>
      <trkpt lat="45.55075" lon="6.73268">
        <ele>1510</ele>
        <time>2012-02-22T13:48:07Z</time>
      </trkpt>
      <trkpt lat="45.55079" lon="6.73267">
        <ele>1509.7</ele>
        <time>2012-02-22T13:48:08Z</time>
      </trkpt>
      <trkpt lat="45.55088" lon="6.73256">
        <ele>1508.9</ele>
        <time>2012-02-22T13:48:11Z</time>
      </trkpt>
      <trkpt lat="45.55091" lon="6.73253">
        <ele>1508.5</ele>
        <time>2012-02-22T13:48:12Z</time>
      </trkpt>
      <trkpt lat="45.55096" lon="6.73252">
        <ele>1508.3</ele>
        <time>2012-02-22T13:48:13Z</time>
      </trkpt>
      <trkpt lat="45.55101" lon="6.73255">
        <ele>1507.4</ele>
        <time>2012-02-22T13:48:14Z</time>
      </trkpt>
      <trkpt lat="45.55114" lon="6.73252">
        <ele>1506.2</ele>
        <time>2012-02-22T13:48:16Z</time>
      </trkpt>
      <trkpt lat="45.55121" lon="6.73254">
        <ele>1504.6</ele>
        <time>2012-02-22T13:48:17Z</time>
      </trkpt>
      <trkpt lat="45.55128" lon="6.73252">
        <ele>1503.4</ele>
        <time>2012-02-22T13:48:18Z</time>
      </trkpt>
      <trkpt lat="45.55136" lon="6.73248">
        <ele>1502.5</ele>
        <time>2012-02-22T13:48:19Z</time>
      </trkpt>
      <trkpt lat="45.55144" lon="6.73246">
        <ele>1500.2</ele>
        <time>2012-02-22T13:48:20Z</time>
      </trkpt>
      <trkpt lat="45.55152" lon="6.73249">
        <ele>1498.5</ele>
        <time>2012-02-22T13:48:21Z</time>
      </trkpt>
      <trkpt lat="45.55171" lon="6.73245">
        <ele>1493.5</ele>
        <time>2012-02-22T13:48:23Z</time>
      </trkpt>
      <trkpt lat="45.55182" lon="6.73245">
        <ele>1490.8</ele>
        <time>2012-02-22T13:48:24Z</time>
      </trkpt>
      <trkpt lat="45.55193" lon="6.73239">
        <ele>1488.8</ele>
        <time>2012-02-22T13:48:25Z</time>
      </trkpt>
      <trkpt lat="45.55202" lon="6.73227">
        <ele>1483.6</ele>
        <time>2012-02-22T13:48:26Z</time>
      </trkpt>
      <trkpt lat="45.55213" lon="6.7322">
        <ele>1479.7</ele>
        <time>2012-02-22T13:48:27Z</time>
      </trkpt>
      <trkpt lat="45.55225" lon="6.73218">
        <ele>1476.7</ele>
        <time>2012-02-22T13:48:28Z</time>
      </trkpt>
      <trkpt lat="45.55238" lon="6.7322">
        <ele>1474.5</ele>
        <time>2012-02-22T13:48:29Z</time>
      </trkpt>
      <trkpt lat="45.55264" lon="6.73227">
        <ele>1467.8</ele>
        <time>2012-02-22T13:48:31Z</time>
      </trkpt>
      <trkpt lat="45.55272" lon="6.73224">
        <ele>1465.6</ele>
        <time>2012-02-22T13:48:32Z</time>
      </trkpt>
      <trkpt lat="45.55276" lon="6.73222">
        <ele>1463.5</ele>
        <time>2012-02-22T13:48:33Z</time>
      </trkpt>
      <trkpt lat="45.55277" lon="6.7322">
        <ele>1461.9</ele>
        <time>2012-02-22T13:48:34Z</time>
      </trkpt>
      <trkpt lat="45.55284" lon="6.73214">
        <ele>1457.9</ele>
        <time>2012-02-22T13:48:55Z</time>
      </trkpt>
      <trkpt lat="45.55284" lon="6.73214">
        <ele>1458.1</ele>
        <time>2012-02-22T13:48:56Z</time>
      </trkpt>
      <trkpt lat="45.55284" lon="6.73213">
        <ele>1458.4</ele>
        <time>2012-02-22T13:48:57Z</time>
      </trkpt>
      <trkpt lat="45.55285" lon="6.73213">
        <ele>1457.9</ele>
        <time>2012-02-22T13:48:58Z</time>
      </trkpt>
      <trkpt lat="45.55286" lon="6.73213">
        <ele>1457.6</ele>
        <time>2012-02-22T13:48:59Z</time>
      </trkpt>
      <trkpt lat="45.55288" lon="6.73213">
        <ele>1457.4</ele>
        <time>2012-02-22T13:49:00Z</time>
      </trkpt>
      <trkpt lat="45.55291" lon="6.73213">
        <ele>1457.2</ele>
        <time>2012-02-22T13:49:01Z</time>
      </trkpt>
      <trkpt lat="45.55302" lon="6.73214">
        <ele>1455.8</ele>
        <time>2012-02-22T13:49:03Z</time>
      </trkpt>
      <trkpt lat="45.55309" lon="6.73218">
        <ele>1455.3</ele>
        <time>2012-02-22T13:49:04Z</time>
      </trkpt>
      <trkpt lat="45.55315" lon="6.73224">
        <ele>1454.1</ele>
        <time>2012-02-22T13:49:05Z</time>
      </trkpt>
      <trkpt lat="45.55324" lon="6.73237">
        <ele>1452.6</ele>
        <time>2012-02-22T13:49:07Z</time>
      </trkpt>
      <trkpt lat="45.55328" lon="6.73239">
        <ele>1451.6</ele>
        <time>2012-02-22T13:49:08Z</time>
      </trkpt>
      <trkpt lat="45.55332" lon="6.73237">
        <ele>1450.9</ele>
        <time>2012-02-22T13:49:09Z</time>
      </trkpt>
      <trkpt lat="45.55334" lon="6.73234">
        <ele>1450.3</ele>
        <time>2012-02-22T13:49:10Z</time>
      </trkpt>
      <trkpt lat="45.55333" lon="6.73231">
        <ele>1449.7</ele>
        <time>2012-02-22T13:49:11Z</time>
      </trkpt>
      <trkpt lat="45.5533" lon="6.73219">
        <ele>1448.1</ele>
        <time>2012-02-22T13:49:14Z</time>
      </trkpt>
      <trkpt lat="45.55328" lon="6.73216">
        <ele>1447.6</ele>
        <time>2012-02-22T13:49:15Z</time>
      </trkpt>
      <trkpt lat="45.55325" lon="6.73211">
        <ele>1447.3</ele>
        <time>2012-02-22T13:49:17Z</time>
      </trkpt>
      <trkpt lat="45.55325" lon="6.7321">
        <ele>1447.4</ele>
        <time>2012-02-22T13:49:18Z</time>
      </trkpt>
      <trkpt lat="45.55329" lon="6.73197">
        <ele>1445.7</ele>
        <time>2012-02-22T13:49:59Z</time>
      </trkpt>
      <trkpt lat="45.55329" lon="6.73196">
        <ele>1445.7</ele>
        <time>2012-02-22T13:50:00Z</time>
      </trkpt>
      <trkpt lat="45.55329" lon="6.73194">
        <ele>1445.6</ele>
        <time>2012-02-22T13:50:01Z</time>
      </trkpt>
      <trkpt lat="45.55329" lon="6.73193">
        <ele>1445.7</ele>
        <time>2012-02-22T13:50:02Z</time>
      </trkpt>
      <trkpt lat="45.55335" lon="6.73176">
        <ele>1445.2</ele>
        <time>2012-02-22T13:51:42Z</time>
      </trkpt>
      <trkpt lat="45.55335" lon="6.73176">
        <ele>1445.2</ele>
        <time>2012-02-22T13:51:43Z</time>
      </trkpt>
      <trkpt lat="45.55336" lon="6.73176">
        <ele>1444.9</ele>
        <time>2012-02-22T13:51:44Z</time>
      </trkpt>
      <trkpt lat="45.55337" lon="6.73176">
        <ele>1444.7</ele>
        <time>2012-02-22T13:51:45Z</time>
      </trkpt>
      <trkpt lat="45.55337" lon="6.73175">
        <ele>1444.6</ele>
        <time>2012-02-22T13:51:46Z</time>
      </trkpt>
      <trkpt lat="45.55336" lon="6.73173">
        <ele>1444.5</ele>
        <time>2012-02-22T13:51:47Z</time>
      </trkpt>
      <trkpt lat="45.55336" lon="6.73172">
        <ele>1443.9</ele>
        <time>2012-02-22T13:51:48Z</time>
      </trkpt>
      <trkpt lat="45.55336" lon="6.73172">
        <ele>1443.5</ele>
        <time>2012-02-22T13:51:49Z</time>
      </trkpt>
      <trkpt lat="45.55334" lon="6.73172">
        <ele>1443.2</ele>
        <time>2012-02-22T13:51:50Z</time>
      </trkpt>
      <trkpt lat="45.55331" lon="6.73173">
        <ele>1443.9</ele>
        <time>2012-02-22T13:51:52Z</time>
      </trkpt>
      <trkpt lat="45.55329" lon="6.73173">
        <ele>1444.6</ele>
        <time>2012-02-22T13:51:54Z</time>
      </trkpt>
      <trkpt lat="45.55328" lon="6.73172">
        <ele>1445.2</ele>
        <time>2012-02-22T13:51:56Z</time>
      </trkpt>
      <trkpt lat="45.55329" lon="6.73171">
        <ele>1444.8</ele>
        <time>2012-02-22T13:51:57Z</time>
      </trkpt>
      <trkpt lat="45.55329" lon="6.73169">
        <ele>1444.5</ele>
        <time>2012-02-22T13:51:58Z</time>
      </trkpt>
      <trkpt lat="45.55244" lon="6.73092">
        <ele>1457</ele>
        <time>2012-02-22T13:52:50Z</time>
      </trkpt>
      <trkpt lat="45.55248" lon="6.73108">
        <ele>1459.8</ele>
        <time>2012-02-22T13:52:51Z</time>
      </trkpt>
      <trkpt lat="45.55242" lon="6.73107">
        <ele>1462.8</ele>
        <time>2012-02-22T13:52:53Z</time>
      </trkpt>
      <trkpt lat="45.55185" lon="6.73074">
        <ele>1483.1</ele>
        <time>2012-02-22T13:53:08Z</time>
      </trkpt>
      <trkpt lat="45.55114" lon="6.73045">
        <ele>1509.7</ele>
        <time>2012-02-22T13:53:26Z</time>
      </trkpt>
      <trkpt lat="45.55105" lon="6.73038">
        <ele>1514.4</ele>
        <time>2012-02-22T13:53:29Z</time>
      </trkpt>
      <trkpt lat="45.55087" lon="6.73029">
        <ele>1522.3</ele>
        <time>2012-02-22T13:53:34Z</time>
      </trkpt>
      <trkpt lat="45.55028" lon="6.72988">
        <ele>1542.4</ele>
        <time>2012-02-22T13:53:50Z</time>
      </trkpt>
      <trkpt lat="45.5502" lon="6.72984">
        <ele>1545.8</ele>
        <time>2012-02-22T13:53:52Z</time>
      </trkpt>
      <trkpt lat="45.55017" lon="6.72982">
        <ele>1547.6</ele>
        <time>2012-02-22T13:53:53Z</time>
      </trkpt>
      <trkpt lat="45.54964" lon="6.72954">
        <ele>1568.7</ele>
        <time>2012-02-22T13:54:06Z</time>
      </trkpt>
      <trkpt lat="45.54939" lon="6.72935">
        <ele>1581.1</ele>
        <time>2012-02-22T13:54:13Z</time>
      </trkpt>
      <trkpt lat="45.54932" lon="6.72929">
        <ele>1584.9</ele>
        <time>2012-02-22T13:54:15Z</time>
      </trkpt>
      <trkpt lat="45.54904" lon="6.72913">
        <ele>1592.6</ele>
        <time>2012-02-22T13:54:22Z</time>
      </trkpt>
      <trkpt lat="45.54892" lon="6.72903">
        <ele>1596.6</ele>
        <time>2012-02-22T13:54:25Z</time>
      </trkpt>
      <trkpt lat="45.5488" lon="6.72897">
        <ele>1601.1</ele>
        <time>2012-02-22T13:54:28Z</time>
      </trkpt>
      <trkpt lat="45.54806" lon="6.72865">
        <ele>1630.2</ele>
        <time>2012-02-22T13:54:46Z</time>
      </trkpt>
      <trkpt lat="45.54796" lon="6.72859">
        <ele>1636</ele>
        <time>2012-02-22T13:54:49Z</time>
      </trkpt>
      <trkpt lat="45.54792" lon="6.72858">
        <ele>1638</ele>
        <time>2012-02-22T13:54:50Z</time>
      </trkpt>
      <trkpt lat="45.54766" lon="6.72844">
        <ele>1649.8</ele>
        <time>2012-02-22T13:54:57Z</time>
      </trkpt>
      <trkpt lat="45.54763" lon="6.72841">
        <ele>1650.8</ele>
        <time>2012-02-22T13:54:58Z</time>
      </trkpt>
      <trkpt lat="45.54683" lon="6.72794">
        <ele>1679.2</ele>
        <time>2012-02-22T13:55:20Z</time>
      </trkpt>
      <trkpt lat="45.54679" lon="6.72794">
        <ele>1681.6</ele>
        <time>2012-02-22T13:55:21Z</time>
      </trkpt>
      <trkpt lat="45.54672" lon="6.72797">
        <ele>1685.8</ele>
        <time>2012-02-22T13:55:24Z</time>
      </trkpt>
      <trkpt lat="45.54666" lon="6.72798">
        <ele>1689.3</ele>
        <time>2012-02-22T13:55:26Z</time>
      </trkpt>
      <trkpt lat="45.54657" lon="6.72797">
        <ele>1694.4</ele>
        <time>2012-02-22T13:55:29Z</time>
      </trkpt>
      <trkpt lat="45.54649" lon="6.72794">
        <ele>1697.9</ele>
        <time>2012-02-22T13:55:31Z</time>
      </trkpt>
      <trkpt lat="45.54644" lon="6.72791">
        <ele>1699.6</ele>
        <time>2012-02-22T13:55:32Z</time>
      </trkpt>
      <trkpt lat="45.54619" lon="6.72781">
        <ele>1706.4</ele>
        <time>2012-02-22T13:55:38Z</time>
      </trkpt>
      <trkpt lat="45.54591" lon="6.72766">
        <ele>1714.4</ele>
        <time>2012-02-22T13:55:45Z</time>
      </trkpt>
      <trkpt lat="45.54579" lon="6.72762">
        <ele>1718</ele>
        <time>2012-02-22T13:55:48Z</time>
      </trkpt>
      <trkpt lat="45.54555" lon="6.72748">
        <ele>1723.5</ele>
        <time>2012-02-22T13:55:53Z</time>
      </trkpt>
      <trkpt lat="45.54469" lon="6.72679">
        <ele>1747.5</ele>
        <time>2012-02-22T13:56:16Z</time>
      </trkpt>
      <trkpt lat="45.54466" lon="6.72676">
        <ele>1748.7</ele>
        <time>2012-02-22T13:56:17Z</time>
      </trkpt>
      <trkpt lat="45.54425" lon="6.7264">
        <ele>1757.4</ele>
        <time>2012-02-22T13:56:27Z</time>
      </trkpt>
      <trkpt lat="45.54397" lon="6.72623">
        <ele>1762.9</ele>
        <time>2012-02-22T13:56:33Z</time>
      </trkpt>
      <trkpt lat="45.5437" lon="6.72601">
        <ele>1770.6</ele>
        <time>2012-02-22T13:56:40Z</time>
      </trkpt>
      <trkpt lat="45.54321" lon="6.72581">
        <ele>1786.6</ele>
        <time>2012-02-22T13:56:52Z</time>
      </trkpt>
      <trkpt lat="45.54224" lon="6.72522">
        <ele>1811.5</ele>
        <time>2012-02-22T13:57:18Z</time>
      </trkpt>
      <trkpt lat="45.5422" lon="6.72519">
        <ele>1812.6</ele>
        <time>2012-02-22T13:57:19Z</time>
      </trkpt>
      <trkpt lat="45.542" lon="6.72509">
        <ele>1818.2</ele>
        <time>2012-02-22T13:57:24Z</time>
      </trkpt>
      <trkpt lat="45.54179" lon="6.72495">
        <ele>1826.8</ele>
        <time>2012-02-22T13:57:30Z</time>
      </trkpt>
      <trkpt lat="45.54168" lon="6.7249">
        <ele>1831.3</ele>
        <time>2012-02-22T13:57:33Z</time>
      </trkpt>
      <trkpt lat="45.53991" lon="6.72394">
        <ele>1869.2</ele>
        <time>2012-02-22T13:58:17Z</time>
      </trkpt>
      <trkpt lat="45.53964" lon="6.72383">
        <ele>1878.5</ele>
        <time>2012-02-22T13:58:24Z</time>
      </trkpt>
      <trkpt lat="45.5396" lon="6.7238">
        <ele>1879.4</ele>
        <time>2012-02-22T13:58:25Z</time>
      </trkpt>
      <trkpt lat="45.53939" lon="6.72366">
        <ele>1886.8</ele>
        <time>2012-02-22T13:58:31Z</time>
      </trkpt>
      <trkpt lat="45.53935" lon="6.72364">
        <ele>1887.6</ele>
        <time>2012-02-22T13:58:32Z</time>
      </trkpt>
      <trkpt lat="45.53932" lon="6.72363">
        <ele>1887.9</ele>
        <time>2012-02-22T13:58:33Z</time>
      </trkpt>
      <trkpt lat="45.53906" lon="6.7235">
        <ele>1890.2</ele>
        <time>2012-02-22T13:59:18Z</time>
      </trkpt>
      <trkpt lat="45.53906" lon="6.72349">
        <ele>1890.3</ele>
        <time>2012-02-22T13:59:19Z</time>
      </trkpt>
      <trkpt lat="45.53905" lon="6.72349">
        <ele>1890.5</ele>
        <time>2012-02-22T13:59:20Z</time>
      </trkpt>
      <trkpt lat="45.53904" lon="6.72348">
        <ele>1890.3</ele>
        <time>2012-02-22T13:59:21Z</time>
      </trkpt>
      <trkpt lat="45.53904" lon="6.72346">
        <ele>1890.1</ele>
        <time>2012-02-22T13:59:22Z</time>
      </trkpt>
      <trkpt lat="45.53904" lon="6.72345">
        <ele>1890</ele>
        <time>2012-02-22T13:59:23Z</time>
      </trkpt>
      <trkpt lat="45.53904" lon="6.72344">
        <ele>1890.1</ele>
        <time>2012-02-22T13:59:24Z</time>
      </trkpt>
      <trkpt lat="45.53904" lon="6.72343">
        <ele>1890.3</ele>
        <time>2012-02-22T13:59:25Z</time>
      </trkpt>
      <trkpt lat="45.53904" lon="6.72342">
        <ele>1890.3</ele>
        <time>2012-02-22T13:59:26Z</time>
      </trkpt>
      <trkpt lat="45.53904" lon="6.72341">
        <ele>1890.5</ele>
        <time>2012-02-22T13:59:27Z</time>
      </trkpt>
      <trkpt lat="45.53904" lon="6.7234">
        <ele>1890.6</ele>
        <time>2012-02-22T13:59:28Z</time>
      </trkpt>
      <trkpt lat="45.53904" lon="6.72339">
        <ele>1890.7</ele>
        <time>2012-02-22T13:59:29Z</time>
      </trkpt>
      <trkpt lat="45.53904" lon="6.72338">
        <ele>1890.5</ele>
        <time>2012-02-22T13:59:30Z</time>
      </trkpt>
      <trkpt lat="45.53904" lon="6.72337">
        <ele>1890.3</ele>
        <time>2012-02-22T13:59:31Z</time>
      </trkpt>
      <trkpt lat="45.53904" lon="6.72336">
        <ele>1890.1</ele>
        <time>2012-02-22T13:59:32Z</time>
      </trkpt>
      <trkpt lat="45.53904" lon="6.72335">
        <ele>1889.9</ele>
        <time>2012-02-22T13:59:33Z</time>
      </trkpt>
      <trkpt lat="45.53903" lon="6.72334">
        <ele>1889.7</ele>
        <time>2012-02-22T13:59:34Z</time>
      </trkpt>
      <trkpt lat="45.53903" lon="6.72333">
        <ele>1889.6</ele>
        <time>2012-02-22T13:59:35Z</time>
      </trkpt>
      <trkpt lat="45.53903" lon="6.72332">
        <ele>1889.5</ele>
        <time>2012-02-22T13:59:36Z</time>
      </trkpt>
      <trkpt lat="45.53903" lon="6.72331">
        <ele>1889.4</ele>
        <time>2012-02-22T13:59:37Z</time>
      </trkpt>
      <trkpt lat="45.53903" lon="6.7233">
        <ele>1889.3</ele>
        <time>2012-02-22T13:59:38Z</time>
      </trkpt>
      <trkpt lat="45.53902" lon="6.72325">
        <ele>1890.2</ele>
        <time>2012-02-22T13:59:46Z</time>
      </trkpt>
      <trkpt lat="45.53901" lon="6.72325">
        <ele>1890.4</ele>
        <time>2012-02-22T13:59:47Z</time>
      </trkpt>
      <trkpt lat="45.53901" lon="6.72324">
        <ele>1890.6</ele>
        <time>2012-02-22T13:59:48Z</time>
      </trkpt>
      <trkpt lat="45.53901" lon="6.72323">
        <ele>1890.6</ele>
        <time>2012-02-22T13:59:49Z</time>
      </trkpt>
      <trkpt lat="45.53901" lon="6.72322">
        <ele>1890.7</ele>
        <time>2012-02-22T13:59:50Z</time>
      </trkpt>
      <trkpt lat="45.53902" lon="6.72322">
        <ele>1890.7</ele>
        <time>2012-02-22T13:59:51Z</time>
      </trkpt>
      <trkpt lat="45.53902" lon="6.72321">
        <ele>1890.7</ele>
        <time>2012-02-22T13:59:52Z</time>
      </trkpt>
      <trkpt lat="45.53902" lon="6.7232">
        <ele>1890.8</ele>
        <time>2012-02-22T13:59:53Z</time>
      </trkpt>
      <trkpt lat="45.53904" lon="6.72315">
        <ele>1890.8</ele>
        <time>2012-02-22T13:59:55Z</time>
      </trkpt>
      <trkpt lat="45.53905" lon="6.72308">
        <ele>1891</ele>
        <time>2012-02-22T13:59:57Z</time>
      </trkpt>
      <trkpt lat="45.53908" lon="6.72303">
        <ele>1891.1</ele>
        <time>2012-02-22T13:59:58Z</time>
      </trkpt>
      <trkpt lat="45.53912" lon="6.723">
        <ele>1890.8</ele>
        <time>2012-02-22T13:59:59Z</time>
      </trkpt>
      <trkpt lat="45.53916" lon="6.723">
        <ele>1890.5</ele>
        <time>2012-02-22T14:00:00Z</time>
      </trkpt>
      <trkpt lat="45.5392" lon="6.72302">
        <ele>1890.4</ele>
        <time>2012-02-22T14:00:01Z</time>
      </trkpt>
      <trkpt lat="45.53929" lon="6.72314">
        <ele>1887.6</ele>
        <time>2012-02-22T14:00:04Z</time>
      </trkpt>
      <trkpt lat="45.53938" lon="6.72336">
        <ele>1886.2</ele>
        <time>2012-02-22T14:00:09Z</time>
      </trkpt>
      <trkpt lat="45.5394" lon="6.7234">
        <ele>1886.3</ele>
        <time>2012-02-22T14:00:10Z</time>
      </trkpt>
      <trkpt lat="45.53948" lon="6.7235">
        <ele>1885.2</ele>
        <time>2012-02-22T14:00:13Z</time>
      </trkpt>
      <trkpt lat="45.53951" lon="6.72354">
        <ele>1884.9</ele>
        <time>2012-02-22T14:00:14Z</time>
      </trkpt>
      <trkpt lat="45.53955" lon="6.72369">
        <ele>1884</ele>
        <time>2012-02-22T14:00:17Z</time>
      </trkpt>
      <trkpt lat="45.53958" lon="6.72387">
        <ele>1882.3</ele>
        <time>2012-02-22T14:00:20Z</time>
      </trkpt>
      <trkpt lat="45.53961" lon="6.7239">
        <ele>1881.3</ele>
        <time>2012-02-22T14:00:21Z</time>
      </trkpt>
      <trkpt lat="45.53965" lon="6.72389">
        <ele>1880.5</ele>
        <time>2012-02-22T14:00:22Z</time>
      </trkpt>
      <trkpt lat="45.53968" lon="6.72387">
        <ele>1880</ele>
        <time>2012-02-22T14:00:23Z</time>
      </trkpt>
      <trkpt lat="45.53972" lon="6.72383">
        <ele>1879.6</ele>
        <time>2012-02-22T14:00:24Z</time>
      </trkpt>
      <trkpt lat="45.53975" lon="6.72381">
        <ele>1878.2</ele>
        <time>2012-02-22T14:00:25Z</time>
      </trkpt>
      <trkpt lat="45.53978" lon="6.72384">
        <ele>1877.1</ele>
        <time>2012-02-22T14:00:26Z</time>
      </trkpt>
      <trkpt lat="45.5398" lon="6.72389">
        <ele>1876.3</ele>
        <time>2012-02-22T14:00:27Z</time>
      </trkpt>
      <trkpt lat="45.53984" lon="6.72398">
        <ele>1873.7</ele>
        <time>2012-02-22T14:00:29Z</time>
      </trkpt>
      <trkpt lat="45.53988" lon="6.72397">
        <ele>1872.9</ele>
        <time>2012-02-22T14:00:30Z</time>
      </trkpt>
      <trkpt lat="45.53998" lon="6.7239">
        <ele>1870.3</ele>
        <time>2012-02-22T14:00:32Z</time>
      </trkpt>
      <trkpt lat="45.54003" lon="6.72389">
        <ele>1869.5</ele>
        <time>2012-02-22T14:00:33Z</time>
      </trkpt>
      <trkpt lat="45.54006" lon="6.72393">
        <ele>1867.8</ele>
        <time>2012-02-22T14:00:34Z</time>
      </trkpt>
      <trkpt lat="45.54009" lon="6.72399">
        <ele>1866.5</ele>
        <time>2012-02-22T14:00:35Z</time>
      </trkpt>
      <trkpt lat="45.54012" lon="6.72405">
        <ele>1865.5</ele>
        <time>2012-02-22T14:00:36Z</time>
      </trkpt>
      <trkpt lat="45.54016" lon="6.72411">
        <ele>1863.4</ele>
        <time>2012-02-22T14:00:37Z</time>
      </trkpt>
      <trkpt lat="45.54021" lon="6.72412">
        <ele>1861.8</ele>
        <time>2012-02-22T14:00:38Z</time>
      </trkpt>
      <trkpt lat="45.54027" lon="6.72415">
        <ele>1860.6</ele>
        <time>2012-02-22T14:00:39Z</time>
      </trkpt>
      <trkpt lat="45.54032" lon="6.7242">
        <ele>1857.9</ele>
        <time>2012-02-22T14:00:40Z</time>
      </trkpt>
      <trkpt lat="45.54037" lon="6.72423">
        <ele>1855.9</ele>
        <time>2012-02-22T14:00:41Z</time>
      </trkpt>
      <trkpt lat="45.54042" lon="6.72423">
        <ele>1854.4</ele>
        <time>2012-02-22T14:00:42Z</time>
      </trkpt>
      <trkpt lat="45.54048" lon="6.7242">
        <ele>1853.3</ele>
        <time>2012-02-22T14:00:43Z</time>
      </trkpt>
      <trkpt lat="45.54055" lon="6.7242">
        <ele>1852</ele>
        <time>2012-02-22T14:00:44Z</time>
      </trkpt>
      <trkpt lat="45.5406" lon="6.72424">
        <ele>1851</ele>
        <time>2012-02-22T14:00:45Z</time>
      </trkpt>
      <trkpt lat="45.54064" lon="6.7243">
        <ele>1850.3</ele>
        <time>2012-02-22T14:00:46Z</time>
      </trkpt>
      <trkpt lat="45.54068" lon="6.72436">
        <ele>1848.1</ele>
        <time>2012-02-22T14:00:47Z</time>
      </trkpt>
      <trkpt lat="45.54072" lon="6.72442">
        <ele>1846.5</ele>
        <time>2012-02-22T14:00:48Z</time>
      </trkpt>
      <trkpt lat="45.54079" lon="6.72443">
        <ele>1845.2</ele>
        <time>2012-02-22T14:00:49Z</time>
      </trkpt>
      <trkpt lat="45.54095" lon="6.72439">
        <ele>1841.7</ele>
        <time>2012-02-22T14:00:51Z</time>
      </trkpt>
      <trkpt lat="45.54103" lon="6.72441">
        <ele>1840.6</ele>
        <time>2012-02-22T14:00:52Z</time>
      </trkpt>
      <trkpt lat="45.5411" lon="6.72446">
        <ele>1838.3</ele>
        <time>2012-02-22T14:00:53Z</time>
      </trkpt>
      <trkpt lat="45.54121" lon="6.72458">
        <ele>1835.3</ele>
        <time>2012-02-22T14:00:55Z</time>
      </trkpt>
      <trkpt lat="45.54131" lon="6.72464">
        <ele>1833.7</ele>
        <time>2012-02-22T14:00:57Z</time>
      </trkpt>
      <trkpt lat="45.54136" lon="6.7247">
        <ele>1832.9</ele>
        <time>2012-02-22T14:00:59Z</time>
      </trkpt>
      <trkpt lat="45.54137" lon="6.72473">
        <ele>1832.8</ele>
        <time>2012-02-22T14:01:00Z</time>
      </trkpt>
      <trkpt lat="45.54137" lon="6.72476">
        <ele>1832.6</ele>
        <time>2012-02-22T14:01:02Z</time>
      </trkpt>
      <trkpt lat="45.54137" lon="6.72478">
        <ele>1832.6</ele>
        <time>2012-02-22T14:01:08Z</time>
      </trkpt>
      <trkpt lat="45.54137" lon="6.72479">
        <ele>1832.8</ele>
        <time>2012-02-22T14:01:09Z</time>
      </trkpt>
      <trkpt lat="45.54137" lon="6.7248">
        <ele>1832.9</ele>
        <time>2012-02-22T14:01:10Z</time>
      </trkpt>
      <trkpt lat="45.54137" lon="6.72481">
        <ele>1833.1</ele>
        <time>2012-02-22T14:01:11Z</time>
      </trkpt>
      <trkpt lat="45.54136" lon="6.72482">
        <ele>1833.3</ele>
        <time>2012-02-22T14:01:12Z</time>
      </trkpt>
      <trkpt lat="45.54136" lon="6.72483">
        <ele>1833.5</ele>
        <time>2012-02-22T14:01:13Z</time>
      </trkpt>
      <trkpt lat="45.54136" lon="6.72484">
        <ele>1833.7</ele>
        <time>2012-02-22T14:01:14Z</time>
      </trkpt>
      <trkpt lat="45.54136" lon="6.72484">
        <ele>1833.8</ele>
        <time>2012-02-22T14:01:15Z</time>
      </trkpt>
      <trkpt lat="45.54123" lon="6.72488">
        <ele>1832.5</ele>
        <time>2012-02-22T14:02:22Z</time>
      </trkpt>
      <trkpt lat="45.54122" lon="6.72487">
        <ele>1831.8</ele>
        <time>2012-02-22T14:02:23Z</time>
      </trkpt>
      <trkpt lat="45.54122" lon="6.72487">
        <ele>1831.3</ele>
        <time>2012-02-22T14:02:24Z</time>
      </trkpt>
      <trkpt lat="45.54121" lon="6.72487">
        <ele>1831</ele>
        <time>2012-02-22T14:02:25Z</time>
      </trkpt>
      <trkpt lat="45.54116" lon="6.72489">
        <ele>1831</ele>
        <time>2012-02-22T14:02:28Z</time>
      </trkpt>
      <trkpt lat="45.54113" lon="6.72489">
        <ele>1830.7</ele>
        <time>2012-02-22T14:02:29Z</time>
      </trkpt>
      <trkpt lat="45.54111" lon="6.72489">
        <ele>1830.4</ele>
        <time>2012-02-22T14:02:30Z</time>
      </trkpt>
      <trkpt lat="45.54069" lon="6.72484">
        <ele>1840.1</ele>
        <time>2012-02-22T14:02:43Z</time>
      </trkpt>
      <trkpt lat="45.54066" lon="6.72485">
        <ele>1840.8</ele>
        <time>2012-02-22T14:02:44Z</time>
      </trkpt>
      <trkpt lat="45.53995" lon="6.72478">
        <ele>1864.1</ele>
        <time>2012-02-22T14:03:04Z</time>
      </trkpt>
      <trkpt lat="45.53228" lon="6.72393">
        <ele>2214.3</ele>
        <time>2012-02-22T14:06:52Z</time>
      </trkpt>
      <trkpt lat="45.53223" lon="6.72394">
        <ele>2214.6</ele>
        <time>2012-02-22T14:06:53Z</time>
      </trkpt>
      <trkpt lat="45.52812" lon="6.7236">
        <ele>2293.8</ele>
        <time>2012-02-22T14:08:49Z</time>
      </trkpt>
      <trkpt lat="45.52809" lon="6.7236">
        <ele>2294.1</ele>
        <time>2012-02-22T14:08:51Z</time>
      </trkpt>
      <trkpt lat="45.52807" lon="6.72358">
        <ele>2294.8</ele>
        <time>2012-02-22T14:08:53Z</time>
      </trkpt>
      <trkpt lat="45.52805" lon="6.72358">
        <ele>2295</ele>
        <time>2012-02-22T14:08:54Z</time>
      </trkpt>
      <trkpt lat="45.52799" lon="6.72357">
        <ele>2295.2</ele>
        <time>2012-02-22T14:08:57Z</time>
      </trkpt>
      <trkpt lat="45.52798" lon="6.72356">
        <ele>2295.4</ele>
        <time>2012-02-22T14:08:58Z</time>
      </trkpt>
      <trkpt lat="45.52797" lon="6.72356">
        <ele>2295.5</ele>
        <time>2012-02-22T14:08:59Z</time>
      </trkpt>
      <trkpt lat="45.52795" lon="6.72356">
        <ele>2295.7</ele>
        <time>2012-02-22T14:09:00Z</time>
      </trkpt>
      <trkpt lat="45.52792" lon="6.72352">
        <ele>2295.5</ele>
        <time>2012-02-22T14:09:09Z</time>
      </trkpt>
      <trkpt lat="45.52791" lon="6.72352">
        <ele>2295.7</ele>
        <time>2012-02-22T14:09:10Z</time>
      </trkpt>
      <trkpt lat="45.5279" lon="6.72351">
        <ele>2295.6</ele>
        <time>2012-02-22T14:09:11Z</time>
      </trkpt>
      <trkpt lat="45.52784" lon="6.72348">
        <ele>2295.5</ele>
        <time>2012-02-22T14:09:16Z</time>
      </trkpt>
      <trkpt lat="45.52782" lon="6.72348">
        <ele>2295.5</ele>
        <time>2012-02-22T14:09:17Z</time>
      </trkpt>
      <trkpt lat="45.5278" lon="6.72347">
        <ele>2295.6</ele>
        <time>2012-02-22T14:09:18Z</time>
      </trkpt>
      <trkpt lat="45.52779" lon="6.72345">
        <ele>2295.6</ele>
        <time>2012-02-22T14:09:19Z</time>
      </trkpt>
      <trkpt lat="45.52774" lon="6.72339">
        <ele>2294.6</ele>
        <time>2012-02-22T14:09:22Z</time>
      </trkpt>
      <trkpt lat="45.52772" lon="6.72338">
        <ele>2294.3</ele>
        <time>2012-02-22T14:09:23Z</time>
      </trkpt>
      <trkpt lat="45.52769" lon="6.72337">
        <ele>2294.1</ele>
        <time>2012-02-22T14:09:24Z</time>
      </trkpt>
      <trkpt lat="45.52766" lon="6.72338">
        <ele>2293.9</ele>
        <time>2012-02-22T14:09:25Z</time>
      </trkpt>
      <trkpt lat="45.5276" lon="6.72342">
        <ele>2293.6</ele>
        <time>2012-02-22T14:09:27Z</time>
      </trkpt>
      <trkpt lat="45.52752" lon="6.72346">
        <ele>2290.8</ele>
        <time>2012-02-22T14:09:48Z</time>
      </trkpt>
      <trkpt lat="45.52752" lon="6.7235">
        <ele>2291</ele>
        <time>2012-02-22T14:09:50Z</time>
      </trkpt>
      <trkpt lat="45.52734" lon="6.72359">
        <ele>2288.6</ele>
        <time>2012-02-22T14:10:50Z</time>
      </trkpt>
      <trkpt lat="45.5273" lon="6.72368">
        <ele>2288.7</ele>
        <time>2012-02-22T14:10:51Z</time>
      </trkpt>
      <trkpt lat="45.52726" lon="6.72378">
        <ele>2288.7</ele>
        <time>2012-02-22T14:10:52Z</time>
      </trkpt>
      <trkpt lat="45.52719" lon="6.72384">
        <ele>2286.2</ele>
        <time>2012-02-22T14:10:53Z</time>
      </trkpt>
      <trkpt lat="45.5271" lon="6.72381">
        <ele>2284.4</ele>
        <time>2012-02-22T14:10:54Z</time>
      </trkpt>
      <trkpt lat="45.52703" lon="6.72372">
        <ele>2282.9</ele>
        <time>2012-02-22T14:10:55Z</time>
      </trkpt>
      <trkpt lat="45.52698" lon="6.72346">
        <ele>2277.8</ele>
        <time>2012-02-22T14:10:57Z</time>
      </trkpt>
      <trkpt lat="45.52692" lon="6.72342">
        <ele>2276.2</ele>
        <time>2012-02-22T14:10:58Z</time>
      </trkpt>
      <trkpt lat="45.52684" lon="6.72345">
        <ele>2274.9</ele>
        <time>2012-02-22T14:10:59Z</time>
      </trkpt>
      <trkpt lat="45.52679" lon="6.72354">
        <ele>2273.4</ele>
        <time>2012-02-22T14:11:00Z</time>
      </trkpt>
      <trkpt lat="45.52675" lon="6.72363">
        <ele>2272.3</ele>
        <time>2012-02-22T14:11:01Z</time>
      </trkpt>
      <trkpt lat="45.5267" lon="6.72368">
        <ele>2271.4</ele>
        <time>2012-02-22T14:11:02Z</time>
      </trkpt>
      <trkpt lat="45.52662" lon="6.72366">
        <ele>2269.3</ele>
        <time>2012-02-22T14:11:03Z</time>
      </trkpt>
      <trkpt lat="45.52649" lon="6.72354">
        <ele>2266.4</ele>
        <time>2012-02-22T14:11:05Z</time>
      </trkpt>
      <trkpt lat="45.5264" lon="6.72357">
        <ele>2263.8</ele>
        <time>2012-02-22T14:11:06Z</time>
      </trkpt>
      <trkpt lat="45.52627" lon="6.72376">
        <ele>2260.4</ele>
        <time>2012-02-22T14:11:08Z</time>
      </trkpt>
      <trkpt lat="45.52617" lon="6.72381">
        <ele>2256.8</ele>
        <time>2012-02-22T14:11:09Z</time>
      </trkpt>
      <trkpt lat="45.52609" lon="6.72375">
        <ele>2254.1</ele>
        <time>2012-02-22T14:11:10Z</time>
      </trkpt>
      <trkpt lat="45.52604" lon="6.72366">
        <ele>2252.1</ele>
        <time>2012-02-22T14:11:11Z</time>
      </trkpt>
      <trkpt lat="45.52601" lon="6.72356">
        <ele>2248.6</ele>
        <time>2012-02-22T14:11:12Z</time>
      </trkpt>
      <trkpt lat="45.526" lon="6.72346">
        <ele>2246</ele>
        <time>2012-02-22T14:11:13Z</time>
      </trkpt>
      <trkpt lat="45.526" lon="6.72339">
        <ele>2242.6</ele>
        <time>2012-02-22T14:11:15Z</time>
      </trkpt>
      <trkpt lat="45.526" lon="6.72339">
        <ele>2241.6</ele>
        <time>2012-02-22T14:11:16Z</time>
      </trkpt>
      <trkpt lat="45.526" lon="6.72339">
        <ele>2240.8</ele>
        <time>2012-02-22T14:11:17Z</time>
      </trkpt>
      <trkpt lat="45.52599" lon="6.72338">
        <ele>2240.3</ele>
        <time>2012-02-22T14:11:18Z</time>
      </trkpt>
      <trkpt lat="45.52592" lon="6.72335">
        <ele>2239.7</ele>
        <time>2012-02-22T14:11:21Z</time>
      </trkpt>
      <trkpt lat="45.52588" lon="6.72334">
        <ele>2238.8</ele>
        <time>2012-02-22T14:11:22Z</time>
      </trkpt>
      <trkpt lat="45.52582" lon="6.72338">
        <ele>2237.6</ele>
        <time>2012-02-22T14:11:24Z</time>
      </trkpt>
      <trkpt lat="45.52578" lon="6.72337">
        <ele>2236.5</ele>
        <time>2012-02-22T14:11:25Z</time>
      </trkpt>
      <trkpt lat="45.52575" lon="6.72334">
        <ele>2235.6</ele>
        <time>2012-02-22T14:11:26Z</time>
      </trkpt>
      <trkpt lat="45.52565" lon="6.72317">
        <ele>2230.1</ele>
        <time>2012-02-22T14:11:31Z</time>
      </trkpt>
      <trkpt lat="45.52562" lon="6.72315">
        <ele>2229.4</ele>
        <time>2012-02-22T14:11:32Z</time>
      </trkpt>
      <trkpt lat="45.52559" lon="6.72314">
        <ele>2228.8</ele>
        <time>2012-02-22T14:11:33Z</time>
      </trkpt>
      <trkpt lat="45.52557" lon="6.72317">
        <ele>2228.4</ele>
        <time>2012-02-22T14:11:34Z</time>
      </trkpt>
      <trkpt lat="45.52555" lon="6.72333">
        <ele>2225.6</ele>
        <time>2012-02-22T14:11:37Z</time>
      </trkpt>
      <trkpt lat="45.52553" lon="6.72338">
        <ele>2224.7</ele>
        <time>2012-02-22T14:11:38Z</time>
      </trkpt>
      <trkpt lat="45.5255" lon="6.72342">
        <ele>2224</ele>
        <time>2012-02-22T14:11:39Z</time>
      </trkpt>
      <trkpt lat="45.52544" lon="6.72344">
        <ele>2223.4</ele>
        <time>2012-02-22T14:11:40Z</time>
      </trkpt>
      <trkpt lat="45.52539" lon="6.72342">
        <ele>2222</ele>
        <time>2012-02-22T14:11:41Z</time>
      </trkpt>
      <trkpt lat="45.52533" lon="6.72339">
        <ele>2221</ele>
        <time>2012-02-22T14:11:42Z</time>
      </trkpt>
      <trkpt lat="45.52528" lon="6.72338">
        <ele>2220.2</ele>
        <time>2012-02-22T14:11:43Z</time>
      </trkpt>
      <trkpt lat="45.52524" lon="6.7234">
        <ele>2218.3</ele>
        <time>2012-02-22T14:11:44Z</time>
      </trkpt>
      <trkpt lat="45.52514" lon="6.72351">
        <ele>2213.9</ele>
        <time>2012-02-22T14:11:48Z</time>
      </trkpt>
      <trkpt lat="45.52511" lon="6.72353">
        <ele>2213.3</ele>
        <time>2012-02-22T14:11:49Z</time>
      </trkpt>
      <trkpt lat="45.52507" lon="6.72351">
        <ele>2212.9</ele>
        <time>2012-02-22T14:11:50Z</time>
      </trkpt>
      <trkpt lat="45.52499" lon="6.72345">
        <ele>2211.1</ele>
        <time>2012-02-22T14:11:52Z</time>
      </trkpt>
      <trkpt lat="45.52496" lon="6.72344">
        <ele>2210.5</ele>
        <time>2012-02-22T14:11:53Z</time>
      </trkpt>
      <trkpt lat="45.52481" lon="6.72341">
        <ele>2206.2</ele>
        <time>2012-02-22T14:11:59Z</time>
      </trkpt>
      <trkpt lat="45.52479" lon="6.72338">
        <ele>2205.6</ele>
        <time>2012-02-22T14:12:00Z</time>
      </trkpt>
      <trkpt lat="45.52478" lon="6.72335">
        <ele>2205</ele>
        <time>2012-02-22T14:12:01Z</time>
      </trkpt>
      <trkpt lat="45.52465" lon="6.72298">
        <ele>2201</ele>
        <time>2012-02-22T14:13:27Z</time>
      </trkpt>
      <trkpt lat="45.52464" lon="6.72297">
        <ele>2200.7</ele>
        <time>2012-02-22T14:13:28Z</time>
      </trkpt>
      <trkpt lat="45.52463" lon="6.72293">
        <ele>2200.7</ele>
        <time>2012-02-22T14:13:30Z</time>
      </trkpt>
      <trkpt lat="45.52463" lon="6.72292">
        <ele>2200.9</ele>
        <time>2012-02-22T14:13:31Z</time>
      </trkpt>
      <trkpt lat="45.52463" lon="6.7229">
        <ele>2201.1</ele>
        <time>2012-02-22T14:13:32Z</time>
      </trkpt>
      <trkpt lat="45.52463" lon="6.72287">
        <ele>2201.1</ele>
        <time>2012-02-22T14:13:33Z</time>
      </trkpt>
      <trkpt lat="45.52463" lon="6.72285">
        <ele>2201.1</ele>
        <time>2012-02-22T14:13:34Z</time>
      </trkpt>
      <trkpt lat="45.52463" lon="6.72284">
        <ele>2201.1</ele>
        <time>2012-02-22T14:13:35Z</time>
      </trkpt>
      <trkpt lat="45.52462" lon="6.72282">
        <ele>2201.1</ele>
        <time>2012-02-22T14:13:36Z</time>
      </trkpt>
      <trkpt lat="45.52462" lon="6.72279">
        <ele>2201</ele>
        <time>2012-02-22T14:13:38Z</time>
      </trkpt>
      <trkpt lat="45.52461" lon="6.72273">
        <ele>2202.7</ele>
        <time>2012-02-22T14:13:41Z</time>
      </trkpt>
      <trkpt lat="45.5246" lon="6.72271">
        <ele>2203</ele>
        <time>2012-02-22T14:13:42Z</time>
      </trkpt>
      <trkpt lat="45.52458" lon="6.72265">
        <ele>2203.5</ele>
        <time>2012-02-22T14:13:44Z</time>
      </trkpt>
      <trkpt lat="45.52458" lon="6.72264">
        <ele>2203.6</ele>
        <time>2012-02-22T14:13:45Z</time>
      </trkpt>
      <trkpt lat="45.52457" lon="6.72262">
        <ele>2204.4</ele>
        <time>2012-02-22T14:13:46Z</time>
      </trkpt>
      <trkpt lat="45.52457" lon="6.72257">
        <ele>2205.3</ele>
        <time>2012-02-22T14:13:48Z</time>
      </trkpt>
      <trkpt lat="45.52456" lon="6.72256">
        <ele>2205.8</ele>
        <time>2012-02-22T14:13:49Z</time>
      </trkpt>
      <trkpt lat="45.52455" lon="6.7225">
        <ele>2206.5</ele>
        <time>2012-02-22T14:13:51Z</time>
      </trkpt>
      <trkpt lat="45.52454" lon="6.72249">
        <ele>2207.2</ele>
        <time>2012-02-22T14:13:52Z</time>
      </trkpt>
      <trkpt lat="45.52453" lon="6.72242">
        <ele>2209</ele>
        <time>2012-02-22T14:13:55Z</time>
      </trkpt>
      <trkpt lat="45.52452" lon="6.7224">
        <ele>2209.6</ele>
        <time>2012-02-22T14:13:56Z</time>
      </trkpt>
      <trkpt lat="45.52444" lon="6.72209">
        <ele>2216</ele>
        <time>2012-02-22T14:14:10Z</time>
      </trkpt>
      <trkpt lat="45.52444" lon="6.72207">
        <ele>2216.4</ele>
        <time>2012-02-22T14:14:11Z</time>
      </trkpt>
      <trkpt lat="45.52442" lon="6.72202">
        <ele>2216.8</ele>
        <time>2012-02-22T14:14:13Z</time>
      </trkpt>
      <trkpt lat="45.52437" lon="6.72186">
        <ele>2219.8</ele>
        <time>2012-02-22T14:14:20Z</time>
      </trkpt>
      <trkpt lat="45.52437" lon="6.72184">
        <ele>2220.5</ele>
        <time>2012-02-22T14:14:21Z</time>
      </trkpt>
      <trkpt lat="45.52436" lon="6.72182">
        <ele>2221</ele>
        <time>2012-02-22T14:14:22Z</time>
      </trkpt>
      <trkpt lat="45.52436" lon="6.7218">
        <ele>2221.4</ele>
        <time>2012-02-22T14:14:23Z</time>
      </trkpt>
      <trkpt lat="45.52435" lon="6.72179">
        <ele>2222.2</ele>
        <time>2012-02-22T14:14:24Z</time>
      </trkpt>
      <trkpt lat="45.52435" lon="6.72177">
        <ele>2222.9</ele>
        <time>2012-02-22T14:14:25Z</time>
      </trkpt>
      <trkpt lat="45.52434" lon="6.72176">
        <ele>2223.3</ele>
        <time>2012-02-22T14:14:26Z</time>
      </trkpt>
      <trkpt lat="45.52434" lon="6.72174">
        <ele>2223.6</ele>
        <time>2012-02-22T14:14:27Z</time>
      </trkpt>
      <trkpt lat="45.52433" lon="6.72173">
        <ele>2223.9</ele>
        <time>2012-02-22T14:14:28Z</time>
      </trkpt>
      <trkpt lat="45.52433" lon="6.72171">
        <ele>2224</ele>
        <time>2012-02-22T14:14:29Z</time>
      </trkpt>
      <trkpt lat="45.52432" lon="6.72169">
        <ele>2224.8</ele>
        <time>2012-02-22T14:14:30Z</time>
      </trkpt>
      <trkpt lat="45.52432" lon="6.72167">
        <ele>2225.4</ele>
        <time>2012-02-22T14:14:31Z</time>
      </trkpt>
      <trkpt lat="45.52431" lon="6.72165">
        <ele>2225.8</ele>
        <time>2012-02-22T14:14:32Z</time>
      </trkpt>
      <trkpt lat="45.52429" lon="6.72157">
        <ele>2227</ele>
        <time>2012-02-22T14:14:36Z</time>
      </trkpt>
      <trkpt lat="45.52428" lon="6.72153">
        <ele>2228.4</ele>
        <time>2012-02-22T14:14:38Z</time>
      </trkpt>
      <trkpt lat="45.52427" lon="6.72149">
        <ele>2229.8</ele>
        <time>2012-02-22T14:14:40Z</time>
      </trkpt>
      <trkpt lat="45.52427" lon="6.72147">
        <ele>2230.5</ele>
        <time>2012-02-22T14:14:41Z</time>
      </trkpt>
      <trkpt lat="45.52427" lon="6.72145">
        <ele>2231</ele>
        <time>2012-02-22T14:14:42Z</time>
      </trkpt>
      <trkpt lat="45.52425" lon="6.72136">
        <ele>2233.5</ele>
        <time>2012-02-22T14:14:46Z</time>
      </trkpt>
      <trkpt lat="45.52424" lon="6.72134">
        <ele>2233.8</ele>
        <time>2012-02-22T14:14:47Z</time>
      </trkpt>
      <trkpt lat="45.52418" lon="6.72108">
        <ele>2241.7</ele>
        <time>2012-02-22T14:14:58Z</time>
      </trkpt>
      <trkpt lat="45.52418" lon="6.72106">
        <ele>2242.5</ele>
        <time>2012-02-22T14:14:59Z</time>
      </trkpt>
      <trkpt lat="45.52396" lon="6.72021">
        <ele>2274.5</ele>
        <time>2012-02-22T14:15:39Z</time>
      </trkpt>
      <trkpt lat="45.52395" lon="6.72019">
        <ele>2275.7</ele>
        <time>2012-02-22T14:15:40Z</time>
      </trkpt>
      <trkpt lat="45.52395" lon="6.72018">
        <ele>2276.6</ele>
        <time>2012-02-22T14:15:41Z</time>
      </trkpt>
      <trkpt lat="45.52393" lon="6.72012">
        <ele>2279.3</ele>
        <time>2012-02-22T14:15:44Z</time>
      </trkpt>
      <trkpt lat="45.52393" lon="6.7201">
        <ele>2280.4</ele>
        <time>2012-02-22T14:15:45Z</time>
      </trkpt>
      <trkpt lat="45.52392" lon="6.72008">
        <ele>2281.2</ele>
        <time>2012-02-22T14:15:46Z</time>
      </trkpt>
      <trkpt lat="45.52387" lon="6.7199">
        <ele>2287.5</ele>
        <time>2012-02-22T14:15:54Z</time>
      </trkpt>
      <trkpt lat="45.52387" lon="6.71989">
        <ele>2287.9</ele>
        <time>2012-02-22T14:15:55Z</time>
      </trkpt>
      <trkpt lat="45.52386" lon="6.71988">
        <ele>2289.4</ele>
        <time>2012-02-22T14:15:56Z</time>
      </trkpt>
      <trkpt lat="45.52386" lon="6.71986">
        <ele>2290.5</ele>
        <time>2012-02-22T14:15:57Z</time>
      </trkpt>
      <trkpt lat="45.52385" lon="6.71984">
        <ele>2291.3</ele>
        <time>2012-02-22T14:15:58Z</time>
      </trkpt>
      <trkpt lat="45.52377" lon="6.71951">
        <ele>2296.8</ele>
        <time>2012-02-22T14:16:12Z</time>
      </trkpt>
      <trkpt lat="45.52377" lon="6.7195">
        <ele>2296.8</ele>
        <time>2012-02-22T14:16:13Z</time>
      </trkpt>
      <trkpt lat="45.52376" lon="6.71948">
        <ele>2296.8</ele>
        <time>2012-02-22T14:16:14Z</time>
      </trkpt>
      <trkpt lat="45.52376" lon="6.71946">
        <ele>2296.8</ele>
        <time>2012-02-22T14:16:15Z</time>
      </trkpt>
      <trkpt lat="45.52376" lon="6.71945">
        <ele>2297.6</ele>
        <time>2012-02-22T14:16:16Z</time>
      </trkpt>
      <trkpt lat="45.52375" lon="6.71943">
        <ele>2298.1</ele>
        <time>2012-02-22T14:16:17Z</time>
      </trkpt>
      <trkpt lat="45.52375" lon="6.71941">
        <ele>2298.5</ele>
        <time>2012-02-22T14:16:18Z</time>
      </trkpt>
      <trkpt lat="45.52367" lon="6.71906">
        <ele>2307.3</ele>
        <time>2012-02-22T14:16:35Z</time>
      </trkpt>
      <trkpt lat="45.52366" lon="6.71904">
        <ele>2307.9</ele>
        <time>2012-02-22T14:16:36Z</time>
      </trkpt>
      <trkpt lat="45.52365" lon="6.71901">
        <ele>2309.3</ele>
        <time>2012-02-22T14:16:38Z</time>
      </trkpt>
      <trkpt lat="45.52365" lon="6.719">
        <ele>2310</ele>
        <time>2012-02-22T14:16:39Z</time>
      </trkpt>
      <trkpt lat="45.5235" lon="6.71839">
        <ele>2319.9</ele>
        <time>2012-02-22T14:17:05Z</time>
      </trkpt>
      <trkpt lat="45.52344" lon="6.71811">
        <ele>2325.5</ele>
        <time>2012-02-22T14:17:18Z</time>
      </trkpt>
      <trkpt lat="45.52344" lon="6.7181">
        <ele>2326</ele>
        <time>2012-02-22T14:17:19Z</time>
      </trkpt>
      <trkpt lat="45.52343" lon="6.71807">
        <ele>2326.7</ele>
        <time>2012-02-22T14:17:21Z</time>
      </trkpt>
      <trkpt lat="45.52334" lon="6.71764">
        <ele>2334.8</ele>
        <time>2012-02-22T14:17:40Z</time>
      </trkpt>
      <trkpt lat="45.52334" lon="6.71763">
        <ele>2334.9</ele>
        <time>2012-02-22T14:17:41Z</time>
      </trkpt>
      <trkpt lat="45.52334" lon="6.71762">
        <ele>2335.5</ele>
        <time>2012-02-22T14:17:42Z</time>
      </trkpt>
      <trkpt lat="45.52334" lon="6.71761">
        <ele>2335.9</ele>
        <time>2012-02-22T14:17:43Z</time>
      </trkpt>
      <trkpt lat="45.52333" lon="6.7176">
        <ele>2336.2</ele>
        <time>2012-02-22T14:17:44Z</time>
      </trkpt>
      <trkpt lat="45.52333" lon="6.7176">
        <ele>2336.6</ele>
        <time>2012-02-22T14:17:45Z</time>
      </trkpt>
      <trkpt lat="45.52333" lon="6.71759">
        <ele>2336.8</ele>
        <time>2012-02-22T14:17:46Z</time>
      </trkpt>
      <trkpt lat="45.52333" lon="6.71758">
        <ele>2337</ele>
        <time>2012-02-22T14:17:47Z</time>
      </trkpt>
      <trkpt lat="45.52333" lon="6.71756">
        <ele>2337.3</ele>
        <time>2012-02-22T14:17:48Z</time>
      </trkpt>
      <trkpt lat="45.52332" lon="6.71755">
        <ele>2337.6</ele>
        <time>2012-02-22T14:17:49Z</time>
      </trkpt>
      <trkpt lat="45.52332" lon="6.71755">
        <ele>2337.8</ele>
        <time>2012-02-22T14:17:50Z</time>
      </trkpt>
      <trkpt lat="45.52332" lon="6.71753">
        <ele>2338.3</ele>
        <time>2012-02-22T14:17:51Z</time>
      </trkpt>
      <trkpt lat="45.52332" lon="6.71752">
        <ele>2338.7</ele>
        <time>2012-02-22T14:17:52Z</time>
      </trkpt>
      <trkpt lat="45.52331" lon="6.71751">
        <ele>2339</ele>
        <time>2012-02-22T14:17:53Z</time>
      </trkpt>
      <trkpt lat="45.52331" lon="6.7175">
        <ele>2339.3</ele>
        <time>2012-02-22T14:17:54Z</time>
      </trkpt>
      <trkpt lat="45.52331" lon="6.71748">
        <ele>2339</ele>
        <time>2012-02-22T14:17:55Z</time>
      </trkpt>
      <trkpt lat="45.5233" lon="6.71747">
        <ele>2338.8</ele>
        <time>2012-02-22T14:17:56Z</time>
      </trkpt>
      <trkpt lat="45.5233" lon="6.71745">
        <ele>2338.7</ele>
        <time>2012-02-22T14:17:57Z</time>
      </trkpt>
      <trkpt lat="45.52328" lon="6.71738">
        <ele>2339.6</ele>
        <time>2012-02-22T14:18:01Z</time>
      </trkpt>
      <trkpt lat="45.52328" lon="6.71736">
        <ele>2339.9</ele>
        <time>2012-02-22T14:18:02Z</time>
      </trkpt>
      <trkpt lat="45.52327" lon="6.71732">
        <ele>2340.5</ele>
        <time>2012-02-22T14:18:05Z</time>
      </trkpt>
      <trkpt lat="45.52319" lon="6.71699">
        <ele>2347.6</ele>
        <time>2012-02-22T14:18:21Z</time>
      </trkpt>
      <trkpt lat="45.52319" lon="6.71697">
        <ele>2348</ele>
        <time>2012-02-22T14:18:22Z</time>
      </trkpt>
      <trkpt lat="45.52319" lon="6.71695">
        <ele>2348.3</ele>
        <time>2012-02-22T14:18:23Z</time>
      </trkpt>
      <trkpt lat="45.52315" lon="6.71678">
        <ele>2350.4</ele>
        <time>2012-02-22T14:18:31Z</time>
      </trkpt>
      <trkpt lat="45.52315" lon="6.71677">
        <ele>2350.9</ele>
        <time>2012-02-22T14:18:32Z</time>
      </trkpt>
      <trkpt lat="45.52315" lon="6.71676">
        <ele>2351.2</ele>
        <time>2012-02-22T14:18:33Z</time>
      </trkpt>
      <trkpt lat="45.5231" lon="6.71643">
        <ele>2354.3</ele>
        <time>2012-02-22T14:18:47Z</time>
      </trkpt>
      <trkpt lat="45.52309" lon="6.7164">
        <ele>2354.2</ele>
        <time>2012-02-22T14:18:48Z</time>
      </trkpt>
      <trkpt lat="45.52307" lon="6.71636">
        <ele>2354.1</ele>
        <time>2012-02-22T14:18:49Z</time>
      </trkpt>
      <trkpt lat="45.52305" lon="6.71632">
        <ele>2354.1</ele>
        <time>2012-02-22T14:18:50Z</time>
      </trkpt>
      <trkpt lat="45.52292" lon="6.71611">
        <ele>2351.7</ele>
        <time>2012-02-22T14:19:56Z</time>
      </trkpt>
      <trkpt lat="45.52286" lon="6.7161">
        <ele>2351.5</ele>
        <time>2012-02-22T14:19:58Z</time>
      </trkpt>
      <trkpt lat="45.52202" lon="6.71591">
        <ele>2341.9</ele>
        <time>2012-02-22T14:20:10Z</time>
      </trkpt>
      <trkpt lat="45.52173" lon="6.71575">
        <ele>2338.7</ele>
        <time>2012-02-22T14:20:14Z</time>
      </trkpt>
      <trkpt lat="45.52155" lon="6.71562">
        <ele>2336.5</ele>
        <time>2012-02-22T14:20:16Z</time>
      </trkpt>
      <trkpt lat="45.52145" lon="6.71559">
        <ele>2335.7</ele>
        <time>2012-02-22T14:20:17Z</time>
      </trkpt>
      <trkpt lat="45.52136" lon="6.71552">
        <ele>2333.4</ele>
        <time>2012-02-22T14:20:18Z</time>
      </trkpt>
      <trkpt lat="45.52124" lon="6.71532">
        <ele>2330.4</ele>
        <time>2012-02-22T14:20:20Z</time>
      </trkpt>
      <trkpt lat="45.52117" lon="6.71528">
        <ele>2329.2</ele>
        <time>2012-02-22T14:20:21Z</time>
      </trkpt>
      <trkpt lat="45.52103" lon="6.71532">
        <ele>2327.7</ele>
        <time>2012-02-22T14:20:23Z</time>
      </trkpt>
      <trkpt lat="45.52096" lon="6.71531">
        <ele>2327.2</ele>
        <time>2012-02-22T14:20:24Z</time>
      </trkpt>
      <trkpt lat="45.5209" lon="6.71526">
        <ele>2326.7</ele>
        <time>2012-02-22T14:20:25Z</time>
      </trkpt>
      <trkpt lat="45.52085" lon="6.71518">
        <ele>2326.4</ele>
        <time>2012-02-22T14:20:26Z</time>
      </trkpt>
      <trkpt lat="45.52073" lon="6.71504">
        <ele>2325.3</ele>
        <time>2012-02-22T14:20:28Z</time>
      </trkpt>
      <trkpt lat="45.52066" lon="6.71504">
        <ele>2324.8</ele>
        <time>2012-02-22T14:20:29Z</time>
      </trkpt>
      <trkpt lat="45.52063" lon="6.71506">
        <ele>2324.3</ele>
        <time>2012-02-22T14:20:30Z</time>
      </trkpt>
      <trkpt lat="45.52059" lon="6.71508">
        <ele>2323</ele>
        <time>2012-02-22T14:20:32Z</time>
      </trkpt>
      <trkpt lat="45.52057" lon="6.71506">
        <ele>2322.6</ele>
        <time>2012-02-22T14:20:33Z</time>
      </trkpt>
      <trkpt lat="45.52054" lon="6.71504">
        <ele>2320.3</ele>
        <time>2012-02-22T14:20:43Z</time>
      </trkpt>
      <trkpt lat="45.52052" lon="6.71499">
        <ele>2319.3</ele>
        <time>2012-02-22T14:20:45Z</time>
      </trkpt>
      <trkpt lat="45.52049" lon="6.71495">
        <ele>2319.1</ele>
        <time>2012-02-22T14:20:46Z</time>
      </trkpt>
      <trkpt lat="45.52034" lon="6.71484">
        <ele>2319</ele>
        <time>2012-02-22T14:20:49Z</time>
      </trkpt>
      <trkpt lat="45.52019" lon="6.71476">
        <ele>2316.8</ele>
        <time>2012-02-22T14:20:51Z</time>
      </trkpt>
      <trkpt lat="45.52011" lon="6.7147">
        <ele>2316.1</ele>
        <time>2012-02-22T14:20:52Z</time>
      </trkpt>
      <trkpt lat="45.52007" lon="6.71458">
        <ele>2314</ele>
        <time>2012-02-22T14:20:53Z</time>
      </trkpt>
      <trkpt lat="45.52006" lon="6.71445">
        <ele>2312.4</ele>
        <time>2012-02-22T14:20:54Z</time>
      </trkpt>
      <trkpt lat="45.52007" lon="6.71432">
        <ele>2311.2</ele>
        <time>2012-02-22T14:20:55Z</time>
      </trkpt>
      <trkpt lat="45.52007" lon="6.71421">
        <ele>2309.2</ele>
        <time>2012-02-22T14:20:56Z</time>
      </trkpt>
      <trkpt lat="45.52003" lon="6.71414">
        <ele>2307.7</ele>
        <time>2012-02-22T14:20:57Z</time>
      </trkpt>
      <trkpt lat="45.51995" lon="6.71409">
        <ele>2306.6</ele>
        <time>2012-02-22T14:20:58Z</time>
      </trkpt>
      <trkpt lat="45.5199" lon="6.71403">
        <ele>2305.7</ele>
        <time>2012-02-22T14:20:59Z</time>
      </trkpt>
      <trkpt lat="45.51991" lon="6.71396">
        <ele>2305.6</ele>
        <time>2012-02-22T14:21:00Z</time>
      </trkpt>
      <trkpt lat="45.51996" lon="6.71389">
        <ele>2305.5</ele>
        <time>2012-02-22T14:21:01Z</time>
      </trkpt>
      <trkpt lat="45.51999" lon="6.71382">
        <ele>2305.4</ele>
        <time>2012-02-22T14:21:02Z</time>
      </trkpt>
      <trkpt lat="45.51998" lon="6.71378">
        <ele>2303.8</ele>
        <time>2012-02-22T14:21:03Z</time>
      </trkpt>
      <trkpt lat="45.51985" lon="6.71369">
        <ele>2301.7</ele>
        <time>2012-02-22T14:21:05Z</time>
      </trkpt>
      <trkpt lat="45.51982" lon="6.71366">
        <ele>2300.4</ele>
        <time>2012-02-22T14:21:06Z</time>
      </trkpt>
      <trkpt lat="45.51975" lon="6.71344">
        <ele>2298.2</ele>
        <time>2012-02-22T14:21:09Z</time>
      </trkpt>
      <trkpt lat="45.5197" lon="6.71318">
        <ele>2297.5</ele>
        <time>2012-02-22T14:21:11Z</time>
      </trkpt>
      <trkpt lat="45.51969" lon="6.71303">
        <ele>2294.6</ele>
        <time>2012-02-22T14:21:12Z</time>
      </trkpt>
      <trkpt lat="45.51972" lon="6.7126">
        <ele>2289.6</ele>
        <time>2012-02-22T14:21:15Z</time>
      </trkpt>
      <trkpt lat="45.51971" lon="6.71252">
        <ele>2287.7</ele>
        <time>2012-02-22T14:21:16Z</time>
      </trkpt>
      <trkpt lat="45.51967" lon="6.71245">
        <ele>2286.2</ele>
        <time>2012-02-22T14:21:17Z</time>
      </trkpt>
      <trkpt lat="45.51906" lon="6.7121">
        <ele>2279</ele>
        <time>2012-02-22T14:21:25Z</time>
      </trkpt>
      <trkpt lat="45.51902" lon="6.712">
        <ele>2278.2</ele>
        <time>2012-02-22T14:21:26Z</time>
      </trkpt>
      <trkpt lat="45.51899" lon="6.71188">
        <ele>2277.6</ele>
        <time>2012-02-22T14:21:27Z</time>
      </trkpt>
      <trkpt lat="45.51893" lon="6.71178">
        <ele>2275.7</ele>
        <time>2012-02-22T14:21:28Z</time>
      </trkpt>
      <trkpt lat="45.51885" lon="6.71169">
        <ele>2274.3</ele>
        <time>2012-02-22T14:21:29Z</time>
      </trkpt>
      <trkpt lat="45.51874" lon="6.71147">
        <ele>2272.5</ele>
        <time>2012-02-22T14:21:31Z</time>
      </trkpt>
      <trkpt lat="45.51867" lon="6.71139">
        <ele>2270</ele>
        <time>2012-02-22T14:21:32Z</time>
      </trkpt>
      <trkpt lat="45.51861" lon="6.71127">
        <ele>2268.2</ele>
        <time>2012-02-22T14:21:33Z</time>
      </trkpt>
      <trkpt lat="45.51847" lon="6.7111">
        <ele>2263.5</ele>
        <time>2012-02-22T14:21:35Z</time>
      </trkpt>
      <trkpt lat="45.51837" lon="6.71088">
        <ele>2259.2</ele>
        <time>2012-02-22T14:21:37Z</time>
      </trkpt>
      <trkpt lat="45.51829" lon="6.71078">
        <ele>2256</ele>
        <time>2012-02-22T14:21:38Z</time>
      </trkpt>
      <trkpt lat="45.51819" lon="6.71071">
        <ele>2253.6</ele>
        <time>2012-02-22T14:21:39Z</time>
      </trkpt>
      <trkpt lat="45.51808" lon="6.71068">
        <ele>2251.9</ele>
        <time>2012-02-22T14:21:40Z</time>
      </trkpt>
      <trkpt lat="45.51761" lon="6.71073">
        <ele>2240.5</ele>
        <time>2012-02-22T14:21:44Z</time>
      </trkpt>
      <trkpt lat="45.5175" lon="6.71069">
        <ele>2238.3</ele>
        <time>2012-02-22T14:21:45Z</time>
      </trkpt>
      <trkpt lat="45.51729" lon="6.71049">
        <ele>2233.8</ele>
        <time>2012-02-22T14:21:47Z</time>
      </trkpt>
      <trkpt lat="45.51717" lon="6.71046">
        <ele>2231.6</ele>
        <time>2012-02-22T14:21:48Z</time>
      </trkpt>
      <trkpt lat="45.51706" lon="6.71049">
        <ele>2229.9</ele>
        <time>2012-02-22T14:21:49Z</time>
      </trkpt>
      <trkpt lat="45.51693" lon="6.71056">
        <ele>2228.7</ele>
        <time>2012-02-22T14:21:50Z</time>
      </trkpt>
      <trkpt lat="45.51681" lon="6.71057">
        <ele>2225.9</ele>
        <time>2012-02-22T14:21:51Z</time>
      </trkpt>
      <trkpt lat="45.51671" lon="6.71049">
        <ele>2223.8</ele>
        <time>2012-02-22T14:21:52Z</time>
      </trkpt>
      <trkpt lat="45.51665" lon="6.71036">
        <ele>2222.2</ele>
        <time>2012-02-22T14:21:53Z</time>
      </trkpt>
      <trkpt lat="45.51655" lon="6.71009">
        <ele>2217.8</ele>
        <time>2012-02-22T14:21:55Z</time>
      </trkpt>
      <trkpt lat="45.51648" lon="6.71002">
        <ele>2216.3</ele>
        <time>2012-02-22T14:21:56Z</time>
      </trkpt>
      <trkpt lat="45.51632" lon="6.70999">
        <ele>2214.2</ele>
        <time>2012-02-22T14:21:58Z</time>
      </trkpt>
      <trkpt lat="45.51606" lon="6.7099">
        <ele>2203.9</ele>
        <time>2012-02-22T14:22:59Z</time>
      </trkpt>
      <trkpt lat="45.51596" lon="6.70964">
        <ele>2201.2</ele>
        <time>2012-02-22T14:23:02Z</time>
      </trkpt>
      <trkpt lat="45.51592" lon="6.70957">
        <ele>2200.4</ele>
        <time>2012-02-22T14:23:03Z</time>
      </trkpt>
      <trkpt lat="45.51586" lon="6.70951">
        <ele>2198.6</ele>
        <time>2012-02-22T14:23:04Z</time>
      </trkpt>
      <trkpt lat="45.51578" lon="6.70952">
        <ele>2197.3</ele>
        <time>2012-02-22T14:23:05Z</time>
      </trkpt>
      <trkpt lat="45.51558" lon="6.70964">
        <ele>2193.6</ele>
        <time>2012-02-22T14:23:07Z</time>
      </trkpt>
      <trkpt lat="45.51546" lon="6.70968">
        <ele>2191.6</ele>
        <time>2012-02-22T14:23:08Z</time>
      </trkpt>
      <trkpt lat="45.51533" lon="6.70969">
        <ele>2190.1</ele>
        <time>2012-02-22T14:23:09Z</time>
      </trkpt>
      <trkpt lat="45.51519" lon="6.70966">
        <ele>2186.4</ele>
        <time>2012-02-22T14:23:10Z</time>
      </trkpt>
      <trkpt lat="45.51505" lon="6.70961">
        <ele>2183.5</ele>
        <time>2012-02-22T14:23:11Z</time>
      </trkpt>
      <trkpt lat="45.51441" lon="6.70924">
        <ele>2170.7</ele>
        <time>2012-02-22T14:23:16Z</time>
      </trkpt>
      <trkpt lat="45.5138" lon="6.70858">
        <ele>2160.1</ele>
        <time>2012-02-22T14:23:23Z</time>
      </trkpt>
      <trkpt lat="45.51371" lon="6.70854">
        <ele>2159</ele>
        <time>2012-02-22T14:23:24Z</time>
      </trkpt>
      <trkpt lat="45.51344" lon="6.70837">
        <ele>2154.3</ele>
        <time>2012-02-22T14:23:27Z</time>
      </trkpt>
      <trkpt lat="45.51331" lon="6.70821">
        <ele>2152.1</ele>
        <time>2012-02-22T14:23:29Z</time>
      </trkpt>
      <trkpt lat="45.51317" lon="6.70815">
        <ele>2151</ele>
        <time>2012-02-22T14:23:31Z</time>
      </trkpt>
      <trkpt lat="45.51312" lon="6.70809">
        <ele>2150.7</ele>
        <time>2012-02-22T14:23:32Z</time>
      </trkpt>
      <trkpt lat="45.51305" lon="6.70793">
        <ele>2149.2</ele>
        <time>2012-02-22T14:23:34Z</time>
      </trkpt>
      <trkpt lat="45.51295" lon="6.70779">
        <ele>2148.3</ele>
        <time>2012-02-22T14:23:36Z</time>
      </trkpt>
      <trkpt lat="45.51293" lon="6.70772">
        <ele>2148</ele>
        <time>2012-02-22T14:23:37Z</time>
      </trkpt>
      <trkpt lat="45.51288" lon="6.70768">
        <ele>2147.8</ele>
        <time>2012-02-22T14:23:38Z</time>
      </trkpt>
      <trkpt lat="45.51279" lon="6.70766">
        <ele>2146</ele>
        <time>2012-02-22T14:23:40Z</time>
      </trkpt>
      <trkpt lat="45.51276" lon="6.70763">
        <ele>2145.4</ele>
        <time>2012-02-22T14:23:41Z</time>
      </trkpt>
      <trkpt lat="45.51273" lon="6.70757">
        <ele>2144.7</ele>
        <time>2012-02-22T14:23:42Z</time>
      </trkpt>
      <trkpt lat="45.51266" lon="6.70748">
        <ele>2143.9</ele>
        <time>2012-02-22T14:23:44Z</time>
      </trkpt>
      <trkpt lat="45.51261" lon="6.70743">
        <ele>2143.6</ele>
        <time>2012-02-22T14:23:45Z</time>
      </trkpt>
      <trkpt lat="45.51256" lon="6.70737">
        <ele>2141.8</ele>
        <time>2012-02-22T14:23:46Z</time>
      </trkpt>
      <trkpt lat="45.51245" lon="6.70725">
        <ele>2139.5</ele>
        <time>2012-02-22T14:23:48Z</time>
      </trkpt>
      <trkpt lat="45.51237" lon="6.70721">
        <ele>2136.5</ele>
        <time>2012-02-22T14:23:49Z</time>
      </trkpt>
      <trkpt lat="45.51222" lon="6.70708">
        <ele>2132.6</ele>
        <time>2012-02-22T14:23:51Z</time>
      </trkpt>
      <trkpt lat="45.51203" lon="6.70706">
        <ele>2126.4</ele>
        <time>2012-02-22T14:23:53Z</time>
      </trkpt>
      <trkpt lat="45.51194" lon="6.70703">
        <ele>2124.5</ele>
        <time>2012-02-22T14:23:54Z</time>
      </trkpt>
      <trkpt lat="45.51186" lon="6.70702">
        <ele>2119</ele>
        <time>2012-02-22T14:23:56Z</time>
      </trkpt>
      <trkpt lat="45.51185" lon="6.707">
        <ele>2115.8</ele>
        <time>2012-02-22T14:23:58Z</time>
      </trkpt>
      <trkpt lat="45.51181" lon="6.70699">
        <ele>2111</ele>
        <time>2012-02-22T14:24:11Z</time>
      </trkpt>
      <trkpt lat="45.51182" lon="6.70699">
        <ele>2110.6</ele>
        <time>2012-02-22T14:24:14Z</time>
      </trkpt>
      <trkpt lat="45.51187" lon="6.70694">
        <ele>2109.2</ele>
        <time>2012-02-22T14:24:27Z</time>
      </trkpt>
      <trkpt lat="45.51186" lon="6.70692">
        <ele>2109.2</ele>
        <time>2012-02-22T14:24:28Z</time>
      </trkpt>
      <trkpt lat="45.51184" lon="6.70691">
        <ele>2109.2</ele>
        <time>2012-02-22T14:24:29Z</time>
      </trkpt>
      <trkpt lat="45.5118" lon="6.70688">
        <ele>2108.4</ele>
        <time>2012-02-22T14:24:31Z</time>
      </trkpt>
      <trkpt lat="45.51178" lon="6.70684">
        <ele>2108.1</ele>
        <time>2012-02-22T14:24:32Z</time>
      </trkpt>
      <trkpt lat="45.51179" lon="6.70679">
        <ele>2106.9</ele>
        <time>2012-02-22T14:24:33Z</time>
      </trkpt>
      <trkpt lat="45.51181" lon="6.70671">
        <ele>2106</ele>
        <time>2012-02-22T14:24:34Z</time>
      </trkpt>
      <trkpt lat="45.51182" lon="6.70662">
        <ele>2105.3</ele>
        <time>2012-02-22T14:24:35Z</time>
      </trkpt>
      <trkpt lat="45.51178" lon="6.70654">
        <ele>2104.8</ele>
        <time>2012-02-22T14:24:36Z</time>
      </trkpt>
      <trkpt lat="45.51174" lon="6.70624">
        <ele>2095.5</ele>
        <time>2012-02-22T14:24:40Z</time>
      </trkpt>
      <trkpt lat="45.51174" lon="6.70619">
        <ele>2093.2</ele>
        <time>2012-02-22T14:24:41Z</time>
      </trkpt>
      <trkpt lat="45.51175" lon="6.70615">
        <ele>2091.4</ele>
        <time>2012-02-22T14:24:42Z</time>
      </trkpt>
      <trkpt lat="45.51175" lon="6.70613">
        <ele>2089</ele>
        <time>2012-02-22T14:24:43Z</time>
      </trkpt>
      <trkpt lat="45.51173" lon="6.70612">
        <ele>2087.2</ele>
        <time>2012-02-22T14:24:44Z</time>
      </trkpt>
      <trkpt lat="45.51171" lon="6.70611">
        <ele>2085.8</ele>
        <time>2012-02-22T14:24:45Z</time>
      </trkpt>
      <trkpt lat="45.51166" lon="6.7061">
        <ele>2082.9</ele>
        <time>2012-02-22T14:24:47Z</time>
      </trkpt>
      <trkpt lat="45.51164" lon="6.70608">
        <ele>2082</ele>
        <time>2012-02-22T14:24:48Z</time>
      </trkpt>
      <trkpt lat="45.51164" lon="6.70606">
        <ele>2081</ele>
        <time>2012-02-22T14:24:49Z</time>
      </trkpt>
      <trkpt lat="45.51166" lon="6.70593">
        <ele>2079.3</ele>
        <time>2012-02-22T14:24:52Z</time>
      </trkpt>
      <trkpt lat="45.5117" lon="6.70582">
        <ele>2077.2</ele>
        <time>2012-02-22T14:24:54Z</time>
      </trkpt>
      <trkpt lat="45.51171" lon="6.70575">
        <ele>2076.6</ele>
        <time>2012-02-22T14:24:55Z</time>
      </trkpt>
      <trkpt lat="45.51169" lon="6.7057">
        <ele>2075</ele>
        <time>2012-02-22T14:24:56Z</time>
      </trkpt>
      <trkpt lat="45.51165" lon="6.70566">
        <ele>2073.7</ele>
        <time>2012-02-22T14:24:57Z</time>
      </trkpt>
      <trkpt lat="45.51157" lon="6.70562">
        <ele>2071.7</ele>
        <time>2012-02-22T14:24:59Z</time>
      </trkpt>
      <trkpt lat="45.51156" lon="6.70559">
        <ele>2070.9</ele>
        <time>2012-02-22T14:25:00Z</time>
      </trkpt>
      <trkpt lat="45.51154" lon="6.70556">
        <ele>2070.3</ele>
        <time>2012-02-22T14:25:01Z</time>
      </trkpt>
      <trkpt lat="45.51154" lon="6.70552">
        <ele>2069.2</ele>
        <time>2012-02-22T14:25:02Z</time>
      </trkpt>
      <trkpt lat="45.51155" lon="6.70547">
        <ele>2068.3</ele>
        <time>2012-02-22T14:25:03Z</time>
      </trkpt>
      <trkpt lat="45.51159" lon="6.70537">
        <ele>2065</ele>
        <time>2012-02-22T14:25:06Z</time>
      </trkpt>
      <trkpt lat="45.51158" lon="6.70536">
        <ele>2064.1</ele>
        <time>2012-02-22T14:25:07Z</time>
      </trkpt>
      <trkpt lat="45.51156" lon="6.70529">
        <ele>2062.6</ele>
        <time>2012-02-22T14:25:09Z</time>
      </trkpt>
      <trkpt lat="45.51156" lon="6.70524">
        <ele>2061.9</ele>
        <time>2012-02-22T14:25:10Z</time>
      </trkpt>
      <trkpt lat="45.51158" lon="6.70516">
        <ele>2059.6</ele>
        <time>2012-02-22T14:25:12Z</time>
      </trkpt>
      <trkpt lat="45.51156" lon="6.70513">
        <ele>2058.2</ele>
        <time>2012-02-22T14:25:13Z</time>
      </trkpt>
      <trkpt lat="45.51153" lon="6.70509">
        <ele>2057.2</ele>
        <time>2012-02-22T14:25:14Z</time>
      </trkpt>
      <trkpt lat="45.51152" lon="6.70502">
        <ele>2055.7</ele>
        <time>2012-02-22T14:25:15Z</time>
      </trkpt>
      <trkpt lat="45.51153" lon="6.70498">
        <ele>2054.6</ele>
        <time>2012-02-22T14:25:16Z</time>
      </trkpt>
      <trkpt lat="45.51153" lon="6.70494">
        <ele>2053.8</ele>
        <time>2012-02-22T14:25:17Z</time>
      </trkpt>
      <trkpt lat="45.51151" lon="6.70489">
        <ele>2052.1</ele>
        <time>2012-02-22T14:25:18Z</time>
      </trkpt>
      <trkpt lat="45.51151" lon="6.70481">
        <ele>2050.9</ele>
        <time>2012-02-22T14:25:19Z</time>
      </trkpt>
      <trkpt lat="45.51152" lon="6.70472">
        <ele>2050</ele>
        <time>2012-02-22T14:25:20Z</time>
      </trkpt>
      <trkpt lat="45.51151" lon="6.70455">
        <ele>2045.8</ele>
        <time>2012-02-22T14:25:22Z</time>
      </trkpt>
      <trkpt lat="45.51152" lon="6.70446">
        <ele>2044.5</ele>
        <time>2012-02-22T14:25:23Z</time>
      </trkpt>
      <trkpt lat="45.51153" lon="6.70437">
        <ele>2043.5</ele>
        <time>2012-02-22T14:25:24Z</time>
      </trkpt>
      <trkpt lat="45.51152" lon="6.7043">
        <ele>2040.7</ele>
        <time>2012-02-22T14:25:25Z</time>
      </trkpt>
      <trkpt lat="45.51152" lon="6.70423">
        <ele>2038.6</ele>
        <time>2012-02-22T14:25:26Z</time>
      </trkpt>
      <trkpt lat="45.51157" lon="6.70412">
        <ele>2035.2</ele>
        <time>2012-02-22T14:25:28Z</time>
      </trkpt>
      <trkpt lat="45.51158" lon="6.70406">
        <ele>2033.8</ele>
        <time>2012-02-22T14:25:29Z</time>
      </trkpt>
      <trkpt lat="45.51158" lon="6.70401">
        <ele>2032.8</ele>
        <time>2012-02-22T14:25:30Z</time>
      </trkpt>
      <trkpt lat="45.51156" lon="6.70396">
        <ele>2031.4</ele>
        <time>2012-02-22T14:25:31Z</time>
      </trkpt>
      <trkpt lat="45.51155" lon="6.70389">
        <ele>2030.3</ele>
        <time>2012-02-22T14:25:32Z</time>
      </trkpt>
      <trkpt lat="45.51157" lon="6.70383">
        <ele>2029.5</ele>
        <time>2012-02-22T14:25:33Z</time>
      </trkpt>
      <trkpt lat="45.5116" lon="6.70377">
        <ele>2027.4</ele>
        <time>2012-02-22T14:25:34Z</time>
      </trkpt>
      <trkpt lat="45.51163" lon="6.70371">
        <ele>2025.7</ele>
        <time>2012-02-22T14:25:35Z</time>
      </trkpt>
      <trkpt lat="45.51163" lon="6.70363">
        <ele>2024.5</ele>
        <time>2012-02-22T14:25:36Z</time>
      </trkpt>
      <trkpt lat="45.51164" lon="6.70356">
        <ele>2022.3</ele>
        <time>2012-02-22T14:25:37Z</time>
      </trkpt>
      <trkpt lat="45.51165" lon="6.70347">
        <ele>2020.7</ele>
        <time>2012-02-22T14:25:38Z</time>
      </trkpt>
      <trkpt lat="45.51165" lon="6.7034">
        <ele>2019.5</ele>
        <time>2012-02-22T14:25:39Z</time>
      </trkpt>
      <trkpt lat="45.51168" lon="6.70325">
        <ele>2016.6</ele>
        <time>2012-02-22T14:25:41Z</time>
      </trkpt>
      <trkpt lat="45.51167" lon="6.70309">
        <ele>2015</ele>
        <time>2012-02-22T14:25:43Z</time>
      </trkpt>
      <trkpt lat="45.5117" lon="6.70301">
        <ele>2013.6</ele>
        <time>2012-02-22T14:25:44Z</time>
      </trkpt>
      <trkpt lat="45.51174" lon="6.70296">
        <ele>2012.5</ele>
        <time>2012-02-22T14:25:45Z</time>
      </trkpt>
      <trkpt lat="45.51179" lon="6.70293">
        <ele>2011.7</ele>
        <time>2012-02-22T14:25:46Z</time>
      </trkpt>
      <trkpt lat="45.51182" lon="6.70288">
        <ele>2009.9</ele>
        <time>2012-02-22T14:25:47Z</time>
      </trkpt>
      <trkpt lat="45.51183" lon="6.70274">
        <ele>2007.6</ele>
        <time>2012-02-22T14:25:49Z</time>
      </trkpt>
      <trkpt lat="45.51186" lon="6.70269">
        <ele>2006.1</ele>
        <time>2012-02-22T14:25:50Z</time>
      </trkpt>
      <trkpt lat="45.51189" lon="6.70266">
        <ele>2004.9</ele>
        <time>2012-02-22T14:25:51Z</time>
      </trkpt>
      <trkpt lat="45.5119" lon="6.70262">
        <ele>2004</ele>
        <time>2012-02-22T14:25:52Z</time>
      </trkpt>
      <trkpt lat="45.51191" lon="6.70256">
        <ele>2002.6</ele>
        <time>2012-02-22T14:25:53Z</time>
      </trkpt>
      <trkpt lat="45.51192" lon="6.70249">
        <ele>2001.5</ele>
        <time>2012-02-22T14:25:54Z</time>
      </trkpt>
      <trkpt lat="45.51196" lon="6.70243">
        <ele>2000.7</ele>
        <time>2012-02-22T14:25:55Z</time>
      </trkpt>
      <trkpt lat="45.51201" lon="6.70237">
        <ele>1998.8</ele>
        <time>2012-02-22T14:25:56Z</time>
      </trkpt>
      <trkpt lat="45.51204" lon="6.7023">
        <ele>1997.3</ele>
        <time>2012-02-22T14:25:57Z</time>
      </trkpt>
      <trkpt lat="45.51206" lon="6.70221">
        <ele>1996.2</ele>
        <time>2012-02-22T14:25:58Z</time>
      </trkpt>
      <trkpt lat="45.51206" lon="6.70201">
        <ele>1993.3</ele>
        <time>2012-02-22T14:26:00Z</time>
      </trkpt>
      <trkpt lat="45.51208" lon="6.7019">
        <ele>1991.8</ele>
        <time>2012-02-22T14:26:01Z</time>
      </trkpt>
      <trkpt lat="45.51213" lon="6.7018">
        <ele>1990.6</ele>
        <time>2012-02-22T14:26:02Z</time>
      </trkpt>
      <trkpt lat="45.51219" lon="6.70173">
        <ele>1988.8</ele>
        <time>2012-02-22T14:26:03Z</time>
      </trkpt>
      <trkpt lat="45.51223" lon="6.70165">
        <ele>1987.5</ele>
        <time>2012-02-22T14:26:04Z</time>
      </trkpt>
      <trkpt lat="45.51227" lon="6.70151">
        <ele>1984.7</ele>
        <time>2012-02-22T14:26:06Z</time>
      </trkpt>
      <trkpt lat="45.51228" lon="6.70148">
        <ele>1983.4</ele>
        <time>2012-02-22T14:26:07Z</time>
      </trkpt>
      <trkpt lat="45.51226" lon="6.70142">
        <ele>1981.3</ele>
        <time>2012-02-22T14:26:10Z</time>
      </trkpt>
      <trkpt lat="45.51226" lon="6.70141">
        <ele>1981</ele>
        <time>2012-02-22T14:26:11Z</time>
      </trkpt>
      <trkpt lat="45.51225" lon="6.70136">
        <ele>1979.3</ele>
        <time>2012-02-22T14:26:20Z</time>
      </trkpt>
      <trkpt lat="45.51224" lon="6.7013">
        <ele>1979</ele>
        <time>2012-02-22T14:26:23Z</time>
      </trkpt>
      <trkpt lat="45.51224" lon="6.70127">
        <ele>1978.9</ele>
        <time>2012-02-22T14:26:24Z</time>
      </trkpt>
      <trkpt lat="45.51225" lon="6.70124">
        <ele>1978.3</ele>
        <time>2012-02-22T14:26:25Z</time>
      </trkpt>
      <trkpt lat="45.51226" lon="6.70121">
        <ele>1977.9</ele>
        <time>2012-02-22T14:26:26Z</time>
      </trkpt>
      <trkpt lat="45.51227" lon="6.70117">
        <ele>1977.6</ele>
        <time>2012-02-22T14:26:27Z</time>
      </trkpt>
      <trkpt lat="45.51228" lon="6.70113">
        <ele>1976.9</ele>
        <time>2012-02-22T14:26:28Z</time>
      </trkpt>
      <trkpt lat="45.51228" lon="6.70107">
        <ele>1976.5</ele>
        <time>2012-02-22T14:26:29Z</time>
      </trkpt>
      <trkpt lat="45.51226" lon="6.70102">
        <ele>1976.1</ele>
        <time>2012-02-22T14:26:30Z</time>
      </trkpt>
      <trkpt lat="45.51227" lon="6.70095">
        <ele>1975.8</ele>
        <time>2012-02-22T14:26:31Z</time>
      </trkpt>
      <trkpt lat="45.51228" lon="6.70088">
        <ele>1974.7</ele>
        <time>2012-02-22T14:26:32Z</time>
      </trkpt>
      <trkpt lat="45.51228" lon="6.70081">
        <ele>1973.8</ele>
        <time>2012-02-22T14:26:33Z</time>
      </trkpt>
      <trkpt lat="45.51226" lon="6.70074">
        <ele>1973.2</ele>
        <time>2012-02-22T14:26:34Z</time>
      </trkpt>
      <trkpt lat="45.51225" lon="6.70065">
        <ele>1971.6</ele>
        <time>2012-02-22T14:26:35Z</time>
      </trkpt>
      <trkpt lat="45.51228" lon="6.70046">
        <ele>1969.6</ele>
        <time>2012-02-22T14:26:37Z</time>
      </trkpt>
      <trkpt lat="45.51226" lon="6.70036">
        <ele>1967.6</ele>
        <time>2012-02-22T14:26:38Z</time>
      </trkpt>
      <trkpt lat="45.51223" lon="6.70026">
        <ele>1966.1</ele>
        <time>2012-02-22T14:26:39Z</time>
      </trkpt>
      <trkpt lat="45.51215" lon="6.70012">
        <ele>1963.2</ele>
        <time>2012-02-22T14:26:41Z</time>
      </trkpt>
      <trkpt lat="45.51213" lon="6.70003">
        <ele>1961.8</ele>
        <time>2012-02-22T14:26:42Z</time>
      </trkpt>
      <trkpt lat="45.51212" lon="6.69993">
        <ele>1960.8</ele>
        <time>2012-02-22T14:26:43Z</time>
      </trkpt>
      <trkpt lat="45.51213" lon="6.69983">
        <ele>1959.2</ele>
        <time>2012-02-22T14:26:44Z</time>
      </trkpt>
      <trkpt lat="45.51212" lon="6.69973">
        <ele>1958</ele>
        <time>2012-02-22T14:26:45Z</time>
      </trkpt>
      <trkpt lat="45.51209" lon="6.69964">
        <ele>1957.1</ele>
        <time>2012-02-22T14:26:46Z</time>
      </trkpt>
      <trkpt lat="45.51178" lon="6.69917">
        <ele>1950.2</ele>
        <time>2012-02-22T14:26:53Z</time>
      </trkpt>
      <trkpt lat="45.51176" lon="6.69909">
        <ele>1949.1</ele>
        <time>2012-02-22T14:26:54Z</time>
      </trkpt>
      <trkpt lat="45.51175" lon="6.69902">
        <ele>1948.3</ele>
        <time>2012-02-22T14:26:55Z</time>
      </trkpt>
      <trkpt lat="45.51176" lon="6.69896">
        <ele>1947.7</ele>
        <time>2012-02-22T14:26:56Z</time>
      </trkpt>
      <trkpt lat="45.51178" lon="6.69892">
        <ele>1947.4</ele>
        <time>2012-02-22T14:26:57Z</time>
      </trkpt>
      <trkpt lat="45.5118" lon="6.69887">
        <ele>1947.2</ele>
        <time>2012-02-22T14:26:58Z</time>
      </trkpt>
      <trkpt lat="45.51164" lon="6.69846">
        <ele>1942.2</ele>
        <time>2012-02-22T14:34:16Z</time>
      </trkpt>
      <trkpt lat="45.51163" lon="6.69847">
        <ele>1942.3</ele>
        <time>2012-02-22T14:34:17Z</time>
      </trkpt>
      <trkpt lat="45.51162" lon="6.69847">
        <ele>1942.3</ele>
        <time>2012-02-22T14:34:18Z</time>
      </trkpt>
      <trkpt lat="45.51162" lon="6.69847">
        <ele>1942.3</ele>
        <time>2012-02-22T14:34:19Z</time>
      </trkpt>
      <trkpt lat="45.51161" lon="6.69848">
        <ele>1942.3</ele>
        <time>2012-02-22T14:34:20Z</time>
      </trkpt>
      <trkpt lat="45.5116" lon="6.69847">
        <ele>1942.3</ele>
        <time>2012-02-22T14:34:21Z</time>
      </trkpt>
      <trkpt lat="45.5116" lon="6.69847">
        <ele>1942.3</ele>
        <time>2012-02-22T14:34:22Z</time>
      </trkpt>
      <trkpt lat="45.5116" lon="6.69846">
        <ele>1942.3</ele>
        <time>2012-02-22T14:34:23Z</time>
      </trkpt>
      <trkpt lat="45.51159" lon="6.69846">
        <ele>1942.4</ele>
        <time>2012-02-22T14:34:24Z</time>
      </trkpt>
      <trkpt lat="45.51158" lon="6.69847">
        <ele>1942.5</ele>
        <time>2012-02-22T14:34:25Z</time>
      </trkpt>
      <trkpt lat="45.51157" lon="6.69847">
        <ele>1942.6</ele>
        <time>2012-02-22T14:34:27Z</time>
      </trkpt>
      <trkpt lat="45.5115" lon="6.69848">
        <ele>1941.8</ele>
        <time>2012-02-22T14:34:30Z</time>
      </trkpt>
      <trkpt lat="45.50883" lon="6.70011">
        <ele>2012.7</ele>
        <time>2012-02-22T14:35:38Z</time>
      </trkpt>
      <trkpt lat="45.5088" lon="6.70012">
        <ele>2013.3</ele>
        <time>2012-02-22T14:35:39Z</time>
      </trkpt>
      <trkpt lat="45.50499" lon="6.70234">
        <ele>2093.6</ele>
        <time>2012-02-22T14:37:10Z</time>
      </trkpt>
      <trkpt lat="45.5046" lon="6.70253">
        <ele>2106.7</ele>
        <time>2012-02-22T14:37:21Z</time>
      </trkpt>
      <trkpt lat="45.50458" lon="6.70254">
        <ele>2107.4</ele>
        <time>2012-02-22T14:37:22Z</time>
      </trkpt>
      <trkpt lat="45.50357" lon="6.70316">
        <ele>2131.9</ele>
        <time>2012-02-22T14:37:45Z</time>
      </trkpt>
      <trkpt lat="45.50162" lon="6.70433">
        <ele>2177</ele>
        <time>2012-02-22T14:38:30Z</time>
      </trkpt>
      <trkpt lat="45.50158" lon="6.70433">
        <ele>2178.6</ele>
        <time>2012-02-22T14:38:32Z</time>
      </trkpt>
      <trkpt lat="45.50071" lon="6.70491">
        <ele>2196.2</ele>
        <time>2012-02-22T14:38:52Z</time>
      </trkpt>
      <trkpt lat="45.50069" lon="6.70492">
        <ele>2197.1</ele>
        <time>2012-02-22T14:38:53Z</time>
      </trkpt>
      <trkpt lat="45.49822" lon="6.70634">
        <ele>2246.8</ele>
        <time>2012-02-22T14:39:52Z</time>
      </trkpt>
      <trkpt lat="45.49819" lon="6.70635">
        <ele>2247.6</ele>
        <time>2012-02-22T14:39:53Z</time>
      </trkpt>
      <trkpt lat="45.49274" lon="6.70942">
        <ele>2365.5</ele>
        <time>2012-02-22T14:42:06Z</time>
      </trkpt>
      <trkpt lat="45.49271" lon="6.70943">
        <ele>2368.6</ele>
        <time>2012-02-22T14:42:07Z</time>
      </trkpt>
      <trkpt lat="45.49261" lon="6.70946">
        <ele>2374.6</ele>
        <time>2012-02-22T14:42:10Z</time>
      </trkpt>
      <trkpt lat="45.49255" lon="6.70952">
        <ele>2378</ele>
        <time>2012-02-22T14:42:13Z</time>
      </trkpt>
      <trkpt lat="45.49253" lon="6.70952">
        <ele>2378.7</ele>
        <time>2012-02-22T14:42:14Z</time>
      </trkpt>
      <trkpt lat="45.49252" lon="6.70953">
        <ele>2379.2</ele>
        <time>2012-02-22T14:42:15Z</time>
      </trkpt>
      <trkpt lat="45.49251" lon="6.70953">
        <ele>2379.3</ele>
        <time>2012-02-22T14:42:16Z</time>
      </trkpt>
      <trkpt lat="45.4925" lon="6.70952">
        <ele>2379.4</ele>
        <time>2012-02-22T14:42:17Z</time>
      </trkpt>
      <trkpt lat="45.49249" lon="6.70951">
        <ele>2379.5</ele>
        <time>2012-02-22T14:42:18Z</time>
      </trkpt>
      <trkpt lat="45.49237" lon="6.70958">
        <ele>2379.3</ele>
        <time>2012-02-22T14:42:25Z</time>
      </trkpt>
      <trkpt lat="45.49232" lon="6.70958">
        <ele>2380.1</ele>
        <time>2012-02-22T14:42:29Z</time>
      </trkpt>
      <trkpt lat="45.49231" lon="6.70958">
        <ele>2380.2</ele>
        <time>2012-02-22T14:42:30Z</time>
      </trkpt>
      <trkpt lat="45.49224" lon="6.70967">
        <ele>2379.7</ele>
        <time>2012-02-22T14:43:20Z</time>
      </trkpt>
      <trkpt lat="45.49216" lon="6.70967">
        <ele>2378.6</ele>
        <time>2012-02-22T14:43:56Z</time>
      </trkpt>
      <trkpt lat="45.492" lon="6.70969">
        <ele>2379.2</ele>
        <time>2012-02-22T14:44:04Z</time>
      </trkpt>
      <trkpt lat="45.49185" lon="6.70966">
        <ele>2377.9</ele>
        <time>2012-02-22T14:44:09Z</time>
      </trkpt>
      <trkpt lat="45.49182" lon="6.70966">
        <ele>2377.7</ele>
        <time>2012-02-22T14:44:10Z</time>
      </trkpt>
      <trkpt lat="45.49168" lon="6.70978">
        <ele>2377.3</ele>
        <time>2012-02-22T14:44:14Z</time>
      </trkpt>
      <trkpt lat="45.49163" lon="6.70979">
        <ele>2377</ele>
        <time>2012-02-22T14:44:15Z</time>
      </trkpt>
      <trkpt lat="45.49159" lon="6.70978">
        <ele>2376.8</ele>
        <time>2012-02-22T14:44:16Z</time>
      </trkpt>
      <trkpt lat="45.49154" lon="6.70979">
        <ele>2376.6</ele>
        <time>2012-02-22T14:44:17Z</time>
      </trkpt>
      <trkpt lat="45.49149" lon="6.70981">
        <ele>2375.7</ele>
        <time>2012-02-22T14:44:18Z</time>
      </trkpt>
      <trkpt lat="45.4914" lon="6.70988">
        <ele>2374.4</ele>
        <time>2012-02-22T14:44:20Z</time>
      </trkpt>
      <trkpt lat="45.4911" lon="6.70997">
        <ele>2370.7</ele>
        <time>2012-02-22T14:44:25Z</time>
      </trkpt>
      <trkpt lat="45.49104" lon="6.71">
        <ele>2370.1</ele>
        <time>2012-02-22T14:44:26Z</time>
      </trkpt>
      <trkpt lat="45.491" lon="6.71004">
        <ele>2369.2</ele>
        <time>2012-02-22T14:44:27Z</time>
      </trkpt>
      <trkpt lat="45.49093" lon="6.71014">
        <ele>2368.1</ele>
        <time>2012-02-22T14:44:29Z</time>
      </trkpt>
      <trkpt lat="45.49089" lon="6.71018">
        <ele>2367</ele>
        <time>2012-02-22T14:44:30Z</time>
      </trkpt>
      <trkpt lat="45.49085" lon="6.71019">
        <ele>2366.2</ele>
        <time>2012-02-22T14:44:31Z</time>
      </trkpt>
      <trkpt lat="45.49082" lon="6.71019">
        <ele>2365.1</ele>
        <time>2012-02-22T14:44:33Z</time>
      </trkpt>
      <trkpt lat="45.49079" lon="6.71017">
        <ele>2365</ele>
        <time>2012-02-22T14:44:35Z</time>
      </trkpt>
      <trkpt lat="45.49076" lon="6.71015">
        <ele>2364.9</ele>
        <time>2012-02-22T14:44:36Z</time>
      </trkpt>
      <trkpt lat="45.49064" lon="6.7101">
        <ele>2363.1</ele>
        <time>2012-02-22T14:44:39Z</time>
      </trkpt>
      <trkpt lat="45.4906" lon="6.71011">
        <ele>2360.8</ele>
        <time>2012-02-22T14:44:41Z</time>
      </trkpt>
      <trkpt lat="45.49059" lon="6.71011">
        <ele>2360.1</ele>
        <time>2012-02-22T14:44:42Z</time>
      </trkpt>
      <trkpt lat="45.49055" lon="6.71014">
        <ele>2355.1</ele>
        <time>2012-02-22T14:44:59Z</time>
      </trkpt>
      <trkpt lat="45.49055" lon="6.71013">
        <ele>2354.9</ele>
        <time>2012-02-22T14:45:00Z</time>
      </trkpt>
      <trkpt lat="45.49054" lon="6.71012">
        <ele>2354.6</ele>
        <time>2012-02-22T14:45:01Z</time>
      </trkpt>
      <trkpt lat="45.49054" lon="6.71013">
        <ele>2354</ele>
        <time>2012-02-22T14:45:02Z</time>
      </trkpt>
      <trkpt lat="45.49053" lon="6.71014">
        <ele>2353.5</ele>
        <time>2012-02-22T14:45:03Z</time>
      </trkpt>
      <trkpt lat="45.4905" lon="6.71014">
        <ele>2353.1</ele>
        <time>2012-02-22T14:45:04Z</time>
      </trkpt>
      <trkpt lat="45.49047" lon="6.71012">
        <ele>2351.9</ele>
        <time>2012-02-22T14:45:05Z</time>
      </trkpt>
      <trkpt lat="45.49042" lon="6.71007">
        <ele>2350.2</ele>
        <time>2012-02-22T14:45:07Z</time>
      </trkpt>
      <trkpt lat="45.49036" lon="6.70996">
        <ele>2348.3</ele>
        <time>2012-02-22T14:45:10Z</time>
      </trkpt>
      <trkpt lat="45.49034" lon="6.70993">
        <ele>2347.9</ele>
        <time>2012-02-22T14:45:11Z</time>
      </trkpt>
      <trkpt lat="45.49031" lon="6.70993">
        <ele>2347.3</ele>
        <time>2012-02-22T14:45:12Z</time>
      </trkpt>
      <trkpt lat="45.49029" lon="6.70995">
        <ele>2346.8</ele>
        <time>2012-02-22T14:45:13Z</time>
      </trkpt>
      <trkpt lat="45.49027" lon="6.70999">
        <ele>2346.4</ele>
        <time>2012-02-22T14:45:14Z</time>
      </trkpt>
      <trkpt lat="45.49026" lon="6.71003">
        <ele>2345.1</ele>
        <time>2012-02-22T14:45:15Z</time>
      </trkpt>
      <trkpt lat="45.49025" lon="6.71005">
        <ele>2344.2</ele>
        <time>2012-02-22T14:45:16Z</time>
      </trkpt>
      <trkpt lat="45.49022" lon="6.71004">
        <ele>2343.5</ele>
        <time>2012-02-22T14:45:17Z</time>
      </trkpt>
      <trkpt lat="45.49019" lon="6.71001">
        <ele>2342</ele>
        <time>2012-02-22T14:45:18Z</time>
      </trkpt>
      <trkpt lat="45.49015" lon="6.70995">
        <ele>2340</ele>
        <time>2012-02-22T14:45:20Z</time>
      </trkpt>
      <trkpt lat="45.49013" lon="6.70997">
        <ele>2338.6</ele>
        <time>2012-02-22T14:45:21Z</time>
      </trkpt>
      <trkpt lat="45.4901" lon="6.7101">
        <ele>2336</ele>
        <time>2012-02-22T14:45:24Z</time>
      </trkpt>
      <trkpt lat="45.49007" lon="6.71012">
        <ele>2334.8</ele>
        <time>2012-02-22T14:45:25Z</time>
      </trkpt>
      <trkpt lat="45.49004" lon="6.71011">
        <ele>2333.9</ele>
        <time>2012-02-22T14:45:26Z</time>
      </trkpt>
      <trkpt lat="45.49" lon="6.71009">
        <ele>2333.3</ele>
        <time>2012-02-22T14:45:27Z</time>
      </trkpt>
      <trkpt lat="45.48994" lon="6.71001">
        <ele>2331.8</ele>
        <time>2012-02-22T14:45:29Z</time>
      </trkpt>
      <trkpt lat="45.48993" lon="6.71">
        <ele>2331.3</ele>
        <time>2012-02-22T14:45:30Z</time>
      </trkpt>
      <trkpt lat="45.48992" lon="6.71002">
        <ele>2330</ele>
        <time>2012-02-22T14:45:31Z</time>
      </trkpt>
      <trkpt lat="45.4899" lon="6.71004">
        <ele>2329</ele>
        <time>2012-02-22T14:45:32Z</time>
      </trkpt>
      <trkpt lat="45.48985" lon="6.71006">
        <ele>2328.2</ele>
        <time>2012-02-22T14:45:33Z</time>
      </trkpt>
      <trkpt lat="45.4898" lon="6.71005">
        <ele>2326.4</ele>
        <time>2012-02-22T14:45:34Z</time>
      </trkpt>
      <trkpt lat="45.48967" lon="6.70998">
        <ele>2324</ele>
        <time>2012-02-22T14:45:36Z</time>
      </trkpt>
      <trkpt lat="45.48953" lon="6.70997">
        <ele>2320.7</ele>
        <time>2012-02-22T14:45:38Z</time>
      </trkpt>
      <trkpt lat="45.48946" lon="6.70994">
        <ele>2319.7</ele>
        <time>2012-02-22T14:45:39Z</time>
      </trkpt>
      <trkpt lat="45.4894" lon="6.70989">
        <ele>2318.9</ele>
        <time>2012-02-22T14:45:40Z</time>
      </trkpt>
      <trkpt lat="45.48937" lon="6.70981">
        <ele>2317.8</ele>
        <time>2012-02-22T14:45:41Z</time>
      </trkpt>
      <trkpt lat="45.48936" lon="6.70973">
        <ele>2317.1</ele>
        <time>2012-02-22T14:45:42Z</time>
      </trkpt>
      <trkpt lat="45.4894" lon="6.70939">
        <ele>2312.1</ele>
        <time>2012-02-22T14:45:48Z</time>
      </trkpt>
      <trkpt lat="45.4894" lon="6.70932">
        <ele>2311.7</ele>
        <time>2012-02-22T14:45:50Z</time>
      </trkpt>
      <trkpt lat="45.48938" lon="6.70923">
        <ele>2312.4</ele>
        <time>2012-02-22T14:45:54Z</time>
      </trkpt>
      <trkpt lat="45.48936" lon="6.70916">
        <ele>2311.7</ele>
        <time>2012-02-22T14:45:58Z</time>
      </trkpt>
      <trkpt lat="45.48934" lon="6.70914">
        <ele>2312.5</ele>
        <time>2012-02-22T14:46:04Z</time>
      </trkpt>
      <trkpt lat="45.48933" lon="6.70907">
        <ele>2312.5</ele>
        <time>2012-02-22T14:46:07Z</time>
      </trkpt>
      <trkpt lat="45.48933" lon="6.70904">
        <ele>2312.4</ele>
        <time>2012-02-22T14:46:08Z</time>
      </trkpt>
      <trkpt lat="45.48932" lon="6.70902">
        <ele>2312.4</ele>
        <time>2012-02-22T14:46:09Z</time>
      </trkpt>
      <trkpt lat="45.48931" lon="6.70896">
        <ele>2312.5</ele>
        <time>2012-02-22T14:46:12Z</time>
      </trkpt>
      <trkpt lat="45.4893" lon="6.70894">
        <ele>2312.7</ele>
        <time>2012-02-22T14:46:13Z</time>
      </trkpt>
      <trkpt lat="45.48931" lon="6.7089">
        <ele>2312.9</ele>
        <time>2012-02-22T14:46:15Z</time>
      </trkpt>
      <trkpt lat="45.48949" lon="6.70918">
        <ele>2311</ele>
        <time>2012-02-22T14:48:55Z</time>
      </trkpt>
      <trkpt lat="45.48948" lon="6.70921">
        <ele>2311</ele>
        <time>2012-02-22T14:48:56Z</time>
      </trkpt>
      <trkpt lat="45.48943" lon="6.70929">
        <ele>2311</ele>
        <time>2012-02-22T14:48:58Z</time>
      </trkpt>
      <trkpt lat="45.48942" lon="6.70935">
        <ele>2311</ele>
        <time>2012-02-22T14:48:59Z</time>
      </trkpt>
      <trkpt lat="45.48949" lon="6.70984">
        <ele>2313</ele>
        <time>2012-02-22T14:49:07Z</time>
      </trkpt>
      <trkpt lat="45.4895" lon="6.7099">
        <ele>2313.8</ele>
        <time>2012-02-22T14:49:08Z</time>
      </trkpt>
      <trkpt lat="45.48958" lon="6.71019">
        <ele>2319.6</ele>
        <time>2012-02-22T14:49:13Z</time>
      </trkpt>
      <trkpt lat="45.48961" lon="6.71038">
        <ele>2324.7</ele>
        <time>2012-02-22T14:49:16Z</time>
      </trkpt>
      <trkpt lat="45.48963" lon="6.71044">
        <ele>2325.6</ele>
        <time>2012-02-22T14:49:17Z</time>
      </trkpt>
      <trkpt lat="45.48995" lon="6.71192">
        <ele>2355.1</ele>
        <time>2012-02-22T14:49:41Z</time>
      </trkpt>
      <trkpt lat="45.48997" lon="6.71197">
        <ele>2356.2</ele>
        <time>2012-02-22T14:49:42Z</time>
      </trkpt>
      <trkpt lat="45.49005" lon="6.71242">
        <ele>2374.2</ele>
        <time>2012-02-22T14:49:50Z</time>
      </trkpt>
      <trkpt lat="45.49005" lon="6.71248">
        <ele>2375.9</ele>
        <time>2012-02-22T14:49:51Z</time>
      </trkpt>
      <trkpt lat="45.49013" lon="6.71298">
        <ele>2397.8</ele>
        <time>2012-02-22T14:50:00Z</time>
      </trkpt>
      <trkpt lat="45.49015" lon="6.71304">
        <ele>2399.9</ele>
        <time>2012-02-22T14:50:01Z</time>
      </trkpt>
      <trkpt lat="45.49036" lon="6.71425">
        <ele>2432.9</ele>
        <time>2012-02-22T14:50:21Z</time>
      </trkpt>
      <trkpt lat="45.49037" lon="6.7143">
        <ele>2434.6</ele>
        <time>2012-02-22T14:50:22Z</time>
      </trkpt>
      <trkpt lat="45.49064" lon="6.71581">
        <ele>2427.1</ele>
        <time>2012-02-22T14:50:47Z</time>
      </trkpt>
      <trkpt lat="45.49339" lon="6.73241">
        <ele>2629</ele>
        <time>2012-02-22T14:55:26Z</time>
      </trkpt>
      <trkpt lat="45.4934" lon="6.73246">
        <ele>2630.3</ele>
        <time>2012-02-22T14:55:27Z</time>
      </trkpt>
      <trkpt lat="45.49362" lon="6.7338">
        <ele>2693.6</ele>
        <time>2012-02-22T14:55:52Z</time>
      </trkpt>
      <trkpt lat="45.49366" lon="6.73388">
        <ele>2700.6</ele>
        <time>2012-02-22T14:55:54Z</time>
      </trkpt>
      <trkpt lat="45.49369" lon="6.73401">
        <ele>2709.3</ele>
        <time>2012-02-22T14:55:57Z</time>
      </trkpt>
      <trkpt lat="45.49371" lon="6.7342">
        <ele>2717.6</ele>
        <time>2012-02-22T14:56:00Z</time>
      </trkpt>
      <trkpt lat="45.49371" lon="6.73426">
        <ele>2719.6</ele>
        <time>2012-02-22T14:56:01Z</time>
      </trkpt>
      <trkpt lat="45.4937" lon="6.73429">
        <ele>2721.1</ele>
        <time>2012-02-22T14:56:02Z</time>
      </trkpt>
      <trkpt lat="45.49369" lon="6.73432">
        <ele>2722</ele>
        <time>2012-02-22T14:56:03Z</time>
      </trkpt>
      <trkpt lat="45.49369" lon="6.73433">
        <ele>2722.7</ele>
        <time>2012-02-22T14:56:04Z</time>
      </trkpt>
      <trkpt lat="45.49368" lon="6.73436">
        <ele>2724.3</ele>
        <time>2012-02-22T14:56:06Z</time>
      </trkpt>
      <trkpt lat="45.49368" lon="6.7344">
        <ele>2725.7</ele>
        <time>2012-02-22T14:56:08Z</time>
      </trkpt>
      <trkpt lat="45.4937" lon="6.7345">
        <ele>2725.6</ele>
        <time>2012-02-22T14:56:11Z</time>
      </trkpt>
      <trkpt lat="45.4937" lon="6.73453">
        <ele>2725.5</ele>
        <time>2012-02-22T14:56:12Z</time>
      </trkpt>
      <trkpt lat="45.4937" lon="6.73456">
        <ele>2725.5</ele>
        <time>2012-02-22T14:56:13Z</time>
      </trkpt>
      <trkpt lat="45.49369" lon="6.73458">
        <ele>2725.4</ele>
        <time>2012-02-22T14:56:14Z</time>
      </trkpt>
      <trkpt lat="45.49369" lon="6.7346">
        <ele>2724.9</ele>
        <time>2012-02-22T14:56:15Z</time>
      </trkpt>
      <trkpt lat="45.49367" lon="6.73462">
        <ele>2724.6</ele>
        <time>2012-02-22T14:56:16Z</time>
      </trkpt>
      <trkpt lat="45.49367" lon="6.73463">
        <ele>2724.3</ele>
        <time>2012-02-22T14:56:17Z</time>
      </trkpt>
      <trkpt lat="45.49366" lon="6.73464">
        <ele>2724.1</ele>
        <time>2012-02-22T14:56:18Z</time>
      </trkpt>
      <trkpt lat="45.49366" lon="6.73465">
        <ele>2723.5</ele>
        <time>2012-02-22T14:56:19Z</time>
      </trkpt>
      <trkpt lat="45.49366" lon="6.73467">
        <ele>2723</ele>
        <time>2012-02-22T14:56:20Z</time>
      </trkpt>
      <trkpt lat="45.49363" lon="6.73482">
        <ele>2725.2</ele>
        <time>2012-02-22T14:56:49Z</time>
      </trkpt>
      <trkpt lat="45.49363" lon="6.73482">
        <ele>2725.2</ele>
        <time>2012-02-22T14:56:50Z</time>
      </trkpt>
      <trkpt lat="45.49362" lon="6.73483">
        <ele>2725.2</ele>
        <time>2012-02-22T14:56:51Z</time>
      </trkpt>
      <trkpt lat="45.49366" lon="6.7348">
        <ele>2723.5</ele>
        <time>2012-02-22T14:57:30Z</time>
      </trkpt>
      <trkpt lat="45.4937" lon="6.73479">
        <ele>2723.7</ele>
        <time>2012-02-22T14:57:32Z</time>
      </trkpt>
      <trkpt lat="45.49372" lon="6.73479">
        <ele>2723.9</ele>
        <time>2012-02-22T14:57:33Z</time>
      </trkpt>
      <trkpt lat="45.49375" lon="6.73479">
        <ele>2724</ele>
        <time>2012-02-22T14:57:34Z</time>
      </trkpt>
      <trkpt lat="45.49382" lon="6.73479">
        <ele>2724.5</ele>
        <time>2012-02-22T14:57:37Z</time>
      </trkpt>
      <trkpt lat="45.49389" lon="6.73479">
        <ele>2723.7</ele>
        <time>2012-02-22T14:57:39Z</time>
      </trkpt>
      <trkpt lat="45.49398" lon="6.73478">
        <ele>2723.2</ele>
        <time>2012-02-22T14:57:41Z</time>
      </trkpt>
      <trkpt lat="45.49412" lon="6.73471">
        <ele>2721.1</ele>
        <time>2012-02-22T14:58:36Z</time>
      </trkpt>
      <trkpt lat="45.49415" lon="6.7347">
        <ele>2720.4</ele>
        <time>2012-02-22T14:58:38Z</time>
      </trkpt>
      <trkpt lat="45.49419" lon="6.73468">
        <ele>2721</ele>
        <time>2012-02-22T14:58:40Z</time>
      </trkpt>
      <trkpt lat="45.49437" lon="6.73461">
        <ele>2718.7</ele>
        <time>2012-02-22T14:58:45Z</time>
      </trkpt>
      <trkpt lat="45.49441" lon="6.73458">
        <ele>2718.1</ele>
        <time>2012-02-22T14:58:46Z</time>
      </trkpt>
      <trkpt lat="45.49452" lon="6.73439">
        <ele>2716.8</ele>
        <time>2012-02-22T14:58:50Z</time>
      </trkpt>
      <trkpt lat="45.49454" lon="6.73434">
        <ele>2716.6</ele>
        <time>2012-02-22T14:58:51Z</time>
      </trkpt>
      <trkpt lat="45.4946" lon="6.73415">
        <ele>2714.7</ele>
        <time>2012-02-22T14:58:55Z</time>
      </trkpt>
      <trkpt lat="45.49469" lon="6.73394">
        <ele>2713.6</ele>
        <time>2012-02-22T14:58:59Z</time>
      </trkpt>
      <trkpt lat="45.49473" lon="6.7339">
        <ele>2713.5</ele>
        <time>2012-02-22T14:59:00Z</time>
      </trkpt>
      <trkpt lat="45.49478" lon="6.73389">
        <ele>2712.9</ele>
        <time>2012-02-22T14:59:01Z</time>
      </trkpt>
      <trkpt lat="45.49482" lon="6.73389">
        <ele>2712.5</ele>
        <time>2012-02-22T14:59:02Z</time>
      </trkpt>
      <trkpt lat="45.49487" lon="6.73389">
        <ele>2712.2</ele>
        <time>2012-02-22T14:59:03Z</time>
      </trkpt>
      <trkpt lat="45.49491" lon="6.73386">
        <ele>2711.2</ele>
        <time>2012-02-22T14:59:04Z</time>
      </trkpt>
      <trkpt lat="45.49494" lon="6.73381">
        <ele>2710.5</ele>
        <time>2012-02-22T14:59:05Z</time>
      </trkpt>
      <trkpt lat="45.49497" lon="6.73376">
        <ele>2709.9</ele>
        <time>2012-02-22T14:59:06Z</time>
      </trkpt>
      <trkpt lat="45.49499" lon="6.7337">
        <ele>2708</ele>
        <time>2012-02-22T14:59:08Z</time>
      </trkpt>
      <trkpt lat="45.495" lon="6.7337">
        <ele>2706.8</ele>
        <time>2012-02-22T14:59:09Z</time>
      </trkpt>
      <trkpt lat="45.495" lon="6.73371">
        <ele>2706</ele>
        <time>2012-02-22T14:59:10Z</time>
      </trkpt>
      <trkpt lat="45.49501" lon="6.7337">
        <ele>2705.8</ele>
        <time>2012-02-22T14:59:12Z</time>
      </trkpt>
      <trkpt lat="45.49502" lon="6.73369">
        <ele>2705.8</ele>
        <time>2012-02-22T14:59:13Z</time>
      </trkpt>
      <trkpt lat="45.49503" lon="6.73368">
        <ele>2705.5</ele>
        <time>2012-02-22T14:59:14Z</time>
      </trkpt>
      <trkpt lat="45.49515" lon="6.73364">
        <ele>2704.3</ele>
        <time>2012-02-22T14:59:18Z</time>
      </trkpt>
      <trkpt lat="45.4952" lon="6.73364">
        <ele>2704</ele>
        <time>2012-02-22T14:59:19Z</time>
      </trkpt>
      <trkpt lat="45.49525" lon="6.73364">
        <ele>2703</ele>
        <time>2012-02-22T14:59:20Z</time>
      </trkpt>
      <trkpt lat="45.4953" lon="6.73362">
        <ele>2702.3</ele>
        <time>2012-02-22T14:59:21Z</time>
      </trkpt>
      <trkpt lat="45.49535" lon="6.7336">
        <ele>2701.7</ele>
        <time>2012-02-22T14:59:22Z</time>
      </trkpt>
      <trkpt lat="45.49546" lon="6.73365">
        <ele>2700.3</ele>
        <time>2012-02-22T14:59:24Z</time>
      </trkpt>
      <trkpt lat="45.49551" lon="6.73365">
        <ele>2699.5</ele>
        <time>2012-02-22T14:59:25Z</time>
      </trkpt>
      <trkpt lat="45.49557" lon="6.73365">
        <ele>2698.9</ele>
        <time>2012-02-22T14:59:26Z</time>
      </trkpt>
      <trkpt lat="45.49563" lon="6.73361">
        <ele>2697.4</ele>
        <time>2012-02-22T14:59:27Z</time>
      </trkpt>
      <trkpt lat="45.49568" lon="6.7336">
        <ele>2696.3</ele>
        <time>2012-02-22T14:59:28Z</time>
      </trkpt>
      <trkpt lat="45.49574" lon="6.73361">
        <ele>2695.4</ele>
        <time>2012-02-22T14:59:29Z</time>
      </trkpt>
      <trkpt lat="45.49579" lon="6.7336">
        <ele>2693.8</ele>
        <time>2012-02-22T14:59:30Z</time>
      </trkpt>
      <trkpt lat="45.49585" lon="6.7336">
        <ele>2692.6</ele>
        <time>2012-02-22T14:59:31Z</time>
      </trkpt>
      <trkpt lat="45.4959" lon="6.73361">
        <ele>2691.6</ele>
        <time>2012-02-22T14:59:32Z</time>
      </trkpt>
      <trkpt lat="45.49595" lon="6.73358">
        <ele>2690.7</ele>
        <time>2012-02-22T14:59:33Z</time>
      </trkpt>
      <trkpt lat="45.496" lon="6.73354">
        <ele>2690.1</ele>
        <time>2012-02-22T14:59:34Z</time>
      </trkpt>
      <trkpt lat="45.49604" lon="6.73354">
        <ele>2689.5</ele>
        <time>2012-02-22T14:59:35Z</time>
      </trkpt>
      <trkpt lat="45.49607" lon="6.73355">
        <ele>2689.2</ele>
        <time>2012-02-22T14:59:36Z</time>
      </trkpt>
      <trkpt lat="45.49609" lon="6.73358">
        <ele>2684.4</ele>
        <time>2012-02-22T14:59:39Z</time>
      </trkpt>
      <trkpt lat="45.4961" lon="6.73357">
        <ele>2683.9</ele>
        <time>2012-02-22T14:59:40Z</time>
      </trkpt>
      <trkpt lat="45.4961" lon="6.73358">
        <ele>2683.6</ele>
        <time>2012-02-22T14:59:41Z</time>
      </trkpt>
      <trkpt lat="45.49611" lon="6.73359">
        <ele>2683.3</ele>
        <time>2012-02-22T14:59:42Z</time>
      </trkpt>
      <trkpt lat="45.49614" lon="6.73361">
        <ele>2682.9</ele>
        <time>2012-02-22T14:59:45Z</time>
      </trkpt>
      <trkpt lat="45.49617" lon="6.73362">
        <ele>2681.8</ele>
        <time>2012-02-22T14:59:47Z</time>
      </trkpt>
      <trkpt lat="45.49618" lon="6.73362">
        <ele>2680.9</ele>
        <time>2012-02-22T14:59:50Z</time>
      </trkpt>
      <trkpt lat="45.49618" lon="6.73361">
        <ele>2680.8</ele>
        <time>2012-02-22T14:59:51Z</time>
      </trkpt>
      <trkpt lat="45.4962" lon="6.73359">
        <ele>2681.1</ele>
        <time>2012-02-22T14:59:52Z</time>
      </trkpt>
      <trkpt lat="45.49623" lon="6.73358">
        <ele>2681.4</ele>
        <time>2012-02-22T14:59:53Z</time>
      </trkpt>
      <trkpt lat="45.49627" lon="6.73357">
        <ele>2681.6</ele>
        <time>2012-02-22T14:59:54Z</time>
      </trkpt>
      <trkpt lat="45.49631" lon="6.73355">
        <ele>2681.7</ele>
        <time>2012-02-22T14:59:55Z</time>
      </trkpt>
      <trkpt lat="45.49632" lon="6.7335">
        <ele>2680.5</ele>
        <time>2012-02-22T14:59:56Z</time>
      </trkpt>
      <trkpt lat="45.49633" lon="6.73344">
        <ele>2679.6</ele>
        <time>2012-02-22T14:59:57Z</time>
      </trkpt>
      <trkpt lat="45.49636" lon="6.7334">
        <ele>2678.9</ele>
        <time>2012-02-22T14:59:58Z</time>
      </trkpt>
      <trkpt lat="45.4964" lon="6.73339">
        <ele>2677.9</ele>
        <time>2012-02-22T14:59:59Z</time>
      </trkpt>
      <trkpt lat="45.49645" lon="6.73339">
        <ele>2676.5</ele>
        <time>2012-02-22T15:00:01Z</time>
      </trkpt>
      <trkpt lat="45.49658" lon="6.73333">
        <ele>2672.6</ele>
        <time>2012-02-22T15:00:05Z</time>
      </trkpt>
      <trkpt lat="45.49668" lon="6.73318">
        <ele>2669.8</ele>
        <time>2012-02-22T15:00:08Z</time>
      </trkpt>
      <trkpt lat="45.4967" lon="6.73312">
        <ele>2668.9</ele>
        <time>2012-02-22T15:00:09Z</time>
      </trkpt>
      <trkpt lat="45.49673" lon="6.73307">
        <ele>2668.3</ele>
        <time>2012-02-22T15:00:10Z</time>
      </trkpt>
      <trkpt lat="45.49676" lon="6.73302">
        <ele>2667.9</ele>
        <time>2012-02-22T15:00:11Z</time>
      </trkpt>
      <trkpt lat="45.49679" lon="6.73296">
        <ele>2667.1</ele>
        <time>2012-02-22T15:00:12Z</time>
      </trkpt>
      <trkpt lat="45.49679" lon="6.73289">
        <ele>2666.6</ele>
        <time>2012-02-22T15:00:13Z</time>
      </trkpt>
      <trkpt lat="45.49681" lon="6.73282">
        <ele>2666.2</ele>
        <time>2012-02-22T15:00:14Z</time>
      </trkpt>
      <trkpt lat="45.49681" lon="6.73275">
        <ele>2664.9</ele>
        <time>2012-02-22T15:00:15Z</time>
      </trkpt>
      <trkpt lat="45.4968" lon="6.73269">
        <ele>2663.9</ele>
        <time>2012-02-22T15:00:16Z</time>
      </trkpt>
      <trkpt lat="45.49677" lon="6.73265">
        <ele>2663.2</ele>
        <time>2012-02-22T15:00:17Z</time>
      </trkpt>
      <trkpt lat="45.49674" lon="6.73262">
        <ele>2661.4</ele>
        <time>2012-02-22T15:00:18Z</time>
      </trkpt>
      <trkpt lat="45.49672" lon="6.73261">
        <ele>2660</ele>
        <time>2012-02-22T15:00:19Z</time>
      </trkpt>
      <trkpt lat="45.49671" lon="6.7326">
        <ele>2659</ele>
        <time>2012-02-22T15:00:20Z</time>
      </trkpt>
      <trkpt lat="45.49671" lon="6.73257">
        <ele>2658.1</ele>
        <time>2012-02-22T15:00:21Z</time>
      </trkpt>
      <trkpt lat="45.49673" lon="6.73252">
        <ele>2654.4</ele>
        <time>2012-02-22T15:00:31Z</time>
      </trkpt>
      <trkpt lat="45.49674" lon="6.73249">
        <ele>2653.9</ele>
        <time>2012-02-22T15:00:33Z</time>
      </trkpt>
      <trkpt lat="45.49675" lon="6.73247">
        <ele>2653.5</ele>
        <time>2012-02-22T15:00:34Z</time>
      </trkpt>
      <trkpt lat="45.49676" lon="6.73239">
        <ele>2653</ele>
        <time>2012-02-22T15:00:36Z</time>
      </trkpt>
      <trkpt lat="45.49675" lon="6.73237">
        <ele>2652.9</ele>
        <time>2012-02-22T15:00:37Z</time>
      </trkpt>
      <trkpt lat="45.49675" lon="6.73237">
        <ele>2652.8</ele>
        <time>2012-02-22T15:00:38Z</time>
      </trkpt>
      <trkpt lat="45.49674" lon="6.73236">
        <ele>2652.7</ele>
        <time>2012-02-22T15:00:39Z</time>
      </trkpt>
      <trkpt lat="45.49673" lon="6.73234">
        <ele>2652.2</ele>
        <time>2012-02-22T15:00:40Z</time>
      </trkpt>
      <trkpt lat="45.49672" lon="6.73228">
        <ele>2651.8</ele>
        <time>2012-02-22T15:00:41Z</time>
      </trkpt>
      <trkpt lat="45.49657" lon="6.73198">
        <ele>2647.9</ele>
        <time>2012-02-22T15:00:46Z</time>
      </trkpt>
      <trkpt lat="45.49647" lon="6.73184">
        <ele>2644.3</ele>
        <time>2012-02-22T15:00:48Z</time>
      </trkpt>
      <trkpt lat="45.49645" lon="6.73173">
        <ele>2643.1</ele>
        <time>2012-02-22T15:00:49Z</time>
      </trkpt>
      <trkpt lat="45.49642" lon="6.73129">
        <ele>2636.1</ele>
        <time>2012-02-22T15:00:52Z</time>
      </trkpt>
      <trkpt lat="45.49639" lon="6.73111">
        <ele>2632</ele>
        <time>2012-02-22T15:00:53Z</time>
      </trkpt>
      <trkpt lat="45.49633" lon="6.73091">
        <ele>2628.8</ele>
        <time>2012-02-22T15:00:54Z</time>
      </trkpt>
      <trkpt lat="45.49624" lon="6.73075">
        <ele>2626.5</ele>
        <time>2012-02-22T15:00:55Z</time>
      </trkpt>
      <trkpt lat="45.49613" lon="6.73063">
        <ele>2621.1</ele>
        <time>2012-02-22T15:00:56Z</time>
      </trkpt>
      <trkpt lat="45.49599" lon="6.73058">
        <ele>2617</ele>
        <time>2012-02-22T15:00:57Z</time>
      </trkpt>
      <trkpt lat="45.49572" lon="6.73059">
        <ele>2609.9</ele>
        <time>2012-02-22T15:00:59Z</time>
      </trkpt>
      <trkpt lat="45.49545" lon="6.73046">
        <ele>2604.5</ele>
        <time>2012-02-22T15:01:01Z</time>
      </trkpt>
      <trkpt lat="45.49531" lon="6.73045">
        <ele>2602.7</ele>
        <time>2012-02-22T15:01:02Z</time>
      </trkpt>
      <trkpt lat="45.49505" lon="6.73052">
        <ele>2597</ele>
        <time>2012-02-22T15:01:04Z</time>
      </trkpt>
      <trkpt lat="45.49453" lon="6.73074">
        <ele>2589</ele>
        <time>2012-02-22T15:01:09Z</time>
      </trkpt>
      <trkpt lat="45.49437" lon="6.73076">
        <ele>2587.9</ele>
        <time>2012-02-22T15:01:11Z</time>
      </trkpt>
      <trkpt lat="45.49431" lon="6.73073">
        <ele>2588</ele>
        <time>2012-02-22T15:01:12Z</time>
      </trkpt>
      <trkpt lat="45.49428" lon="6.73067">
        <ele>2588.1</ele>
        <time>2012-02-22T15:01:13Z</time>
      </trkpt>
      <trkpt lat="45.49429" lon="6.73061">
        <ele>2588.2</ele>
        <time>2012-02-22T15:01:14Z</time>
      </trkpt>
      <trkpt lat="45.49432" lon="6.73056">
        <ele>2587.6</ele>
        <time>2012-02-22T15:01:15Z</time>
      </trkpt>
      <trkpt lat="45.49454" lon="6.73035">
        <ele>2585.2</ele>
        <time>2012-02-22T15:01:19Z</time>
      </trkpt>
      <trkpt lat="45.4946" lon="6.73028">
        <ele>2584.2</ele>
        <time>2012-02-22T15:01:20Z</time>
      </trkpt>
      <trkpt lat="45.49464" lon="6.73019">
        <ele>2583.5</ele>
        <time>2012-02-22T15:01:21Z</time>
      </trkpt>
      <trkpt lat="45.49466" lon="6.73009">
        <ele>2582.6</ele>
        <time>2012-02-22T15:01:22Z</time>
      </trkpt>
      <trkpt lat="45.49465" lon="6.72999">
        <ele>2582</ele>
        <time>2012-02-22T15:01:23Z</time>
      </trkpt>
      <trkpt lat="45.49453" lon="6.7299">
        <ele>2579.9</ele>
        <time>2012-02-22T15:01:25Z</time>
      </trkpt>
      <trkpt lat="45.4944" lon="6.72974">
        <ele>2577.7</ele>
        <time>2012-02-22T15:01:27Z</time>
      </trkpt>
      <trkpt lat="45.49408" lon="6.72958">
        <ele>2572</ele>
        <time>2012-02-22T15:01:30Z</time>
      </trkpt>
      <trkpt lat="45.49397" lon="6.72949">
        <ele>2567.7</ele>
        <time>2012-02-22T15:01:31Z</time>
      </trkpt>
      <trkpt lat="45.49388" lon="6.72936">
        <ele>2564.5</ele>
        <time>2012-02-22T15:01:32Z</time>
      </trkpt>
      <trkpt lat="45.49383" lon="6.7292">
        <ele>2562.1</ele>
        <time>2012-02-22T15:01:33Z</time>
      </trkpt>
      <trkpt lat="45.49383" lon="6.72891">
        <ele>2557.5</ele>
        <time>2012-02-22T15:01:35Z</time>
      </trkpt>
      <trkpt lat="45.49381" lon="6.7288">
        <ele>2555.4</ele>
        <time>2012-02-22T15:01:36Z</time>
      </trkpt>
      <trkpt lat="45.49376" lon="6.72871">
        <ele>2553.9</ele>
        <time>2012-02-22T15:01:37Z</time>
      </trkpt>
      <trkpt lat="45.4937" lon="6.72864">
        <ele>2553.4</ele>
        <time>2012-02-22T15:01:38Z</time>
      </trkpt>
      <trkpt lat="45.49364" lon="6.72856">
        <ele>2553</ele>
        <time>2012-02-22T15:01:39Z</time>
      </trkpt>
      <trkpt lat="45.4936" lon="6.72844">
        <ele>2552.7</ele>
        <time>2012-02-22T15:01:40Z</time>
      </trkpt>
      <trkpt lat="45.49359" lon="6.7283">
        <ele>2550.9</ele>
        <time>2012-02-22T15:01:41Z</time>
      </trkpt>
      <trkpt lat="45.4936" lon="6.72816">
        <ele>2549.6</ele>
        <time>2012-02-22T15:01:42Z</time>
      </trkpt>
      <trkpt lat="45.49371" lon="6.72789">
        <ele>2545.8</ele>
        <time>2012-02-22T15:01:44Z</time>
      </trkpt>
      <trkpt lat="45.49373" lon="6.72777">
        <ele>2543.7</ele>
        <time>2012-02-22T15:01:45Z</time>
      </trkpt>
      <trkpt lat="45.49374" lon="6.72767">
        <ele>2542.2</ele>
        <time>2012-02-22T15:01:46Z</time>
      </trkpt>
      <trkpt lat="45.49372" lon="6.72758">
        <ele>2541</ele>
        <time>2012-02-22T15:01:47Z</time>
      </trkpt>
      <trkpt lat="45.49368" lon="6.72753">
        <ele>2540.1</ele>
        <time>2012-02-22T15:01:48Z</time>
      </trkpt>
      <trkpt lat="45.49362" lon="6.72752">
        <ele>2539.5</ele>
        <time>2012-02-22T15:01:49Z</time>
      </trkpt>
      <trkpt lat="45.49349" lon="6.72751">
        <ele>2536.6</ele>
        <time>2012-02-22T15:01:52Z</time>
      </trkpt>
      <trkpt lat="45.49348" lon="6.72752">
        <ele>2536.1</ele>
        <time>2012-02-22T15:01:53Z</time>
      </trkpt>
      <trkpt lat="45.49346" lon="6.72753">
        <ele>2536.1</ele>
        <time>2012-02-22T15:01:57Z</time>
      </trkpt>
      <trkpt lat="45.49346" lon="6.72753">
        <ele>2536</ele>
        <time>2012-02-22T15:01:58Z</time>
      </trkpt>
      <trkpt lat="45.49345" lon="6.72754">
        <ele>2535.9</ele>
        <time>2012-02-22T15:01:59Z</time>
      </trkpt>
      <trkpt lat="45.49347" lon="6.72753">
        <ele>2537</ele>
        <time>2012-02-22T15:02:10Z</time>
      </trkpt>
      <trkpt lat="45.49349" lon="6.72748">
        <ele>2536.9</ele>
        <time>2012-02-22T15:02:11Z</time>
      </trkpt>
      <trkpt lat="45.4935" lon="6.72732">
        <ele>2536.1</ele>
        <time>2012-02-22T15:02:13Z</time>
      </trkpt>
      <trkpt lat="45.49346" lon="6.72694">
        <ele>2533.2</ele>
        <time>2012-02-22T15:02:16Z</time>
      </trkpt>
      <trkpt lat="45.49303" lon="6.72558">
        <ele>2512.9</ele>
        <time>2012-02-22T15:02:24Z</time>
      </trkpt>
      <trkpt lat="45.49295" lon="6.72545">
        <ele>2511.4</ele>
        <time>2012-02-22T15:02:25Z</time>
      </trkpt>
      <trkpt lat="45.49261" lon="6.72502">
        <ele>2506.4</ele>
        <time>2012-02-22T15:02:29Z</time>
      </trkpt>
      <trkpt lat="45.49255" lon="6.72491">
        <ele>2505.3</ele>
        <time>2012-02-22T15:02:30Z</time>
      </trkpt>
      <trkpt lat="45.49252" lon="6.72478">
        <ele>2504.5</ele>
        <time>2012-02-22T15:02:31Z</time>
      </trkpt>
      <trkpt lat="45.4925" lon="6.72466">
        <ele>2503.4</ele>
        <time>2012-02-22T15:02:32Z</time>
      </trkpt>
      <trkpt lat="45.49249" lon="6.72453">
        <ele>2502.5</ele>
        <time>2012-02-22T15:02:33Z</time>
      </trkpt>
      <trkpt lat="45.49258" lon="6.72385">
        <ele>2501.8</ele>
        <time>2012-02-22T15:02:39Z</time>
      </trkpt>
      <trkpt lat="45.49259" lon="6.72374">
        <ele>2501.7</ele>
        <time>2012-02-22T15:02:40Z</time>
      </trkpt>
      <trkpt lat="45.49254" lon="6.7235">
        <ele>2500.7</ele>
        <time>2012-02-22T15:02:42Z</time>
      </trkpt>
      <trkpt lat="45.4925" lon="6.72338">
        <ele>2500</ele>
        <time>2012-02-22T15:02:43Z</time>
      </trkpt>
      <trkpt lat="45.49236" lon="6.72314">
        <ele>2497.1</ele>
        <time>2012-02-22T15:02:45Z</time>
      </trkpt>
      <trkpt lat="45.4923" lon="6.72301">
        <ele>2495.3</ele>
        <time>2012-02-22T15:02:46Z</time>
      </trkpt>
      <trkpt lat="45.49227" lon="6.72287">
        <ele>2494</ele>
        <time>2012-02-22T15:02:47Z</time>
      </trkpt>
      <trkpt lat="45.49227" lon="6.72273">
        <ele>2492.2</ele>
        <time>2012-02-22T15:02:48Z</time>
      </trkpt>
      <trkpt lat="45.49238" lon="6.72209">
        <ele>2485.1</ele>
        <time>2012-02-22T15:02:52Z</time>
      </trkpt>
      <trkpt lat="45.49236" lon="6.72192">
        <ele>2483.6</ele>
        <time>2012-02-22T15:02:53Z</time>
      </trkpt>
      <trkpt lat="45.49219" lon="6.7213">
        <ele>2477.7</ele>
        <time>2012-02-22T15:02:57Z</time>
      </trkpt>
      <trkpt lat="45.49217" lon="6.72113">
        <ele>2476</ele>
        <time>2012-02-22T15:02:58Z</time>
      </trkpt>
      <trkpt lat="45.49219" lon="6.72097">
        <ele>2474.8</ele>
        <time>2012-02-22T15:02:59Z</time>
      </trkpt>
      <trkpt lat="45.49229" lon="6.72047">
        <ele>2471</ele>
        <time>2012-02-22T15:03:02Z</time>
      </trkpt>
      <trkpt lat="45.4923" lon="6.72031">
        <ele>2470.1</ele>
        <time>2012-02-22T15:03:03Z</time>
      </trkpt>
      <trkpt lat="45.49229" lon="6.72014">
        <ele>2468.6</ele>
        <time>2012-02-22T15:03:04Z</time>
      </trkpt>
      <trkpt lat="45.49225" lon="6.71998">
        <ele>2467.4</ele>
        <time>2012-02-22T15:03:05Z</time>
      </trkpt>
      <trkpt lat="45.49209" lon="6.71951">
        <ele>2463</ele>
        <time>2012-02-22T15:03:08Z</time>
      </trkpt>
      <trkpt lat="45.49205" lon="6.71896">
        <ele>2457</ele>
        <time>2012-02-22T15:03:11Z</time>
      </trkpt>
      <trkpt lat="45.49197" lon="6.7186">
        <ele>2454.2</ele>
        <time>2012-02-22T15:03:13Z</time>
      </trkpt>
      <trkpt lat="45.49184" lon="6.71836">
        <ele>2450.2</ele>
        <time>2012-02-22T15:03:15Z</time>
      </trkpt>
      <trkpt lat="45.4918" lon="6.71825">
        <ele>2448.9</ele>
        <time>2012-02-22T15:03:16Z</time>
      </trkpt>
      <trkpt lat="45.49179" lon="6.71816">
        <ele>2447.6</ele>
        <time>2012-02-22T15:03:17Z</time>
      </trkpt>
      <trkpt lat="45.49177" lon="6.7181">
        <ele>2446.6</ele>
        <time>2012-02-22T15:03:18Z</time>
      </trkpt>
      <trkpt lat="45.49174" lon="6.71808">
        <ele>2445.5</ele>
        <time>2012-02-22T15:03:20Z</time>
      </trkpt>
      <trkpt lat="45.49172" lon="6.71809">
        <ele>2444.6</ele>
        <time>2012-02-22T15:03:25Z</time>
      </trkpt>
      <trkpt lat="45.49171" lon="6.7181">
        <ele>2444.5</ele>
        <time>2012-02-22T15:03:26Z</time>
      </trkpt>
      <trkpt lat="45.4917" lon="6.71812">
        <ele>2444.4</ele>
        <time>2012-02-22T15:03:27Z</time>
      </trkpt>
      <trkpt lat="45.49167" lon="6.71814">
        <ele>2444.4</ele>
        <time>2012-02-22T15:03:28Z</time>
      </trkpt>
      <trkpt lat="45.49162" lon="6.71816">
        <ele>2443.9</ele>
        <time>2012-02-22T15:03:29Z</time>
      </trkpt>
      <trkpt lat="45.49156" lon="6.71814">
        <ele>2443.5</ele>
        <time>2012-02-22T15:03:30Z</time>
      </trkpt>
      <trkpt lat="45.49148" lon="6.7181">
        <ele>2443.3</ele>
        <time>2012-02-22T15:03:31Z</time>
      </trkpt>
      <trkpt lat="45.49134" lon="6.71794">
        <ele>2441.2</ele>
        <time>2012-02-22T15:03:33Z</time>
      </trkpt>
      <trkpt lat="45.49112" lon="6.71754">
        <ele>2435.8</ele>
        <time>2012-02-22T15:03:36Z</time>
      </trkpt>
      <trkpt lat="45.49022" lon="6.71538">
        <ele>2413</ele>
        <time>2012-02-22T15:03:52Z</time>
      </trkpt>
      <trkpt lat="45.49018" lon="6.71531">
        <ele>2413.2</ele>
        <time>2012-02-22T15:03:53Z</time>
      </trkpt>
      <trkpt lat="45.48989" lon="6.71472">
        <ele>2413.7</ele>
        <time>2012-02-22T15:04:02Z</time>
      </trkpt>
      <trkpt lat="45.48987" lon="6.71468">
        <ele>2413.8</ele>
        <time>2012-02-22T15:04:03Z</time>
      </trkpt>
      <trkpt lat="45.48974" lon="6.71457">
        <ele>2414.1</ele>
        <time>2012-02-22T15:04:09Z</time>
      </trkpt>
      <trkpt lat="45.48972" lon="6.71454">
        <ele>2414.1</ele>
        <time>2012-02-22T15:04:10Z</time>
      </trkpt>
      <trkpt lat="45.4897" lon="6.7145">
        <ele>2413.6</ele>
        <time>2012-02-22T15:04:12Z</time>
      </trkpt>
      <trkpt lat="45.48968" lon="6.71448">
        <ele>2414</ele>
        <time>2012-02-22T15:04:14Z</time>
      </trkpt>
      <trkpt lat="45.48967" lon="6.71447">
        <ele>2414.5</ele>
        <time>2012-02-22T15:04:15Z</time>
      </trkpt>
      <trkpt lat="45.48964" lon="6.71441">
        <ele>2414</ele>
        <time>2012-02-22T15:04:18Z</time>
      </trkpt>
      <trkpt lat="45.48961" lon="6.71438">
        <ele>2413.5</ele>
        <time>2012-02-22T15:04:21Z</time>
      </trkpt>
      <trkpt lat="45.4896" lon="6.71434">
        <ele>2413.5</ele>
        <time>2012-02-22T15:04:23Z</time>
      </trkpt>
      <trkpt lat="45.48957" lon="6.71429">
        <ele>2413.7</ele>
        <time>2012-02-22T15:04:26Z</time>
      </trkpt>
      <trkpt lat="45.48946" lon="6.71415">
        <ele>2413.7</ele>
        <time>2012-02-22T15:04:32Z</time>
      </trkpt>
      <trkpt lat="45.48944" lon="6.71411">
        <ele>2413.5</ele>
        <time>2012-02-22T15:04:33Z</time>
      </trkpt>
      <trkpt lat="45.48942" lon="6.71407">
        <ele>2413.4</ele>
        <time>2012-02-22T15:04:34Z</time>
      </trkpt>
      <trkpt lat="45.48942" lon="6.71402">
        <ele>2413.3</ele>
        <time>2012-02-22T15:04:35Z</time>
      </trkpt>
      <trkpt lat="45.48942" lon="6.71399">
        <ele>2413.2</ele>
        <time>2012-02-22T15:04:36Z</time>
      </trkpt>
      <trkpt lat="45.48942" lon="6.71396">
        <ele>2413.2</ele>
        <time>2012-02-22T15:04:37Z</time>
      </trkpt>
      <trkpt lat="45.48934" lon="6.71387">
        <ele>2410.7</ele>
        <time>2012-02-22T15:05:18Z</time>
      </trkpt>
      <trkpt lat="45.48928" lon="6.7138">
        <ele>2410.4</ele>
        <time>2012-02-22T15:05:20Z</time>
      </trkpt>
      <trkpt lat="45.48925" lon="6.71378">
        <ele>2410</ele>
        <time>2012-02-22T15:05:21Z</time>
      </trkpt>
      <trkpt lat="45.48922" lon="6.71373">
        <ele>2409.6</ele>
        <time>2012-02-22T15:05:22Z</time>
      </trkpt>
      <trkpt lat="45.48921" lon="6.71369">
        <ele>2409.4</ele>
        <time>2012-02-22T15:05:23Z</time>
      </trkpt>
      <trkpt lat="45.48919" lon="6.71366">
        <ele>2409</ele>
        <time>2012-02-22T15:05:24Z</time>
      </trkpt>
      <trkpt lat="45.48917" lon="6.71366">
        <ele>2408.7</ele>
        <time>2012-02-22T15:05:25Z</time>
      </trkpt>
      <trkpt lat="45.4891" lon="6.71368">
        <ele>2408.3</ele>
        <time>2012-02-22T15:05:27Z</time>
      </trkpt>
      <trkpt lat="45.48906" lon="6.71366">
        <ele>2406.9</ele>
        <time>2012-02-22T15:05:28Z</time>
      </trkpt>
      <trkpt lat="45.48904" lon="6.71361">
        <ele>2405.9</ele>
        <time>2012-02-22T15:05:29Z</time>
      </trkpt>
      <trkpt lat="45.48901" lon="6.71357">
        <ele>2405.2</ele>
        <time>2012-02-22T15:05:30Z</time>
      </trkpt>
      <trkpt lat="45.48898" lon="6.71356">
        <ele>2403.4</ele>
        <time>2012-02-22T15:05:31Z</time>
      </trkpt>
      <trkpt lat="45.48893" lon="6.71345">
        <ele>2399.3</ele>
        <time>2012-02-22T15:05:34Z</time>
      </trkpt>
      <trkpt lat="45.4889" lon="6.71343">
        <ele>2397.9</ele>
        <time>2012-02-22T15:05:35Z</time>
      </trkpt>
      <trkpt lat="45.48886" lon="6.71346">
        <ele>2395.1</ele>
        <time>2012-02-22T15:05:37Z</time>
      </trkpt>
      <trkpt lat="45.48883" lon="6.71344">
        <ele>2393.7</ele>
        <time>2012-02-22T15:05:38Z</time>
      </trkpt>
      <trkpt lat="45.4888" lon="6.7134">
        <ele>2392.7</ele>
        <time>2012-02-22T15:05:39Z</time>
      </trkpt>
      <trkpt lat="45.48877" lon="6.71339">
        <ele>2391.6</ele>
        <time>2012-02-22T15:05:40Z</time>
      </trkpt>
      <trkpt lat="45.48874" lon="6.71336">
        <ele>2390.8</ele>
        <time>2012-02-22T15:05:41Z</time>
      </trkpt>
      <trkpt lat="45.48873" lon="6.71332">
        <ele>2390.2</ele>
        <time>2012-02-22T15:05:42Z</time>
      </trkpt>
      <trkpt lat="45.4887" lon="6.71329">
        <ele>2389.7</ele>
        <time>2012-02-22T15:05:43Z</time>
      </trkpt>
      <trkpt lat="45.48868" lon="6.7133">
        <ele>2388.1</ele>
        <time>2012-02-22T15:05:44Z</time>
      </trkpt>
      <trkpt lat="45.48866" lon="6.71331">
        <ele>2386.8</ele>
        <time>2012-02-22T15:05:45Z</time>
      </trkpt>
      <trkpt lat="45.48863" lon="6.71329">
        <ele>2385.9</ele>
        <time>2012-02-22T15:05:46Z</time>
      </trkpt>
      <trkpt lat="45.48863" lon="6.71325">
        <ele>2385.1</ele>
        <time>2012-02-22T15:05:47Z</time>
      </trkpt>
      <trkpt lat="45.48863" lon="6.71321">
        <ele>2384.5</ele>
        <time>2012-02-22T15:05:48Z</time>
      </trkpt>
      <trkpt lat="45.48861" lon="6.71317">
        <ele>2384.1</ele>
        <time>2012-02-22T15:05:49Z</time>
      </trkpt>
      <trkpt lat="45.48855" lon="6.71316">
        <ele>2381.1</ele>
        <time>2012-02-22T15:05:51Z</time>
      </trkpt>
      <trkpt lat="45.48852" lon="6.71312">
        <ele>2380.1</ele>
        <time>2012-02-22T15:05:52Z</time>
      </trkpt>
      <trkpt lat="45.48851" lon="6.71302">
        <ele>2377.5</ele>
        <time>2012-02-22T15:05:54Z</time>
      </trkpt>
      <trkpt lat="45.48849" lon="6.71296">
        <ele>2376.7</ele>
        <time>2012-02-22T15:05:55Z</time>
      </trkpt>
      <trkpt lat="45.48845" lon="6.71294">
        <ele>2375</ele>
        <time>2012-02-22T15:05:56Z</time>
      </trkpt>
      <trkpt lat="45.4884" lon="6.71293">
        <ele>2373.7</ele>
        <time>2012-02-22T15:05:57Z</time>
      </trkpt>
      <trkpt lat="45.48833" lon="6.7129">
        <ele>2372.8</ele>
        <time>2012-02-22T15:05:58Z</time>
      </trkpt>
      <trkpt lat="45.48827" lon="6.71284">
        <ele>2370.9</ele>
        <time>2012-02-22T15:05:59Z</time>
      </trkpt>
      <trkpt lat="45.4882" lon="6.71275">
        <ele>2369.5</ele>
        <time>2012-02-22T15:06:00Z</time>
      </trkpt>
      <trkpt lat="45.48814" lon="6.71264">
        <ele>2368.5</ele>
        <time>2012-02-22T15:06:01Z</time>
      </trkpt>
      <trkpt lat="45.48809" lon="6.71252">
        <ele>2367.7</ele>
        <time>2012-02-22T15:06:02Z</time>
      </trkpt>
      <trkpt lat="45.48807" lon="6.71239">
        <ele>2365.2</ele>
        <time>2012-02-22T15:06:03Z</time>
      </trkpt>
      <trkpt lat="45.48807" lon="6.71227">
        <ele>2363.4</ele>
        <time>2012-02-22T15:06:04Z</time>
      </trkpt>
      <trkpt lat="45.4881" lon="6.71218">
        <ele>2362</ele>
        <time>2012-02-22T15:06:05Z</time>
      </trkpt>
      <trkpt lat="45.48813" lon="6.71213">
        <ele>2360</ele>
        <time>2012-02-22T15:06:06Z</time>
      </trkpt>
      <trkpt lat="45.48816" lon="6.71211">
        <ele>2358.5</ele>
        <time>2012-02-22T15:06:07Z</time>
      </trkpt>
      <trkpt lat="45.48818" lon="6.71207">
        <ele>2357.4</ele>
        <time>2012-02-22T15:06:08Z</time>
      </trkpt>
      <trkpt lat="45.4882" lon="6.71202">
        <ele>2356.3</ele>
        <time>2012-02-22T15:06:09Z</time>
      </trkpt>
      <trkpt lat="45.48823" lon="6.71198">
        <ele>2355.4</ele>
        <time>2012-02-22T15:06:10Z</time>
      </trkpt>
      <trkpt lat="45.48827" lon="6.71196">
        <ele>2354.8</ele>
        <time>2012-02-22T15:06:11Z</time>
      </trkpt>
      <trkpt lat="45.48829" lon="6.71194">
        <ele>2353.3</ele>
        <time>2012-02-22T15:06:12Z</time>
      </trkpt>
      <trkpt lat="45.48829" lon="6.71191">
        <ele>2352.1</ele>
        <time>2012-02-22T15:06:13Z</time>
      </trkpt>
      <trkpt lat="45.48827" lon="6.71185">
        <ele>2350.7</ele>
        <time>2012-02-22T15:06:15Z</time>
      </trkpt>
      <trkpt lat="45.48827" lon="6.71181">
        <ele>2350.2</ele>
        <time>2012-02-22T15:06:16Z</time>
      </trkpt>
      <trkpt lat="45.48829" lon="6.71177">
        <ele>2349.9</ele>
        <time>2012-02-22T15:06:17Z</time>
      </trkpt>
      <trkpt lat="45.4883" lon="6.71176">
        <ele>2348.5</ele>
        <time>2012-02-22T15:06:19Z</time>
      </trkpt>
      <trkpt lat="45.48831" lon="6.71176">
        <ele>2347.7</ele>
        <time>2012-02-22T15:06:20Z</time>
      </trkpt>
      <trkpt lat="45.48831" lon="6.71175">
        <ele>2347.1</ele>
        <time>2012-02-22T15:06:21Z</time>
      </trkpt>
      <trkpt lat="45.48833" lon="6.71172">
        <ele>2346.4</ele>
        <time>2012-02-22T15:06:22Z</time>
      </trkpt>
      <trkpt lat="45.48834" lon="6.71167">
        <ele>2345.9</ele>
        <time>2012-02-22T15:06:23Z</time>
      </trkpt>
      <trkpt lat="45.48834" lon="6.7116">
        <ele>2345.5</ele>
        <time>2012-02-22T15:06:24Z</time>
      </trkpt>
      <trkpt lat="45.48833" lon="6.71153">
        <ele>2344.7</ele>
        <time>2012-02-22T15:06:25Z</time>
      </trkpt>
      <trkpt lat="45.48834" lon="6.71146">
        <ele>2344.2</ele>
        <time>2012-02-22T15:06:26Z</time>
      </trkpt>
      <trkpt lat="45.48837" lon="6.71142">
        <ele>2343.8</ele>
        <time>2012-02-22T15:06:27Z</time>
      </trkpt>
      <trkpt lat="45.48841" lon="6.71144">
        <ele>2342.3</ele>
        <time>2012-02-22T15:06:28Z</time>
      </trkpt>
      <trkpt lat="45.48846" lon="6.71149">
        <ele>2340.2</ele>
        <time>2012-02-22T15:06:30Z</time>
      </trkpt>
      <trkpt lat="45.4885" lon="6.7115">
        <ele>2338.9</ele>
        <time>2012-02-22T15:06:31Z</time>
      </trkpt>
      <trkpt lat="45.48853" lon="6.71145">
        <ele>2337.8</ele>
        <time>2012-02-22T15:06:32Z</time>
      </trkpt>
      <trkpt lat="45.48853" lon="6.71132">
        <ele>2336.5</ele>
        <time>2012-02-22T15:06:34Z</time>
      </trkpt>
      <trkpt lat="45.48856" lon="6.71128">
        <ele>2334.9</ele>
        <time>2012-02-22T15:06:35Z</time>
      </trkpt>
      <trkpt lat="45.4886" lon="6.71126">
        <ele>2333.8</ele>
        <time>2012-02-22T15:06:36Z</time>
      </trkpt>
      <trkpt lat="45.48864" lon="6.71121">
        <ele>2332.9</ele>
        <time>2012-02-22T15:06:37Z</time>
      </trkpt>
      <trkpt lat="45.48868" lon="6.71118">
        <ele>2331.4</ele>
        <time>2012-02-22T15:06:38Z</time>
      </trkpt>
      <trkpt lat="45.48873" lon="6.71118">
        <ele>2330.2</ele>
        <time>2012-02-22T15:06:39Z</time>
      </trkpt>
      <trkpt lat="45.48879" lon="6.71116">
        <ele>2329.3</ele>
        <time>2012-02-22T15:06:40Z</time>
      </trkpt>
      <trkpt lat="45.48885" lon="6.71111">
        <ele>2326.7</ele>
        <time>2012-02-22T15:06:41Z</time>
      </trkpt>
      <trkpt lat="45.48888" lon="6.71101">
        <ele>2324.7</ele>
        <time>2012-02-22T15:06:42Z</time>
      </trkpt>
      <trkpt lat="45.48893" lon="6.71066">
        <ele>2319.5</ele>
        <time>2012-02-22T15:06:45Z</time>
      </trkpt>
      <trkpt lat="45.48895" lon="6.71008">
        <ele>2313.5</ele>
        <time>2012-02-22T15:06:51Z</time>
      </trkpt>
      <trkpt lat="45.48894" lon="6.7098">
        <ele>2312.8</ele>
        <time>2012-02-22T15:06:56Z</time>
      </trkpt>
      <trkpt lat="45.48894" lon="6.70975">
        <ele>2313.1</ele>
        <time>2012-02-22T15:06:57Z</time>
      </trkpt>
      <trkpt lat="45.489" lon="6.70952">
        <ele>2313.8</ele>
        <time>2012-02-22T15:07:02Z</time>
      </trkpt>
      <trkpt lat="45.48902" lon="6.70938">
        <ele>2312.9</ele>
        <time>2012-02-22T15:07:06Z</time>
      </trkpt>
      <trkpt lat="45.48913" lon="6.70895">
        <ele>2312.8</ele>
        <time>2012-02-22T15:07:18Z</time>
      </trkpt>
      <trkpt lat="45.48914" lon="6.7089">
        <ele>2312.8</ele>
        <time>2012-02-22T15:07:19Z</time>
      </trkpt>
      <trkpt lat="45.48916" lon="6.70888">
        <ele>2312.8</ele>
        <time>2012-02-22T15:07:20Z</time>
      </trkpt>
      <trkpt lat="45.48918" lon="6.70887">
        <ele>2312.8</ele>
        <time>2012-02-22T15:07:21Z</time>
      </trkpt>
      <trkpt lat="45.48919" lon="6.70886">
        <ele>2312.3</ele>
        <time>2012-02-22T15:07:22Z</time>
      </trkpt>
      <trkpt lat="45.48919" lon="6.70885">
        <ele>2312</ele>
        <time>2012-02-22T15:07:23Z</time>
      </trkpt>
      <trkpt lat="45.4892" lon="6.70884">
        <ele>2311.7</ele>
        <time>2012-02-22T15:07:24Z</time>
      </trkpt>
      <trkpt lat="45.48921" lon="6.70883">
        <ele>2311.5</ele>
        <time>2012-02-22T15:07:25Z</time>
      </trkpt>
      <trkpt lat="45.48924" lon="6.70875">
        <ele>2310.9</ele>
        <time>2012-02-22T15:07:28Z</time>
      </trkpt>
      <trkpt lat="45.48925" lon="6.70873">
        <ele>2310.6</ele>
        <time>2012-02-22T15:07:29Z</time>
      </trkpt>
      <trkpt lat="45.48926" lon="6.7087">
        <ele>2310.3</ele>
        <time>2012-02-22T15:07:30Z</time>
      </trkpt>
      <trkpt lat="45.48925" lon="6.70865">
        <ele>2310.1</ele>
        <time>2012-02-22T15:07:31Z</time>
      </trkpt>
      <trkpt lat="45.48926" lon="6.7086">
        <ele>2309.2</ele>
        <time>2012-02-22T15:07:32Z</time>
      </trkpt>
      <trkpt lat="45.48926" lon="6.70855">
        <ele>2308.6</ele>
        <time>2012-02-22T15:07:33Z</time>
      </trkpt>
      <trkpt lat="45.48926" lon="6.70852">
        <ele>2308.1</ele>
        <time>2012-02-22T15:07:34Z</time>
      </trkpt>
      <trkpt lat="45.48928" lon="6.70848">
        <ele>2306.5</ele>
        <time>2012-02-22T15:07:35Z</time>
      </trkpt>
      <trkpt lat="45.48934" lon="6.70836">
        <ele>2303.2</ele>
        <time>2012-02-22T15:07:38Z</time>
      </trkpt>
      <trkpt lat="45.48934" lon="6.70834">
        <ele>2302.3</ele>
        <time>2012-02-22T15:07:39Z</time>
      </trkpt>
      <trkpt lat="45.48931" lon="6.70826">
        <ele>2301.1</ele>
        <time>2012-02-22T15:07:41Z</time>
      </trkpt>
      <trkpt lat="45.4893" lon="6.70822">
        <ele>2300.4</ele>
        <time>2012-02-22T15:07:42Z</time>
      </trkpt>
      <trkpt lat="45.48929" lon="6.70821">
        <ele>2299.8</ele>
        <time>2012-02-22T15:07:43Z</time>
      </trkpt>
      <trkpt lat="45.48926" lon="6.70821">
        <ele>2299.4</ele>
        <time>2012-02-22T15:07:44Z</time>
      </trkpt>
      <trkpt lat="45.4892" lon="6.70818">
        <ele>2295.5</ele>
        <time>2012-02-22T15:07:47Z</time>
      </trkpt>
      <trkpt lat="45.48918" lon="6.70814">
        <ele>2294.6</ele>
        <time>2012-02-22T15:07:48Z</time>
      </trkpt>
      <trkpt lat="45.48917" lon="6.70809">
        <ele>2294</ele>
        <time>2012-02-22T15:07:49Z</time>
      </trkpt>
      <trkpt lat="45.48916" lon="6.70807">
        <ele>2293.5</ele>
        <time>2012-02-22T15:07:50Z</time>
      </trkpt>
      <trkpt lat="45.48913" lon="6.70805">
        <ele>2292.4</ele>
        <time>2012-02-22T15:07:51Z</time>
      </trkpt>
      <trkpt lat="45.4891" lon="6.70797">
        <ele>2290.9</ele>
        <time>2012-02-22T15:07:53Z</time>
      </trkpt>
      <trkpt lat="45.48908" lon="6.70797">
        <ele>2289</ele>
        <time>2012-02-22T15:07:54Z</time>
      </trkpt>
      <trkpt lat="45.48906" lon="6.70796">
        <ele>2287.6</ele>
        <time>2012-02-22T15:07:55Z</time>
      </trkpt>
      <trkpt lat="45.48904" lon="6.70793">
        <ele>2286.6</ele>
        <time>2012-02-22T15:07:56Z</time>
      </trkpt>
      <trkpt lat="45.48903" lon="6.70789">
        <ele>2285.8</ele>
        <time>2012-02-22T15:07:57Z</time>
      </trkpt>
      <trkpt lat="45.48904" lon="6.70773">
        <ele>2283.5</ele>
        <time>2012-02-22T15:08:00Z</time>
      </trkpt>
      <trkpt lat="45.48903" lon="6.70765">
        <ele>2282.3</ele>
        <time>2012-02-22T15:08:01Z</time>
      </trkpt>
      <trkpt lat="45.48898" lon="6.70755">
        <ele>2281.3</ele>
        <time>2012-02-22T15:08:02Z</time>
      </trkpt>
      <trkpt lat="45.48767" lon="6.70568">
        <ele>2251</ele>
        <time>2012-02-22T15:08:16Z</time>
      </trkpt>
      <trkpt lat="45.48756" lon="6.70559">
        <ele>2249</ele>
        <time>2012-02-22T15:08:17Z</time>
      </trkpt>
      <trkpt lat="45.48677" lon="6.70514">
        <ele>2239.9</ele>
        <time>2012-02-22T15:08:25Z</time>
      </trkpt>
      <trkpt lat="45.48665" lon="6.70498">
        <ele>2239</ele>
        <time>2012-02-22T15:08:27Z</time>
      </trkpt>
      <trkpt lat="45.48659" lon="6.70492">
        <ele>2238.7</ele>
        <time>2012-02-22T15:08:28Z</time>
      </trkpt>
      <trkpt lat="45.48653" lon="6.70489">
        <ele>2238.5</ele>
        <time>2012-02-22T15:08:29Z</time>
      </trkpt>
      <trkpt lat="45.48646" lon="6.70476">
        <ele>2237.6</ele>
        <time>2012-02-22T15:08:31Z</time>
      </trkpt>
      <trkpt lat="45.48641" lon="6.70472">
        <ele>2237.3</ele>
        <time>2012-02-22T15:08:32Z</time>
      </trkpt>
      <trkpt lat="45.48629" lon="6.70463">
        <ele>2236</ele>
        <time>2012-02-22T15:08:34Z</time>
      </trkpt>
      <trkpt lat="45.48625" lon="6.70454">
        <ele>2235.6</ele>
        <time>2012-02-22T15:08:35Z</time>
      </trkpt>
      <trkpt lat="45.48623" lon="6.70445">
        <ele>2234.8</ele>
        <time>2012-02-22T15:08:36Z</time>
      </trkpt>
      <trkpt lat="45.48624" lon="6.70415">
        <ele>2232.6</ele>
        <time>2012-02-22T15:08:39Z</time>
      </trkpt>
      <trkpt lat="45.48621" lon="6.70406">
        <ele>2231.8</ele>
        <time>2012-02-22T15:08:40Z</time>
      </trkpt>
      <trkpt lat="45.48614" lon="6.70386">
        <ele>2229.8</ele>
        <time>2012-02-22T15:08:42Z</time>
      </trkpt>
      <trkpt lat="45.48612" lon="6.70376">
        <ele>2228.7</ele>
        <time>2012-02-22T15:08:43Z</time>
      </trkpt>
      <trkpt lat="45.48613" lon="6.70366">
        <ele>2227.9</ele>
        <time>2012-02-22T15:08:44Z</time>
      </trkpt>
      <trkpt lat="45.48619" lon="6.70341">
        <ele>2226</ele>
        <time>2012-02-22T15:08:47Z</time>
      </trkpt>
      <trkpt lat="45.48619" lon="6.70332">
        <ele>2225.7</ele>
        <time>2012-02-22T15:08:48Z</time>
      </trkpt>
      <trkpt lat="45.48618" lon="6.70325">
        <ele>2225</ele>
        <time>2012-02-22T15:08:49Z</time>
      </trkpt>
      <trkpt lat="45.48616" lon="6.70319">
        <ele>2224.6</ele>
        <time>2012-02-22T15:08:50Z</time>
      </trkpt>
      <trkpt lat="45.48616" lon="6.70314">
        <ele>2223.8</ele>
        <time>2012-02-22T15:08:52Z</time>
      </trkpt>
      <trkpt lat="45.48614" lon="6.70307">
        <ele>2220.7</ele>
        <time>2012-02-22T15:09:05Z</time>
      </trkpt>
      <trkpt lat="45.48615" lon="6.70304">
        <ele>2221.1</ele>
        <time>2012-02-22T15:09:10Z</time>
      </trkpt>
      <trkpt lat="45.48615" lon="6.70301">
        <ele>2220.3</ele>
        <time>2012-02-22T15:09:12Z</time>
      </trkpt>
      <trkpt lat="45.48615" lon="6.70295">
        <ele>2219.8</ele>
        <time>2012-02-22T15:09:14Z</time>
      </trkpt>
      <trkpt lat="45.48615" lon="6.70292">
        <ele>2219.7</ele>
        <time>2012-02-22T15:09:15Z</time>
      </trkpt>
      <trkpt lat="45.48616" lon="6.70288">
        <ele>2219.5</ele>
        <time>2012-02-22T15:09:16Z</time>
      </trkpt>
      <trkpt lat="45.48618" lon="6.70282">
        <ele>2219.4</ele>
        <time>2012-02-22T15:09:18Z</time>
      </trkpt>
      <trkpt lat="45.48618" lon="6.70281">
        <ele>2219.4</ele>
        <time>2012-02-22T15:09:19Z</time>
      </trkpt>
      <trkpt lat="45.48619" lon="6.70279">
        <ele>2218.9</ele>
        <time>2012-02-22T15:09:20Z</time>
      </trkpt>
      <trkpt lat="45.48622" lon="6.70275">
        <ele>2218.2</ele>
        <time>2012-02-22T15:09:22Z</time>
      </trkpt>
      <trkpt lat="45.48623" lon="6.70271">
        <ele>2218</ele>
        <time>2012-02-22T15:09:23Z</time>
      </trkpt>
      <trkpt lat="45.48624" lon="6.70265">
        <ele>2216.7</ele>
        <time>2012-02-22T15:09:24Z</time>
      </trkpt>
      <trkpt lat="45.48622" lon="6.70258">
        <ele>2215.8</ele>
        <time>2012-02-22T15:09:25Z</time>
      </trkpt>
      <trkpt lat="45.4862" lon="6.70231">
        <ele>2212.8</ele>
        <time>2012-02-22T15:09:28Z</time>
      </trkpt>
      <trkpt lat="45.4862" lon="6.70221">
        <ele>2212.1</ele>
        <time>2012-02-22T15:09:29Z</time>
      </trkpt>
      <trkpt lat="45.48622" lon="6.70213">
        <ele>2209.4</ele>
        <time>2012-02-22T15:09:30Z</time>
      </trkpt>
      <trkpt lat="45.48622" lon="6.70199">
        <ele>2205.9</ele>
        <time>2012-02-22T15:09:32Z</time>
      </trkpt>
      <trkpt lat="45.48619" lon="6.70192">
        <ele>2202.8</ele>
        <time>2012-02-22T15:09:33Z</time>
      </trkpt>
      <trkpt lat="45.48617" lon="6.70173">
        <ele>2198.8</ele>
        <time>2012-02-22T15:09:35Z</time>
      </trkpt>
      <trkpt lat="45.48614" lon="6.70164">
        <ele>2197.5</ele>
        <time>2012-02-22T15:09:36Z</time>
      </trkpt>
      <trkpt lat="45.48614" lon="6.70142">
        <ele>2194.2</ele>
        <time>2012-02-22T15:09:38Z</time>
      </trkpt>
      <trkpt lat="45.4861" lon="6.70131">
        <ele>2193.2</ele>
        <time>2012-02-22T15:09:39Z</time>
      </trkpt>
      <trkpt lat="45.48608" lon="6.7012">
        <ele>2189.7</ele>
        <time>2012-02-22T15:09:40Z</time>
      </trkpt>
      <trkpt lat="45.48605" lon="6.70111">
        <ele>2187.1</ele>
        <time>2012-02-22T15:09:41Z</time>
      </trkpt>
      <trkpt lat="45.48594" lon="6.70094">
        <ele>2181.5</ele>
        <time>2012-02-22T15:09:43Z</time>
      </trkpt>
      <trkpt lat="45.48592" lon="6.70084">
        <ele>2178.7</ele>
        <time>2012-02-22T15:09:44Z</time>
      </trkpt>
      <trkpt lat="45.48594" lon="6.70066">
        <ele>2174</ele>
        <time>2012-02-22T15:09:46Z</time>
      </trkpt>
      <trkpt lat="45.48591" lon="6.70056">
        <ele>2172</ele>
        <time>2012-02-22T15:09:47Z</time>
      </trkpt>
      <trkpt lat="45.48587" lon="6.70049">
        <ele>2170.5</ele>
        <time>2012-02-22T15:09:48Z</time>
      </trkpt>
      <trkpt lat="45.48581" lon="6.70043">
        <ele>2167.5</ele>
        <time>2012-02-22T15:09:49Z</time>
      </trkpt>
      <trkpt lat="45.48576" lon="6.70035">
        <ele>2165.3</ele>
        <time>2012-02-22T15:09:50Z</time>
      </trkpt>
      <trkpt lat="45.48569" lon="6.70014">
        <ele>2162.3</ele>
        <time>2012-02-22T15:09:52Z</time>
      </trkpt>
      <trkpt lat="45.48565" lon="6.70006">
        <ele>2161.1</ele>
        <time>2012-02-22T15:09:53Z</time>
      </trkpt>
      <trkpt lat="45.4856" lon="6.7">
        <ele>2160.2</ele>
        <time>2012-02-22T15:09:54Z</time>
      </trkpt>
      <trkpt lat="45.48557" lon="6.69993">
        <ele>2159.5</ele>
        <time>2012-02-22T15:09:55Z</time>
      </trkpt>
      <trkpt lat="45.48556" lon="6.69985">
        <ele>2158.1</ele>
        <time>2012-02-22T15:09:56Z</time>
      </trkpt>
      <trkpt lat="45.48555" lon="6.69977">
        <ele>2157.1</ele>
        <time>2012-02-22T15:09:57Z</time>
      </trkpt>
      <trkpt lat="45.48552" lon="6.69972">
        <ele>2156.4</ele>
        <time>2012-02-22T15:09:58Z</time>
      </trkpt>
      <trkpt lat="45.48549" lon="6.69968">
        <ele>2155.2</ele>
        <time>2012-02-22T15:09:59Z</time>
      </trkpt>
      <trkpt lat="45.48545" lon="6.69965">
        <ele>2154.3</ele>
        <time>2012-02-22T15:10:00Z</time>
      </trkpt>
      <trkpt lat="45.48539" lon="6.69962">
        <ele>2152.6</ele>
        <time>2012-02-22T15:10:03Z</time>
      </trkpt>
      <trkpt lat="45.48539" lon="6.69961">
        <ele>2152.3</ele>
        <time>2012-02-22T15:10:04Z</time>
      </trkpt>
      <trkpt lat="45.48537" lon="6.69961">
        <ele>2151.4</ele>
        <time>2012-02-22T15:10:05Z</time>
      </trkpt>
      <trkpt lat="45.48537" lon="6.69961">
        <ele>2150.7</ele>
        <time>2012-02-22T15:10:06Z</time>
      </trkpt>
      <trkpt lat="45.48536" lon="6.69961">
        <ele>2150.2</ele>
        <time>2012-02-22T15:10:07Z</time>
      </trkpt>
      <trkpt lat="45.48528" lon="6.69955">
        <ele>2149.6</ele>
        <time>2012-02-22T15:10:34Z</time>
      </trkpt>
      <trkpt lat="45.48527" lon="6.6994">
        <ele>2149.6</ele>
        <time>2012-02-22T15:10:36Z</time>
      </trkpt>
      <trkpt lat="45.48523" lon="6.69932">
        <ele>2148.4</ele>
        <time>2012-02-22T15:10:37Z</time>
      </trkpt>
      <trkpt lat="45.48516" lon="6.69927">
        <ele>2147.5</ele>
        <time>2012-02-22T15:10:38Z</time>
      </trkpt>
      <trkpt lat="45.48508" lon="6.69923">
        <ele>2146.8</ele>
        <time>2012-02-22T15:10:39Z</time>
      </trkpt>
      <trkpt lat="45.48501" lon="6.69912">
        <ele>2143.9</ele>
        <time>2012-02-22T15:10:40Z</time>
      </trkpt>
      <trkpt lat="45.48493" lon="6.69881">
        <ele>2140.1</ele>
        <time>2012-02-22T15:10:42Z</time>
      </trkpt>
      <trkpt lat="45.48484" lon="6.69873">
        <ele>2138.9</ele>
        <time>2012-02-22T15:10:43Z</time>
      </trkpt>
      <trkpt lat="45.48474" lon="6.69869">
        <ele>2135.2</ele>
        <time>2012-02-22T15:10:44Z</time>
      </trkpt>
      <trkpt lat="45.48464" lon="6.69859">
        <ele>2132.5</ele>
        <time>2012-02-22T15:10:45Z</time>
      </trkpt>
      <trkpt lat="45.48452" lon="6.69828">
        <ele>2126.2</ele>
        <time>2012-02-22T15:10:47Z</time>
      </trkpt>
      <trkpt lat="45.48441" lon="6.69818">
        <ele>2123</ele>
        <time>2012-02-22T15:10:48Z</time>
      </trkpt>
      <trkpt lat="45.48433" lon="6.69806">
        <ele>2120.6</ele>
        <time>2012-02-22T15:10:49Z</time>
      </trkpt>
      <trkpt lat="45.48426" lon="6.69792">
        <ele>2116.3</ele>
        <time>2012-02-22T15:10:50Z</time>
      </trkpt>
      <trkpt lat="45.48417" lon="6.69782">
        <ele>2113.1</ele>
        <time>2012-02-22T15:10:51Z</time>
      </trkpt>
      <trkpt lat="45.48407" lon="6.69774">
        <ele>2110.7</ele>
        <time>2012-02-22T15:10:52Z</time>
      </trkpt>
      <trkpt lat="45.48399" lon="6.69761">
        <ele>2106.2</ele>
        <time>2012-02-22T15:10:53Z</time>
      </trkpt>
      <trkpt lat="45.48392" lon="6.69744">
        <ele>2102.8</ele>
        <time>2012-02-22T15:10:54Z</time>
      </trkpt>
      <trkpt lat="45.48383" lon="6.6973">
        <ele>2100.2</ele>
        <time>2012-02-22T15:10:55Z</time>
      </trkpt>
      <trkpt lat="45.4836" lon="6.69712">
        <ele>2090.6</ele>
        <time>2012-02-22T15:10:57Z</time>
      </trkpt>
      <trkpt lat="45.4834" lon="6.69689">
        <ele>2083.3</ele>
        <time>2012-02-22T15:10:59Z</time>
      </trkpt>
      <trkpt lat="45.48316" lon="6.69675">
        <ele>2077.9</ele>
        <time>2012-02-22T15:11:01Z</time>
      </trkpt>
      <trkpt lat="45.48307" lon="6.6966">
        <ele>2076.2</ele>
        <time>2012-02-22T15:11:02Z</time>
      </trkpt>
      <trkpt lat="45.48299" lon="6.69642">
        <ele>2071.7</ele>
        <time>2012-02-22T15:11:03Z</time>
      </trkpt>
      <trkpt lat="45.48289" lon="6.69628">
        <ele>2068.3</ele>
        <time>2012-02-22T15:11:04Z</time>
      </trkpt>
      <trkpt lat="45.48277" lon="6.69618">
        <ele>2065.8</ele>
        <time>2012-02-22T15:11:05Z</time>
      </trkpt>
      <trkpt lat="45.48264" lon="6.69612">
        <ele>2061.8</ele>
        <time>2012-02-22T15:11:06Z</time>
      </trkpt>
      <trkpt lat="45.48252" lon="6.69602">
        <ele>2058.7</ele>
        <time>2012-02-22T15:11:07Z</time>
      </trkpt>
      <trkpt lat="45.48241" lon="6.69588">
        <ele>2056.5</ele>
        <time>2012-02-22T15:11:08Z</time>
      </trkpt>
      <trkpt lat="45.48218" lon="6.69569">
        <ele>2050.6</ele>
        <time>2012-02-22T15:11:10Z</time>
      </trkpt>
      <trkpt lat="45.48199" lon="6.69541">
        <ele>2045</ele>
        <time>2012-02-22T15:11:12Z</time>
      </trkpt>
      <trkpt lat="45.48186" lon="6.69533">
        <ele>2042.1</ele>
        <time>2012-02-22T15:11:13Z</time>
      </trkpt>
      <trkpt lat="45.48164" lon="6.69522">
        <ele>2037.2</ele>
        <time>2012-02-22T15:11:15Z</time>
      </trkpt>
      <trkpt lat="45.48159" lon="6.69516">
        <ele>2035.1</ele>
        <time>2012-02-22T15:11:16Z</time>
      </trkpt>
      <trkpt lat="45.48155" lon="6.69501">
        <ele>2032.3</ele>
        <time>2012-02-22T15:11:18Z</time>
      </trkpt>
      <trkpt lat="45.48149" lon="6.69493">
        <ele>2031.1</ele>
        <time>2012-02-22T15:11:20Z</time>
      </trkpt>
      <trkpt lat="45.48147" lon="6.6949">
        <ele>2030.7</ele>
        <time>2012-02-22T15:11:21Z</time>
      </trkpt>
      <trkpt lat="45.48144" lon="6.69488">
        <ele>2030.2</ele>
        <time>2012-02-22T15:11:22Z</time>
      </trkpt>
      <trkpt lat="45.48142" lon="6.69485">
        <ele>2029.7</ele>
        <time>2012-02-22T15:11:23Z</time>
      </trkpt>
      <trkpt lat="45.48141" lon="6.69482">
        <ele>2029.4</ele>
        <time>2012-02-22T15:11:24Z</time>
      </trkpt>
      <trkpt lat="45.48137" lon="6.69472">
        <ele>2027.6</ele>
        <time>2012-02-22T15:11:26Z</time>
      </trkpt>
      <trkpt lat="45.48135" lon="6.69469">
        <ele>2026.4</ele>
        <time>2012-02-22T15:11:28Z</time>
      </trkpt>
      <trkpt lat="45.48133" lon="6.69463">
        <ele>2023.2</ele>
        <time>2012-02-22T15:11:56Z</time>
      </trkpt>
      <trkpt lat="45.48073" lon="6.69407">
        <ele>2012.5</ele>
        <time>2012-02-22T15:12:03Z</time>
      </trkpt>
      <trkpt lat="45.48049" lon="6.69403">
        <ele>2007.1</ele>
        <time>2012-02-22T15:12:05Z</time>
      </trkpt>
      <trkpt lat="45.48038" lon="6.69395">
        <ele>2005.3</ele>
        <time>2012-02-22T15:12:06Z</time>
      </trkpt>
      <trkpt lat="45.4803" lon="6.69381">
        <ele>2002.7</ele>
        <time>2012-02-22T15:12:07Z</time>
      </trkpt>
      <trkpt lat="45.4801" lon="6.69362">
        <ele>1999.3</ele>
        <time>2012-02-22T15:12:09Z</time>
      </trkpt>
      <trkpt lat="45.47998" lon="6.69363">
        <ele>1996.6</ele>
        <time>2012-02-22T15:12:10Z</time>
      </trkpt>
      <trkpt lat="45.47977" lon="6.69352">
        <ele>1993.1</ele>
        <time>2012-02-22T15:12:12Z</time>
      </trkpt>
      <trkpt lat="45.4797" lon="6.69353">
        <ele>1989.8</ele>
        <time>2012-02-22T15:12:13Z</time>
      </trkpt>
      <trkpt lat="45.47962" lon="6.69349">
        <ele>1987.4</ele>
        <time>2012-02-22T15:12:14Z</time>
      </trkpt>
      <trkpt lat="45.47946" lon="6.69333">
        <ele>1982.1</ele>
        <time>2012-02-22T15:12:16Z</time>
      </trkpt>
      <trkpt lat="45.47937" lon="6.69332">
        <ele>1979.6</ele>
        <time>2012-02-22T15:12:17Z</time>
      </trkpt>
      <trkpt lat="45.47929" lon="6.69337">
        <ele>1977.7</ele>
        <time>2012-02-22T15:12:18Z</time>
      </trkpt>
      <trkpt lat="45.47921" lon="6.69338">
        <ele>1974.7</ele>
        <time>2012-02-22T15:12:19Z</time>
      </trkpt>
      <trkpt lat="45.47908" lon="6.69327">
        <ele>1970.7</ele>
        <time>2012-02-22T15:12:21Z</time>
      </trkpt>
      <trkpt lat="45.47901" lon="6.69322">
        <ele>1968.5</ele>
        <time>2012-02-22T15:12:22Z</time>
      </trkpt>
      <trkpt lat="45.47888" lon="6.6931">
        <ele>1965.6</ele>
        <time>2012-02-22T15:12:24Z</time>
      </trkpt>
      <trkpt lat="45.47881" lon="6.69309">
        <ele>1964.7</ele>
        <time>2012-02-22T15:12:25Z</time>
      </trkpt>
      <trkpt lat="45.47871" lon="6.69315">
        <ele>1961</ele>
        <time>2012-02-22T15:12:27Z</time>
      </trkpt>
      <trkpt lat="45.4786" lon="6.69316">
        <ele>1957.5</ele>
        <time>2012-02-22T15:12:29Z</time>
      </trkpt>
      <trkpt lat="45.47847" lon="6.69328">
        <ele>1954.5</ele>
        <time>2012-02-22T15:12:31Z</time>
      </trkpt>
      <trkpt lat="45.47837" lon="6.69329">
        <ele>1951.8</ele>
        <time>2012-02-22T15:12:32Z</time>
      </trkpt>
      <trkpt lat="45.47828" lon="6.69326">
        <ele>1949.8</ele>
        <time>2012-02-22T15:12:33Z</time>
      </trkpt>
      <trkpt lat="45.47819" lon="6.69325">
        <ele>1948.3</ele>
        <time>2012-02-22T15:12:34Z</time>
      </trkpt>
      <trkpt lat="45.47806" lon="6.69332">
        <ele>1941.3</ele>
        <time>2012-02-22T15:12:36Z</time>
      </trkpt>
      <trkpt lat="45.47801" lon="6.69332">
        <ele>1939.1</ele>
        <time>2012-02-22T15:12:37Z</time>
      </trkpt>
      <trkpt lat="45.47795" lon="6.69326">
        <ele>1931.3</ele>
        <time>2012-02-22T15:13:12Z</time>
      </trkpt>
      <trkpt lat="45.47782" lon="6.69302">
        <ele>1930.3</ele>
        <time>2012-02-22T15:13:15Z</time>
      </trkpt>
      <trkpt lat="45.47707" lon="6.69174">
        <ele>1898.9</ele>
        <time>2012-02-22T15:13:29Z</time>
      </trkpt>
      <trkpt lat="45.47675" lon="6.69079">
        <ele>1878.1</ele>
        <time>2012-02-22T15:13:38Z</time>
      </trkpt>
      <trkpt lat="45.47672" lon="6.69068">
        <ele>1874.3</ele>
        <time>2012-02-22T15:13:39Z</time>
      </trkpt>
      <trkpt lat="45.47664" lon="6.69049">
        <ele>1869.2</ele>
        <time>2012-02-22T15:13:41Z</time>
      </trkpt>
      <trkpt lat="45.47662" lon="6.69038">
        <ele>1864.9</ele>
        <time>2012-02-22T15:13:42Z</time>
      </trkpt>
      <trkpt lat="45.47658" lon="6.69029">
        <ele>1861.6</ele>
        <time>2012-02-22T15:13:43Z</time>
      </trkpt>
      <trkpt lat="45.47658" lon="6.69024">
        <ele>1859.2</ele>
        <time>2012-02-22T15:13:44Z</time>
      </trkpt>
      <trkpt lat="45.47659" lon="6.69018">
        <ele>1856.3</ele>
        <time>2012-02-22T15:13:45Z</time>
      </trkpt>
      <trkpt lat="45.47657" lon="6.69013">
        <ele>1854.2</ele>
        <time>2012-02-22T15:13:46Z</time>
      </trkpt>
      <trkpt lat="45.47653" lon="6.69008">
        <ele>1852.6</ele>
        <time>2012-02-22T15:13:47Z</time>
      </trkpt>
      <trkpt lat="45.4765" lon="6.69">
        <ele>1851.4</ele>
        <time>2012-02-22T15:13:48Z</time>
      </trkpt>
      <trkpt lat="45.4765" lon="6.68991">
        <ele>1849.2</ele>
        <time>2012-02-22T15:13:49Z</time>
      </trkpt>
      <trkpt lat="45.47653" lon="6.68983">
        <ele>1847.6</ele>
        <time>2012-02-22T15:13:50Z</time>
      </trkpt>
      <trkpt lat="45.47655" lon="6.68975">
        <ele>1846.4</ele>
        <time>2012-02-22T15:13:51Z</time>
      </trkpt>
      <trkpt lat="45.47655" lon="6.68968">
        <ele>1844.3</ele>
        <time>2012-02-22T15:13:52Z</time>
      </trkpt>
      <trkpt lat="45.47653" lon="6.68962">
        <ele>1842.8</ele>
        <time>2012-02-22T15:13:53Z</time>
      </trkpt>
      <trkpt lat="45.47651" lon="6.68959">
        <ele>1840.8</ele>
        <time>2012-02-22T15:13:55Z</time>
      </trkpt>
      <trkpt lat="45.47651" lon="6.68958">
        <ele>1840.1</ele>
        <time>2012-02-22T15:13:56Z</time>
      </trkpt>
      <trkpt lat="45.47651" lon="6.68958">
        <ele>1839.6</ele>
        <time>2012-02-22T15:13:57Z</time>
      </trkpt>
      <trkpt lat="45.47651" lon="6.68958">
        <ele>1838.9</ele>
        <time>2012-02-22T15:13:58Z</time>
      </trkpt>
      <trkpt lat="45.4765" lon="6.68958">
        <ele>1838.4</ele>
        <time>2012-02-22T15:13:59Z</time>
      </trkpt>
      <trkpt lat="45.4765" lon="6.68958">
        <ele>1838.1</ele>
        <time>2012-02-22T15:14:00Z</time>
      </trkpt>
      <trkpt lat="45.47644" lon="6.68963">
        <ele>1839.6</ele>
        <time>2012-02-22T15:14:19Z</time>
      </trkpt>
      <trkpt lat="45.47644" lon="6.68964">
        <ele>1839.9</ele>
        <time>2012-02-22T15:14:20Z</time>
      </trkpt>
      <trkpt lat="45.47644" lon="6.68964">
        <ele>1839.4</ele>
        <time>2012-02-22T15:14:21Z</time>
      </trkpt>
      <trkpt lat="45.47657" lon="6.68937">
        <ele>1836.8</ele>
        <time>2012-02-22T15:22:55Z</time>
      </trkpt>
      <trkpt lat="45.47657" lon="6.68937">
        <ele>1836.4</ele>
        <time>2012-02-22T15:22:56Z</time>
      </trkpt>
      <trkpt lat="45.47658" lon="6.68937">
        <ele>1836.6</ele>
        <time>2012-02-22T15:22:57Z</time>
      </trkpt>
      <trkpt lat="45.47658" lon="6.68937">
        <ele>1836.7</ele>
        <time>2012-02-22T15:22:58Z</time>
      </trkpt>
      <trkpt lat="45.47661" lon="6.68931">
        <ele>1836.1</ele>
        <time>2012-02-22T15:23:08Z</time>
      </trkpt>
      <trkpt lat="45.47661" lon="6.6893">
        <ele>1835.8</ele>
        <time>2012-02-22T15:23:09Z</time>
      </trkpt>
      <trkpt lat="45.47662" lon="6.6893">
        <ele>1836.2</ele>
        <time>2012-02-22T15:23:10Z</time>
      </trkpt>
      <trkpt lat="45.47667" lon="6.68929">
        <ele>1836.8</ele>
        <time>2012-02-22T15:23:12Z</time>
      </trkpt>
      <trkpt lat="45.4767" lon="6.68928">
        <ele>1836.7</ele>
        <time>2012-02-22T15:23:13Z</time>
      </trkpt>
      <trkpt lat="45.47758" lon="6.68844">
        <ele>1867.4</ele>
        <time>2012-02-22T15:23:37Z</time>
      </trkpt>
      <trkpt lat="45.4776" lon="6.6884">
        <ele>1868.7</ele>
        <time>2012-02-22T15:23:38Z</time>
      </trkpt>
      <trkpt lat="45.48844" lon="6.67664">
        <ele>2477.9</ele>
        <time>2012-02-22T15:29:09Z</time>
      </trkpt>
      <trkpt lat="45.48856" lon="6.67651">
        <ele>2483.8</ele>
        <time>2012-02-22T15:29:14Z</time>
      </trkpt>
      <trkpt lat="45.48863" lon="6.67643">
        <ele>2487.4</ele>
        <time>2012-02-22T15:29:19Z</time>
      </trkpt>
      <trkpt lat="45.48873" lon="6.67623">
        <ele>2486.3</ele>
        <time>2012-02-22T15:29:25Z</time>
      </trkpt>
      <trkpt lat="45.48876" lon="6.6762">
        <ele>2485.9</ele>
        <time>2012-02-22T15:29:26Z</time>
      </trkpt>
      <trkpt lat="45.48878" lon="6.67618">
        <ele>2485.7</ele>
        <time>2012-02-22T15:29:27Z</time>
      </trkpt>
      <trkpt lat="45.4888" lon="6.67618">
        <ele>2485.5</ele>
        <time>2012-02-22T15:29:28Z</time>
      </trkpt>
      <trkpt lat="45.48883" lon="6.67618">
        <ele>2485.3</ele>
        <time>2012-02-22T15:29:29Z</time>
      </trkpt>
      <trkpt lat="45.48886" lon="6.67618">
        <ele>2485.2</ele>
        <time>2012-02-22T15:29:30Z</time>
      </trkpt>
      <trkpt lat="45.48888" lon="6.67616">
        <ele>2485.5</ele>
        <time>2012-02-22T15:29:31Z</time>
      </trkpt>
      <trkpt lat="45.48895" lon="6.67614">
        <ele>2484.3</ele>
        <time>2012-02-22T15:31:05Z</time>
      </trkpt>
      <trkpt lat="45.48896" lon="6.67614">
        <ele>2484.5</ele>
        <time>2012-02-22T15:31:06Z</time>
      </trkpt>
      <trkpt lat="45.48897" lon="6.67617">
        <ele>2483.9</ele>
        <time>2012-02-22T15:31:11Z</time>
      </trkpt>
      <trkpt lat="45.48897" lon="6.67618">
        <ele>2483.8</ele>
        <time>2012-02-22T15:31:12Z</time>
      </trkpt>
      <trkpt lat="45.48897" lon="6.67619">
        <ele>2483.6</ele>
        <time>2012-02-22T15:31:13Z</time>
      </trkpt>
      <trkpt lat="45.48898" lon="6.6762">
        <ele>2483.5</ele>
        <time>2012-02-22T15:31:14Z</time>
      </trkpt>
      <trkpt lat="45.489" lon="6.67625">
        <ele>2483</ele>
        <time>2012-02-22T15:31:17Z</time>
      </trkpt>
      <trkpt lat="45.48942" lon="6.67698">
        <ele>2479.5</ele>
        <time>2012-02-22T15:31:41Z</time>
      </trkpt>
      <trkpt lat="45.48962" lon="6.6772">
        <ele>2477.1</ele>
        <time>2012-02-22T15:31:46Z</time>
      </trkpt>
      <trkpt lat="45.48965" lon="6.67726">
        <ele>2476.6</ele>
        <time>2012-02-22T15:31:47Z</time>
      </trkpt>
      <trkpt lat="45.48968" lon="6.67741">
        <ele>2475.7</ele>
        <time>2012-02-22T15:31:49Z</time>
      </trkpt>
      <trkpt lat="45.48972" lon="6.67748">
        <ele>2475.4</ele>
        <time>2012-02-22T15:31:50Z</time>
      </trkpt>
      <trkpt lat="45.48974" lon="6.67757">
        <ele>2473.9</ele>
        <time>2012-02-22T15:31:51Z</time>
      </trkpt>
      <trkpt lat="45.48973" lon="6.67768">
        <ele>2472.8</ele>
        <time>2012-02-22T15:31:52Z</time>
      </trkpt>
      <trkpt lat="45.48973" lon="6.67779">
        <ele>2471.9</ele>
        <time>2012-02-22T15:31:53Z</time>
      </trkpt>
      <trkpt lat="45.4898" lon="6.67798">
        <ele>2470</ele>
        <time>2012-02-22T15:31:55Z</time>
      </trkpt>
      <trkpt lat="45.48981" lon="6.67823">
        <ele>2466.6</ele>
        <time>2012-02-22T15:31:57Z</time>
      </trkpt>
      <trkpt lat="45.48983" lon="6.67834">
        <ele>2464.6</ele>
        <time>2012-02-22T15:31:58Z</time>
      </trkpt>
      <trkpt lat="45.48987" lon="6.67844">
        <ele>2463</ele>
        <time>2012-02-22T15:31:59Z</time>
      </trkpt>
      <trkpt lat="45.48994" lon="6.67868">
        <ele>2458.8</ele>
        <time>2012-02-22T15:32:01Z</time>
      </trkpt>
      <trkpt lat="45.48999" lon="6.67879">
        <ele>2457.4</ele>
        <time>2012-02-22T15:32:02Z</time>
      </trkpt>
      <trkpt lat="45.49006" lon="6.67883">
        <ele>2456.4</ele>
        <time>2012-02-22T15:32:03Z</time>
      </trkpt>
      <trkpt lat="45.49013" lon="6.67881">
        <ele>2454</ele>
        <time>2012-02-22T15:32:04Z</time>
      </trkpt>
      <trkpt lat="45.49018" lon="6.67875">
        <ele>2452.2</ele>
        <time>2012-02-22T15:32:05Z</time>
      </trkpt>
      <trkpt lat="45.4902" lon="6.67868">
        <ele>2450.8</ele>
        <time>2012-02-22T15:32:06Z</time>
      </trkpt>
      <trkpt lat="45.49022" lon="6.67848">
        <ele>2445.4</ele>
        <time>2012-02-22T15:32:09Z</time>
      </trkpt>
      <trkpt lat="45.49022" lon="6.67844">
        <ele>2444.5</ele>
        <time>2012-02-22T15:32:10Z</time>
      </trkpt>
      <trkpt lat="45.49023" lon="6.67841">
        <ele>2443.9</ele>
        <time>2012-02-22T15:32:11Z</time>
      </trkpt>
      <trkpt lat="45.49025" lon="6.67837">
        <ele>2443.4</ele>
        <time>2012-02-22T15:32:12Z</time>
      </trkpt>
      <trkpt lat="45.49032" lon="6.6783">
        <ele>2441.4</ele>
        <time>2012-02-22T15:32:15Z</time>
      </trkpt>
      <trkpt lat="45.49034" lon="6.67825">
        <ele>2437.7</ele>
        <time>2012-02-22T15:32:28Z</time>
      </trkpt>
      <trkpt lat="45.49036" lon="6.67826">
        <ele>2437.3</ele>
        <time>2012-02-22T15:32:29Z</time>
      </trkpt>
      <trkpt lat="45.49042" lon="6.67827">
        <ele>2437.1</ele>
        <time>2012-02-22T15:32:30Z</time>
      </trkpt>
      <trkpt lat="45.4906" lon="6.67813">
        <ele>2433.9</ele>
        <time>2012-02-22T15:32:33Z</time>
      </trkpt>
      <trkpt lat="45.49064" lon="6.67804">
        <ele>2432.9</ele>
        <time>2012-02-22T15:32:34Z</time>
      </trkpt>
      <trkpt lat="45.49069" lon="6.67797">
        <ele>2430.3</ele>
        <time>2012-02-22T15:32:35Z</time>
      </trkpt>
      <trkpt lat="45.49075" lon="6.67792">
        <ele>2428.3</ele>
        <time>2012-02-22T15:32:36Z</time>
      </trkpt>
      <trkpt lat="45.49079" lon="6.67785">
        <ele>2426.8</ele>
        <time>2012-02-22T15:32:37Z</time>
      </trkpt>
      <trkpt lat="45.49083" lon="6.67777">
        <ele>2424</ele>
        <time>2012-02-22T15:32:38Z</time>
      </trkpt>
      <trkpt lat="45.49087" lon="6.67769">
        <ele>2422</ele>
        <time>2012-02-22T15:32:39Z</time>
      </trkpt>
      <trkpt lat="45.4909" lon="6.67761">
        <ele>2420.4</ele>
        <time>2012-02-22T15:32:40Z</time>
      </trkpt>
      <trkpt lat="45.49093" lon="6.6775">
        <ele>2419.3</ele>
        <time>2012-02-22T15:32:41Z</time>
      </trkpt>
      <trkpt lat="45.49097" lon="6.67744">
        <ele>2417.3</ele>
        <time>2012-02-22T15:32:42Z</time>
      </trkpt>
      <trkpt lat="45.49102" lon="6.6774">
        <ele>2415.8</ele>
        <time>2012-02-22T15:32:43Z</time>
      </trkpt>
      <trkpt lat="45.49105" lon="6.67732">
        <ele>2414.8</ele>
        <time>2012-02-22T15:32:44Z</time>
      </trkpt>
      <trkpt lat="45.49106" lon="6.67722">
        <ele>2413</ele>
        <time>2012-02-22T15:32:45Z</time>
      </trkpt>
      <trkpt lat="45.49127" lon="6.67681">
        <ele>2407</ele>
        <time>2012-02-22T15:32:49Z</time>
      </trkpt>
      <trkpt lat="45.49138" lon="6.67665">
        <ele>2402.7</ele>
        <time>2012-02-22T15:32:52Z</time>
      </trkpt>
      <trkpt lat="45.49138" lon="6.67664">
        <ele>2401.7</ele>
        <time>2012-02-22T15:32:53Z</time>
      </trkpt>
      <trkpt lat="45.49138" lon="6.67664">
        <ele>2402</ele>
        <time>2012-02-22T15:32:54Z</time>
      </trkpt>
      <trkpt lat="45.49138" lon="6.67663">
        <ele>2402.3</ele>
        <time>2012-02-22T15:32:55Z</time>
      </trkpt>
      <trkpt lat="45.49138" lon="6.67661">
        <ele>2402.4</ele>
        <time>2012-02-22T15:32:56Z</time>
      </trkpt>
      <trkpt lat="45.49133" lon="6.67655">
        <ele>2402.3</ele>
        <time>2012-02-22T15:32:58Z</time>
      </trkpt>
      <trkpt lat="45.49129" lon="6.67652">
        <ele>2402</ele>
        <time>2012-02-22T15:32:59Z</time>
      </trkpt>
      <trkpt lat="45.49125" lon="6.67653">
        <ele>2401.9</ele>
        <time>2012-02-22T15:33:00Z</time>
      </trkpt>
      <trkpt lat="45.4912" lon="6.67652">
        <ele>2400.7</ele>
        <time>2012-02-22T15:33:01Z</time>
      </trkpt>
      <trkpt lat="45.49112" lon="6.67653">
        <ele>2399.2</ele>
        <time>2012-02-22T15:33:03Z</time>
      </trkpt>
      <trkpt lat="45.49108" lon="6.67651">
        <ele>2396.9</ele>
        <time>2012-02-22T15:33:05Z</time>
      </trkpt>
      <trkpt lat="45.49107" lon="6.67651">
        <ele>2396.2</ele>
        <time>2012-02-22T15:33:06Z</time>
      </trkpt>
      <trkpt lat="45.49107" lon="6.6765">
        <ele>2395.7</ele>
        <time>2012-02-22T15:33:07Z</time>
      </trkpt>
      <trkpt lat="45.49106" lon="6.67649">
        <ele>2395.3</ele>
        <time>2012-02-22T15:33:08Z</time>
      </trkpt>
      <trkpt lat="45.49106" lon="6.67648">
        <ele>2395</ele>
        <time>2012-02-22T15:33:09Z</time>
      </trkpt>
      <trkpt lat="45.49105" lon="6.67647">
        <ele>2393.6</ele>
        <time>2012-02-22T15:33:13Z</time>
      </trkpt>
      <trkpt lat="45.49106" lon="6.67646">
        <ele>2393.5</ele>
        <time>2012-02-22T15:33:14Z</time>
      </trkpt>
      <trkpt lat="45.49107" lon="6.67645">
        <ele>2393.5</ele>
        <time>2012-02-22T15:33:15Z</time>
      </trkpt>
      <trkpt lat="45.49109" lon="6.67642">
        <ele>2393.4</ele>
        <time>2012-02-22T15:33:16Z</time>
      </trkpt>
      <trkpt lat="45.49109" lon="6.6764">
        <ele>2393.1</ele>
        <time>2012-02-22T15:33:17Z</time>
      </trkpt>
      <trkpt lat="45.49109" lon="6.67639">
        <ele>2392.8</ele>
        <time>2012-02-22T15:33:18Z</time>
      </trkpt>
      <trkpt lat="45.49107" lon="6.67638">
        <ele>2390.3</ele>
        <time>2012-02-22T15:33:25Z</time>
      </trkpt>
      <trkpt lat="45.49105" lon="6.67637">
        <ele>2390.4</ele>
        <time>2012-02-22T15:33:26Z</time>
      </trkpt>
      <trkpt lat="45.49103" lon="6.67632">
        <ele>2390.4</ele>
        <time>2012-02-22T15:33:28Z</time>
      </trkpt>
      <trkpt lat="45.49101" lon="6.67627">
        <ele>2390</ele>
        <time>2012-02-22T15:33:29Z</time>
      </trkpt>
      <trkpt lat="45.49101" lon="6.6762">
        <ele>2389.6</ele>
        <time>2012-02-22T15:33:30Z</time>
      </trkpt>
      <trkpt lat="45.49103" lon="6.67611">
        <ele>2389.4</ele>
        <time>2012-02-22T15:33:31Z</time>
      </trkpt>
      <trkpt lat="45.49101" lon="6.67591">
        <ele>2387.4</ele>
        <time>2012-02-22T15:33:33Z</time>
      </trkpt>
      <trkpt lat="45.49103" lon="6.67581">
        <ele>2386.1</ele>
        <time>2012-02-22T15:33:34Z</time>
      </trkpt>
      <trkpt lat="45.49107" lon="6.67572">
        <ele>2385</ele>
        <time>2012-02-22T15:33:35Z</time>
      </trkpt>
      <trkpt lat="45.49108" lon="6.67562">
        <ele>2382.7</ele>
        <time>2012-02-22T15:33:36Z</time>
      </trkpt>
      <trkpt lat="45.4911" lon="6.67553">
        <ele>2380.9</ele>
        <time>2012-02-22T15:33:37Z</time>
      </trkpt>
      <trkpt lat="45.49121" lon="6.67544">
        <ele>2376.8</ele>
        <time>2012-02-22T15:33:39Z</time>
      </trkpt>
      <trkpt lat="45.49124" lon="6.67536">
        <ele>2374.7</ele>
        <time>2012-02-22T15:33:40Z</time>
      </trkpt>
      <trkpt lat="45.49125" lon="6.67527">
        <ele>2373.1</ele>
        <time>2012-02-22T15:33:41Z</time>
      </trkpt>
      <trkpt lat="45.49128" lon="6.67519">
        <ele>2370.7</ele>
        <time>2012-02-22T15:33:42Z</time>
      </trkpt>
      <trkpt lat="45.49135" lon="6.67515">
        <ele>2368.9</ele>
        <time>2012-02-22T15:33:43Z</time>
      </trkpt>
      <trkpt lat="45.49142" lon="6.67515">
        <ele>2367.6</ele>
        <time>2012-02-22T15:33:44Z</time>
      </trkpt>
      <trkpt lat="45.49147" lon="6.6751">
        <ele>2365.1</ele>
        <time>2012-02-22T15:33:45Z</time>
      </trkpt>
      <trkpt lat="45.49149" lon="6.675">
        <ele>2363.3</ele>
        <time>2012-02-22T15:33:46Z</time>
      </trkpt>
      <trkpt lat="45.49152" lon="6.6749">
        <ele>2361.9</ele>
        <time>2012-02-22T15:33:47Z</time>
      </trkpt>
      <trkpt lat="45.49162" lon="6.6748">
        <ele>2358.9</ele>
        <time>2012-02-22T15:33:49Z</time>
      </trkpt>
      <trkpt lat="45.49165" lon="6.67472">
        <ele>2357.4</ele>
        <time>2012-02-22T15:33:50Z</time>
      </trkpt>
      <trkpt lat="45.49169" lon="6.67463">
        <ele>2356.3</ele>
        <time>2012-02-22T15:33:51Z</time>
      </trkpt>
      <trkpt lat="45.49191" lon="6.67443">
        <ele>2345</ele>
        <time>2012-02-22T15:33:55Z</time>
      </trkpt>
      <trkpt lat="45.49196" lon="6.67433">
        <ele>2342.6</ele>
        <time>2012-02-22T15:33:57Z</time>
      </trkpt>
      <trkpt lat="45.492" lon="6.67433">
        <ele>2340</ele>
        <time>2012-02-22T15:33:58Z</time>
      </trkpt>
      <trkpt lat="45.49204" lon="6.67433">
        <ele>2338.1</ele>
        <time>2012-02-22T15:33:59Z</time>
      </trkpt>
      <trkpt lat="45.49207" lon="6.67429">
        <ele>2336.6</ele>
        <time>2012-02-22T15:34:00Z</time>
      </trkpt>
      <trkpt lat="45.49212" lon="6.67428">
        <ele>2334.7</ele>
        <time>2012-02-22T15:34:01Z</time>
      </trkpt>
      <trkpt lat="45.49217" lon="6.67425">
        <ele>2333.3</ele>
        <time>2012-02-22T15:34:02Z</time>
      </trkpt>
      <trkpt lat="45.49223" lon="6.67423">
        <ele>2331.4</ele>
        <time>2012-02-22T15:34:04Z</time>
      </trkpt>
      <trkpt lat="45.49223" lon="6.67422">
        <ele>2329.4</ele>
        <time>2012-02-22T15:34:05Z</time>
      </trkpt>
      <trkpt lat="45.49223" lon="6.67422">
        <ele>2327.9</ele>
        <time>2012-02-22T15:34:06Z</time>
      </trkpt>
      <trkpt lat="45.49223" lon="6.67421">
        <ele>2326.8</ele>
        <time>2012-02-22T15:34:07Z</time>
      </trkpt>
      <trkpt lat="45.49223" lon="6.67421">
        <ele>2326</ele>
        <time>2012-02-22T15:34:08Z</time>
      </trkpt>
      <trkpt lat="45.49227" lon="6.67423">
        <ele>2323.7</ele>
        <time>2012-02-22T15:34:20Z</time>
      </trkpt>
      <trkpt lat="45.49229" lon="6.67422">
        <ele>2323.1</ele>
        <time>2012-02-22T15:34:21Z</time>
      </trkpt>
      <trkpt lat="45.49231" lon="6.67417">
        <ele>2322.7</ele>
        <time>2012-02-22T15:34:22Z</time>
      </trkpt>
      <trkpt lat="45.49232" lon="6.67408">
        <ele>2322</ele>
        <time>2012-02-22T15:34:24Z</time>
      </trkpt>
      <trkpt lat="45.49233" lon="6.67404">
        <ele>2321.8</ele>
        <time>2012-02-22T15:34:25Z</time>
      </trkpt>
      <trkpt lat="45.49239" lon="6.67406">
        <ele>2320.1</ele>
        <time>2012-02-22T15:34:27Z</time>
      </trkpt>
      <trkpt lat="45.49244" lon="6.67405">
        <ele>2319.1</ele>
        <time>2012-02-22T15:34:28Z</time>
      </trkpt>
      <trkpt lat="45.49247" lon="6.674">
        <ele>2318.2</ele>
        <time>2012-02-22T15:34:29Z</time>
      </trkpt>
      <trkpt lat="45.49249" lon="6.67395">
        <ele>2316.4</ele>
        <time>2012-02-22T15:34:30Z</time>
      </trkpt>
      <trkpt lat="45.4925" lon="6.67384">
        <ele>2313.2</ele>
        <time>2012-02-22T15:34:33Z</time>
      </trkpt>
      <trkpt lat="45.49251" lon="6.67379">
        <ele>2312.6</ele>
        <time>2012-02-22T15:34:34Z</time>
      </trkpt>
      <trkpt lat="45.49254" lon="6.67373">
        <ele>2312.1</ele>
        <time>2012-02-22T15:34:35Z</time>
      </trkpt>
      <trkpt lat="45.4926" lon="6.67367">
        <ele>2311.8</ele>
        <time>2012-02-22T15:34:36Z</time>
      </trkpt>
      <trkpt lat="45.49268" lon="6.67364">
        <ele>2310.3</ele>
        <time>2012-02-22T15:34:37Z</time>
      </trkpt>
      <trkpt lat="45.49278" lon="6.67365">
        <ele>2309.1</ele>
        <time>2012-02-22T15:34:38Z</time>
      </trkpt>
      <trkpt lat="45.49288" lon="6.67362">
        <ele>2308.2</ele>
        <time>2012-02-22T15:34:39Z</time>
      </trkpt>
      <trkpt lat="45.49303" lon="6.67339">
        <ele>2302.4</ele>
        <time>2012-02-22T15:34:41Z</time>
      </trkpt>
      <trkpt lat="45.49324" lon="6.67325">
        <ele>2297.9</ele>
        <time>2012-02-22T15:34:43Z</time>
      </trkpt>
      <trkpt lat="45.49332" lon="6.67314">
        <ele>2296</ele>
        <time>2012-02-22T15:34:44Z</time>
      </trkpt>
      <trkpt lat="45.49342" lon="6.67311">
        <ele>2294.6</ele>
        <time>2012-02-22T15:34:45Z</time>
      </trkpt>
      <trkpt lat="45.49352" lon="6.67313">
        <ele>2292.2</ele>
        <time>2012-02-22T15:34:46Z</time>
      </trkpt>
      <trkpt lat="45.4936" lon="6.67312">
        <ele>2290.4</ele>
        <time>2012-02-22T15:34:47Z</time>
      </trkpt>
      <trkpt lat="45.49367" lon="6.67316">
        <ele>2289.1</ele>
        <time>2012-02-22T15:34:48Z</time>
      </trkpt>
      <trkpt lat="45.49387" lon="6.67332">
        <ele>2283.3</ele>
        <time>2012-02-22T15:34:52Z</time>
      </trkpt>
      <trkpt lat="45.49391" lon="6.67334">
        <ele>2282.8</ele>
        <time>2012-02-22T15:34:53Z</time>
      </trkpt>
      <trkpt lat="45.49393" lon="6.67333">
        <ele>2282.5</ele>
        <time>2012-02-22T15:34:54Z</time>
      </trkpt>
      <trkpt lat="45.49394" lon="6.67333">
        <ele>2282.3</ele>
        <time>2012-02-22T15:34:55Z</time>
      </trkpt>
      <trkpt lat="45.49395" lon="6.67332">
        <ele>2281.5</ele>
        <time>2012-02-22T15:34:56Z</time>
      </trkpt>
      <trkpt lat="45.49396" lon="6.67332">
        <ele>2280.9</ele>
        <time>2012-02-22T15:34:57Z</time>
      </trkpt>
      <trkpt lat="45.49397" lon="6.67327">
        <ele>2279</ele>
        <time>2012-02-22T15:35:09Z</time>
      </trkpt>
      <trkpt lat="45.49412" lon="6.6729">
        <ele>2276.5</ele>
        <time>2012-02-22T15:35:15Z</time>
      </trkpt>
      <trkpt lat="45.49419" lon="6.67284">
        <ele>2275.1</ele>
        <time>2012-02-22T15:35:16Z</time>
      </trkpt>
      <trkpt lat="45.49437" lon="6.67274">
        <ele>2270.2</ele>
        <time>2012-02-22T15:35:19Z</time>
      </trkpt>
      <trkpt lat="45.49442" lon="6.67273">
        <ele>2268.9</ele>
        <time>2012-02-22T15:35:20Z</time>
      </trkpt>
      <trkpt lat="45.49448" lon="6.6727">
        <ele>2266.3</ele>
        <time>2012-02-22T15:35:21Z</time>
      </trkpt>
      <trkpt lat="45.49456" lon="6.67269">
        <ele>2264.2</ele>
        <time>2012-02-22T15:35:22Z</time>
      </trkpt>
      <trkpt lat="45.49463" lon="6.6727">
        <ele>2262.7</ele>
        <time>2012-02-22T15:35:23Z</time>
      </trkpt>
      <trkpt lat="45.49471" lon="6.67269">
        <ele>2260.2</ele>
        <time>2012-02-22T15:35:24Z</time>
      </trkpt>
      <trkpt lat="45.49479" lon="6.67269">
        <ele>2258.3</ele>
        <time>2012-02-22T15:35:25Z</time>
      </trkpt>
      <trkpt lat="45.49487" lon="6.67267">
        <ele>2256.9</ele>
        <time>2012-02-22T15:35:26Z</time>
      </trkpt>
      <trkpt lat="45.49495" lon="6.67267">
        <ele>2255.8</ele>
        <time>2012-02-22T15:35:27Z</time>
      </trkpt>
      <trkpt lat="45.49502" lon="6.67271">
        <ele>2253.5</ele>
        <time>2012-02-22T15:35:28Z</time>
      </trkpt>
      <trkpt lat="45.49508" lon="6.67277">
        <ele>2251.8</ele>
        <time>2012-02-22T15:35:29Z</time>
      </trkpt>
      <trkpt lat="45.49514" lon="6.67279">
        <ele>2250.5</ele>
        <time>2012-02-22T15:35:30Z</time>
      </trkpt>
      <trkpt lat="45.49521" lon="6.6728">
        <ele>2248.4</ele>
        <time>2012-02-22T15:35:31Z</time>
      </trkpt>
      <trkpt lat="45.49528" lon="6.67282">
        <ele>2246.8</ele>
        <time>2012-02-22T15:35:32Z</time>
      </trkpt>
      <trkpt lat="45.49571" lon="6.67302">
        <ele>2237.4</ele>
        <time>2012-02-22T15:35:38Z</time>
      </trkpt>
      <trkpt lat="45.49577" lon="6.67299">
        <ele>2236.3</ele>
        <time>2012-02-22T15:35:39Z</time>
      </trkpt>
      <trkpt lat="45.49585" lon="6.67298">
        <ele>2234.3</ele>
        <time>2012-02-22T15:35:40Z</time>
      </trkpt>
      <trkpt lat="45.49602" lon="6.67304">
        <ele>2231.6</ele>
        <time>2012-02-22T15:35:42Z</time>
      </trkpt>
      <trkpt lat="45.49609" lon="6.673">
        <ele>2230.8</ele>
        <time>2012-02-22T15:35:43Z</time>
      </trkpt>
      <trkpt lat="45.49617" lon="6.67294">
        <ele>2228.3</ele>
        <time>2012-02-22T15:35:44Z</time>
      </trkpt>
      <trkpt lat="45.49626" lon="6.67291">
        <ele>2226.4</ele>
        <time>2012-02-22T15:35:45Z</time>
      </trkpt>
      <trkpt lat="45.49642" lon="6.67297">
        <ele>2222.2</ele>
        <time>2012-02-22T15:35:47Z</time>
      </trkpt>
      <trkpt lat="45.49648" lon="6.67295">
        <ele>2220.2</ele>
        <time>2012-02-22T15:35:48Z</time>
      </trkpt>
      <trkpt lat="45.49663" lon="6.67284">
        <ele>2216.2</ele>
        <time>2012-02-22T15:35:50Z</time>
      </trkpt>
      <trkpt lat="45.49673" lon="6.67283">
        <ele>2214.4</ele>
        <time>2012-02-22T15:35:51Z</time>
      </trkpt>
      <trkpt lat="45.49683" lon="6.67285">
        <ele>2213</ele>
        <time>2012-02-22T15:35:52Z</time>
      </trkpt>
      <trkpt lat="45.49691" lon="6.67291">
        <ele>2209.5</ele>
        <time>2012-02-22T15:35:53Z</time>
      </trkpt>
      <trkpt lat="45.49705" lon="6.67307">
        <ele>2204.8</ele>
        <time>2012-02-22T15:35:55Z</time>
      </trkpt>
      <trkpt lat="45.49712" lon="6.6731">
        <ele>2202.1</ele>
        <time>2012-02-22T15:35:56Z</time>
      </trkpt>
      <trkpt lat="45.49719" lon="6.67308">
        <ele>2200.1</ele>
        <time>2012-02-22T15:35:57Z</time>
      </trkpt>
      <trkpt lat="45.49725" lon="6.67309">
        <ele>2198.6</ele>
        <time>2012-02-22T15:35:58Z</time>
      </trkpt>
      <trkpt lat="45.49731" lon="6.67312">
        <ele>2196.3</ele>
        <time>2012-02-22T15:35:59Z</time>
      </trkpt>
      <trkpt lat="45.49738" lon="6.67319">
        <ele>2193.3</ele>
        <time>2012-02-22T15:36:01Z</time>
      </trkpt>
      <trkpt lat="45.49739" lon="6.67319">
        <ele>2192.4</ele>
        <time>2012-02-22T15:36:02Z</time>
      </trkpt>
      <trkpt lat="45.49743" lon="6.67322">
        <ele>2188.1</ele>
        <time>2012-02-22T15:36:17Z</time>
      </trkpt>
      <trkpt lat="45.49744" lon="6.67322">
        <ele>2187.9</ele>
        <time>2012-02-22T15:36:18Z</time>
      </trkpt>
      <trkpt lat="45.49751" lon="6.67328">
        <ele>2188</ele>
        <time>2012-02-22T15:36:24Z</time>
      </trkpt>
      <trkpt lat="45.49753" lon="6.67331">
        <ele>2187.8</ele>
        <time>2012-02-22T15:36:25Z</time>
      </trkpt>
      <trkpt lat="45.49804" lon="6.67403">
        <ele>2179.1</ele>
        <time>2012-02-22T15:36:33Z</time>
      </trkpt>
      <trkpt lat="45.49816" lon="6.67415">
        <ele>2177.9</ele>
        <time>2012-02-22T15:36:34Z</time>
      </trkpt>
      <trkpt lat="45.49861" lon="6.67439">
        <ele>2168.8</ele>
        <time>2012-02-22T15:36:37Z</time>
      </trkpt>
      <trkpt lat="45.49887" lon="6.67462">
        <ele>2158.7</ele>
        <time>2012-02-22T15:36:39Z</time>
      </trkpt>
      <trkpt lat="45.499" lon="6.67469">
        <ele>2155.4</ele>
        <time>2012-02-22T15:36:40Z</time>
      </trkpt>
      <trkpt lat="45.49912" lon="6.6747">
        <ele>2152.4</ele>
        <time>2012-02-22T15:36:41Z</time>
      </trkpt>
      <trkpt lat="45.49922" lon="6.67464">
        <ele>2150.1</ele>
        <time>2012-02-22T15:36:42Z</time>
      </trkpt>
      <trkpt lat="45.49938" lon="6.6745">
        <ele>2147.4</ele>
        <time>2012-02-22T15:36:44Z</time>
      </trkpt>
      <trkpt lat="45.49946" lon="6.67446">
        <ele>2146.6</ele>
        <time>2012-02-22T15:36:45Z</time>
      </trkpt>
      <trkpt lat="45.49953" lon="6.67449">
        <ele>2146.1</ele>
        <time>2012-02-22T15:36:46Z</time>
      </trkpt>
      <trkpt lat="45.49957" lon="6.67452">
        <ele>2145.4</ele>
        <time>2012-02-22T15:36:47Z</time>
      </trkpt>
      <trkpt lat="45.49959" lon="6.67455">
        <ele>2144.5</ele>
        <time>2012-02-22T15:36:49Z</time>
      </trkpt>
      <trkpt lat="45.49959" lon="6.67455">
        <ele>2144.3</ele>
        <time>2012-02-22T15:36:50Z</time>
      </trkpt>
      <trkpt lat="45.4996" lon="6.67455">
        <ele>2143.6</ele>
        <time>2012-02-22T15:36:51Z</time>
      </trkpt>
      <trkpt lat="45.49961" lon="6.67455">
        <ele>2143.2</ele>
        <time>2012-02-22T15:36:52Z</time>
      </trkpt>
      <trkpt lat="45.49961" lon="6.67455">
        <ele>2142.8</ele>
        <time>2012-02-22T15:36:53Z</time>
      </trkpt>
      <trkpt lat="45.49973" lon="6.67435">
        <ele>2139.6</ele>
        <time>2012-02-22T15:37:37Z</time>
      </trkpt>
      <trkpt lat="45.49976" lon="6.67435">
        <ele>2138.8</ele>
        <time>2012-02-22T15:37:38Z</time>
      </trkpt>
      <trkpt lat="45.49981" lon="6.67439">
        <ele>2138.3</ele>
        <time>2012-02-22T15:37:39Z</time>
      </trkpt>
      <trkpt lat="45.49988" lon="6.67441">
        <ele>2137.8</ele>
        <time>2012-02-22T15:37:40Z</time>
      </trkpt>
      <trkpt lat="45.49995" lon="6.67441">
        <ele>2137.5</ele>
        <time>2012-02-22T15:37:41Z</time>
      </trkpt>
      <trkpt lat="45.50002" lon="6.67444">
        <ele>2135.6</ele>
        <time>2012-02-22T15:37:42Z</time>
      </trkpt>
      <trkpt lat="45.50007" lon="6.67449">
        <ele>2133</ele>
        <time>2012-02-22T15:37:44Z</time>
      </trkpt>
      <trkpt lat="45.50008" lon="6.67451">
        <ele>2131.6</ele>
        <time>2012-02-22T15:37:45Z</time>
      </trkpt>
      <trkpt lat="45.50008" lon="6.67453">
        <ele>2130.7</ele>
        <time>2012-02-22T15:37:46Z</time>
      </trkpt>
      <trkpt lat="45.50008" lon="6.67454">
        <ele>2129.9</ele>
        <time>2012-02-22T15:37:47Z</time>
      </trkpt>
      <trkpt lat="45.50009" lon="6.67455">
        <ele>2129.2</ele>
        <time>2012-02-22T15:37:48Z</time>
      </trkpt>
      <trkpt lat="45.5003" lon="6.67431">
        <ele>2125.1</ele>
        <time>2012-02-22T15:38:58Z</time>
      </trkpt>
      <trkpt lat="45.50034" lon="6.67428">
        <ele>2124.8</ele>
        <time>2012-02-22T15:38:59Z</time>
      </trkpt>
      <trkpt lat="45.50038" lon="6.67429">
        <ele>2124.6</ele>
        <time>2012-02-22T15:39:00Z</time>
      </trkpt>
      <trkpt lat="45.50049" lon="6.67441">
        <ele>2123.2</ele>
        <time>2012-02-22T15:39:03Z</time>
      </trkpt>
      <trkpt lat="45.50062" lon="6.67442">
        <ele>2121.5</ele>
        <time>2012-02-22T15:39:05Z</time>
      </trkpt>
      <trkpt lat="45.50069" lon="6.67447">
        <ele>2120.4</ele>
        <time>2012-02-22T15:39:06Z</time>
      </trkpt>
      <trkpt lat="45.50075" lon="6.6745">
        <ele>2119.6</ele>
        <time>2012-02-22T15:39:07Z</time>
      </trkpt>
      <trkpt lat="45.50087" lon="6.67441">
        <ele>2115.7</ele>
        <time>2012-02-22T15:39:09Z</time>
      </trkpt>
      <trkpt lat="45.50093" lon="6.67441">
        <ele>2114.4</ele>
        <time>2012-02-22T15:39:10Z</time>
      </trkpt>
      <trkpt lat="45.50106" lon="6.67448">
        <ele>2112</ele>
        <time>2012-02-22T15:39:12Z</time>
      </trkpt>
      <trkpt lat="45.50117" lon="6.67447">
        <ele>2109.7</ele>
        <time>2012-02-22T15:39:14Z</time>
      </trkpt>
      <trkpt lat="45.50123" lon="6.67451">
        <ele>2108.6</ele>
        <time>2012-02-22T15:39:15Z</time>
      </trkpt>
      <trkpt lat="45.50129" lon="6.67452">
        <ele>2107.7</ele>
        <time>2012-02-22T15:39:16Z</time>
      </trkpt>
      <trkpt lat="45.50134" lon="6.67451">
        <ele>2105.5</ele>
        <time>2012-02-22T15:39:17Z</time>
      </trkpt>
      <trkpt lat="45.50145" lon="6.67457">
        <ele>2102.6</ele>
        <time>2012-02-22T15:39:19Z</time>
      </trkpt>
      <trkpt lat="45.50148" lon="6.67456">
        <ele>2101.7</ele>
        <time>2012-02-22T15:39:20Z</time>
      </trkpt>
      <trkpt lat="45.50152" lon="6.67457">
        <ele>2100.1</ele>
        <time>2012-02-22T15:39:21Z</time>
      </trkpt>
      <trkpt lat="45.50155" lon="6.67462">
        <ele>2098.9</ele>
        <time>2012-02-22T15:39:22Z</time>
      </trkpt>
      <trkpt lat="45.5016" lon="6.67464">
        <ele>2098</ele>
        <time>2012-02-22T15:39:23Z</time>
      </trkpt>
      <trkpt lat="45.50164" lon="6.67461">
        <ele>2096.7</ele>
        <time>2012-02-22T15:39:24Z</time>
      </trkpt>
      <trkpt lat="45.50168" lon="6.67462">
        <ele>2095.8</ele>
        <time>2012-02-22T15:39:25Z</time>
      </trkpt>
      <trkpt lat="45.50172" lon="6.67464">
        <ele>2095.1</ele>
        <time>2012-02-22T15:39:26Z</time>
      </trkpt>
      <trkpt lat="45.50177" lon="6.67464">
        <ele>2092.6</ele>
        <time>2012-02-22T15:39:27Z</time>
      </trkpt>
      <trkpt lat="45.50181" lon="6.67464">
        <ele>2090.8</ele>
        <time>2012-02-22T15:39:28Z</time>
      </trkpt>
      <trkpt lat="45.50187" lon="6.67466">
        <ele>2089.4</ele>
        <time>2012-02-22T15:39:29Z</time>
      </trkpt>
      <trkpt lat="45.50192" lon="6.67466">
        <ele>2087</ele>
        <time>2012-02-22T15:39:30Z</time>
      </trkpt>
      <trkpt lat="45.50199" lon="6.67467">
        <ele>2085.3</ele>
        <time>2012-02-22T15:39:31Z</time>
      </trkpt>
      <trkpt lat="45.50207" lon="6.67477">
        <ele>2081.6</ele>
        <time>2012-02-22T15:39:33Z</time>
      </trkpt>
      <trkpt lat="45.50212" lon="6.67476">
        <ele>2079.8</ele>
        <time>2012-02-22T15:39:34Z</time>
      </trkpt>
      <trkpt lat="45.50219" lon="6.67479">
        <ele>2078.4</ele>
        <time>2012-02-22T15:39:35Z</time>
      </trkpt>
      <trkpt lat="45.50224" lon="6.67483">
        <ele>2077.4</ele>
        <time>2012-02-22T15:39:36Z</time>
      </trkpt>
      <trkpt lat="45.50228" lon="6.67483">
        <ele>2075.6</ele>
        <time>2012-02-22T15:39:37Z</time>
      </trkpt>
      <trkpt lat="45.50233" lon="6.6748">
        <ele>2074.2</ele>
        <time>2012-02-22T15:39:38Z</time>
      </trkpt>
      <trkpt lat="45.50237" lon="6.67475">
        <ele>2073.2</ele>
        <time>2012-02-22T15:39:39Z</time>
      </trkpt>
      <trkpt lat="45.50244" lon="6.67473">
        <ele>2071.3</ele>
        <time>2012-02-22T15:39:40Z</time>
      </trkpt>
      <trkpt lat="45.50257" lon="6.67479">
        <ele>2068.8</ele>
        <time>2012-02-22T15:39:42Z</time>
      </trkpt>
      <trkpt lat="45.50265" lon="6.67477">
        <ele>2066.7</ele>
        <time>2012-02-22T15:39:43Z</time>
      </trkpt>
      <trkpt lat="45.50273" lon="6.67473">
        <ele>2065.1</ele>
        <time>2012-02-22T15:39:44Z</time>
      </trkpt>
      <trkpt lat="45.50281" lon="6.67465">
        <ele>2063.9</ele>
        <time>2012-02-22T15:39:45Z</time>
      </trkpt>
      <trkpt lat="45.5029" lon="6.67462">
        <ele>2060.9</ele>
        <time>2012-02-22T15:39:46Z</time>
      </trkpt>
      <trkpt lat="45.50299" lon="6.67463">
        <ele>2058.6</ele>
        <time>2012-02-22T15:39:47Z</time>
      </trkpt>
      <trkpt lat="45.50313" lon="6.67471">
        <ele>2054.4</ele>
        <time>2012-02-22T15:39:49Z</time>
      </trkpt>
      <trkpt lat="45.50341" lon="6.67466">
        <ele>2046.8</ele>
        <time>2012-02-22T15:39:54Z</time>
      </trkpt>
      <trkpt lat="45.50343" lon="6.67463">
        <ele>2046.1</ele>
        <time>2012-02-22T15:39:55Z</time>
      </trkpt>
      <trkpt lat="45.50347" lon="6.67456">
        <ele>2043.7</ele>
        <time>2012-02-22T15:39:57Z</time>
      </trkpt>
      <trkpt lat="45.50357" lon="6.67453">
        <ele>2039</ele>
        <time>2012-02-22T15:40:03Z</time>
      </trkpt>
      <trkpt lat="45.50357" lon="6.67453">
        <ele>2038.7</ele>
        <time>2012-02-22T15:40:04Z</time>
      </trkpt>
      <trkpt lat="45.50358" lon="6.67452">
        <ele>2038.2</ele>
        <time>2012-02-22T15:40:05Z</time>
      </trkpt>
      <trkpt lat="45.50358" lon="6.67451">
        <ele>2037.8</ele>
        <time>2012-02-22T15:40:06Z</time>
      </trkpt>
      <trkpt lat="45.50359" lon="6.67451">
        <ele>2037.6</ele>
        <time>2012-02-22T15:40:07Z</time>
      </trkpt>
      <trkpt lat="45.50359" lon="6.67449">
        <ele>2038</ele>
        <time>2012-02-22T15:40:10Z</time>
      </trkpt>
      <trkpt lat="45.5036" lon="6.67449">
        <ele>2038.1</ele>
        <time>2012-02-22T15:40:11Z</time>
      </trkpt>
      <trkpt lat="45.50361" lon="6.67449">
        <ele>2037.9</ele>
        <time>2012-02-22T15:40:12Z</time>
      </trkpt>
      <trkpt lat="45.50366" lon="6.67437">
        <ele>2036.7</ele>
        <time>2012-02-22T15:40:35Z</time>
      </trkpt>
      <trkpt lat="45.50369" lon="6.67431">
        <ele>2036.4</ele>
        <time>2012-02-22T15:40:37Z</time>
      </trkpt>
      <trkpt lat="45.50373" lon="6.67427">
        <ele>2036</ele>
        <time>2012-02-22T15:40:38Z</time>
      </trkpt>
      <trkpt lat="45.50377" lon="6.67427">
        <ele>2035.8</ele>
        <time>2012-02-22T15:40:39Z</time>
      </trkpt>
      <trkpt lat="45.50381" lon="6.67429">
        <ele>2034.4</ele>
        <time>2012-02-22T15:40:40Z</time>
      </trkpt>
      <trkpt lat="45.50385" lon="6.6743">
        <ele>2033.3</ele>
        <time>2012-02-22T15:40:41Z</time>
      </trkpt>
      <trkpt lat="45.5039" lon="6.67427">
        <ele>2032.5</ele>
        <time>2012-02-22T15:40:42Z</time>
      </trkpt>
      <trkpt lat="45.50395" lon="6.67428">
        <ele>2031.9</ele>
        <time>2012-02-22T15:40:43Z</time>
      </trkpt>
      <trkpt lat="45.50399" lon="6.6743">
        <ele>2030.5</ele>
        <time>2012-02-22T15:40:44Z</time>
      </trkpt>
      <trkpt lat="45.50408" lon="6.67427">
        <ele>2028.6</ele>
        <time>2012-02-22T15:40:46Z</time>
      </trkpt>
      <trkpt lat="45.50413" lon="6.67428">
        <ele>2026.7</ele>
        <time>2012-02-22T15:40:47Z</time>
      </trkpt>
      <trkpt lat="45.50418" lon="6.67427">
        <ele>2025.3</ele>
        <time>2012-02-22T15:40:48Z</time>
      </trkpt>
      <trkpt lat="45.50422" lon="6.67423">
        <ele>2024.3</ele>
        <time>2012-02-22T15:40:49Z</time>
      </trkpt>
      <trkpt lat="45.50427" lon="6.67423">
        <ele>2022.7</ele>
        <time>2012-02-22T15:40:50Z</time>
      </trkpt>
      <trkpt lat="45.50432" lon="6.67425">
        <ele>2021.5</ele>
        <time>2012-02-22T15:40:51Z</time>
      </trkpt>
      <trkpt lat="45.50436" lon="6.67426">
        <ele>2020.6</ele>
        <time>2012-02-22T15:40:52Z</time>
      </trkpt>
      <trkpt lat="45.50442" lon="6.67426">
        <ele>2018</ele>
        <time>2012-02-22T15:40:53Z</time>
      </trkpt>
      <trkpt lat="45.50446" lon="6.67427">
        <ele>2016</ele>
        <time>2012-02-22T15:40:54Z</time>
      </trkpt>
      <trkpt lat="45.5045" lon="6.67431">
        <ele>2014.5</ele>
        <time>2012-02-22T15:40:55Z</time>
      </trkpt>
      <trkpt lat="45.50454" lon="6.67431">
        <ele>2012.4</ele>
        <time>2012-02-22T15:40:56Z</time>
      </trkpt>
      <trkpt lat="45.50462" lon="6.67429">
        <ele>2009.6</ele>
        <time>2012-02-22T15:40:58Z</time>
      </trkpt>
      <trkpt lat="45.50466" lon="6.67426">
        <ele>2007.9</ele>
        <time>2012-02-22T15:40:59Z</time>
      </trkpt>
      <trkpt lat="45.50468" lon="6.67423">
        <ele>2006.6</ele>
        <time>2012-02-22T15:41:00Z</time>
      </trkpt>
      <trkpt lat="45.50469" lon="6.67421">
        <ele>2005.6</ele>
        <time>2012-02-22T15:41:01Z</time>
      </trkpt>
      <trkpt lat="45.50469" lon="6.6742">
        <ele>2004.8</ele>
        <time>2012-02-22T15:41:02Z</time>
      </trkpt>
      <trkpt lat="45.50469" lon="6.67419">
        <ele>2004</ele>
        <time>2012-02-22T15:41:03Z</time>
      </trkpt>
      <trkpt lat="45.50469" lon="6.67418">
        <ele>2003.3</ele>
        <time>2012-02-22T15:41:04Z</time>
      </trkpt>
      <trkpt lat="45.50469" lon="6.67417">
        <ele>2002.8</ele>
        <time>2012-02-22T15:41:05Z</time>
      </trkpt>
      <trkpt lat="45.50469" lon="6.67416">
        <ele>2002.5</ele>
        <time>2012-02-22T15:41:06Z</time>
      </trkpt>
      <trkpt lat="45.50469" lon="6.67415">
        <ele>2002.3</ele>
        <time>2012-02-22T15:41:07Z</time>
      </trkpt>
      <trkpt lat="45.50468" lon="6.67415">
        <ele>2002.1</ele>
        <time>2012-02-22T15:41:08Z</time>
      </trkpt>
      <trkpt lat="45.50468" lon="6.67414">
        <ele>2002.1</ele>
        <time>2012-02-22T15:41:09Z</time>
      </trkpt>
      <trkpt lat="45.50468" lon="6.67413">
        <ele>2002.2</ele>
        <time>2012-02-22T15:41:10Z</time>
      </trkpt>
      <trkpt lat="45.50467" lon="6.67413">
        <ele>2002.2</ele>
        <time>2012-02-22T15:41:11Z</time>
      </trkpt>
      <trkpt lat="45.50467" lon="6.67412">
        <ele>2001.7</ele>
        <time>2012-02-22T15:41:12Z</time>
      </trkpt>
      <trkpt lat="45.50466" lon="6.67412">
        <ele>2001.4</ele>
        <time>2012-02-22T15:41:13Z</time>
      </trkpt>
      <trkpt lat="45.50466" lon="6.67411">
        <ele>2001.1</ele>
        <time>2012-02-22T15:41:14Z</time>
      </trkpt>
      <trkpt lat="45.50465" lon="6.67411">
        <ele>2001.2</ele>
        <time>2012-02-22T15:41:15Z</time>
      </trkpt>
      <trkpt lat="45.50464" lon="6.6741">
        <ele>2001.3</ele>
        <time>2012-02-22T15:41:16Z</time>
      </trkpt>
      <trkpt lat="45.50464" lon="6.6741">
        <ele>2001.4</ele>
        <time>2012-02-22T15:41:17Z</time>
      </trkpt>
      <trkpt lat="45.50463" lon="6.67409">
        <ele>2001.4</ele>
        <time>2012-02-22T15:41:18Z</time>
      </trkpt>
      <trkpt lat="45.50463" lon="6.67408">
        <ele>2001.5</ele>
        <time>2012-02-22T15:41:20Z</time>
      </trkpt>
      <trkpt lat="45.50462" lon="6.67408">
        <ele>2001.5</ele>
        <time>2012-02-22T15:41:21Z</time>
      </trkpt>
      <trkpt lat="45.50462" lon="6.67407">
        <ele>2001.2</ele>
        <time>2012-02-22T15:41:22Z</time>
      </trkpt>
      <trkpt lat="45.50453" lon="6.67379">
        <ele>2001.5</ele>
        <time>2012-02-22T15:43:19Z</time>
      </trkpt>
      <trkpt lat="45.50454" lon="6.67376">
        <ele>2001.4</ele>
        <time>2012-02-22T15:43:24Z</time>
      </trkpt>
      <trkpt lat="45.50453" lon="6.67375">
        <ele>2001.5</ele>
        <time>2012-02-22T15:43:25Z</time>
      </trkpt>
      <trkpt lat="45.50452" lon="6.67367">
        <ele>2000.3</ele>
        <time>2012-02-22T15:43:28Z</time>
      </trkpt>
      <trkpt lat="45.50452" lon="6.67365">
        <ele>2000</ele>
        <time>2012-02-22T15:43:29Z</time>
      </trkpt>
      <trkpt lat="45.50451" lon="6.6736">
        <ele>2000.4</ele>
        <time>2012-02-22T15:43:31Z</time>
      </trkpt>
      <trkpt lat="45.5045" lon="6.67359">
        <ele>2000.5</ele>
        <time>2012-02-22T15:43:32Z</time>
      </trkpt>
      <trkpt lat="45.50449" lon="6.67355">
        <ele>2000.4</ele>
        <time>2012-02-22T15:43:34Z</time>
      </trkpt>
      <trkpt lat="45.50448" lon="6.67353">
        <ele>2000.4</ele>
        <time>2012-02-22T15:43:35Z</time>
      </trkpt>
      <trkpt lat="45.50448" lon="6.67347">
        <ele>2003</ele>
        <time>2012-02-22T15:43:37Z</time>
      </trkpt>
      <trkpt lat="45.50448" lon="6.67346">
        <ele>2003.8</ele>
        <time>2012-02-22T15:43:38Z</time>
      </trkpt>
      <trkpt lat="45.50445" lon="6.67332">
        <ele>2006.7</ele>
        <time>2012-02-22T15:43:43Z</time>
      </trkpt>
      <trkpt lat="45.50445" lon="6.67329">
        <ele>2007.5</ele>
        <time>2012-02-22T15:43:44Z</time>
      </trkpt>
      <trkpt lat="45.50437" lon="6.67293">
        <ele>2014.8</ele>
        <time>2012-02-22T15:43:58Z</time>
      </trkpt>
      <trkpt lat="45.50436" lon="6.67291">
        <ele>2015.7</ele>
        <time>2012-02-22T15:43:59Z</time>
      </trkpt>
      <trkpt lat="45.50428" lon="6.67253">
        <ele>2027.9</ele>
        <time>2012-02-22T15:44:14Z</time>
      </trkpt>
      <trkpt lat="45.50427" lon="6.6725">
        <ele>2028.9</ele>
        <time>2012-02-22T15:44:15Z</time>
      </trkpt>
      <trkpt lat="45.50418" lon="6.67212">
        <ele>2043.1</ele>
        <time>2012-02-22T15:44:31Z</time>
      </trkpt>
      <trkpt lat="45.50418" lon="6.6721">
        <ele>2043.9</ele>
        <time>2012-02-22T15:44:32Z</time>
      </trkpt>
      <trkpt lat="45.50418" lon="6.67208">
        <ele>2045.3</ele>
        <time>2012-02-22T15:44:33Z</time>
      </trkpt>
      <trkpt lat="45.50417" lon="6.67203">
        <ele>2047.2</ele>
        <time>2012-02-22T15:44:35Z</time>
      </trkpt>
      <trkpt lat="45.50414" lon="6.67191">
        <ele>2051.8</ele>
        <time>2012-02-22T15:44:40Z</time>
      </trkpt>
      <trkpt lat="45.50414" lon="6.67187">
        <ele>2053</ele>
        <time>2012-02-22T15:44:42Z</time>
      </trkpt>
      <trkpt lat="45.50414" lon="6.67185">
        <ele>2054.1</ele>
        <time>2012-02-22T15:44:43Z</time>
      </trkpt>
      <trkpt lat="45.50412" lon="6.67173">
        <ele>2060.1</ele>
        <time>2012-02-22T15:44:49Z</time>
      </trkpt>
      <trkpt lat="45.50402" lon="6.67127">
        <ele>2074.8</ele>
        <time>2012-02-22T15:45:08Z</time>
      </trkpt>
      <trkpt lat="45.50375" lon="6.67011">
        <ele>2100.3</ele>
        <time>2012-02-22T15:45:55Z</time>
      </trkpt>
      <trkpt lat="45.50375" lon="6.67009">
        <ele>2101</ele>
        <time>2012-02-22T15:45:56Z</time>
      </trkpt>
      <trkpt lat="45.50374" lon="6.67004">
        <ele>2101.8</ele>
        <time>2012-02-22T15:45:58Z</time>
      </trkpt>
      <trkpt lat="45.50374" lon="6.67002">
        <ele>2102.1</ele>
        <time>2012-02-22T15:45:59Z</time>
      </trkpt>
      <trkpt lat="45.5036" lon="6.66948">
        <ele>2117.6</ele>
        <time>2012-02-22T15:46:22Z</time>
      </trkpt>
      <trkpt lat="45.5035" lon="6.66898">
        <ele>2133.9</ele>
        <time>2012-02-22T15:46:43Z</time>
      </trkpt>
      <trkpt lat="45.5035" lon="6.66895">
        <ele>2134.7</ele>
        <time>2012-02-22T15:46:44Z</time>
      </trkpt>
      <trkpt lat="45.50319" lon="6.66743">
        <ele>2174</ele>
        <time>2012-02-22T15:47:46Z</time>
      </trkpt>
      <trkpt lat="45.50318" lon="6.66741">
        <ele>2174.6</ele>
        <time>2012-02-22T15:47:47Z</time>
      </trkpt>
      <trkpt lat="45.50316" lon="6.66733">
        <ele>2177</ele>
        <time>2012-02-22T15:47:50Z</time>
      </trkpt>
      <trkpt lat="45.50311" lon="6.66715">
        <ele>2181.3</ele>
        <time>2012-02-22T15:47:57Z</time>
      </trkpt>
      <trkpt lat="45.50309" lon="6.66703">
        <ele>2184.1</ele>
        <time>2012-02-22T15:48:02Z</time>
      </trkpt>
      <trkpt lat="45.50305" lon="6.66688">
        <ele>2186.2</ele>
        <time>2012-02-22T15:48:08Z</time>
      </trkpt>
      <trkpt lat="45.50291" lon="6.66618">
        <ele>2197.7</ele>
        <time>2012-02-22T15:48:36Z</time>
      </trkpt>
      <trkpt lat="45.50291" lon="6.66616">
        <ele>2198</ele>
        <time>2012-02-22T15:48:37Z</time>
      </trkpt>
      <trkpt lat="45.50287" lon="6.66597">
        <ele>2202</ele>
        <time>2012-02-22T15:48:45Z</time>
      </trkpt>
      <trkpt lat="45.50286" lon="6.66586">
        <ele>2204</ele>
        <time>2012-02-22T15:48:50Z</time>
      </trkpt>
      <trkpt lat="45.50285" lon="6.66584">
        <ele>2204.2</ele>
        <time>2012-02-22T15:48:51Z</time>
      </trkpt>
      <trkpt lat="45.50285" lon="6.6658">
        <ele>2205.2</ele>
        <time>2012-02-22T15:48:53Z</time>
      </trkpt>
      <trkpt lat="45.50285" lon="6.66578">
        <ele>2205.6</ele>
        <time>2012-02-22T15:48:54Z</time>
      </trkpt>
      <trkpt lat="45.50284" lon="6.66576">
        <ele>2206.4</ele>
        <time>2012-02-22T15:48:55Z</time>
      </trkpt>
      <trkpt lat="45.50284" lon="6.66573">
        <ele>2207.6</ele>
        <time>2012-02-22T15:48:57Z</time>
      </trkpt>
      <trkpt lat="45.50284" lon="6.66571">
        <ele>2208.8</ele>
        <time>2012-02-22T15:48:58Z</time>
      </trkpt>
      <trkpt lat="45.50284" lon="6.66569">
        <ele>2209.7</ele>
        <time>2012-02-22T15:48:59Z</time>
      </trkpt>
      <trkpt lat="45.50284" lon="6.66568">
        <ele>2210.4</ele>
        <time>2012-02-22T15:49:00Z</time>
      </trkpt>
      <trkpt lat="45.50284" lon="6.66567">
        <ele>2211.3</ele>
        <time>2012-02-22T15:49:01Z</time>
      </trkpt>
      <trkpt lat="45.50284" lon="6.66566">
        <ele>2212</ele>
        <time>2012-02-22T15:49:02Z</time>
      </trkpt>
      <trkpt lat="45.50284" lon="6.66563">
        <ele>2212.5</ele>
        <time>2012-02-22T15:49:03Z</time>
      </trkpt>
      <trkpt lat="45.50278" lon="6.66543">
        <ele>2216.5</ele>
        <time>2012-02-22T15:49:10Z</time>
      </trkpt>
      <trkpt lat="45.50278" lon="6.66541">
        <ele>2217.5</ele>
        <time>2012-02-22T15:49:11Z</time>
      </trkpt>
      <trkpt lat="45.50273" lon="6.66524">
        <ele>2223</ele>
        <time>2012-02-22T15:49:18Z</time>
      </trkpt>
      <trkpt lat="45.50272" lon="6.66523">
        <ele>2223.5</ele>
        <time>2012-02-22T15:49:19Z</time>
      </trkpt>
      <trkpt lat="45.50273" lon="6.66521">
        <ele>2223.8</ele>
        <time>2012-02-22T15:49:20Z</time>
      </trkpt>
      <trkpt lat="45.50272" lon="6.66517">
        <ele>2225.7</ele>
        <time>2012-02-22T15:49:22Z</time>
      </trkpt>
      <trkpt lat="45.50266" lon="6.66494">
        <ele>2232.4</ele>
        <time>2012-02-22T15:49:30Z</time>
      </trkpt>
      <trkpt lat="45.50257" lon="6.66448">
        <ele>2243.9</ele>
        <time>2012-02-22T15:49:48Z</time>
      </trkpt>
      <trkpt lat="45.50241" lon="6.66396">
        <ele>2262.4</ele>
        <time>2012-02-22T15:50:09Z</time>
      </trkpt>
      <trkpt lat="45.50241" lon="6.66394">
        <ele>2263.3</ele>
        <time>2012-02-22T15:50:10Z</time>
      </trkpt>
      <trkpt lat="45.50237" lon="6.66377">
        <ele>2268.4</ele>
        <time>2012-02-22T15:50:18Z</time>
      </trkpt>
      <trkpt lat="45.50232" lon="6.66358">
        <ele>2276.5</ele>
        <time>2012-02-22T15:50:26Z</time>
      </trkpt>
      <trkpt lat="45.50232" lon="6.66355">
        <ele>2277</ele>
        <time>2012-02-22T15:50:27Z</time>
      </trkpt>
      <trkpt lat="45.50231" lon="6.66353">
        <ele>2278.4</ele>
        <time>2012-02-22T15:50:28Z</time>
      </trkpt>
      <trkpt lat="45.50231" lon="6.66348">
        <ele>2280.2</ele>
        <time>2012-02-22T15:50:30Z</time>
      </trkpt>
      <trkpt lat="45.50196" lon="6.66183">
        <ele>2346.2</ele>
        <time>2012-02-22T15:51:43Z</time>
      </trkpt>
      <trkpt lat="45.50189" lon="6.66168">
        <ele>2351.4</ele>
        <time>2012-02-22T15:52:24Z</time>
      </trkpt>
      <trkpt lat="45.50189" lon="6.66167">
        <ele>2351.6</ele>
        <time>2012-02-22T15:52:25Z</time>
      </trkpt>
      <trkpt lat="45.50188" lon="6.66164">
        <ele>2351.5</ele>
        <time>2012-02-22T15:52:27Z</time>
      </trkpt>
      <trkpt lat="45.50188" lon="6.66162">
        <ele>2351.4</ele>
        <time>2012-02-22T15:52:28Z</time>
      </trkpt>
      <trkpt lat="45.50188" lon="6.66161">
        <ele>2351.4</ele>
        <time>2012-02-22T15:52:29Z</time>
      </trkpt>
      <trkpt lat="45.50188" lon="6.66153">
        <ele>2351</ele>
        <time>2012-02-22T15:52:32Z</time>
      </trkpt>
      <trkpt lat="45.50188" lon="6.66148">
        <ele>2350.8</ele>
        <time>2012-02-22T15:52:33Z</time>
      </trkpt>
      <trkpt lat="45.5019" lon="6.66143">
        <ele>2350.7</ele>
        <time>2012-02-22T15:52:34Z</time>
      </trkpt>
      <trkpt lat="45.50192" lon="6.66138">
        <ele>2350.3</ele>
        <time>2012-02-22T15:52:35Z</time>
      </trkpt>
      <trkpt lat="45.50195" lon="6.66135">
        <ele>2349.9</ele>
        <time>2012-02-22T15:52:36Z</time>
      </trkpt>
      <trkpt lat="45.502" lon="6.66133">
        <ele>2349.5</ele>
        <time>2012-02-22T15:52:38Z</time>
      </trkpt>
      <trkpt lat="45.50203" lon="6.66131">
        <ele>2349.3</ele>
        <time>2012-02-22T15:52:39Z</time>
      </trkpt>
      <trkpt lat="45.50205" lon="6.6613">
        <ele>2349.2</ele>
        <time>2012-02-22T15:52:40Z</time>
      </trkpt>
      <trkpt lat="45.50212" lon="6.66127">
        <ele>2348.7</ele>
        <time>2012-02-22T15:53:20Z</time>
      </trkpt>
      <trkpt lat="45.50213" lon="6.66127">
        <ele>2348.4</ele>
        <time>2012-02-22T15:53:21Z</time>
      </trkpt>
      <trkpt lat="45.50219" lon="6.66127">
        <ele>2347.9</ele>
        <time>2012-02-22T15:53:26Z</time>
      </trkpt>
      <trkpt lat="45.5022" lon="6.66127">
        <ele>2347.7</ele>
        <time>2012-02-22T15:53:27Z</time>
      </trkpt>
      <trkpt lat="45.50222" lon="6.66127">
        <ele>2347.6</ele>
        <time>2012-02-22T15:53:28Z</time>
      </trkpt>
      <trkpt lat="45.5023" lon="6.66126">
        <ele>2348.2</ele>
        <time>2012-02-22T15:53:32Z</time>
      </trkpt>
      <trkpt lat="45.50239" lon="6.66126">
        <ele>2348</ele>
        <time>2012-02-22T15:53:35Z</time>
      </trkpt>
      <trkpt lat="45.50251" lon="6.66124">
        <ele>2347.4</ele>
        <time>2012-02-22T15:53:38Z</time>
      </trkpt>
      <trkpt lat="45.50286" lon="6.66102">
        <ele>2343.5</ele>
        <time>2012-02-22T15:53:46Z</time>
      </trkpt>
      <trkpt lat="45.50289" lon="6.66097">
        <ele>2343.3</ele>
        <time>2012-02-22T15:53:47Z</time>
      </trkpt>
      <trkpt lat="45.50298" lon="6.66089">
        <ele>2342.9</ele>
        <time>2012-02-22T15:53:49Z</time>
      </trkpt>
      <trkpt lat="45.50303" lon="6.66089">
        <ele>2342.8</ele>
        <time>2012-02-22T15:53:50Z</time>
      </trkpt>
      <trkpt lat="45.50309" lon="6.66089">
        <ele>2342.6</ele>
        <time>2012-02-22T15:53:51Z</time>
      </trkpt>
      <trkpt lat="45.50319" lon="6.66095">
        <ele>2341</ele>
        <time>2012-02-22T15:53:53Z</time>
      </trkpt>
      <trkpt lat="45.50324" lon="6.66096">
        <ele>2340.5</ele>
        <time>2012-02-22T15:53:54Z</time>
      </trkpt>
      <trkpt lat="45.50342" lon="6.66093">
        <ele>2335.7</ele>
        <time>2012-02-22T15:53:59Z</time>
      </trkpt>
      <trkpt lat="45.50361" lon="6.66095">
        <ele>2333.4</ele>
        <time>2012-02-22T15:54:02Z</time>
      </trkpt>
      <trkpt lat="45.50396" lon="6.66089">
        <ele>2329.9</ele>
        <time>2012-02-22T15:54:06Z</time>
      </trkpt>
      <trkpt lat="45.50412" lon="6.66084">
        <ele>2327.6</ele>
        <time>2012-02-22T15:54:08Z</time>
      </trkpt>
      <trkpt lat="45.50476" lon="6.66075">
        <ele>2324.7</ele>
        <time>2012-02-22T15:54:19Z</time>
      </trkpt>
      <trkpt lat="45.5049" lon="6.66077">
        <ele>2323.3</ele>
        <time>2012-02-22T15:54:22Z</time>
      </trkpt>
      <trkpt lat="45.50518" lon="6.66087">
        <ele>2320.6</ele>
        <time>2012-02-22T15:54:28Z</time>
      </trkpt>
      <trkpt lat="45.50582" lon="6.66095">
        <ele>2310.3</ele>
        <time>2012-02-22T15:54:34Z</time>
      </trkpt>
      <trkpt lat="45.50606" lon="6.66103">
        <ele>2307.8</ele>
        <time>2012-02-22T15:54:36Z</time>
      </trkpt>
      <trkpt lat="45.50628" lon="6.661">
        <ele>2303.4</ele>
        <time>2012-02-22T15:54:38Z</time>
      </trkpt>
      <trkpt lat="45.50637" lon="6.66102">
        <ele>2302</ele>
        <time>2012-02-22T15:54:39Z</time>
      </trkpt>
      <trkpt lat="45.50652" lon="6.66115">
        <ele>2300.8</ele>
        <time>2012-02-22T15:54:41Z</time>
      </trkpt>
      <trkpt lat="45.5066" lon="6.66119">
        <ele>2300.4</ele>
        <time>2012-02-22T15:54:42Z</time>
      </trkpt>
      <trkpt lat="45.50669" lon="6.6612">
        <ele>2299.3</ele>
        <time>2012-02-22T15:54:43Z</time>
      </trkpt>
      <trkpt lat="45.50676" lon="6.66124">
        <ele>2298.4</ele>
        <time>2012-02-22T15:54:44Z</time>
      </trkpt>
      <trkpt lat="45.50687" lon="6.66135">
        <ele>2296.6</ele>
        <time>2012-02-22T15:54:46Z</time>
      </trkpt>
      <trkpt lat="45.50692" lon="6.66138">
        <ele>2295.7</ele>
        <time>2012-02-22T15:54:47Z</time>
      </trkpt>
      <trkpt lat="45.50695" lon="6.6614">
        <ele>2295</ele>
        <time>2012-02-22T15:54:48Z</time>
      </trkpt>
      <trkpt lat="45.50696" lon="6.66141">
        <ele>2293.1</ele>
        <time>2012-02-22T15:54:50Z</time>
      </trkpt>
      <trkpt lat="45.50696" lon="6.66142">
        <ele>2292.5</ele>
        <time>2012-02-22T15:54:51Z</time>
      </trkpt>
      <trkpt lat="45.50696" lon="6.66142">
        <ele>2291.9</ele>
        <time>2012-02-22T15:54:52Z</time>
      </trkpt>
      <trkpt lat="45.50696" lon="6.66144">
        <ele>2291.4</ele>
        <time>2012-02-22T15:54:53Z</time>
      </trkpt>
      <trkpt lat="45.50695" lon="6.66146">
        <ele>2291.1</ele>
        <time>2012-02-22T15:54:54Z</time>
      </trkpt>
      <trkpt lat="45.50691" lon="6.66151">
        <ele>2290.6</ele>
        <time>2012-02-22T15:54:56Z</time>
      </trkpt>
      <trkpt lat="45.50691" lon="6.66155">
        <ele>2290.4</ele>
        <time>2012-02-22T15:54:57Z</time>
      </trkpt>
      <trkpt lat="45.50695" lon="6.66162">
        <ele>2289.6</ele>
        <time>2012-02-22T15:54:59Z</time>
      </trkpt>
      <trkpt lat="45.50696" lon="6.66167">
        <ele>2289</ele>
        <time>2012-02-22T15:55:00Z</time>
      </trkpt>
      <trkpt lat="45.50695" lon="6.66174">
        <ele>2288.6</ele>
        <time>2012-02-22T15:55:01Z</time>
      </trkpt>
      <trkpt lat="45.50696" lon="6.66181">
        <ele>2287.1</ele>
        <time>2012-02-22T15:55:02Z</time>
      </trkpt>
      <trkpt lat="45.507" lon="6.66186">
        <ele>2286</ele>
        <time>2012-02-22T15:55:03Z</time>
      </trkpt>
      <trkpt lat="45.50703" lon="6.66192">
        <ele>2285.1</ele>
        <time>2012-02-22T15:55:04Z</time>
      </trkpt>
      <trkpt lat="45.50702" lon="6.66199">
        <ele>2283.3</ele>
        <time>2012-02-22T15:55:05Z</time>
      </trkpt>
      <trkpt lat="45.507" lon="6.66204">
        <ele>2281.9</ele>
        <time>2012-02-22T15:55:06Z</time>
      </trkpt>
      <trkpt lat="45.50698" lon="6.66209">
        <ele>2280.9</ele>
        <time>2012-02-22T15:55:07Z</time>
      </trkpt>
      <trkpt lat="45.50699" lon="6.66215">
        <ele>2279.8</ele>
        <time>2012-02-22T15:55:08Z</time>
      </trkpt>
      <trkpt lat="45.50701" lon="6.66218">
        <ele>2279.1</ele>
        <time>2012-02-22T15:55:09Z</time>
      </trkpt>
      <trkpt lat="45.50705" lon="6.6622">
        <ele>2278.5</ele>
        <time>2012-02-22T15:55:10Z</time>
      </trkpt>
      <trkpt lat="45.50705" lon="6.66224">
        <ele>2278.1</ele>
        <time>2012-02-22T15:55:11Z</time>
      </trkpt>
      <trkpt lat="45.50705" lon="6.66226">
        <ele>2276.9</ele>
        <time>2012-02-22T15:55:12Z</time>
      </trkpt>
      <trkpt lat="45.50704" lon="6.66226">
        <ele>2276</ele>
        <time>2012-02-22T15:55:13Z</time>
      </trkpt>
      <trkpt lat="45.50699" lon="6.6623">
        <ele>2272.3</ele>
        <time>2012-02-22T15:55:16Z</time>
      </trkpt>
      <trkpt lat="45.50697" lon="6.66233">
        <ele>2271.4</ele>
        <time>2012-02-22T15:55:17Z</time>
      </trkpt>
      <trkpt lat="45.50697" lon="6.66239">
        <ele>2270.6</ele>
        <time>2012-02-22T15:55:18Z</time>
      </trkpt>
      <trkpt lat="45.50698" lon="6.66247">
        <ele>2270.1</ele>
        <time>2012-02-22T15:55:19Z</time>
      </trkpt>
      <trkpt lat="45.50697" lon="6.66255">
        <ele>2269.7</ele>
        <time>2012-02-22T15:55:20Z</time>
      </trkpt>
      <trkpt lat="45.50698" lon="6.66263">
        <ele>2267.5</ele>
        <time>2012-02-22T15:55:21Z</time>
      </trkpt>
      <trkpt lat="45.507" lon="6.6627">
        <ele>2265.9</ele>
        <time>2012-02-22T15:55:22Z</time>
      </trkpt>
      <trkpt lat="45.507" lon="6.66278">
        <ele>2260.4</ele>
        <time>2012-02-22T15:55:25Z</time>
      </trkpt>
      <trkpt lat="45.507" lon="6.66278">
        <ele>2259.1</ele>
        <time>2012-02-22T15:55:26Z</time>
      </trkpt>
      <trkpt lat="45.50699" lon="6.66279">
        <ele>2258.1</ele>
        <time>2012-02-22T15:55:27Z</time>
      </trkpt>
      <trkpt lat="45.50699" lon="6.66279">
        <ele>2257.3</ele>
        <time>2012-02-22T15:55:28Z</time>
      </trkpt>
      <trkpt lat="45.50699" lon="6.66282">
        <ele>2255.9</ele>
        <time>2012-02-22T15:55:33Z</time>
      </trkpt>
      <trkpt lat="45.50698" lon="6.66289">
        <ele>2255.6</ele>
        <time>2012-02-22T15:55:35Z</time>
      </trkpt>
      <trkpt lat="45.50699" lon="6.66295">
        <ele>2255.5</ele>
        <time>2012-02-22T15:55:36Z</time>
      </trkpt>
      <trkpt lat="45.50703" lon="6.663">
        <ele>2254.6</ele>
        <time>2012-02-22T15:55:37Z</time>
      </trkpt>
      <trkpt lat="45.50706" lon="6.66307">
        <ele>2253.9</ele>
        <time>2012-02-22T15:55:38Z</time>
      </trkpt>
      <trkpt lat="45.50706" lon="6.66314">
        <ele>2253.4</ele>
        <time>2012-02-22T15:55:39Z</time>
      </trkpt>
      <trkpt lat="45.50708" lon="6.66322">
        <ele>2250.9</ele>
        <time>2012-02-22T15:55:40Z</time>
      </trkpt>
      <trkpt lat="45.50712" lon="6.66328">
        <ele>2249</ele>
        <time>2012-02-22T15:55:41Z</time>
      </trkpt>
      <trkpt lat="45.50727" lon="6.66337">
        <ele>2246.5</ele>
        <time>2012-02-22T15:55:43Z</time>
      </trkpt>
      <trkpt lat="45.50733" lon="6.66344">
        <ele>2244.1</ele>
        <time>2012-02-22T15:55:44Z</time>
      </trkpt>
      <trkpt lat="45.50737" lon="6.66356">
        <ele>2241</ele>
        <time>2012-02-22T15:55:46Z</time>
      </trkpt>
      <trkpt lat="45.5074" lon="6.66358">
        <ele>2239</ele>
        <time>2012-02-22T15:55:47Z</time>
      </trkpt>
      <trkpt lat="45.50743" lon="6.66358">
        <ele>2237.5</ele>
        <time>2012-02-22T15:55:48Z</time>
      </trkpt>
      <trkpt lat="45.50747" lon="6.66356">
        <ele>2236.4</ele>
        <time>2012-02-22T15:55:49Z</time>
      </trkpt>
      <trkpt lat="45.50755" lon="6.66352">
        <ele>2234</ele>
        <time>2012-02-22T15:55:52Z</time>
      </trkpt>
      <trkpt lat="45.50757" lon="6.66353">
        <ele>2233.6</ele>
        <time>2012-02-22T15:55:53Z</time>
      </trkpt>
      <trkpt lat="45.50758" lon="6.66352">
        <ele>2233.2</ele>
        <time>2012-02-22T15:55:55Z</time>
      </trkpt>
      <trkpt lat="45.50761" lon="6.66348">
        <ele>2230.6</ele>
        <time>2012-02-22T15:56:06Z</time>
      </trkpt>
      <trkpt lat="45.50789" lon="6.664">
        <ele>2225.6</ele>
        <time>2012-02-22T15:56:14Z</time>
      </trkpt>
      <trkpt lat="45.50793" lon="6.66406">
        <ele>2224.7</ele>
        <time>2012-02-22T15:56:15Z</time>
      </trkpt>
      <trkpt lat="45.50798" lon="6.66407">
        <ele>2222.9</ele>
        <time>2012-02-22T15:56:16Z</time>
      </trkpt>
      <trkpt lat="45.50802" lon="6.66407">
        <ele>2221.5</ele>
        <time>2012-02-22T15:56:17Z</time>
      </trkpt>
      <trkpt lat="45.50804" lon="6.66402">
        <ele>2220.5</ele>
        <time>2012-02-22T15:56:18Z</time>
      </trkpt>
      <trkpt lat="45.50807" lon="6.66388">
        <ele>2216.2</ele>
        <time>2012-02-22T15:56:20Z</time>
      </trkpt>
      <trkpt lat="45.5081" lon="6.66387">
        <ele>2214.8</ele>
        <time>2012-02-22T15:56:21Z</time>
      </trkpt>
      <trkpt lat="45.50813" lon="6.66389">
        <ele>2213.4</ele>
        <time>2012-02-22T15:56:22Z</time>
      </trkpt>
      <trkpt lat="45.50818" lon="6.66395">
        <ele>2211.6</ele>
        <time>2012-02-22T15:56:24Z</time>
      </trkpt>
      <trkpt lat="45.50822" lon="6.66401">
        <ele>2208.9</ele>
        <time>2012-02-22T15:56:26Z</time>
      </trkpt>
      <trkpt lat="45.50824" lon="6.66404">
        <ele>2208.1</ele>
        <time>2012-02-22T15:56:27Z</time>
      </trkpt>
      <trkpt lat="45.50826" lon="6.66404">
        <ele>2207.2</ele>
        <time>2012-02-22T15:56:28Z</time>
      </trkpt>
      <trkpt lat="45.50828" lon="6.66402">
        <ele>2206.6</ele>
        <time>2012-02-22T15:56:29Z</time>
      </trkpt>
      <trkpt lat="45.50837" lon="6.66376">
        <ele>2200.5</ele>
        <time>2012-02-22T15:56:36Z</time>
      </trkpt>
      <trkpt lat="45.50839" lon="6.66374">
        <ele>2200</ele>
        <time>2012-02-22T15:56:37Z</time>
      </trkpt>
      <trkpt lat="45.50841" lon="6.66371">
        <ele>2199.5</ele>
        <time>2012-02-22T15:56:38Z</time>
      </trkpt>
      <trkpt lat="45.50844" lon="6.66373">
        <ele>2199.1</ele>
        <time>2012-02-22T15:56:39Z</time>
      </trkpt>
      <trkpt lat="45.5085" lon="6.6638">
        <ele>2198.3</ele>
        <time>2012-02-22T15:56:41Z</time>
      </trkpt>
      <trkpt lat="45.50854" lon="6.66381">
        <ele>2197.9</ele>
        <time>2012-02-22T15:56:42Z</time>
      </trkpt>
      <trkpt lat="45.50857" lon="6.66377">
        <ele>2197.6</ele>
        <time>2012-02-22T15:56:43Z</time>
      </trkpt>
      <trkpt lat="45.5086" lon="6.66372">
        <ele>2195.4</ele>
        <time>2012-02-22T15:56:44Z</time>
      </trkpt>
      <trkpt lat="45.50864" lon="6.66372">
        <ele>2193.8</ele>
        <time>2012-02-22T15:56:45Z</time>
      </trkpt>
      <trkpt lat="45.50866" lon="6.66374">
        <ele>2192.5</ele>
        <time>2012-02-22T15:56:46Z</time>
      </trkpt>
      <trkpt lat="45.50867" lon="6.66376">
        <ele>2190.6</ele>
        <time>2012-02-22T15:56:47Z</time>
      </trkpt>
      <trkpt lat="45.50869" lon="6.66377">
        <ele>2189.2</ele>
        <time>2012-02-22T15:56:48Z</time>
      </trkpt>
      <trkpt lat="45.50876" lon="6.66374">
        <ele>2187.4</ele>
        <time>2012-02-22T15:56:50Z</time>
      </trkpt>
      <trkpt lat="45.50879" lon="6.66374">
        <ele>2185.9</ele>
        <time>2012-02-22T15:56:51Z</time>
      </trkpt>
      <trkpt lat="45.50881" lon="6.66374">
        <ele>2184.9</ele>
        <time>2012-02-22T15:56:52Z</time>
      </trkpt>
      <trkpt lat="45.50883" lon="6.66373">
        <ele>2184.1</ele>
        <time>2012-02-22T15:56:53Z</time>
      </trkpt>
      <trkpt lat="45.50886" lon="6.66375">
        <ele>2182.6</ele>
        <time>2012-02-22T15:56:54Z</time>
      </trkpt>
      <trkpt lat="45.50889" lon="6.6638">
        <ele>2180.6</ele>
        <time>2012-02-22T15:56:56Z</time>
      </trkpt>
      <trkpt lat="45.50891" lon="6.66381">
        <ele>2178.7</ele>
        <time>2012-02-22T15:56:57Z</time>
      </trkpt>
      <trkpt lat="45.50895" lon="6.6638">
        <ele>2177.3</ele>
        <time>2012-02-22T15:56:58Z</time>
      </trkpt>
      <trkpt lat="45.50898" lon="6.66382">
        <ele>2176.2</ele>
        <time>2012-02-22T15:56:59Z</time>
      </trkpt>
      <trkpt lat="45.50903" lon="6.66391">
        <ele>2173.2</ele>
        <time>2012-02-22T15:57:01Z</time>
      </trkpt>
      <trkpt lat="45.50912" lon="6.66393">
        <ele>2169.6</ele>
        <time>2012-02-22T15:57:03Z</time>
      </trkpt>
      <trkpt lat="45.50919" lon="6.66399">
        <ele>2166.3</ele>
        <time>2012-02-22T15:57:05Z</time>
      </trkpt>
      <trkpt lat="45.50923" lon="6.66399">
        <ele>2165.2</ele>
        <time>2012-02-22T15:57:06Z</time>
      </trkpt>
      <trkpt lat="45.50927" lon="6.664">
        <ele>2163.2</ele>
        <time>2012-02-22T15:57:07Z</time>
      </trkpt>
      <trkpt lat="45.50935" lon="6.66405">
        <ele>2160.5</ele>
        <time>2012-02-22T15:57:09Z</time>
      </trkpt>
      <trkpt lat="45.50939" lon="6.66404">
        <ele>2158.1</ele>
        <time>2012-02-22T15:57:10Z</time>
      </trkpt>
      <trkpt lat="45.50943" lon="6.66401">
        <ele>2156.2</ele>
        <time>2012-02-22T15:57:11Z</time>
      </trkpt>
      <trkpt lat="45.50949" lon="6.664">
        <ele>2154.8</ele>
        <time>2012-02-22T15:57:12Z</time>
      </trkpt>
      <trkpt lat="45.5096" lon="6.66406">
        <ele>2151</ele>
        <time>2012-02-22T15:57:14Z</time>
      </trkpt>
      <trkpt lat="45.50965" lon="6.66405">
        <ele>2149.8</ele>
        <time>2012-02-22T15:57:15Z</time>
      </trkpt>
      <trkpt lat="45.50977" lon="6.66398">
        <ele>2146.8</ele>
        <time>2012-02-22T15:57:17Z</time>
      </trkpt>
      <trkpt lat="45.50985" lon="6.66397">
        <ele>2145.9</ele>
        <time>2012-02-22T15:57:18Z</time>
      </trkpt>
      <trkpt lat="45.50993" lon="6.66398">
        <ele>2143</ele>
        <time>2012-02-22T15:57:19Z</time>
      </trkpt>
      <trkpt lat="45.50999" lon="6.66401">
        <ele>2140.9</ele>
        <time>2012-02-22T15:57:20Z</time>
      </trkpt>
      <trkpt lat="45.51023" lon="6.66418">
        <ele>2134.7</ele>
        <time>2012-02-22T15:57:26Z</time>
      </trkpt>
      <trkpt lat="45.51037" lon="6.66422">
        <ele>2133.4</ele>
        <time>2012-02-22T15:57:29Z</time>
      </trkpt>
      <trkpt lat="45.51077" lon="6.66448">
        <ele>2127.9</ele>
        <time>2012-02-22T15:59:15Z</time>
      </trkpt>
      <trkpt lat="45.51082" lon="6.6645">
        <ele>2126.6</ele>
        <time>2012-02-22T15:59:19Z</time>
      </trkpt>
      <trkpt lat="45.51084" lon="6.6645">
        <ele>2126.5</ele>
        <time>2012-02-22T15:59:20Z</time>
      </trkpt>
      <trkpt lat="45.51097" lon="6.66454">
        <ele>2125.4</ele>
        <time>2012-02-22T15:59:25Z</time>
      </trkpt>
      <trkpt lat="45.51104" lon="6.6646">
        <ele>2124.1</ele>
        <time>2012-02-22T15:59:27Z</time>
      </trkpt>
      <trkpt lat="45.51111" lon="6.66461">
        <ele>2122.9</ele>
        <time>2012-02-22T15:59:29Z</time>
      </trkpt>
      <trkpt lat="45.51122" lon="6.66469">
        <ele>2121.8</ele>
        <time>2012-02-22T15:59:32Z</time>
      </trkpt>
      <trkpt lat="45.51127" lon="6.66469">
        <ele>2120.9</ele>
        <time>2012-02-22T15:59:33Z</time>
      </trkpt>
      <trkpt lat="45.51131" lon="6.66466">
        <ele>2120.3</ele>
        <time>2012-02-22T15:59:34Z</time>
      </trkpt>
      <trkpt lat="45.51136" lon="6.66465">
        <ele>2119.8</ele>
        <time>2012-02-22T15:59:35Z</time>
      </trkpt>
      <trkpt lat="45.5114" lon="6.66465">
        <ele>2119.4</ele>
        <time>2012-02-22T15:59:36Z</time>
      </trkpt>
      <trkpt lat="45.51143" lon="6.66465">
        <ele>2118.4</ele>
        <time>2012-02-22T15:59:37Z</time>
      </trkpt>
      <trkpt lat="45.51149" lon="6.66461">
        <ele>2115.4</ele>
        <time>2012-02-22T15:59:41Z</time>
      </trkpt>
      <trkpt lat="45.51149" lon="6.66461">
        <ele>2114.9</ele>
        <time>2012-02-22T15:59:42Z</time>
      </trkpt>
      <trkpt lat="45.5115" lon="6.6646">
        <ele>2114.2</ele>
        <time>2012-02-22T15:59:43Z</time>
      </trkpt>
      <trkpt lat="45.5115" lon="6.6646">
        <ele>2113.6</ele>
        <time>2012-02-22T15:59:44Z</time>
      </trkpt>
      <trkpt lat="45.51158" lon="6.66458">
        <ele>2112.6</ele>
        <time>2012-02-22T16:00:09Z</time>
      </trkpt>
      <trkpt lat="45.51162" lon="6.66459">
        <ele>2112.3</ele>
        <time>2012-02-22T16:00:10Z</time>
      </trkpt>
      <trkpt lat="45.51167" lon="6.66462">
        <ele>2112.1</ele>
        <time>2012-02-22T16:00:11Z</time>
      </trkpt>
      <trkpt lat="45.51172" lon="6.6647">
        <ele>2111.1</ele>
        <time>2012-02-22T16:00:12Z</time>
      </trkpt>
      <trkpt lat="45.51176" lon="6.66493">
        <ele>2109.7</ele>
        <time>2012-02-22T16:00:14Z</time>
      </trkpt>
      <trkpt lat="45.51182" lon="6.66502">
        <ele>2108.3</ele>
        <time>2012-02-22T16:00:15Z</time>
      </trkpt>
      <trkpt lat="45.51191" lon="6.66509">
        <ele>2107.2</ele>
        <time>2012-02-22T16:00:16Z</time>
      </trkpt>
      <trkpt lat="45.51197" lon="6.66519">
        <ele>2106.4</ele>
        <time>2012-02-22T16:00:17Z</time>
      </trkpt>
      <trkpt lat="45.51201" lon="6.66531">
        <ele>2104.6</ele>
        <time>2012-02-22T16:00:18Z</time>
      </trkpt>
      <trkpt lat="45.51209" lon="6.66539">
        <ele>2103.2</ele>
        <time>2012-02-22T16:00:19Z</time>
      </trkpt>
      <trkpt lat="45.51231" lon="6.66541">
        <ele>2099</ele>
        <time>2012-02-22T16:00:21Z</time>
      </trkpt>
      <trkpt lat="45.51251" lon="6.66557">
        <ele>2094.7</ele>
        <time>2012-02-22T16:00:23Z</time>
      </trkpt>
      <trkpt lat="45.51262" lon="6.66559">
        <ele>2091.8</ele>
        <time>2012-02-22T16:00:24Z</time>
      </trkpt>
      <trkpt lat="45.51273" lon="6.66565">
        <ele>2089.6</ele>
        <time>2012-02-22T16:00:25Z</time>
      </trkpt>
      <trkpt lat="45.51282" lon="6.66577">
        <ele>2087.9</ele>
        <time>2012-02-22T16:00:26Z</time>
      </trkpt>
      <trkpt lat="45.51292" lon="6.66587">
        <ele>2086.7</ele>
        <time>2012-02-22T16:00:27Z</time>
      </trkpt>
      <trkpt lat="45.5132" lon="6.66594">
        <ele>2080.9</ele>
        <time>2012-02-22T16:00:29Z</time>
      </trkpt>
      <trkpt lat="45.51332" lon="6.66605">
        <ele>2079</ele>
        <time>2012-02-22T16:00:30Z</time>
      </trkpt>
      <trkpt lat="45.51342" lon="6.66634">
        <ele>2070.2</ele>
        <time>2012-02-22T16:00:32Z</time>
      </trkpt>
      <trkpt lat="45.51352" lon="6.66642">
        <ele>2067.4</ele>
        <time>2012-02-22T16:00:33Z</time>
      </trkpt>
      <trkpt lat="45.51363" lon="6.66644">
        <ele>2063.4</ele>
        <time>2012-02-22T16:00:34Z</time>
      </trkpt>
      <trkpt lat="45.5137" lon="6.66655">
        <ele>2060.4</ele>
        <time>2012-02-22T16:00:35Z</time>
      </trkpt>
      <trkpt lat="45.51377" lon="6.66683">
        <ele>2055.3</ele>
        <time>2012-02-22T16:00:37Z</time>
      </trkpt>
      <trkpt lat="45.51385" lon="6.66693">
        <ele>2053.1</ele>
        <time>2012-02-22T16:00:38Z</time>
      </trkpt>
      <trkpt lat="45.51396" lon="6.66695">
        <ele>2051.5</ele>
        <time>2012-02-22T16:00:39Z</time>
      </trkpt>
      <trkpt lat="45.51406" lon="6.66701">
        <ele>2048.3</ele>
        <time>2012-02-22T16:00:40Z</time>
      </trkpt>
      <trkpt lat="45.51412" lon="6.66715">
        <ele>2045.9</ele>
        <time>2012-02-22T16:00:41Z</time>
      </trkpt>
      <trkpt lat="45.51413" lon="6.6673">
        <ele>2044.1</ele>
        <time>2012-02-22T16:00:42Z</time>
      </trkpt>
      <trkpt lat="45.51417" lon="6.66745">
        <ele>2042.8</ele>
        <time>2012-02-22T16:00:43Z</time>
      </trkpt>
      <trkpt lat="45.51438" lon="6.66757">
        <ele>2037.2</ele>
        <time>2012-02-22T16:00:45Z</time>
      </trkpt>
      <trkpt lat="45.51444" lon="6.66769">
        <ele>2035.5</ele>
        <time>2012-02-22T16:00:46Z</time>
      </trkpt>
      <trkpt lat="45.51446" lon="6.6678">
        <ele>2032.2</ele>
        <time>2012-02-22T16:00:47Z</time>
      </trkpt>
      <trkpt lat="45.51454" lon="6.66798">
        <ele>2025.2</ele>
        <time>2012-02-22T16:00:50Z</time>
      </trkpt>
      <trkpt lat="45.51455" lon="6.66802">
        <ele>2023.3</ele>
        <time>2012-02-22T16:00:51Z</time>
      </trkpt>
      <trkpt lat="45.51455" lon="6.66807">
        <ele>2021.9</ele>
        <time>2012-02-22T16:00:52Z</time>
      </trkpt>
      <trkpt lat="45.51455" lon="6.66812">
        <ele>2020.5</ele>
        <time>2012-02-22T16:00:53Z</time>
      </trkpt>
      <trkpt lat="45.51457" lon="6.66819">
        <ele>2019.6</ele>
        <time>2012-02-22T16:00:54Z</time>
      </trkpt>
      <trkpt lat="45.51461" lon="6.66826">
        <ele>2018.8</ele>
        <time>2012-02-22T16:00:55Z</time>
      </trkpt>
      <trkpt lat="45.51471" lon="6.66837">
        <ele>2015</ele>
        <time>2012-02-22T16:00:57Z</time>
      </trkpt>
      <trkpt lat="45.51475" lon="6.66846">
        <ele>2013.8</ele>
        <time>2012-02-22T16:00:58Z</time>
      </trkpt>
      <trkpt lat="45.51485" lon="6.66859">
        <ele>2011</ele>
        <time>2012-02-22T16:01:00Z</time>
      </trkpt>
      <trkpt lat="45.51492" lon="6.66875">
        <ele>2008.5</ele>
        <time>2012-02-22T16:01:02Z</time>
      </trkpt>
      <trkpt lat="45.51496" lon="6.66882">
        <ele>2006.6</ele>
        <time>2012-02-22T16:01:03Z</time>
      </trkpt>
      <trkpt lat="45.51501" lon="6.66886">
        <ele>2005.2</ele>
        <time>2012-02-22T16:01:04Z</time>
      </trkpt>
      <trkpt lat="45.51505" lon="6.66887">
        <ele>2004.2</ele>
        <time>2012-02-22T16:01:05Z</time>
      </trkpt>
      <trkpt lat="45.51509" lon="6.66888">
        <ele>2001.7</ele>
        <time>2012-02-22T16:01:07Z</time>
      </trkpt>
      <trkpt lat="45.5151" lon="6.66888">
        <ele>2000.9</ele>
        <time>2012-02-22T16:01:08Z</time>
      </trkpt>
      <trkpt lat="45.51511" lon="6.66889">
        <ele>2000.6</ele>
        <time>2012-02-22T16:01:09Z</time>
      </trkpt>
      <trkpt lat="45.51512" lon="6.66888">
        <ele>2000.4</ele>
        <time>2012-02-22T16:01:10Z</time>
      </trkpt>
      <trkpt lat="45.51513" lon="6.66888">
        <ele>2000.2</ele>
        <time>2012-02-22T16:01:11Z</time>
      </trkpt>
      <trkpt lat="45.51515" lon="6.66885">
        <ele>1999.6</ele>
        <time>2012-02-22T16:01:18Z</time>
      </trkpt>
      <trkpt lat="45.51516" lon="6.66885">
        <ele>1999.3</ele>
        <time>2012-02-22T16:01:19Z</time>
      </trkpt>
      <trkpt lat="45.51516" lon="6.66884">
        <ele>1999</ele>
        <time>2012-02-22T16:01:20Z</time>
      </trkpt>
      <trkpt lat="45.51517" lon="6.66883">
        <ele>1998.8</ele>
        <time>2012-02-22T16:01:21Z</time>
      </trkpt>
      <trkpt lat="45.51517" lon="6.66883">
        <ele>1998.6</ele>
        <time>2012-02-22T16:01:22Z</time>
      </trkpt>
      <trkpt lat="45.51518" lon="6.66882">
        <ele>1998.4</ele>
        <time>2012-02-22T16:01:23Z</time>
      </trkpt>
      <trkpt lat="45.51518" lon="6.66882">
        <ele>1998.2</ele>
        <time>2012-02-22T16:01:24Z</time>
      </trkpt>
      <trkpt lat="45.51518" lon="6.66881">
        <ele>1998.5</ele>
        <time>2012-02-22T16:01:25Z</time>
      </trkpt>
      <trkpt lat="45.51519" lon="6.6688">
        <ele>1998.7</ele>
        <time>2012-02-22T16:01:26Z</time>
      </trkpt>
      <trkpt lat="45.51519" lon="6.66879">
        <ele>1998.9</ele>
        <time>2012-02-22T16:01:27Z</time>
      </trkpt>
      <trkpt lat="45.51521" lon="6.66875">
        <ele>1998.2</ele>
        <time>2012-02-22T16:01:29Z</time>
      </trkpt>
      <trkpt lat="45.51522" lon="6.66873">
        <ele>1998.4</ele>
        <time>2012-02-22T16:01:31Z</time>
      </trkpt>
      <trkpt lat="45.51522" lon="6.66872">
        <ele>1998.8</ele>
        <time>2012-02-22T16:01:32Z</time>
      </trkpt>
      <trkpt lat="45.51522" lon="6.66871">
        <ele>1999.1</ele>
        <time>2012-02-22T16:01:33Z</time>
      </trkpt>
      <trkpt lat="45.51522" lon="6.66871">
        <ele>1999.3</ele>
        <time>2012-02-22T16:01:34Z</time>
      </trkpt>
      <trkpt lat="45.51522" lon="6.6687">
        <ele>1999.6</ele>
        <time>2012-02-22T16:01:35Z</time>
      </trkpt>
      <trkpt lat="45.51522" lon="6.66869">
        <ele>1999.8</ele>
        <time>2012-02-22T16:01:36Z</time>
      </trkpt>
      <trkpt lat="45.51522" lon="6.66869">
        <ele>2000</ele>
        <time>2012-02-22T16:01:37Z</time>
      </trkpt>
      <trkpt lat="45.51522" lon="6.66868">
        <ele>1999.2</ele>
        <time>2012-02-22T16:01:38Z</time>
      </trkpt>
      <trkpt lat="45.51522" lon="6.66867">
        <ele>1998.6</ele>
        <time>2012-02-22T16:01:39Z</time>
      </trkpt>
      <trkpt lat="45.51522" lon="6.66867">
        <ele>1998.1</ele>
        <time>2012-02-22T16:01:40Z</time>
      </trkpt>
      <trkpt lat="45.51521" lon="6.66866">
        <ele>1998.3</ele>
        <time>2012-02-22T16:01:41Z</time>
      </trkpt>
      <trkpt lat="45.51521" lon="6.66866">
        <ele>1998.5</ele>
        <time>2012-02-22T16:01:42Z</time>
      </trkpt>
      <trkpt lat="45.5152" lon="6.66865">
        <ele>1998.7</ele>
        <time>2012-02-22T16:01:43Z</time>
      </trkpt>
      <trkpt lat="45.5152" lon="6.66865">
        <ele>1999</ele>
        <time>2012-02-22T16:01:44Z</time>
      </trkpt>
      <trkpt lat="45.51519" lon="6.66864">
        <ele>1999.2</ele>
        <time>2012-02-22T16:01:45Z</time>
      </trkpt>
      <trkpt lat="45.51518" lon="6.66863">
        <ele>1999.4</ele>
        <time>2012-02-22T16:01:46Z</time>
      </trkpt>
      <trkpt lat="45.51515" lon="6.6686">
        <ele>1998.3</ele>
        <time>2012-02-22T16:01:53Z</time>
      </trkpt>
      <trkpt lat="45.51514" lon="6.66859">
        <ele>1998.1</ele>
        <time>2012-02-22T16:01:54Z</time>
      </trkpt>
      <trkpt lat="45.51513" lon="6.66857">
        <ele>1998</ele>
        <time>2012-02-22T16:01:55Z</time>
      </trkpt>
      <trkpt lat="45.51512" lon="6.66857">
        <ele>1998</ele>
        <time>2012-02-22T16:01:56Z</time>
      </trkpt>
      <trkpt lat="45.51509" lon="6.66854">
        <ele>1997.9</ele>
        <time>2012-02-22T16:01:58Z</time>
      </trkpt>
      <trkpt lat="45.51509" lon="6.66853">
        <ele>1997.8</ele>
        <time>2012-02-22T16:01:59Z</time>
      </trkpt>
      <trkpt lat="45.51508" lon="6.66852">
        <ele>1998.4</ele>
        <time>2012-02-22T16:02:00Z</time>
      </trkpt>
      <trkpt lat="45.51505" lon="6.66849">
        <ele>1999.1</ele>
        <time>2012-02-22T16:02:02Z</time>
      </trkpt>
      <trkpt lat="45.51504" lon="6.66848">
        <ele>1999.7</ele>
        <time>2012-02-22T16:02:03Z</time>
      </trkpt>
      <trkpt lat="45.5149" lon="6.66835">
        <ele>2005.5</ele>
        <time>2012-02-22T16:02:13Z</time>
      </trkpt>
      <trkpt lat="45.51489" lon="6.66833">
        <ele>2006.5</ele>
        <time>2012-02-22T16:02:14Z</time>
      </trkpt>
      <trkpt lat="45.51485" lon="6.6683">
        <ele>2007.8</ele>
        <time>2012-02-22T16:02:16Z</time>
      </trkpt>
      <trkpt lat="45.51483" lon="6.66828">
        <ele>2008.6</ele>
        <time>2012-02-22T16:02:18Z</time>
      </trkpt>
      <trkpt lat="45.51482" lon="6.66826">
        <ele>2009.8</ele>
        <time>2012-02-22T16:02:19Z</time>
      </trkpt>
      <trkpt lat="45.5136" lon="6.66699">
        <ele>2048.6</ele>
        <time>2012-02-22T16:03:47Z</time>
      </trkpt>
      <trkpt lat="45.51359" lon="6.66697">
        <ele>2048.6</ele>
        <time>2012-02-22T16:03:48Z</time>
      </trkpt>
      <trkpt lat="45.51357" lon="6.66696">
        <ele>2049.2</ele>
        <time>2012-02-22T16:03:49Z</time>
      </trkpt>
      <trkpt lat="45.51196" lon="6.66532">
        <ele>2100.3</ele>
        <time>2012-02-22T16:05:47Z</time>
      </trkpt>
      <trkpt lat="45.51195" lon="6.66531">
        <ele>2100.6</ele>
        <time>2012-02-22T16:05:48Z</time>
      </trkpt>
      <trkpt lat="45.51129" lon="6.66459">
        <ele>2119.3</ele>
        <time>2012-02-22T16:06:37Z</time>
      </trkpt>
      <trkpt lat="45.51126" lon="6.66454">
        <ele>2121.5</ele>
        <time>2012-02-22T16:06:41Z</time>
      </trkpt>
      <trkpt lat="45.51125" lon="6.66452">
        <ele>2121.7</ele>
        <time>2012-02-22T16:06:42Z</time>
      </trkpt>
      <trkpt lat="45.51124" lon="6.66451">
        <ele>2121.8</ele>
        <time>2012-02-22T16:06:43Z</time>
      </trkpt>
      <trkpt lat="45.51124" lon="6.6645">
        <ele>2122</ele>
        <time>2012-02-22T16:06:44Z</time>
      </trkpt>
      <trkpt lat="45.51122" lon="6.66447">
        <ele>2122.2</ele>
        <time>2012-02-22T16:06:46Z</time>
      </trkpt>
      <trkpt lat="45.5112" lon="6.66446">
        <ele>2123.1</ele>
        <time>2012-02-22T16:06:47Z</time>
      </trkpt>
      <trkpt lat="45.5111" lon="6.66435">
        <ele>2126.3</ele>
        <time>2012-02-22T16:06:54Z</time>
      </trkpt>
      <trkpt lat="45.51108" lon="6.66433">
        <ele>2126.6</ele>
        <time>2012-02-22T16:06:55Z</time>
      </trkpt>
      <trkpt lat="45.51107" lon="6.66432">
        <ele>2126.8</ele>
        <time>2012-02-22T16:06:56Z</time>
      </trkpt>
      <trkpt lat="45.51088" lon="6.66414">
        <ele>2128.9</ele>
        <time>2012-02-22T16:07:09Z</time>
      </trkpt>
      <trkpt lat="45.51087" lon="6.66412">
        <ele>2129</ele>
        <time>2012-02-22T16:07:10Z</time>
      </trkpt>
      <trkpt lat="45.51078" lon="6.66403">
        <ele>2130.1</ele>
        <time>2012-02-22T16:07:16Z</time>
      </trkpt>
      <trkpt lat="45.51063" lon="6.66383">
        <ele>2129.8</ele>
        <time>2012-02-22T16:07:29Z</time>
      </trkpt>
      <trkpt lat="45.51062" lon="6.66383">
        <ele>2130.1</ele>
        <time>2012-02-22T16:07:30Z</time>
      </trkpt>
      <trkpt lat="45.51059" lon="6.6638">
        <ele>2130.8</ele>
        <time>2012-02-22T16:07:32Z</time>
      </trkpt>
      <trkpt lat="45.51057" lon="6.66378">
        <ele>2131.1</ele>
        <time>2012-02-22T16:07:33Z</time>
      </trkpt>
      <trkpt lat="45.51054" lon="6.66378">
        <ele>2131.4</ele>
        <time>2012-02-22T16:07:34Z</time>
      </trkpt>
      <trkpt lat="45.51052" lon="6.66379">
        <ele>2130.9</ele>
        <time>2012-02-22T16:07:35Z</time>
      </trkpt>
      <trkpt lat="45.5105" lon="6.66381">
        <ele>2130.6</ele>
        <time>2012-02-22T16:07:36Z</time>
      </trkpt>
      <trkpt lat="45.51049" lon="6.66384">
        <ele>2130.3</ele>
        <time>2012-02-22T16:07:37Z</time>
      </trkpt>
      <trkpt lat="45.51048" lon="6.66387">
        <ele>2130.1</ele>
        <time>2012-02-22T16:07:38Z</time>
      </trkpt>
      <trkpt lat="45.51048" lon="6.66391">
        <ele>2130</ele>
        <time>2012-02-22T16:07:39Z</time>
      </trkpt>
      <trkpt lat="45.51049" lon="6.66394">
        <ele>2129.9</ele>
        <time>2012-02-22T16:07:40Z</time>
      </trkpt>
      <trkpt lat="45.5105" lon="6.66398">
        <ele>2129.8</ele>
        <time>2012-02-22T16:07:41Z</time>
      </trkpt>
      <trkpt lat="45.51051" lon="6.66402">
        <ele>2129.9</ele>
        <time>2012-02-22T16:07:42Z</time>
      </trkpt>
      <trkpt lat="45.51053" lon="6.66405">
        <ele>2130</ele>
        <time>2012-02-22T16:07:43Z</time>
      </trkpt>
      <trkpt lat="45.51055" lon="6.66408">
        <ele>2130</ele>
        <time>2012-02-22T16:07:44Z</time>
      </trkpt>
      <trkpt lat="45.5109" lon="6.66443">
        <ele>2126.4</ele>
        <time>2012-02-22T16:07:56Z</time>
      </trkpt>
      <trkpt lat="45.51092" lon="6.66446">
        <ele>2126.1</ele>
        <time>2012-02-22T16:07:57Z</time>
      </trkpt>
      <trkpt lat="45.51094" lon="6.66449">
        <ele>2125.5</ele>
        <time>2012-02-22T16:07:58Z</time>
      </trkpt>
      <trkpt lat="45.51094" lon="6.66453">
        <ele>2125</ele>
        <time>2012-02-22T16:07:59Z</time>
      </trkpt>
      <trkpt lat="45.51093" lon="6.66458">
        <ele>2124.7</ele>
        <time>2012-02-22T16:08:00Z</time>
      </trkpt>
      <trkpt lat="45.51084" lon="6.66478">
        <ele>2120</ele>
        <time>2012-02-22T16:08:03Z</time>
      </trkpt>
      <trkpt lat="45.5109" lon="6.66489">
        <ele>2116.4</ele>
        <time>2012-02-22T16:08:55Z</time>
      </trkpt>
      <trkpt lat="45.51092" lon="6.66491">
        <ele>2116.1</ele>
        <time>2012-02-22T16:08:57Z</time>
      </trkpt>
      <trkpt lat="45.51092" lon="6.66492">
        <ele>2116.5</ele>
        <time>2012-02-22T16:08:58Z</time>
      </trkpt>
    </trkseg>
  </trk>
</gpx>